<?xml version="1.0" encoding="UTF-8" standalone="no" ?>
<gpx xmlns="http://www.topografix.com/GPX/1/1" xmlns:xsi="http://www.w3.org/2001/XMLSchema-instance" xsi:schemaLocation="http://www.topografix.com/GPX/1/1 http://www.topografix.com/GPX/1/1/gpx.xsd" version="1.1" creator="VisuGPX - https://www.visugpx.com">
  <metadata>
    <name>sortie GR69 du 15 janvier 2012</name>
    <desc><![CDATA[sortie longue, batons]]></desc>
  </metadata>
  <trk>
    <name><![CDATA[2012-01-15T07:39:56Z]]></name>
    <trkseg>
      <trkpt lat="45.84527" lon="4.83086">
        <ele>171</ele>
        <time>2012-01-15T07:39:56Z</time>
      </trkpt>
      <trkpt lat="45.84527" lon="4.83082">
        <ele>172</ele>
        <time>2012-01-15T07:40:03Z</time>
      </trkpt>
      <trkpt lat="45.84524" lon="4.83069">
        <ele>172</ele>
        <time>2012-01-15T07:40:07Z</time>
      </trkpt>
      <trkpt lat="45.84526" lon="4.83058">
        <ele>172</ele>
        <time>2012-01-15T07:40:09Z</time>
      </trkpt>
      <trkpt lat="45.84527" lon="4.83045">
        <ele>172</ele>
        <time>2012-01-15T07:40:12Z</time>
      </trkpt>
      <trkpt lat="45.84527" lon="4.83038">
        <ele>172</ele>
        <time>2012-01-15T07:40:13Z</time>
      </trkpt>
      <trkpt lat="45.84524" lon="4.83029">
        <ele>173</ele>
        <time>2012-01-15T07:40:17Z</time>
      </trkpt>
      <trkpt lat="45.84517" lon="4.83008">
        <ele>173</ele>
        <time>2012-01-15T07:40:23Z</time>
      </trkpt>
      <trkpt lat="45.84516" lon="4.83003">
        <ele>174</ele>
        <time>2012-01-15T07:40:26Z</time>
      </trkpt>
      <trkpt lat="45.84514" lon="4.82997">
        <ele>175</ele>
        <time>2012-01-15T07:40:28Z</time>
      </trkpt>
      <trkpt lat="45.84507" lon="4.82978">
        <ele>176</ele>
        <time>2012-01-15T07:40:35Z</time>
      </trkpt>
      <trkpt lat="45.84503" lon="4.82963">
        <ele>176</ele>
        <time>2012-01-15T07:40:40Z</time>
      </trkpt>
      <trkpt lat="45.84501" lon="4.82954">
        <ele>177</ele>
        <time>2012-01-15T07:40:43Z</time>
      </trkpt>
      <trkpt lat="45.84499" lon="4.82946">
        <ele>177</ele>
        <time>2012-01-15T07:40:45Z</time>
      </trkpt>
      <trkpt lat="45.84497" lon="4.82929">
        <ele>179</ele>
        <time>2012-01-15T07:40:51Z</time>
      </trkpt>
      <trkpt lat="45.845" lon="4.8292">
        <ele>180</ele>
        <time>2012-01-15T07:40:53Z</time>
      </trkpt>
      <trkpt lat="45.84502" lon="4.82918">
        <ele>180</ele>
        <time>2012-01-15T07:40:55Z</time>
      </trkpt>
      <trkpt lat="45.8451" lon="4.82916">
        <ele>180</ele>
        <time>2012-01-15T07:40:58Z</time>
      </trkpt>
      <trkpt lat="45.84512" lon="4.82915">
        <ele>181</ele>
        <time>2012-01-15T07:41:00Z</time>
      </trkpt>
      <trkpt lat="45.84522" lon="4.8291">
        <ele>181</ele>
        <time>2012-01-15T07:41:04Z</time>
      </trkpt>
      <trkpt lat="45.84531" lon="4.829">
        <ele>181</ele>
        <time>2012-01-15T07:41:09Z</time>
      </trkpt>
      <trkpt lat="45.84536" lon="4.82895">
        <ele>181</ele>
        <time>2012-01-15T07:41:12Z</time>
      </trkpt>
      <trkpt lat="45.84539" lon="4.82892">
        <ele>181</ele>
        <time>2012-01-15T07:41:15Z</time>
      </trkpt>
      <trkpt lat="45.84544" lon="4.8289">
        <ele>181</ele>
        <time>2012-01-15T07:41:18Z</time>
      </trkpt>
      <trkpt lat="45.84549" lon="4.82885">
        <ele>181</ele>
        <time>2012-01-15T07:41:20Z</time>
      </trkpt>
      <trkpt lat="45.84556" lon="4.82876">
        <ele>182</ele>
        <time>2012-01-15T07:41:24Z</time>
      </trkpt>
      <trkpt lat="45.84563" lon="4.82877">
        <ele>182</ele>
        <time>2012-01-15T07:41:27Z</time>
      </trkpt>
      <trkpt lat="45.8457" lon="4.8288">
        <ele>181</ele>
        <time>2012-01-15T07:41:30Z</time>
      </trkpt>
      <trkpt lat="45.84578" lon="4.82878">
        <ele>181</ele>
        <time>2012-01-15T07:41:34Z</time>
      </trkpt>
      <trkpt lat="45.84579" lon="4.82876">
        <ele>182</ele>
        <time>2012-01-15T07:41:35Z</time>
      </trkpt>
      <trkpt lat="45.8458" lon="4.82874">
        <ele>182</ele>
        <time>2012-01-15T07:41:36Z</time>
      </trkpt>
      <trkpt lat="45.84586" lon="4.82865">
        <ele>182</ele>
        <time>2012-01-15T07:41:40Z</time>
      </trkpt>
      <trkpt lat="45.84596" lon="4.82866">
        <ele>181</ele>
        <time>2012-01-15T07:41:44Z</time>
      </trkpt>
      <trkpt lat="45.84598" lon="4.82868">
        <ele>181</ele>
        <time>2012-01-15T07:41:45Z</time>
      </trkpt>
      <trkpt lat="45.84611" lon="4.8287">
        <ele>181</ele>
        <time>2012-01-15T07:41:50Z</time>
      </trkpt>
      <trkpt lat="45.84614" lon="4.82872">
        <ele>181</ele>
        <time>2012-01-15T07:41:52Z</time>
      </trkpt>
      <trkpt lat="45.84623" lon="4.82879">
        <ele>180</ele>
        <time>2012-01-15T07:41:55Z</time>
      </trkpt>
      <trkpt lat="45.84632" lon="4.82881">
        <ele>180</ele>
        <time>2012-01-15T07:42:00Z</time>
      </trkpt>
      <trkpt lat="45.84634" lon="4.82882">
        <ele>180</ele>
        <time>2012-01-15T07:42:01Z</time>
      </trkpt>
      <trkpt lat="45.8465" lon="4.82885">
        <ele>179</ele>
        <time>2012-01-15T07:42:07Z</time>
      </trkpt>
      <trkpt lat="45.84667" lon="4.8289">
        <ele>179</ele>
        <time>2012-01-15T07:42:15Z</time>
      </trkpt>
      <trkpt lat="45.84679" lon="4.82894">
        <ele>179</ele>
        <time>2012-01-15T07:42:19Z</time>
      </trkpt>
      <trkpt lat="45.84685" lon="4.82895">
        <ele>179</ele>
        <time>2012-01-15T07:42:23Z</time>
      </trkpt>
      <trkpt lat="45.84693" lon="4.82897">
        <ele>180</ele>
        <time>2012-01-15T07:42:25Z</time>
      </trkpt>
      <trkpt lat="45.84703" lon="4.82899">
        <ele>180</ele>
        <time>2012-01-15T07:42:30Z</time>
      </trkpt>
      <trkpt lat="45.84706" lon="4.829">
        <ele>180</ele>
        <time>2012-01-15T07:42:31Z</time>
      </trkpt>
      <trkpt lat="45.84715" lon="4.82903">
        <ele>180</ele>
        <time>2012-01-15T07:42:35Z</time>
      </trkpt>
      <trkpt lat="45.84717" lon="4.82903">
        <ele>180</ele>
        <time>2012-01-15T07:42:36Z</time>
      </trkpt>
      <trkpt lat="45.84722" lon="4.82904">
        <ele>180</ele>
        <time>2012-01-15T07:42:38Z</time>
      </trkpt>
      <trkpt lat="45.84731" lon="4.82906">
        <ele>179</ele>
        <time>2012-01-15T07:42:42Z</time>
      </trkpt>
      <trkpt lat="45.84741" lon="4.82909">
        <ele>178</ele>
        <time>2012-01-15T07:42:46Z</time>
      </trkpt>
      <trkpt lat="45.84748" lon="4.82911">
        <ele>177</ele>
        <time>2012-01-15T07:42:49Z</time>
      </trkpt>
      <trkpt lat="45.8476" lon="4.82913">
        <ele>180</ele>
        <time>2012-01-15T07:42:54Z</time>
      </trkpt>
      <trkpt lat="45.84762" lon="4.82914">
        <ele>180</ele>
        <time>2012-01-15T07:42:55Z</time>
      </trkpt>
      <trkpt lat="45.84774" lon="4.82918">
        <ele>176</ele>
        <time>2012-01-15T07:43:01Z</time>
      </trkpt>
      <trkpt lat="45.84778" lon="4.82919">
        <ele>176</ele>
        <time>2012-01-15T07:43:03Z</time>
      </trkpt>
      <trkpt lat="45.84791" lon="4.82923">
        <ele>176</ele>
        <time>2012-01-15T07:43:08Z</time>
      </trkpt>
      <trkpt lat="45.84796" lon="4.82924">
        <ele>176</ele>
        <time>2012-01-15T07:43:09Z</time>
      </trkpt>
      <trkpt lat="45.84804" lon="4.82928">
        <ele>176</ele>
        <time>2012-01-15T07:43:14Z</time>
      </trkpt>
      <trkpt lat="45.84812" lon="4.82932">
        <ele>177</ele>
        <time>2012-01-15T07:43:18Z</time>
      </trkpt>
      <trkpt lat="45.84815" lon="4.82933">
        <ele>177</ele>
        <time>2012-01-15T07:43:19Z</time>
      </trkpt>
      <trkpt lat="45.84827" lon="4.82936">
        <ele>177</ele>
        <time>2012-01-15T07:43:23Z</time>
      </trkpt>
      <trkpt lat="45.84833" lon="4.82938">
        <ele>179</ele>
        <time>2012-01-15T07:43:26Z</time>
      </trkpt>
      <trkpt lat="45.84838" lon="4.8294">
        <ele>179</ele>
        <time>2012-01-15T07:43:29Z</time>
      </trkpt>
      <trkpt lat="45.84848" lon="4.82949">
        <ele>178</ele>
        <time>2012-01-15T07:43:33Z</time>
      </trkpt>
      <trkpt lat="45.84851" lon="4.82952">
        <ele>178</ele>
        <time>2012-01-15T07:43:35Z</time>
      </trkpt>
      <trkpt lat="45.84862" lon="4.82959">
        <ele>178</ele>
        <time>2012-01-15T07:43:39Z</time>
      </trkpt>
      <trkpt lat="45.84869" lon="4.82963">
        <ele>178</ele>
        <time>2012-01-15T07:43:43Z</time>
      </trkpt>
      <trkpt lat="45.84873" lon="4.82965">
        <ele>178</ele>
        <time>2012-01-15T07:43:45Z</time>
      </trkpt>
      <trkpt lat="45.84889" lon="4.82969">
        <ele>178</ele>
        <time>2012-01-15T07:43:51Z</time>
      </trkpt>
      <trkpt lat="45.84891" lon="4.82969">
        <ele>178</ele>
        <time>2012-01-15T07:43:52Z</time>
      </trkpt>
      <trkpt lat="45.84904" lon="4.82968">
        <ele>178</ele>
        <time>2012-01-15T07:43:57Z</time>
      </trkpt>
      <trkpt lat="45.84907" lon="4.82969">
        <ele>178</ele>
        <time>2012-01-15T07:43:58Z</time>
      </trkpt>
      <trkpt lat="45.84918" lon="4.82973">
        <ele>178</ele>
        <time>2012-01-15T07:44:03Z</time>
      </trkpt>
      <trkpt lat="45.84924" lon="4.82979">
        <ele>177</ele>
        <time>2012-01-15T07:44:06Z</time>
      </trkpt>
      <trkpt lat="45.84929" lon="4.82983">
        <ele>177</ele>
        <time>2012-01-15T07:44:08Z</time>
      </trkpt>
      <trkpt lat="45.8494" lon="4.82992">
        <ele>177</ele>
        <time>2012-01-15T07:44:13Z</time>
      </trkpt>
      <trkpt lat="45.84942" lon="4.82994">
        <ele>177</ele>
        <time>2012-01-15T07:44:14Z</time>
      </trkpt>
      <trkpt lat="45.84954" lon="4.83004">
        <ele>172</ele>
        <time>2012-01-15T07:44:19Z</time>
      </trkpt>
      <trkpt lat="45.84956" lon="4.83006">
        <ele>172</ele>
        <time>2012-01-15T07:44:20Z</time>
      </trkpt>
      <trkpt lat="45.84966" lon="4.83012">
        <ele>172</ele>
        <time>2012-01-15T07:44:24Z</time>
      </trkpt>
      <trkpt lat="45.84973" lon="4.83016">
        <ele>172</ele>
        <time>2012-01-15T07:44:27Z</time>
      </trkpt>
      <trkpt lat="45.84977" lon="4.83019">
        <ele>172</ele>
        <time>2012-01-15T07:44:29Z</time>
      </trkpt>
      <trkpt lat="45.84993" lon="4.83023">
        <ele>172</ele>
        <time>2012-01-15T07:44:35Z</time>
      </trkpt>
      <trkpt lat="45.84995" lon="4.83024">
        <ele>172</ele>
        <time>2012-01-15T07:44:36Z</time>
      </trkpt>
      <trkpt lat="45.8501" lon="4.83028">
        <ele>173</ele>
        <time>2012-01-15T07:44:41Z</time>
      </trkpt>
      <trkpt lat="45.85012" lon="4.83029">
        <ele>173</ele>
        <time>2012-01-15T07:44:43Z</time>
      </trkpt>
      <trkpt lat="45.85025" lon="4.83031">
        <ele>173</ele>
        <time>2012-01-15T07:44:48Z</time>
      </trkpt>
      <trkpt lat="45.85032" lon="4.83033">
        <ele>173</ele>
        <time>2012-01-15T07:44:51Z</time>
      </trkpt>
      <trkpt lat="45.85039" lon="4.83034">
        <ele>173</ele>
        <time>2012-01-15T07:44:53Z</time>
      </trkpt>
      <trkpt lat="45.85051" lon="4.83035">
        <ele>173</ele>
        <time>2012-01-15T07:44:58Z</time>
      </trkpt>
      <trkpt lat="45.85054" lon="4.83036">
        <ele>173</ele>
        <time>2012-01-15T07:44:59Z</time>
      </trkpt>
      <trkpt lat="45.85071" lon="4.83039">
        <ele>174</ele>
        <time>2012-01-15T07:45:06Z</time>
      </trkpt>
      <trkpt lat="45.85087" lon="4.83041">
        <ele>174</ele>
        <time>2012-01-15T07:45:12Z</time>
      </trkpt>
      <trkpt lat="45.8509" lon="4.83041">
        <ele>174</ele>
        <time>2012-01-15T07:45:13Z</time>
      </trkpt>
      <trkpt lat="45.85102" lon="4.83041">
        <ele>174</ele>
        <time>2012-01-15T07:45:19Z</time>
      </trkpt>
      <trkpt lat="45.85109" lon="4.83041">
        <ele>174</ele>
        <time>2012-01-15T07:45:22Z</time>
      </trkpt>
      <trkpt lat="45.85125" lon="4.83042">
        <ele>174</ele>
        <time>2012-01-15T07:45:29Z</time>
      </trkpt>
      <trkpt lat="45.85129" lon="4.83043">
        <ele>175</ele>
        <time>2012-01-15T07:45:31Z</time>
      </trkpt>
      <trkpt lat="45.85138" lon="4.83044">
        <ele>175</ele>
        <time>2012-01-15T07:45:35Z</time>
      </trkpt>
      <trkpt lat="45.85148" lon="4.83046">
        <ele>175</ele>
        <time>2012-01-15T07:45:39Z</time>
      </trkpt>
      <trkpt lat="45.85154" lon="4.83047">
        <ele>174</ele>
        <time>2012-01-15T07:45:42Z</time>
      </trkpt>
      <trkpt lat="45.8516" lon="4.83046">
        <ele>175</ele>
        <time>2012-01-15T07:45:45Z</time>
      </trkpt>
      <trkpt lat="45.85161" lon="4.83046">
        <ele>175</ele>
        <time>2012-01-15T07:45:46Z</time>
      </trkpt>
      <trkpt lat="45.85166" lon="4.83047">
        <ele>175</ele>
        <time>2012-01-15T07:45:48Z</time>
      </trkpt>
      <trkpt lat="45.85168" lon="4.83047">
        <ele>175</ele>
        <time>2012-01-15T07:45:49Z</time>
      </trkpt>
      <trkpt lat="45.85172" lon="4.83048">
        <ele>175</ele>
        <time>2012-01-15T07:45:52Z</time>
      </trkpt>
      <trkpt lat="45.85184" lon="4.83046">
        <ele>175</ele>
        <time>2012-01-15T07:45:57Z</time>
      </trkpt>
      <trkpt lat="45.85191" lon="4.8304">
        <ele>175</ele>
        <time>2012-01-15T07:46:03Z</time>
      </trkpt>
      <trkpt lat="45.85192" lon="4.83031">
        <ele>175</ele>
        <time>2012-01-15T07:46:08Z</time>
      </trkpt>
      <trkpt lat="45.85193" lon="4.83024">
        <ele>176</ele>
        <time>2012-01-15T07:46:11Z</time>
      </trkpt>
      <trkpt lat="45.85194" lon="4.83016">
        <ele>176</ele>
        <time>2012-01-15T07:46:15Z</time>
      </trkpt>
      <trkpt lat="45.85196" lon="4.82998">
        <ele>181</ele>
        <time>2012-01-15T07:46:23Z</time>
      </trkpt>
      <trkpt lat="45.85196" lon="4.82994">
        <ele>181</ele>
        <time>2012-01-15T07:46:25Z</time>
      </trkpt>
      <trkpt lat="45.85197" lon="4.82982">
        <ele>182</ele>
        <time>2012-01-15T07:46:31Z</time>
      </trkpt>
      <trkpt lat="45.85197" lon="4.82971">
        <ele>182</ele>
        <time>2012-01-15T07:46:36Z</time>
      </trkpt>
      <trkpt lat="45.85198" lon="4.82965">
        <ele>183</ele>
        <time>2012-01-15T07:46:39Z</time>
      </trkpt>
      <trkpt lat="45.85199" lon="4.8295">
        <ele>184</ele>
        <time>2012-01-15T07:46:46Z</time>
      </trkpt>
      <trkpt lat="45.85199" lon="4.82945">
        <ele>184</ele>
        <time>2012-01-15T07:46:48Z</time>
      </trkpt>
      <trkpt lat="45.852" lon="4.82935">
        <ele>185</ele>
        <time>2012-01-15T07:46:53Z</time>
      </trkpt>
      <trkpt lat="45.85201" lon="4.82923">
        <ele>186</ele>
        <time>2012-01-15T07:46:59Z</time>
      </trkpt>
      <trkpt lat="45.85201" lon="4.82919">
        <ele>186</ele>
        <time>2012-01-15T07:47:02Z</time>
      </trkpt>
      <trkpt lat="45.85202" lon="4.8291">
        <ele>194</ele>
        <time>2012-01-15T07:47:08Z</time>
      </trkpt>
      <trkpt lat="45.85204" lon="4.82893">
        <ele>195</ele>
        <time>2012-01-15T07:47:17Z</time>
      </trkpt>
      <trkpt lat="45.85204" lon="4.82889">
        <ele>195</ele>
        <time>2012-01-15T07:47:18Z</time>
      </trkpt>
      <trkpt lat="45.85207" lon="4.82871">
        <ele>196</ele>
        <time>2012-01-15T07:47:29Z</time>
      </trkpt>
      <trkpt lat="45.85208" lon="4.82868">
        <ele>197</ele>
        <time>2012-01-15T07:47:31Z</time>
      </trkpt>
      <trkpt lat="45.85211" lon="4.82853">
        <ele>198</ele>
        <time>2012-01-15T07:47:39Z</time>
      </trkpt>
      <trkpt lat="45.85213" lon="4.82842">
        <ele>198</ele>
        <time>2012-01-15T07:47:45Z</time>
      </trkpt>
      <trkpt lat="45.85215" lon="4.82837">
        <ele>198</ele>
        <time>2012-01-15T07:47:48Z</time>
      </trkpt>
      <trkpt lat="45.85219" lon="4.8282">
        <ele>208</ele>
        <time>2012-01-15T07:47:58Z</time>
      </trkpt>
      <trkpt lat="45.85219" lon="4.82816">
        <ele>209</ele>
        <time>2012-01-15T07:48:00Z</time>
      </trkpt>
      <trkpt lat="45.85222" lon="4.82805">
        <ele>210</ele>
        <time>2012-01-15T07:48:06Z</time>
      </trkpt>
      <trkpt lat="45.85227" lon="4.82791">
        <ele>211</ele>
        <time>2012-01-15T07:48:15Z</time>
      </trkpt>
      <trkpt lat="45.85227" lon="4.82789">
        <ele>211</ele>
        <time>2012-01-15T07:48:16Z</time>
      </trkpt>
      <trkpt lat="45.8523" lon="4.82774">
        <ele>213</ele>
        <time>2012-01-15T07:48:24Z</time>
      </trkpt>
      <trkpt lat="45.85232" lon="4.82765">
        <ele>214</ele>
        <time>2012-01-15T07:48:29Z</time>
      </trkpt>
      <trkpt lat="45.85233" lon="4.82763">
        <ele>214</ele>
        <time>2012-01-15T07:48:30Z</time>
      </trkpt>
      <trkpt lat="45.85233" lon="4.8276">
        <ele>215</ele>
        <time>2012-01-15T07:48:32Z</time>
      </trkpt>
      <trkpt lat="45.85234" lon="4.82756">
        <ele>215</ele>
        <time>2012-01-15T07:48:33Z</time>
      </trkpt>
      <trkpt lat="45.85234" lon="4.82744">
        <ele>223</ele>
        <time>2012-01-15T07:48:41Z</time>
      </trkpt>
      <trkpt lat="45.85235" lon="4.82739">
        <ele>224</ele>
        <time>2012-01-15T07:48:44Z</time>
      </trkpt>
      <trkpt lat="45.85236" lon="4.82732">
        <ele>225</ele>
        <time>2012-01-15T07:48:48Z</time>
      </trkpt>
      <trkpt lat="45.85236" lon="4.8273">
        <ele>225</ele>
        <time>2012-01-15T07:48:49Z</time>
      </trkpt>
      <trkpt lat="45.85236" lon="4.82712">
        <ele>228</ele>
        <time>2012-01-15T07:48:58Z</time>
      </trkpt>
      <trkpt lat="45.85239" lon="4.82699">
        <ele>230</ele>
        <time>2012-01-15T07:49:06Z</time>
      </trkpt>
      <trkpt lat="45.85241" lon="4.82684">
        <ele>233</ele>
        <time>2012-01-15T07:49:13Z</time>
      </trkpt>
      <trkpt lat="45.85242" lon="4.82679">
        <ele>234</ele>
        <time>2012-01-15T07:49:17Z</time>
      </trkpt>
      <trkpt lat="45.85242" lon="4.82672">
        <ele>235</ele>
        <time>2012-01-15T07:49:20Z</time>
      </trkpt>
      <trkpt lat="45.85246" lon="4.82661">
        <ele>239</ele>
        <time>2012-01-15T07:49:27Z</time>
      </trkpt>
      <trkpt lat="45.85246" lon="4.8266">
        <ele>239</ele>
        <time>2012-01-15T07:49:29Z</time>
      </trkpt>
      <trkpt lat="45.85247" lon="4.82647">
        <ele>240</ele>
        <time>2012-01-15T07:49:36Z</time>
      </trkpt>
      <trkpt lat="45.85246" lon="4.82643">
        <ele>240</ele>
        <time>2012-01-15T07:49:37Z</time>
      </trkpt>
      <trkpt lat="45.85247" lon="4.82638">
        <ele>240</ele>
        <time>2012-01-15T07:49:41Z</time>
      </trkpt>
      <trkpt lat="45.85247" lon="4.82633">
        <ele>241</ele>
        <time>2012-01-15T07:49:44Z</time>
      </trkpt>
      <trkpt lat="45.85249" lon="4.82623">
        <ele>241</ele>
        <time>2012-01-15T07:49:50Z</time>
      </trkpt>
      <trkpt lat="45.8525" lon="4.82621">
        <ele>241</ele>
        <time>2012-01-15T07:49:51Z</time>
      </trkpt>
      <trkpt lat="45.85253" lon="4.82608">
        <ele>251</ele>
        <time>2012-01-15T07:50:00Z</time>
      </trkpt>
      <trkpt lat="45.85255" lon="4.82594">
        <ele>249</ele>
        <time>2012-01-15T07:50:08Z</time>
      </trkpt>
      <trkpt lat="45.85258" lon="4.82582">
        <ele>249</ele>
        <time>2012-01-15T07:50:15Z</time>
      </trkpt>
      <trkpt lat="45.8526" lon="4.82577">
        <ele>251</ele>
        <time>2012-01-15T07:50:18Z</time>
      </trkpt>
      <trkpt lat="45.85262" lon="4.82564">
        <ele>255</ele>
        <time>2012-01-15T07:50:26Z</time>
      </trkpt>
      <trkpt lat="45.85262" lon="4.82561">
        <ele>255</ele>
        <time>2012-01-15T07:50:29Z</time>
      </trkpt>
      <trkpt lat="45.85261" lon="4.8256">
        <ele>255</ele>
        <time>2012-01-15T07:50:30Z</time>
      </trkpt>
      <trkpt lat="45.85261" lon="4.82558">
        <ele>256</ele>
        <time>2012-01-15T07:50:32Z</time>
      </trkpt>
      <trkpt lat="45.85261" lon="4.82557">
        <ele>256</ele>
        <time>2012-01-15T07:50:34Z</time>
      </trkpt>
      <trkpt lat="45.85261" lon="4.82553">
        <ele>257</ele>
        <time>2012-01-15T07:50:36Z</time>
      </trkpt>
      <trkpt lat="45.8526" lon="4.82544">
        <ele>258</ele>
        <time>2012-01-15T07:50:41Z</time>
      </trkpt>
      <trkpt lat="45.8526" lon="4.8254">
        <ele>258</ele>
        <time>2012-01-15T07:50:43Z</time>
      </trkpt>
      <trkpt lat="45.85258" lon="4.8253">
        <ele>258</ele>
        <time>2012-01-15T07:50:49Z</time>
      </trkpt>
      <trkpt lat="45.85256" lon="4.8252">
        <ele>257</ele>
        <time>2012-01-15T07:50:55Z</time>
      </trkpt>
      <trkpt lat="45.85255" lon="4.82515">
        <ele>256</ele>
        <time>2012-01-15T07:50:59Z</time>
      </trkpt>
      <trkpt lat="45.85255" lon="4.82512">
        <ele>256</ele>
        <time>2012-01-15T07:51:01Z</time>
      </trkpt>
      <trkpt lat="45.85253" lon="4.82505">
        <ele>254</ele>
        <time>2012-01-15T07:51:04Z</time>
      </trkpt>
      <trkpt lat="45.85253" lon="4.82501">
        <ele>252</ele>
        <time>2012-01-15T07:51:08Z</time>
      </trkpt>
      <trkpt lat="45.85252" lon="4.82491">
        <ele>258</ele>
        <time>2012-01-15T07:51:14Z</time>
      </trkpt>
      <trkpt lat="45.85251" lon="4.82485">
        <ele>260</ele>
        <time>2012-01-15T07:51:19Z</time>
      </trkpt>
      <trkpt lat="45.8525" lon="4.82482">
        <ele>257</ele>
        <time>2012-01-15T07:51:21Z</time>
      </trkpt>
      <trkpt lat="45.85249" lon="4.82479">
        <ele>258</ele>
        <time>2012-01-15T07:51:23Z</time>
      </trkpt>
      <trkpt lat="45.85248" lon="4.8247">
        <ele>260</ele>
        <time>2012-01-15T07:51:29Z</time>
      </trkpt>
      <trkpt lat="45.85245" lon="4.82459">
        <ele>262</ele>
        <time>2012-01-15T07:51:36Z</time>
      </trkpt>
      <trkpt lat="45.85244" lon="4.82458">
        <ele>262</ele>
        <time>2012-01-15T07:51:38Z</time>
      </trkpt>
      <trkpt lat="45.85243" lon="4.82455">
        <ele>262</ele>
        <time>2012-01-15T07:51:40Z</time>
      </trkpt>
      <trkpt lat="45.85242" lon="4.82451">
        <ele>263</ele>
        <time>2012-01-15T07:51:43Z</time>
      </trkpt>
      <trkpt lat="45.85241" lon="4.82447">
        <ele>263</ele>
        <time>2012-01-15T07:51:45Z</time>
      </trkpt>
      <trkpt lat="45.8524" lon="4.82439">
        <ele>264</ele>
        <time>2012-01-15T07:51:51Z</time>
      </trkpt>
      <trkpt lat="45.85241" lon="4.8243">
        <ele>264</ele>
        <time>2012-01-15T07:51:56Z</time>
      </trkpt>
      <trkpt lat="45.85242" lon="4.82426">
        <ele>264</ele>
        <time>2012-01-15T07:51:58Z</time>
      </trkpt>
      <trkpt lat="45.85246" lon="4.82415">
        <ele>267</ele>
        <time>2012-01-15T07:52:06Z</time>
      </trkpt>
      <trkpt lat="45.85247" lon="4.82411">
        <ele>269</ele>
        <time>2012-01-15T07:52:10Z</time>
      </trkpt>
      <trkpt lat="45.85246" lon="4.82406">
        <ele>272</ele>
        <time>2012-01-15T07:52:14Z</time>
      </trkpt>
      <trkpt lat="45.85247" lon="4.82404">
        <ele>273</ele>
        <time>2012-01-15T07:52:17Z</time>
      </trkpt>
      <trkpt lat="45.85247" lon="4.82403">
        <ele>274</ele>
        <time>2012-01-15T07:52:20Z</time>
      </trkpt>
      <trkpt lat="45.8525" lon="4.82398">
        <ele>273</ele>
        <time>2012-01-15T07:52:25Z</time>
      </trkpt>
      <trkpt lat="45.85251" lon="4.82395">
        <ele>274</ele>
        <time>2012-01-15T07:52:27Z</time>
      </trkpt>
      <trkpt lat="45.85252" lon="4.82389">
        <ele>275</ele>
        <time>2012-01-15T07:52:31Z</time>
      </trkpt>
      <trkpt lat="45.85253" lon="4.82386">
        <ele>276</ele>
        <time>2012-01-15T07:52:32Z</time>
      </trkpt>
      <trkpt lat="45.85253" lon="4.82382">
        <ele>276</ele>
        <time>2012-01-15T07:52:35Z</time>
      </trkpt>
      <trkpt lat="45.85253" lon="4.82381">
        <ele>277</ele>
        <time>2012-01-15T07:52:36Z</time>
      </trkpt>
      <trkpt lat="45.85253" lon="4.8238">
        <ele>277</ele>
        <time>2012-01-15T07:52:37Z</time>
      </trkpt>
      <trkpt lat="45.85254" lon="4.82377">
        <ele>277</ele>
        <time>2012-01-15T07:52:39Z</time>
      </trkpt>
      <trkpt lat="45.85255" lon="4.82372">
        <ele>278</ele>
        <time>2012-01-15T07:52:43Z</time>
      </trkpt>
      <trkpt lat="45.85256" lon="4.8237">
        <ele>278</ele>
        <time>2012-01-15T07:52:45Z</time>
      </trkpt>
      <trkpt lat="45.85257" lon="4.82362">
        <ele>279</ele>
        <time>2012-01-15T07:52:51Z</time>
      </trkpt>
      <trkpt lat="45.85257" lon="4.8236">
        <ele>279</ele>
        <time>2012-01-15T07:52:52Z</time>
      </trkpt>
      <trkpt lat="45.85258" lon="4.82358">
        <ele>279</ele>
        <time>2012-01-15T07:52:54Z</time>
      </trkpt>
      <trkpt lat="45.85258" lon="4.82352">
        <ele>280</ele>
        <time>2012-01-15T07:52:58Z</time>
      </trkpt>
      <trkpt lat="45.85259" lon="4.82346">
        <ele>280</ele>
        <time>2012-01-15T07:53:02Z</time>
      </trkpt>
      <trkpt lat="45.85259" lon="4.82342">
        <ele>280</ele>
        <time>2012-01-15T07:53:04Z</time>
      </trkpt>
      <trkpt lat="45.85262" lon="4.82332">
        <ele>286</ele>
        <time>2012-01-15T07:53:10Z</time>
      </trkpt>
      <trkpt lat="45.85264" lon="4.82327">
        <ele>287</ele>
        <time>2012-01-15T07:53:15Z</time>
      </trkpt>
      <trkpt lat="45.85266" lon="4.82322">
        <ele>288</ele>
        <time>2012-01-15T07:53:19Z</time>
      </trkpt>
      <trkpt lat="45.85267" lon="4.8232">
        <ele>289</ele>
        <time>2012-01-15T07:53:20Z</time>
      </trkpt>
      <trkpt lat="45.85268" lon="4.82317">
        <ele>290</ele>
        <time>2012-01-15T07:53:23Z</time>
      </trkpt>
      <trkpt lat="45.85269" lon="4.82313">
        <ele>291</ele>
        <time>2012-01-15T07:53:28Z</time>
      </trkpt>
      <trkpt lat="45.8527" lon="4.82309">
        <ele>292</ele>
        <time>2012-01-15T07:53:30Z</time>
      </trkpt>
      <trkpt lat="45.85272" lon="4.82305">
        <ele>293</ele>
        <time>2012-01-15T07:53:33Z</time>
      </trkpt>
      <trkpt lat="45.85275" lon="4.82298">
        <ele>294</ele>
        <time>2012-01-15T07:53:38Z</time>
      </trkpt>
      <trkpt lat="45.85276" lon="4.82296">
        <ele>294</ele>
        <time>2012-01-15T07:53:39Z</time>
      </trkpt>
      <trkpt lat="45.8528" lon="4.82288">
        <ele>296</ele>
        <time>2012-01-15T07:53:44Z</time>
      </trkpt>
      <trkpt lat="45.85281" lon="4.82284">
        <ele>296</ele>
        <time>2012-01-15T07:53:47Z</time>
      </trkpt>
      <trkpt lat="45.85282" lon="4.82281">
        <ele>297</ele>
        <time>2012-01-15T07:53:48Z</time>
      </trkpt>
      <trkpt lat="45.85284" lon="4.82277">
        <ele>297</ele>
        <time>2012-01-15T07:53:51Z</time>
      </trkpt>
      <trkpt lat="45.85288" lon="4.82267">
        <ele>298</ele>
        <time>2012-01-15T07:53:57Z</time>
      </trkpt>
      <trkpt lat="45.85288" lon="4.82264">
        <ele>298</ele>
        <time>2012-01-15T07:53:59Z</time>
      </trkpt>
      <trkpt lat="45.85289" lon="4.82261">
        <ele>298</ele>
        <time>2012-01-15T07:54:02Z</time>
      </trkpt>
      <trkpt lat="45.85291" lon="4.82251">
        <ele>299</ele>
        <time>2012-01-15T07:54:08Z</time>
      </trkpt>
      <trkpt lat="45.85292" lon="4.82246">
        <ele>311</ele>
        <time>2012-01-15T07:54:13Z</time>
      </trkpt>
      <trkpt lat="45.85296" lon="4.82243">
        <ele>311</ele>
        <time>2012-01-15T07:54:22Z</time>
      </trkpt>
      <trkpt lat="45.85299" lon="4.82236">
        <ele>311</ele>
        <time>2012-01-15T07:54:28Z</time>
      </trkpt>
      <trkpt lat="45.85303" lon="4.82226">
        <ele>312</ele>
        <time>2012-01-15T07:54:36Z</time>
      </trkpt>
      <trkpt lat="45.85306" lon="4.82219">
        <ele>312</ele>
        <time>2012-01-15T07:54:40Z</time>
      </trkpt>
      <trkpt lat="45.85306" lon="4.82218">
        <ele>312</ele>
        <time>2012-01-15T07:54:41Z</time>
      </trkpt>
      <trkpt lat="45.85311" lon="4.8221">
        <ele>313</ele>
        <time>2012-01-15T07:54:47Z</time>
      </trkpt>
      <trkpt lat="45.85312" lon="4.8221">
        <ele>313</ele>
        <time>2012-01-15T07:54:49Z</time>
      </trkpt>
      <trkpt lat="45.85313" lon="4.82207">
        <ele>313</ele>
        <time>2012-01-15T07:54:52Z</time>
      </trkpt>
      <trkpt lat="45.85316" lon="4.82203">
        <ele>313</ele>
        <time>2012-01-15T07:54:55Z</time>
      </trkpt>
      <trkpt lat="45.85316" lon="4.82202">
        <ele>313</ele>
        <time>2012-01-15T07:54:57Z</time>
      </trkpt>
      <trkpt lat="45.85318" lon="4.82201">
        <ele>313</ele>
        <time>2012-01-15T07:54:59Z</time>
      </trkpt>
      <trkpt lat="45.85318" lon="4.82199">
        <ele>314</ele>
        <time>2012-01-15T07:55:00Z</time>
      </trkpt>
      <trkpt lat="45.85319" lon="4.82196">
        <ele>314</ele>
        <time>2012-01-15T07:55:03Z</time>
      </trkpt>
      <trkpt lat="45.85323" lon="4.82191">
        <ele>314</ele>
        <time>2012-01-15T07:55:08Z</time>
      </trkpt>
      <trkpt lat="45.85324" lon="4.8219">
        <ele>314</ele>
        <time>2012-01-15T07:55:10Z</time>
      </trkpt>
      <trkpt lat="45.85326" lon="4.82183">
        <ele>314</ele>
        <time>2012-01-15T07:55:15Z</time>
      </trkpt>
      <trkpt lat="45.85328" lon="4.82179">
        <ele>314</ele>
        <time>2012-01-15T07:55:19Z</time>
      </trkpt>
      <trkpt lat="45.85328" lon="4.82178">
        <ele>314</ele>
        <time>2012-01-15T07:55:20Z</time>
      </trkpt>
      <trkpt lat="45.85329" lon="4.82176">
        <ele>314</ele>
        <time>2012-01-15T07:55:22Z</time>
      </trkpt>
      <trkpt lat="45.85331" lon="4.82168">
        <ele>313</ele>
        <time>2012-01-15T07:55:29Z</time>
      </trkpt>
      <trkpt lat="45.85332" lon="4.82164">
        <ele>316</ele>
        <time>2012-01-15T07:55:43Z</time>
      </trkpt>
      <trkpt lat="45.85334" lon="4.82161">
        <ele>317</ele>
        <time>2012-01-15T07:55:45Z</time>
      </trkpt>
      <trkpt lat="45.85337" lon="4.82159">
        <ele>319</ele>
        <time>2012-01-15T07:55:50Z</time>
      </trkpt>
      <trkpt lat="45.85338" lon="4.82158">
        <ele>320</ele>
        <time>2012-01-15T07:55:52Z</time>
      </trkpt>
      <trkpt lat="45.85338" lon="4.82157">
        <ele>320</ele>
        <time>2012-01-15T07:55:53Z</time>
      </trkpt>
      <trkpt lat="45.8534" lon="4.82154">
        <ele>322</ele>
        <time>2012-01-15T07:55:56Z</time>
      </trkpt>
      <trkpt lat="45.85342" lon="4.82152">
        <ele>323</ele>
        <time>2012-01-15T07:55:59Z</time>
      </trkpt>
      <trkpt lat="45.85343" lon="4.8215">
        <ele>324</ele>
        <time>2012-01-15T07:56:01Z</time>
      </trkpt>
      <trkpt lat="45.85344" lon="4.82148">
        <ele>325</ele>
        <time>2012-01-15T07:56:02Z</time>
      </trkpt>
      <trkpt lat="45.85344" lon="4.82145">
        <ele>326</ele>
        <time>2012-01-15T07:56:06Z</time>
      </trkpt>
      <trkpt lat="45.85344" lon="4.82144">
        <ele>326</ele>
        <time>2012-01-15T07:56:07Z</time>
      </trkpt>
      <trkpt lat="45.85345" lon="4.82141">
        <ele>328</ele>
        <time>2012-01-15T07:56:13Z</time>
      </trkpt>
      <trkpt lat="45.85346" lon="4.82134">
        <ele>329</ele>
        <time>2012-01-15T07:56:19Z</time>
      </trkpt>
      <trkpt lat="45.85346" lon="4.82131">
        <ele>330</ele>
        <time>2012-01-15T07:56:23Z</time>
      </trkpt>
      <trkpt lat="45.85346" lon="4.82128">
        <ele>330</ele>
        <time>2012-01-15T07:56:27Z</time>
      </trkpt>
      <trkpt lat="45.85345" lon="4.82127">
        <ele>331</ele>
        <time>2012-01-15T07:56:28Z</time>
      </trkpt>
      <trkpt lat="45.85345" lon="4.82126">
        <ele>331</ele>
        <time>2012-01-15T07:56:32Z</time>
      </trkpt>
      <trkpt lat="45.85347" lon="4.82119">
        <ele>332</ele>
        <time>2012-01-15T07:56:39Z</time>
      </trkpt>
      <trkpt lat="45.85347" lon="4.82114">
        <ele>333</ele>
        <time>2012-01-15T07:56:43Z</time>
      </trkpt>
      <trkpt lat="45.85348" lon="4.82111">
        <ele>333</ele>
        <time>2012-01-15T07:56:46Z</time>
      </trkpt>
      <trkpt lat="45.85348" lon="4.8211">
        <ele>333</ele>
        <time>2012-01-15T07:56:48Z</time>
      </trkpt>
      <trkpt lat="45.85349" lon="4.82109">
        <ele>334</ele>
        <time>2012-01-15T07:56:50Z</time>
      </trkpt>
      <trkpt lat="45.8535" lon="4.82106">
        <ele>334</ele>
        <time>2012-01-15T07:56:52Z</time>
      </trkpt>
      <trkpt lat="45.85351" lon="4.82099">
        <ele>335</ele>
        <time>2012-01-15T07:56:58Z</time>
      </trkpt>
      <trkpt lat="45.85353" lon="4.82096">
        <ele>335</ele>
        <time>2012-01-15T07:57:00Z</time>
      </trkpt>
      <trkpt lat="45.85355" lon="4.82091">
        <ele>335</ele>
        <time>2012-01-15T07:57:04Z</time>
      </trkpt>
      <trkpt lat="45.85355" lon="4.82089">
        <ele>335</ele>
        <time>2012-01-15T07:57:05Z</time>
      </trkpt>
      <trkpt lat="45.85357" lon="4.82088">
        <ele>336</ele>
        <time>2012-01-15T07:57:08Z</time>
      </trkpt>
      <trkpt lat="45.85358" lon="4.82087">
        <ele>336</ele>
        <time>2012-01-15T07:57:10Z</time>
      </trkpt>
      <trkpt lat="45.8536" lon="4.8208">
        <ele>345</ele>
        <time>2012-01-15T07:57:15Z</time>
      </trkpt>
      <trkpt lat="45.85364" lon="4.82077">
        <ele>346</ele>
        <time>2012-01-15T07:57:20Z</time>
      </trkpt>
      <trkpt lat="45.85364" lon="4.82077">
        <ele>346</ele>
        <time>2012-01-15T07:57:21Z</time>
      </trkpt>
      <trkpt lat="45.85364" lon="4.82071">
        <ele>346</ele>
        <time>2012-01-15T07:57:24Z</time>
      </trkpt>
      <trkpt lat="45.85364" lon="4.8207">
        <ele>346</ele>
        <time>2012-01-15T07:57:25Z</time>
      </trkpt>
      <trkpt lat="45.85365" lon="4.82068">
        <ele>347</ele>
        <time>2012-01-15T07:57:27Z</time>
      </trkpt>
      <trkpt lat="45.85365" lon="4.82065">
        <ele>347</ele>
        <time>2012-01-15T07:57:29Z</time>
      </trkpt>
      <trkpt lat="45.85367" lon="4.82061">
        <ele>347</ele>
        <time>2012-01-15T07:57:34Z</time>
      </trkpt>
      <trkpt lat="45.8537" lon="4.82058">
        <ele>348</ele>
        <time>2012-01-15T07:57:39Z</time>
      </trkpt>
      <trkpt lat="45.85372" lon="4.82053">
        <ele>348</ele>
        <time>2012-01-15T07:57:46Z</time>
      </trkpt>
      <trkpt lat="45.85376" lon="4.82053">
        <ele>349</ele>
        <time>2012-01-15T07:57:51Z</time>
      </trkpt>
      <trkpt lat="45.85377" lon="4.82052">
        <ele>349</ele>
        <time>2012-01-15T07:57:52Z</time>
      </trkpt>
      <trkpt lat="45.85378" lon="4.82049">
        <ele>349</ele>
        <time>2012-01-15T07:57:56Z</time>
      </trkpt>
      <trkpt lat="45.85379" lon="4.82042">
        <ele>350</ele>
        <time>2012-01-15T07:58:01Z</time>
      </trkpt>
      <trkpt lat="45.85381" lon="4.82038">
        <ele>350</ele>
        <time>2012-01-15T07:58:06Z</time>
      </trkpt>
      <trkpt lat="45.85385" lon="4.82039">
        <ele>350</ele>
        <time>2012-01-15T07:58:11Z</time>
      </trkpt>
      <trkpt lat="45.85386" lon="4.82039">
        <ele>350</ele>
        <time>2012-01-15T07:58:13Z</time>
      </trkpt>
      <trkpt lat="45.85387" lon="4.82038">
        <ele>350</ele>
        <time>2012-01-15T07:58:15Z</time>
      </trkpt>
      <trkpt lat="45.85388" lon="4.82037">
        <ele>350</ele>
        <time>2012-01-15T07:58:17Z</time>
      </trkpt>
      <trkpt lat="45.8539" lon="4.82035">
        <ele>351</ele>
        <time>2012-01-15T07:58:21Z</time>
      </trkpt>
      <trkpt lat="45.85394" lon="4.82034">
        <ele>351</ele>
        <time>2012-01-15T07:58:27Z</time>
      </trkpt>
      <trkpt lat="45.85397" lon="4.82035">
        <ele>351</ele>
        <time>2012-01-15T07:58:31Z</time>
      </trkpt>
      <trkpt lat="45.85402" lon="4.8204">
        <ele>350</ele>
        <time>2012-01-15T07:58:37Z</time>
      </trkpt>
      <trkpt lat="45.85404" lon="4.82041">
        <ele>350</ele>
        <time>2012-01-15T07:58:40Z</time>
      </trkpt>
      <trkpt lat="45.85404" lon="4.82041">
        <ele>350</ele>
        <time>2012-01-15T07:58:41Z</time>
      </trkpt>
      <trkpt lat="45.85408" lon="4.82044">
        <ele>349</ele>
        <time>2012-01-15T07:58:46Z</time>
      </trkpt>
      <trkpt lat="45.85409" lon="4.82046">
        <ele>349</ele>
        <time>2012-01-15T07:58:47Z</time>
      </trkpt>
      <trkpt lat="45.8541" lon="4.82049">
        <ele>349</ele>
        <time>2012-01-15T07:58:50Z</time>
      </trkpt>
      <trkpt lat="45.85413" lon="4.82051">
        <ele>349</ele>
        <time>2012-01-15T07:58:53Z</time>
      </trkpt>
      <trkpt lat="45.85414" lon="4.82056">
        <ele>348</ele>
        <time>2012-01-15T07:58:57Z</time>
      </trkpt>
      <trkpt lat="45.85415" lon="4.82059">
        <ele>347</ele>
        <time>2012-01-15T07:58:59Z</time>
      </trkpt>
      <trkpt lat="45.85417" lon="4.82064">
        <ele>357</ele>
        <time>2012-01-15T07:59:04Z</time>
      </trkpt>
      <trkpt lat="45.85418" lon="4.82072">
        <ele>353</ele>
        <time>2012-01-15T07:59:10Z</time>
      </trkpt>
      <trkpt lat="45.8542" lon="4.82082">
        <ele>347</ele>
        <time>2012-01-15T07:59:17Z</time>
      </trkpt>
      <trkpt lat="45.8542" lon="4.82086">
        <ele>346</ele>
        <time>2012-01-15T07:59:19Z</time>
      </trkpt>
      <trkpt lat="45.8542" lon="4.82088">
        <ele>347</ele>
        <time>2012-01-15T07:59:20Z</time>
      </trkpt>
      <trkpt lat="45.8542" lon="4.82092">
        <ele>349</ele>
        <time>2012-01-15T07:59:22Z</time>
      </trkpt>
      <trkpt lat="45.85422" lon="4.82106">
        <ele>354</ele>
        <time>2012-01-15T07:59:30Z</time>
      </trkpt>
      <trkpt lat="45.85423" lon="4.82111">
        <ele>355</ele>
        <time>2012-01-15T07:59:33Z</time>
      </trkpt>
      <trkpt lat="45.85423" lon="4.82116">
        <ele>355</ele>
        <time>2012-01-15T07:59:36Z</time>
      </trkpt>
      <trkpt lat="45.85425" lon="4.82126">
        <ele>356</ele>
        <time>2012-01-15T07:59:42Z</time>
      </trkpt>
      <trkpt lat="45.85426" lon="4.82131">
        <ele>355</ele>
        <time>2012-01-15T07:59:46Z</time>
      </trkpt>
      <trkpt lat="45.85426" lon="4.82134">
        <ele>355</ele>
        <time>2012-01-15T07:59:48Z</time>
      </trkpt>
      <trkpt lat="45.85427" lon="4.82137">
        <ele>355</ele>
        <time>2012-01-15T07:59:50Z</time>
      </trkpt>
      <trkpt lat="45.85427" lon="4.82139">
        <ele>355</ele>
        <time>2012-01-15T07:59:51Z</time>
      </trkpt>
      <trkpt lat="45.85429" lon="4.82143">
        <ele>354</ele>
        <time>2012-01-15T07:59:54Z</time>
      </trkpt>
      <trkpt lat="45.85429" lon="4.82144">
        <ele>354</ele>
        <time>2012-01-15T07:59:55Z</time>
      </trkpt>
      <trkpt lat="45.85431" lon="4.82152">
        <ele>353</ele>
        <time>2012-01-15T08:00:01Z</time>
      </trkpt>
      <trkpt lat="45.85432" lon="4.82154">
        <ele>352</ele>
        <time>2012-01-15T08:00:02Z</time>
      </trkpt>
      <trkpt lat="45.85432" lon="4.82155">
        <ele>352</ele>
        <time>2012-01-15T08:00:03Z</time>
      </trkpt>
      <trkpt lat="45.85432" lon="4.82162">
        <ele>351</ele>
        <time>2012-01-15T08:00:07Z</time>
      </trkpt>
      <trkpt lat="45.85432" lon="4.82164">
        <ele>351</ele>
        <time>2012-01-15T08:00:08Z</time>
      </trkpt>
      <trkpt lat="45.85433" lon="4.82174">
        <ele>351</ele>
        <time>2012-01-15T08:00:14Z</time>
      </trkpt>
      <trkpt lat="45.85434" lon="4.82183">
        <ele>353</ele>
        <time>2012-01-15T08:00:19Z</time>
      </trkpt>
      <trkpt lat="45.85435" lon="4.82186">
        <ele>354</ele>
        <time>2012-01-15T08:00:21Z</time>
      </trkpt>
      <trkpt lat="45.85435" lon="4.82188">
        <ele>354</ele>
        <time>2012-01-15T08:00:22Z</time>
      </trkpt>
      <trkpt lat="45.85436" lon="4.82196">
        <ele>356</ele>
        <time>2012-01-15T08:00:28Z</time>
      </trkpt>
      <trkpt lat="45.85436" lon="4.82207">
        <ele>356</ele>
        <time>2012-01-15T08:00:35Z</time>
      </trkpt>
      <trkpt lat="45.85434" lon="4.82214">
        <ele>356</ele>
        <time>2012-01-15T08:00:39Z</time>
      </trkpt>
      <trkpt lat="45.85434" lon="4.82215">
        <ele>356</ele>
        <time>2012-01-15T08:00:40Z</time>
      </trkpt>
      <trkpt lat="45.85434" lon="4.82218">
        <ele>355</ele>
        <time>2012-01-15T08:00:42Z</time>
      </trkpt>
      <trkpt lat="45.85435" lon="4.82228">
        <ele>355</ele>
        <time>2012-01-15T08:00:48Z</time>
      </trkpt>
      <trkpt lat="45.85435" lon="4.82229">
        <ele>354</ele>
        <time>2012-01-15T08:00:49Z</time>
      </trkpt>
      <trkpt lat="45.85435" lon="4.82235">
        <ele>354</ele>
        <time>2012-01-15T08:00:52Z</time>
      </trkpt>
      <trkpt lat="45.85437" lon="4.82236">
        <ele>354</ele>
        <time>2012-01-15T08:00:54Z</time>
      </trkpt>
      <trkpt lat="45.85438" lon="4.82237">
        <ele>354</ele>
        <time>2012-01-15T08:00:56Z</time>
      </trkpt>
      <trkpt lat="45.85439" lon="4.82242">
        <ele>354</ele>
        <time>2012-01-15T08:00:59Z</time>
      </trkpt>
      <trkpt lat="45.8544" lon="4.82246">
        <ele>354</ele>
        <time>2012-01-15T08:01:02Z</time>
      </trkpt>
      <trkpt lat="45.85441" lon="4.82251">
        <ele>354</ele>
        <time>2012-01-15T08:01:05Z</time>
      </trkpt>
      <trkpt lat="45.85441" lon="4.82252">
        <ele>354</ele>
        <time>2012-01-15T08:01:06Z</time>
      </trkpt>
      <trkpt lat="45.85442" lon="4.82263">
        <ele>355</ele>
        <time>2012-01-15T08:01:12Z</time>
      </trkpt>
      <trkpt lat="45.85442" lon="4.82265">
        <ele>355</ele>
        <time>2012-01-15T08:01:13Z</time>
      </trkpt>
      <trkpt lat="45.85444" lon="4.82275">
        <ele>356</ele>
        <time>2012-01-15T08:01:20Z</time>
      </trkpt>
      <trkpt lat="45.85445" lon="4.82277">
        <ele>357</ele>
        <time>2012-01-15T08:01:31Z</time>
      </trkpt>
      <trkpt lat="45.85449" lon="4.82276">
        <ele>358</ele>
        <time>2012-01-15T08:01:37Z</time>
      </trkpt>
      <trkpt lat="45.85451" lon="4.82275">
        <ele>358</ele>
        <time>2012-01-15T08:01:41Z</time>
      </trkpt>
      <trkpt lat="45.85452" lon="4.82274">
        <ele>359</ele>
        <time>2012-01-15T08:01:43Z</time>
      </trkpt>
      <trkpt lat="45.85453" lon="4.82273">
        <ele>359</ele>
        <time>2012-01-15T08:01:45Z</time>
      </trkpt>
      <trkpt lat="45.85455" lon="4.82275">
        <ele>359</ele>
        <time>2012-01-15T08:01:49Z</time>
      </trkpt>
      <trkpt lat="45.85458" lon="4.82277">
        <ele>360</ele>
        <time>2012-01-15T08:01:53Z</time>
      </trkpt>
      <trkpt lat="45.85459" lon="4.82283">
        <ele>360</ele>
        <time>2012-01-15T08:01:58Z</time>
      </trkpt>
      <trkpt lat="45.85459" lon="4.82284">
        <ele>360</ele>
        <time>2012-01-15T08:01:59Z</time>
      </trkpt>
      <trkpt lat="45.85462" lon="4.82287">
        <ele>361</ele>
        <time>2012-01-15T08:02:04Z</time>
      </trkpt>
      <trkpt lat="45.85462" lon="4.82288">
        <ele>361</ele>
        <time>2012-01-15T08:02:05Z</time>
      </trkpt>
      <trkpt lat="45.85464" lon="4.82287">
        <ele>361</ele>
        <time>2012-01-15T08:02:08Z</time>
      </trkpt>
      <trkpt lat="45.85465" lon="4.82287">
        <ele>362</ele>
        <time>2012-01-15T08:02:09Z</time>
      </trkpt>
      <trkpt lat="45.85468" lon="4.82288">
        <ele>362</ele>
        <time>2012-01-15T08:02:13Z</time>
      </trkpt>
      <trkpt lat="45.85472" lon="4.82291">
        <ele>363</ele>
        <time>2012-01-15T08:02:19Z</time>
      </trkpt>
      <trkpt lat="45.85475" lon="4.82292">
        <ele>363</ele>
        <time>2012-01-15T08:02:24Z</time>
      </trkpt>
      <trkpt lat="45.85478" lon="4.82293">
        <ele>364</ele>
        <time>2012-01-15T08:02:30Z</time>
      </trkpt>
      <trkpt lat="45.85482" lon="4.82294">
        <ele>365</ele>
        <time>2012-01-15T08:02:35Z</time>
      </trkpt>
      <trkpt lat="45.85484" lon="4.82294">
        <ele>365</ele>
        <time>2012-01-15T08:02:37Z</time>
      </trkpt>
      <trkpt lat="45.85488" lon="4.82295">
        <ele>366</ele>
        <time>2012-01-15T08:02:42Z</time>
      </trkpt>
      <trkpt lat="45.8549" lon="4.82295">
        <ele>366</ele>
        <time>2012-01-15T08:02:44Z</time>
      </trkpt>
      <trkpt lat="45.85496" lon="4.82296">
        <ele>367</ele>
        <time>2012-01-15T08:02:50Z</time>
      </trkpt>
      <trkpt lat="45.855" lon="4.82297">
        <ele>367</ele>
        <time>2012-01-15T08:02:54Z</time>
      </trkpt>
      <trkpt lat="45.85503" lon="4.82298">
        <ele>378</ele>
        <time>2012-01-15T08:02:57Z</time>
      </trkpt>
      <trkpt lat="45.85508" lon="4.82299">
        <ele>378</ele>
        <time>2012-01-15T08:03:03Z</time>
      </trkpt>
      <trkpt lat="45.85512" lon="4.82294">
        <ele>379</ele>
        <time>2012-01-15T08:03:08Z</time>
      </trkpt>
      <trkpt lat="45.85513" lon="4.82294">
        <ele>379</ele>
        <time>2012-01-15T08:03:09Z</time>
      </trkpt>
      <trkpt lat="45.85513" lon="4.82293">
        <ele>379</ele>
        <time>2012-01-15T08:03:14Z</time>
      </trkpt>
      <trkpt lat="45.85514" lon="4.8229">
        <ele>379</ele>
        <time>2012-01-15T08:03:41Z</time>
      </trkpt>
      <trkpt lat="45.85514" lon="4.82287">
        <ele>379</ele>
        <time>2012-01-15T08:03:44Z</time>
      </trkpt>
      <trkpt lat="45.85519" lon="4.82272">
        <ele>380</ele>
        <time>2012-01-15T08:03:53Z</time>
      </trkpt>
      <trkpt lat="45.85521" lon="4.82265">
        <ele>380</ele>
        <time>2012-01-15T08:03:57Z</time>
      </trkpt>
      <trkpt lat="45.85522" lon="4.82264">
        <ele>380</ele>
        <time>2012-01-15T08:03:58Z</time>
      </trkpt>
      <trkpt lat="45.85522" lon="4.82262">
        <ele>380</ele>
        <time>2012-01-15T08:03:59Z</time>
      </trkpt>
      <trkpt lat="45.85525" lon="4.82256">
        <ele>381</ele>
        <time>2012-01-15T08:04:03Z</time>
      </trkpt>
      <trkpt lat="45.85526" lon="4.82254">
        <ele>381</ele>
        <time>2012-01-15T08:04:05Z</time>
      </trkpt>
      <trkpt lat="45.85529" lon="4.82246">
        <ele>386</ele>
        <time>2012-01-15T08:04:10Z</time>
      </trkpt>
      <trkpt lat="45.85529" lon="4.82245">
        <ele>386</ele>
        <time>2012-01-15T08:04:11Z</time>
      </trkpt>
      <trkpt lat="45.85529" lon="4.82241">
        <ele>386</ele>
        <time>2012-01-15T08:04:13Z</time>
      </trkpt>
      <trkpt lat="45.8553" lon="4.82239">
        <ele>386</ele>
        <time>2012-01-15T08:04:14Z</time>
      </trkpt>
      <trkpt lat="45.85533" lon="4.82228">
        <ele>386</ele>
        <time>2012-01-15T08:04:20Z</time>
      </trkpt>
      <trkpt lat="45.85535" lon="4.8222">
        <ele>387</ele>
        <time>2012-01-15T08:04:25Z</time>
      </trkpt>
      <trkpt lat="45.85536" lon="4.82217">
        <ele>387</ele>
        <time>2012-01-15T08:04:27Z</time>
      </trkpt>
      <trkpt lat="45.85538" lon="4.82207">
        <ele>387</ele>
        <time>2012-01-15T08:04:32Z</time>
      </trkpt>
      <trkpt lat="45.8554" lon="4.82194">
        <ele>388</ele>
        <time>2012-01-15T08:04:40Z</time>
      </trkpt>
      <trkpt lat="45.85541" lon="4.82191">
        <ele>388</ele>
        <time>2012-01-15T08:04:42Z</time>
      </trkpt>
      <trkpt lat="45.85545" lon="4.82183">
        <ele>389</ele>
        <time>2012-01-15T08:04:47Z</time>
      </trkpt>
      <trkpt lat="45.85551" lon="4.82169">
        <ele>390</ele>
        <time>2012-01-15T08:04:56Z</time>
      </trkpt>
      <trkpt lat="45.85551" lon="4.82168">
        <ele>390</ele>
        <time>2012-01-15T08:04:57Z</time>
      </trkpt>
      <trkpt lat="45.85556" lon="4.82159">
        <ele>394</ele>
        <time>2012-01-15T08:05:03Z</time>
      </trkpt>
      <trkpt lat="45.85562" lon="4.82146">
        <ele>395</ele>
        <time>2012-01-15T08:05:12Z</time>
      </trkpt>
      <trkpt lat="45.85563" lon="4.82144">
        <ele>395</ele>
        <time>2012-01-15T08:05:13Z</time>
      </trkpt>
      <trkpt lat="45.8557" lon="4.82139">
        <ele>396</ele>
        <time>2012-01-15T08:05:20Z</time>
      </trkpt>
      <trkpt lat="45.85578" lon="4.82139">
        <ele>396</ele>
        <time>2012-01-15T08:05:25Z</time>
      </trkpt>
      <trkpt lat="45.8558" lon="4.82139">
        <ele>396</ele>
        <time>2012-01-15T08:05:26Z</time>
      </trkpt>
      <trkpt lat="45.85589" lon="4.82138">
        <ele>401</ele>
        <time>2012-01-15T08:05:30Z</time>
      </trkpt>
      <trkpt lat="45.85597" lon="4.82134">
        <ele>402</ele>
        <time>2012-01-15T08:05:34Z</time>
      </trkpt>
      <trkpt lat="45.85602" lon="4.82133">
        <ele>402</ele>
        <time>2012-01-15T08:05:36Z</time>
      </trkpt>
      <trkpt lat="45.85615" lon="4.82129">
        <ele>402</ele>
        <time>2012-01-15T08:05:42Z</time>
      </trkpt>
      <trkpt lat="45.85617" lon="4.82129">
        <ele>402</ele>
        <time>2012-01-15T08:05:43Z</time>
      </trkpt>
      <trkpt lat="45.85631" lon="4.82129">
        <ele>401</ele>
        <time>2012-01-15T08:05:49Z</time>
      </trkpt>
      <trkpt lat="45.85633" lon="4.82129">
        <ele>401</ele>
        <time>2012-01-15T08:05:50Z</time>
      </trkpt>
      <trkpt lat="45.85643" lon="4.8213">
        <ele>401</ele>
        <time>2012-01-15T08:05:54Z</time>
      </trkpt>
      <trkpt lat="45.85653" lon="4.8213">
        <ele>401</ele>
        <time>2012-01-15T08:05:58Z</time>
      </trkpt>
      <trkpt lat="45.85659" lon="4.82128">
        <ele>401</ele>
        <time>2012-01-15T08:06:01Z</time>
      </trkpt>
      <trkpt lat="45.85671" lon="4.82123">
        <ele>397</ele>
        <time>2012-01-15T08:06:06Z</time>
      </trkpt>
      <trkpt lat="45.85679" lon="4.82119">
        <ele>397</ele>
        <time>2012-01-15T08:06:10Z</time>
      </trkpt>
      <trkpt lat="45.85688" lon="4.82109">
        <ele>398</ele>
        <time>2012-01-15T08:06:15Z</time>
      </trkpt>
      <trkpt lat="45.8569" lon="4.82107">
        <ele>398</ele>
        <time>2012-01-15T08:06:16Z</time>
      </trkpt>
      <trkpt lat="45.85702" lon="4.82092">
        <ele>398</ele>
        <time>2012-01-15T08:06:23Z</time>
      </trkpt>
      <trkpt lat="45.85715" lon="4.82083">
        <ele>404</ele>
        <time>2012-01-15T08:06:29Z</time>
      </trkpt>
      <trkpt lat="45.85719" lon="4.8208">
        <ele>403</ele>
        <time>2012-01-15T08:06:31Z</time>
      </trkpt>
      <trkpt lat="45.85721" lon="4.82079">
        <ele>403</ele>
        <time>2012-01-15T08:06:32Z</time>
      </trkpt>
      <trkpt lat="45.85726" lon="4.82075">
        <ele>403</ele>
        <time>2012-01-15T08:06:34Z</time>
      </trkpt>
      <trkpt lat="45.85736" lon="4.82072">
        <ele>401</ele>
        <time>2012-01-15T08:06:38Z</time>
      </trkpt>
      <trkpt lat="45.85739" lon="4.82071">
        <ele>401</ele>
        <time>2012-01-15T08:06:39Z</time>
      </trkpt>
      <trkpt lat="45.85752" lon="4.8207">
        <ele>397</ele>
        <time>2012-01-15T08:06:45Z</time>
      </trkpt>
      <trkpt lat="45.85754" lon="4.8207">
        <ele>397</ele>
        <time>2012-01-15T08:06:46Z</time>
      </trkpt>
      <trkpt lat="45.85767" lon="4.82069">
        <ele>398</ele>
        <time>2012-01-15T08:06:51Z</time>
      </trkpt>
      <trkpt lat="45.85774" lon="4.8207">
        <ele>398</ele>
        <time>2012-01-15T08:06:54Z</time>
      </trkpt>
      <trkpt lat="45.85783" lon="4.82072">
        <ele>398</ele>
        <time>2012-01-15T08:06:57Z</time>
      </trkpt>
      <trkpt lat="45.85793" lon="4.82077">
        <ele>397</ele>
        <time>2012-01-15T08:07:01Z</time>
      </trkpt>
      <trkpt lat="45.85796" lon="4.82078">
        <ele>397</ele>
        <time>2012-01-15T08:07:02Z</time>
      </trkpt>
      <trkpt lat="45.85807" lon="4.82091">
        <ele>391</ele>
        <time>2012-01-15T08:07:08Z</time>
      </trkpt>
      <trkpt lat="45.85809" lon="4.82093">
        <ele>390</ele>
        <time>2012-01-15T08:07:09Z</time>
      </trkpt>
      <trkpt lat="45.85815" lon="4.82103">
        <ele>390</ele>
        <time>2012-01-15T08:07:13Z</time>
      </trkpt>
      <trkpt lat="45.85824" lon="4.82113">
        <ele>389</ele>
        <time>2012-01-15T08:07:17Z</time>
      </trkpt>
      <trkpt lat="45.85828" lon="4.82117">
        <ele>389</ele>
        <time>2012-01-15T08:07:19Z</time>
      </trkpt>
      <trkpt lat="45.85837" lon="4.82129">
        <ele>388</ele>
        <time>2012-01-15T08:07:24Z</time>
      </trkpt>
      <trkpt lat="45.85838" lon="4.8213">
        <ele>388</ele>
        <time>2012-01-15T08:07:25Z</time>
      </trkpt>
      <trkpt lat="45.85839" lon="4.82129">
        <ele>388</ele>
        <time>2012-01-15T08:07:26Z</time>
      </trkpt>
      <trkpt lat="45.85841" lon="4.82126">
        <ele>389</ele>
        <time>2012-01-15T08:07:28Z</time>
      </trkpt>
      <trkpt lat="45.85844" lon="4.8212">
        <ele>389</ele>
        <time>2012-01-15T08:07:31Z</time>
      </trkpt>
      <trkpt lat="45.85846" lon="4.82118">
        <ele>389</ele>
        <time>2012-01-15T08:07:32Z</time>
      </trkpt>
      <trkpt lat="45.85848" lon="4.82118">
        <ele>389</ele>
        <time>2012-01-15T08:07:33Z</time>
      </trkpt>
      <trkpt lat="45.85854" lon="4.82115">
        <ele>390</ele>
        <time>2012-01-15T08:07:36Z</time>
      </trkpt>
      <trkpt lat="45.85864" lon="4.82108">
        <ele>390</ele>
        <time>2012-01-15T08:07:42Z</time>
      </trkpt>
      <trkpt lat="45.8587" lon="4.82103">
        <ele>390</ele>
        <time>2012-01-15T08:07:46Z</time>
      </trkpt>
      <trkpt lat="45.85875" lon="4.82098">
        <ele>391</ele>
        <time>2012-01-15T08:07:49Z</time>
      </trkpt>
      <trkpt lat="45.85885" lon="4.82089">
        <ele>391</ele>
        <time>2012-01-15T08:07:55Z</time>
      </trkpt>
      <trkpt lat="45.85887" lon="4.82088">
        <ele>391</ele>
        <time>2012-01-15T08:07:56Z</time>
      </trkpt>
      <trkpt lat="45.85897" lon="4.8208">
        <ele>395</ele>
        <time>2012-01-15T08:08:01Z</time>
      </trkpt>
      <trkpt lat="45.85905" lon="4.82074">
        <ele>395</ele>
        <time>2012-01-15T08:08:05Z</time>
      </trkpt>
      <trkpt lat="45.85908" lon="4.82071">
        <ele>395</ele>
        <time>2012-01-15T08:08:07Z</time>
      </trkpt>
      <trkpt lat="45.8592" lon="4.82063">
        <ele>392</ele>
        <time>2012-01-15T08:08:13Z</time>
      </trkpt>
      <trkpt lat="45.85922" lon="4.82062">
        <ele>392</ele>
        <time>2012-01-15T08:08:14Z</time>
      </trkpt>
      <trkpt lat="45.85931" lon="4.82053">
        <ele>392</ele>
        <time>2012-01-15T08:08:19Z</time>
      </trkpt>
      <trkpt lat="45.85936" lon="4.82046">
        <ele>391</ele>
        <time>2012-01-15T08:08:23Z</time>
      </trkpt>
      <trkpt lat="45.85936" lon="4.82044">
        <ele>392</ele>
        <time>2012-01-15T08:08:24Z</time>
      </trkpt>
      <trkpt lat="45.85935" lon="4.82036">
        <ele>392</ele>
        <time>2012-01-15T08:08:27Z</time>
      </trkpt>
      <trkpt lat="45.85933" lon="4.82031">
        <ele>392</ele>
        <time>2012-01-15T08:08:29Z</time>
      </trkpt>
      <trkpt lat="45.8593" lon="4.8202">
        <ele>393</ele>
        <time>2012-01-15T08:08:33Z</time>
      </trkpt>
      <trkpt lat="45.85928" lon="4.82014">
        <ele>393</ele>
        <time>2012-01-15T08:08:35Z</time>
      </trkpt>
      <trkpt lat="45.85922" lon="4.81993">
        <ele>395</ele>
        <time>2012-01-15T08:08:42Z</time>
      </trkpt>
      <trkpt lat="45.85918" lon="4.81976">
        <ele>392</ele>
        <time>2012-01-15T08:08:48Z</time>
      </trkpt>
      <trkpt lat="45.85916" lon="4.81967">
        <ele>398</ele>
        <time>2012-01-15T08:08:51Z</time>
      </trkpt>
      <trkpt lat="45.85915" lon="4.81958">
        <ele>398</ele>
        <time>2012-01-15T08:08:54Z</time>
      </trkpt>
      <trkpt lat="45.85922" lon="4.81946">
        <ele>391</ele>
        <time>2012-01-15T08:08:59Z</time>
      </trkpt>
      <trkpt lat="45.85924" lon="4.81945">
        <ele>391</ele>
        <time>2012-01-15T08:09:00Z</time>
      </trkpt>
      <trkpt lat="45.85931" lon="4.81945">
        <ele>391</ele>
        <time>2012-01-15T08:09:04Z</time>
      </trkpt>
      <trkpt lat="45.85941" lon="4.81948">
        <ele>390</ele>
        <time>2012-01-15T08:09:09Z</time>
      </trkpt>
      <trkpt lat="45.85942" lon="4.81949">
        <ele>390</ele>
        <time>2012-01-15T08:09:10Z</time>
      </trkpt>
      <trkpt lat="45.85952" lon="4.81954">
        <ele>389</ele>
        <time>2012-01-15T08:09:15Z</time>
      </trkpt>
      <trkpt lat="45.85961" lon="4.81957">
        <ele>388</ele>
        <time>2012-01-15T08:09:19Z</time>
      </trkpt>
      <trkpt lat="45.85966" lon="4.81957">
        <ele>388</ele>
        <time>2012-01-15T08:09:21Z</time>
      </trkpt>
      <trkpt lat="45.85981" lon="4.81958">
        <ele>387</ele>
        <time>2012-01-15T08:09:27Z</time>
      </trkpt>
      <trkpt lat="45.85985" lon="4.81959">
        <ele>386</ele>
        <time>2012-01-15T08:09:29Z</time>
      </trkpt>
      <trkpt lat="45.85999" lon="4.81962">
        <ele>386</ele>
        <time>2012-01-15T08:09:35Z</time>
      </trkpt>
      <trkpt lat="45.86001" lon="4.81963">
        <ele>376</ele>
        <time>2012-01-15T08:09:36Z</time>
      </trkpt>
      <trkpt lat="45.86011" lon="4.81968">
        <ele>376</ele>
        <time>2012-01-15T08:09:40Z</time>
      </trkpt>
      <trkpt lat="45.86016" lon="4.81971">
        <ele>375</ele>
        <time>2012-01-15T08:09:42Z</time>
      </trkpt>
      <trkpt lat="45.86021" lon="4.81974">
        <ele>375</ele>
        <time>2012-01-15T08:09:44Z</time>
      </trkpt>
      <trkpt lat="45.86033" lon="4.81982">
        <ele>374</ele>
        <time>2012-01-15T08:09:50Z</time>
      </trkpt>
      <trkpt lat="45.86035" lon="4.81984">
        <ele>374</ele>
        <time>2012-01-15T08:09:51Z</time>
      </trkpt>
      <trkpt lat="45.86043" lon="4.81992">
        <ele>373</ele>
        <time>2012-01-15T08:09:55Z</time>
      </trkpt>
      <trkpt lat="45.86052" lon="4.81997">
        <ele>371</ele>
        <time>2012-01-15T08:09:59Z</time>
      </trkpt>
      <trkpt lat="45.86054" lon="4.81999">
        <ele>371</ele>
        <time>2012-01-15T08:10:00Z</time>
      </trkpt>
      <trkpt lat="45.86061" lon="4.82006">
        <ele>372</ele>
        <time>2012-01-15T08:10:04Z</time>
      </trkpt>
      <trkpt lat="45.86067" lon="4.82013">
        <ele>371</ele>
        <time>2012-01-15T08:10:07Z</time>
      </trkpt>
      <trkpt lat="45.86073" lon="4.82019">
        <ele>371</ele>
        <time>2012-01-15T08:10:10Z</time>
      </trkpt>
      <trkpt lat="45.86081" lon="4.82031">
        <ele>372</ele>
        <time>2012-01-15T08:10:15Z</time>
      </trkpt>
      <trkpt lat="45.86082" lon="4.82033">
        <ele>372</ele>
        <time>2012-01-15T08:10:16Z</time>
      </trkpt>
      <trkpt lat="45.86093" lon="4.82051">
        <ele>361</ele>
        <time>2012-01-15T08:10:24Z</time>
      </trkpt>
      <trkpt lat="45.86098" lon="4.8206">
        <ele>361</ele>
        <time>2012-01-15T08:10:29Z</time>
      </trkpt>
      <trkpt lat="45.86106" lon="4.82068">
        <ele>361</ele>
        <time>2012-01-15T08:10:32Z</time>
      </trkpt>
      <trkpt lat="45.86111" lon="4.82072">
        <ele>360</ele>
        <time>2012-01-15T08:10:34Z</time>
      </trkpt>
      <trkpt lat="45.86123" lon="4.82081">
        <ele>359</ele>
        <time>2012-01-15T08:10:40Z</time>
      </trkpt>
      <trkpt lat="45.86123" lon="4.82081">
        <ele>359</ele>
        <time>2012-01-15T08:10:41Z</time>
      </trkpt>
      <trkpt lat="45.8613" lon="4.82087">
        <ele>361</ele>
        <time>2012-01-15T08:10:45Z</time>
      </trkpt>
      <trkpt lat="45.86141" lon="4.82093">
        <ele>360</ele>
        <time>2012-01-15T08:10:49Z</time>
      </trkpt>
      <trkpt lat="45.86154" lon="4.82099">
        <ele>358</ele>
        <time>2012-01-15T08:10:53Z</time>
      </trkpt>
      <trkpt lat="45.86162" lon="4.82101">
        <ele>357</ele>
        <time>2012-01-15T08:10:55Z</time>
      </trkpt>
      <trkpt lat="45.86174" lon="4.82105">
        <ele>349</ele>
        <time>2012-01-15T08:10:58Z</time>
      </trkpt>
      <trkpt lat="45.86177" lon="4.82108">
        <ele>349</ele>
        <time>2012-01-15T08:11:01Z</time>
      </trkpt>
      <trkpt lat="45.86179" lon="4.82107">
        <ele>349</ele>
        <time>2012-01-15T08:11:05Z</time>
      </trkpt>
      <trkpt lat="45.86181" lon="4.82107">
        <ele>349</ele>
        <time>2012-01-15T08:11:06Z</time>
      </trkpt>
      <trkpt lat="45.86199" lon="4.8211">
        <ele>347</ele>
        <time>2012-01-15T08:11:13Z</time>
      </trkpt>
      <trkpt lat="45.86202" lon="4.82111">
        <ele>347</ele>
        <time>2012-01-15T08:11:14Z</time>
      </trkpt>
      <trkpt lat="45.86218" lon="4.82119">
        <ele>346</ele>
        <time>2012-01-15T08:11:21Z</time>
      </trkpt>
      <trkpt lat="45.8622" lon="4.82121">
        <ele>346</ele>
        <time>2012-01-15T08:11:22Z</time>
      </trkpt>
      <trkpt lat="45.8623" lon="4.82125">
        <ele>345</ele>
        <time>2012-01-15T08:11:27Z</time>
      </trkpt>
      <trkpt lat="45.86235" lon="4.82129">
        <ele>345</ele>
        <time>2012-01-15T08:11:30Z</time>
      </trkpt>
      <trkpt lat="45.8624" lon="4.82132">
        <ele>345</ele>
        <time>2012-01-15T08:11:33Z</time>
      </trkpt>
      <trkpt lat="45.86249" lon="4.82136">
        <ele>344</ele>
        <time>2012-01-15T08:11:38Z</time>
      </trkpt>
      <trkpt lat="45.86252" lon="4.82137">
        <ele>334</ele>
        <time>2012-01-15T08:11:40Z</time>
      </trkpt>
      <trkpt lat="45.8626" lon="4.82141">
        <ele>334</ele>
        <time>2012-01-15T08:11:45Z</time>
      </trkpt>
      <trkpt lat="45.86263" lon="4.82143">
        <ele>334</ele>
        <time>2012-01-15T08:11:47Z</time>
      </trkpt>
      <trkpt lat="45.86267" lon="4.82142">
        <ele>334</ele>
        <time>2012-01-15T08:11:49Z</time>
      </trkpt>
      <trkpt lat="45.8627" lon="4.82141">
        <ele>333</ele>
        <time>2012-01-15T08:11:50Z</time>
      </trkpt>
      <trkpt lat="45.86282" lon="4.82141">
        <ele>332</ele>
        <time>2012-01-15T08:11:54Z</time>
      </trkpt>
      <trkpt lat="45.86289" lon="4.82142">
        <ele>331</ele>
        <time>2012-01-15T08:11:57Z</time>
      </trkpt>
      <trkpt lat="45.86294" lon="4.82145">
        <ele>330</ele>
        <time>2012-01-15T08:11:59Z</time>
      </trkpt>
      <trkpt lat="45.86295" lon="4.82147">
        <ele>330</ele>
        <time>2012-01-15T08:12:00Z</time>
      </trkpt>
      <trkpt lat="45.86296" lon="4.8216">
        <ele>330</ele>
        <time>2012-01-15T08:12:06Z</time>
      </trkpt>
      <trkpt lat="45.86298" lon="4.82164">
        <ele>330</ele>
        <time>2012-01-15T08:12:08Z</time>
      </trkpt>
      <trkpt lat="45.86303" lon="4.82166">
        <ele>329</ele>
        <time>2012-01-15T08:12:11Z</time>
      </trkpt>
      <trkpt lat="45.86313" lon="4.82163">
        <ele>328</ele>
        <time>2012-01-15T08:12:15Z</time>
      </trkpt>
      <trkpt lat="45.86315" lon="4.82161">
        <ele>328</ele>
        <time>2012-01-15T08:12:16Z</time>
      </trkpt>
      <trkpt lat="45.86327" lon="4.82148">
        <ele>327</ele>
        <time>2012-01-15T08:12:22Z</time>
      </trkpt>
      <trkpt lat="45.86328" lon="4.82144">
        <ele>327</ele>
        <time>2012-01-15T08:12:24Z</time>
      </trkpt>
      <trkpt lat="45.86326" lon="4.82143">
        <ele>327</ele>
        <time>2012-01-15T08:12:26Z</time>
      </trkpt>
      <trkpt lat="45.86325" lon="4.82141">
        <ele>327</ele>
        <time>2012-01-15T08:12:27Z</time>
      </trkpt>
      <trkpt lat="45.86323" lon="4.8213">
        <ele>327</ele>
        <time>2012-01-15T08:12:31Z</time>
      </trkpt>
      <trkpt lat="45.86323" lon="4.82128">
        <ele>327</ele>
        <time>2012-01-15T08:12:32Z</time>
      </trkpt>
      <trkpt lat="45.86323" lon="4.82126">
        <ele>327</ele>
        <time>2012-01-15T08:12:33Z</time>
      </trkpt>
      <trkpt lat="45.86327" lon="4.82122">
        <ele>327</ele>
        <time>2012-01-15T08:12:37Z</time>
      </trkpt>
      <trkpt lat="45.86329" lon="4.82121">
        <ele>326</ele>
        <time>2012-01-15T08:12:38Z</time>
      </trkpt>
      <trkpt lat="45.86332" lon="4.82118">
        <ele>326</ele>
        <time>2012-01-15T08:12:40Z</time>
      </trkpt>
      <trkpt lat="45.86336" lon="4.82113">
        <ele>315</ele>
        <time>2012-01-15T08:12:43Z</time>
      </trkpt>
      <trkpt lat="45.86338" lon="4.82106">
        <ele>315</ele>
        <time>2012-01-15T08:12:46Z</time>
      </trkpt>
      <trkpt lat="45.8634" lon="4.82101">
        <ele>315</ele>
        <time>2012-01-15T08:12:48Z</time>
      </trkpt>
      <trkpt lat="45.86342" lon="4.82094">
        <ele>315</ele>
        <time>2012-01-15T08:12:51Z</time>
      </trkpt>
      <trkpt lat="45.86343" lon="4.82092">
        <ele>315</ele>
        <time>2012-01-15T08:12:52Z</time>
      </trkpt>
      <trkpt lat="45.86344" lon="4.8209">
        <ele>315</ele>
        <time>2012-01-15T08:12:53Z</time>
      </trkpt>
      <trkpt lat="45.86348" lon="4.82081">
        <ele>312</ele>
        <time>2012-01-15T08:12:57Z</time>
      </trkpt>
      <trkpt lat="45.86349" lon="4.82079">
        <ele>311</ele>
        <time>2012-01-15T08:12:58Z</time>
      </trkpt>
      <trkpt lat="45.86353" lon="4.82071">
        <ele>309</ele>
        <time>2012-01-15T08:13:02Z</time>
      </trkpt>
      <trkpt lat="45.86356" lon="4.82057">
        <ele>307</ele>
        <time>2012-01-15T08:13:08Z</time>
      </trkpt>
      <trkpt lat="45.86356" lon="4.82055">
        <ele>307</ele>
        <time>2012-01-15T08:13:09Z</time>
      </trkpt>
      <trkpt lat="45.86359" lon="4.82046">
        <ele>305</ele>
        <time>2012-01-15T08:13:12Z</time>
      </trkpt>
      <trkpt lat="45.86365" lon="4.82041">
        <ele>304</ele>
        <time>2012-01-15T08:13:16Z</time>
      </trkpt>
      <trkpt lat="45.86366" lon="4.82039">
        <ele>304</ele>
        <time>2012-01-15T08:13:17Z</time>
      </trkpt>
      <trkpt lat="45.86367" lon="4.82037">
        <ele>304</ele>
        <time>2012-01-15T08:13:18Z</time>
      </trkpt>
      <trkpt lat="45.86367" lon="4.82035">
        <ele>304</ele>
        <time>2012-01-15T08:13:19Z</time>
      </trkpt>
      <trkpt lat="45.86367" lon="4.82028">
        <ele>303</ele>
        <time>2012-01-15T08:13:22Z</time>
      </trkpt>
      <trkpt lat="45.86368" lon="4.82019">
        <ele>303</ele>
        <time>2012-01-15T08:13:26Z</time>
      </trkpt>
      <trkpt lat="45.86363" lon="4.82014">
        <ele>303</ele>
        <time>2012-01-15T08:13:29Z</time>
      </trkpt>
      <trkpt lat="45.86362" lon="4.82014">
        <ele>303</ele>
        <time>2012-01-15T08:13:30Z</time>
      </trkpt>
      <trkpt lat="45.86357" lon="4.8201">
        <ele>303</ele>
        <time>2012-01-15T08:13:34Z</time>
      </trkpt>
      <trkpt lat="45.86355" lon="4.82009">
        <ele>303</ele>
        <time>2012-01-15T08:13:36Z</time>
      </trkpt>
      <trkpt lat="45.86346" lon="4.81999">
        <ele>300</ele>
        <time>2012-01-15T08:13:43Z</time>
      </trkpt>
      <trkpt lat="45.86346" lon="4.81998">
        <ele>300</ele>
        <time>2012-01-15T08:13:44Z</time>
      </trkpt>
      <trkpt lat="45.86338" lon="4.81989">
        <ele>300</ele>
        <time>2012-01-15T08:13:49Z</time>
      </trkpt>
      <trkpt lat="45.86334" lon="4.81985">
        <ele>299</ele>
        <time>2012-01-15T08:13:52Z</time>
      </trkpt>
      <trkpt lat="45.86333" lon="4.81984">
        <ele>306</ele>
        <time>2012-01-15T08:13:53Z</time>
      </trkpt>
      <trkpt lat="45.86332" lon="4.81983">
        <ele>306</ele>
        <time>2012-01-15T08:13:54Z</time>
      </trkpt>
      <trkpt lat="45.86328" lon="4.81981">
        <ele>306</ele>
        <time>2012-01-15T08:13:57Z</time>
      </trkpt>
      <trkpt lat="45.86327" lon="4.8198">
        <ele>307</ele>
        <time>2012-01-15T08:13:58Z</time>
      </trkpt>
      <trkpt lat="45.86318" lon="4.81974">
        <ele>307</ele>
        <time>2012-01-15T08:14:05Z</time>
      </trkpt>
      <trkpt lat="45.86315" lon="4.81972">
        <ele>308</ele>
        <time>2012-01-15T08:14:07Z</time>
      </trkpt>
      <trkpt lat="45.86311" lon="4.8197">
        <ele>308</ele>
        <time>2012-01-15T08:14:09Z</time>
      </trkpt>
      <trkpt lat="45.86308" lon="4.81967">
        <ele>308</ele>
        <time>2012-01-15T08:14:11Z</time>
      </trkpt>
      <trkpt lat="45.86305" lon="4.81964">
        <ele>308</ele>
        <time>2012-01-15T08:14:13Z</time>
      </trkpt>
      <trkpt lat="45.86306" lon="4.8196">
        <ele>308</ele>
        <time>2012-01-15T08:14:15Z</time>
      </trkpt>
      <trkpt lat="45.86308" lon="4.81955">
        <ele>307</ele>
        <time>2012-01-15T08:14:18Z</time>
      </trkpt>
      <trkpt lat="45.8631" lon="4.81951">
        <ele>307</ele>
        <time>2012-01-15T08:14:21Z</time>
      </trkpt>
      <trkpt lat="45.86309" lon="4.81949">
        <ele>307</ele>
        <time>2012-01-15T08:14:22Z</time>
      </trkpt>
      <trkpt lat="45.86313" lon="4.81945">
        <ele>306</ele>
        <time>2012-01-15T08:14:26Z</time>
      </trkpt>
      <trkpt lat="45.86321" lon="4.81943">
        <ele>305</ele>
        <time>2012-01-15T08:14:30Z</time>
      </trkpt>
      <trkpt lat="45.86323" lon="4.81941">
        <ele>304</ele>
        <time>2012-01-15T08:14:31Z</time>
      </trkpt>
      <trkpt lat="45.86331" lon="4.81937">
        <ele>303</ele>
        <time>2012-01-15T08:14:35Z</time>
      </trkpt>
      <trkpt lat="45.86337" lon="4.81937">
        <ele>295</ele>
        <time>2012-01-15T08:14:38Z</time>
      </trkpt>
      <trkpt lat="45.86338" lon="4.81936">
        <ele>295</ele>
        <time>2012-01-15T08:14:39Z</time>
      </trkpt>
      <trkpt lat="45.8634" lon="4.81935">
        <ele>295</ele>
        <time>2012-01-15T08:14:40Z</time>
      </trkpt>
      <trkpt lat="45.86345" lon="4.81932">
        <ele>295</ele>
        <time>2012-01-15T08:14:43Z</time>
      </trkpt>
      <trkpt lat="45.86349" lon="4.81931">
        <ele>294</ele>
        <time>2012-01-15T08:14:46Z</time>
      </trkpt>
      <trkpt lat="45.86351" lon="4.8193">
        <ele>294</ele>
        <time>2012-01-15T08:14:47Z</time>
      </trkpt>
      <trkpt lat="45.86356" lon="4.81926">
        <ele>294</ele>
        <time>2012-01-15T08:14:50Z</time>
      </trkpt>
      <trkpt lat="45.86356" lon="4.81924">
        <ele>294</ele>
        <time>2012-01-15T08:14:51Z</time>
      </trkpt>
      <trkpt lat="45.86359" lon="4.81916">
        <ele>293</ele>
        <time>2012-01-15T08:14:55Z</time>
      </trkpt>
      <trkpt lat="45.86364" lon="4.81914">
        <ele>293</ele>
        <time>2012-01-15T08:14:58Z</time>
      </trkpt>
      <trkpt lat="45.86365" lon="4.81911">
        <ele>293</ele>
        <time>2012-01-15T08:15:00Z</time>
      </trkpt>
      <trkpt lat="45.86367" lon="4.81909">
        <ele>293</ele>
        <time>2012-01-15T08:15:03Z</time>
      </trkpt>
      <trkpt lat="45.86369" lon="4.81905">
        <ele>293</ele>
        <time>2012-01-15T08:15:07Z</time>
      </trkpt>
      <trkpt lat="45.86369" lon="4.81905">
        <ele>293</ele>
        <time>2012-01-15T08:15:08Z</time>
      </trkpt>
      <trkpt lat="45.86372" lon="4.81901">
        <ele>293</ele>
        <time>2012-01-15T08:15:18Z</time>
      </trkpt>
      <trkpt lat="45.86376" lon="4.81899">
        <ele>293</ele>
        <time>2012-01-15T08:15:23Z</time>
      </trkpt>
      <trkpt lat="45.86382" lon="4.81894">
        <ele>293</ele>
        <time>2012-01-15T08:15:29Z</time>
      </trkpt>
      <trkpt lat="45.86384" lon="4.81895">
        <ele>292</ele>
        <time>2012-01-15T08:15:30Z</time>
      </trkpt>
      <trkpt lat="45.86391" lon="4.81896">
        <ele>292</ele>
        <time>2012-01-15T08:15:33Z</time>
      </trkpt>
      <trkpt lat="45.86392" lon="4.81897">
        <ele>292</ele>
        <time>2012-01-15T08:15:34Z</time>
      </trkpt>
      <trkpt lat="45.86394" lon="4.81896">
        <ele>292</ele>
        <time>2012-01-15T08:15:35Z</time>
      </trkpt>
      <trkpt lat="45.86397" lon="4.81895">
        <ele>292</ele>
        <time>2012-01-15T08:15:39Z</time>
      </trkpt>
      <trkpt lat="45.86399" lon="4.81894">
        <ele>292</ele>
        <time>2012-01-15T08:15:41Z</time>
      </trkpt>
      <trkpt lat="45.864" lon="4.81893">
        <ele>292</ele>
        <time>2012-01-15T08:15:43Z</time>
      </trkpt>
      <trkpt lat="45.86401" lon="4.81892">
        <ele>292</ele>
        <time>2012-01-15T08:15:45Z</time>
      </trkpt>
      <trkpt lat="45.86403" lon="4.81891">
        <ele>292</ele>
        <time>2012-01-15T08:15:47Z</time>
      </trkpt>
      <trkpt lat="45.86403" lon="4.8189">
        <ele>292</ele>
        <time>2012-01-15T08:15:48Z</time>
      </trkpt>
      <trkpt lat="45.86402" lon="4.81888">
        <ele>292</ele>
        <time>2012-01-15T08:15:50Z</time>
      </trkpt>
      <trkpt lat="45.864" lon="4.81886">
        <ele>292</ele>
        <time>2012-01-15T08:15:53Z</time>
      </trkpt>
      <trkpt lat="45.86397" lon="4.81884">
        <ele>293</ele>
        <time>2012-01-15T08:15:56Z</time>
      </trkpt>
      <trkpt lat="45.86394" lon="4.8188">
        <ele>293</ele>
        <time>2012-01-15T08:16:00Z</time>
      </trkpt>
      <trkpt lat="45.86388" lon="4.81876">
        <ele>293</ele>
        <time>2012-01-15T08:16:05Z</time>
      </trkpt>
      <trkpt lat="45.86386" lon="4.81873">
        <ele>293</ele>
        <time>2012-01-15T08:16:08Z</time>
      </trkpt>
      <trkpt lat="45.86381" lon="4.81865">
        <ele>294</ele>
        <time>2012-01-15T08:16:15Z</time>
      </trkpt>
      <trkpt lat="45.8638" lon="4.81863">
        <ele>294</ele>
        <time>2012-01-15T08:16:17Z</time>
      </trkpt>
      <trkpt lat="45.86378" lon="4.81858">
        <ele>294</ele>
        <time>2012-01-15T08:16:22Z</time>
      </trkpt>
      <trkpt lat="45.86379" lon="4.81856">
        <ele>294</ele>
        <time>2012-01-15T08:16:24Z</time>
      </trkpt>
      <trkpt lat="45.86381" lon="4.81851">
        <ele>294</ele>
        <time>2012-01-15T08:16:29Z</time>
      </trkpt>
      <trkpt lat="45.86385" lon="4.81843">
        <ele>295</ele>
        <time>2012-01-15T08:16:38Z</time>
      </trkpt>
      <trkpt lat="45.86386" lon="4.81839">
        <ele>295</ele>
        <time>2012-01-15T08:16:45Z</time>
      </trkpt>
      <trkpt lat="45.86388" lon="4.81836">
        <ele>295</ele>
        <time>2012-01-15T08:16:51Z</time>
      </trkpt>
      <trkpt lat="45.86389" lon="4.81835">
        <ele>295</ele>
        <time>2012-01-15T08:16:54Z</time>
      </trkpt>
      <trkpt lat="45.8639" lon="4.81834">
        <ele>295</ele>
        <time>2012-01-15T08:16:57Z</time>
      </trkpt>
      <trkpt lat="45.86392" lon="4.8183">
        <ele>301</ele>
        <time>2012-01-15T08:17:03Z</time>
      </trkpt>
      <trkpt lat="45.86395" lon="4.81827">
        <ele>301</ele>
        <time>2012-01-15T08:17:08Z</time>
      </trkpt>
      <trkpt lat="45.86397" lon="4.81824">
        <ele>301</ele>
        <time>2012-01-15T08:17:13Z</time>
      </trkpt>
      <trkpt lat="45.86399" lon="4.81821">
        <ele>301</ele>
        <time>2012-01-15T08:17:20Z</time>
      </trkpt>
      <trkpt lat="45.86401" lon="4.81815">
        <ele>301</ele>
        <time>2012-01-15T08:17:27Z</time>
      </trkpt>
      <trkpt lat="45.86401" lon="4.81815">
        <ele>301</ele>
        <time>2012-01-15T08:17:28Z</time>
      </trkpt>
      <trkpt lat="45.86402" lon="4.81814">
        <ele>301</ele>
        <time>2012-01-15T08:17:31Z</time>
      </trkpt>
      <trkpt lat="45.86403" lon="4.81813">
        <ele>302</ele>
        <time>2012-01-15T08:17:40Z</time>
      </trkpt>
      <trkpt lat="45.86404" lon="4.8181">
        <ele>302</ele>
        <time>2012-01-15T08:17:47Z</time>
      </trkpt>
      <trkpt lat="45.86406" lon="4.81806">
        <ele>302</ele>
        <time>2012-01-15T08:17:52Z</time>
      </trkpt>
      <trkpt lat="45.86409" lon="4.81802">
        <ele>303</ele>
        <time>2012-01-15T08:17:58Z</time>
      </trkpt>
      <trkpt lat="45.86411" lon="4.81799">
        <ele>303</ele>
        <time>2012-01-15T08:18:03Z</time>
      </trkpt>
      <trkpt lat="45.86412" lon="4.81797">
        <ele>303</ele>
        <time>2012-01-15T08:18:06Z</time>
      </trkpt>
      <trkpt lat="45.86413" lon="4.81796">
        <ele>303</ele>
        <time>2012-01-15T08:18:07Z</time>
      </trkpt>
      <trkpt lat="45.86416" lon="4.81788">
        <ele>304</ele>
        <time>2012-01-15T08:18:15Z</time>
      </trkpt>
      <trkpt lat="45.86417" lon="4.81782">
        <ele>305</ele>
        <time>2012-01-15T08:18:22Z</time>
      </trkpt>
      <trkpt lat="45.86419" lon="4.81778">
        <ele>306</ele>
        <time>2012-01-15T08:18:25Z</time>
      </trkpt>
      <trkpt lat="45.86419" lon="4.81773">
        <ele>306</ele>
        <time>2012-01-15T08:18:28Z</time>
      </trkpt>
      <trkpt lat="45.86419" lon="4.81772">
        <ele>306</ele>
        <time>2012-01-15T08:18:29Z</time>
      </trkpt>
      <trkpt lat="45.86419" lon="4.81771">
        <ele>306</ele>
        <time>2012-01-15T08:18:30Z</time>
      </trkpt>
      <trkpt lat="45.86419" lon="4.8177">
        <ele>307</ele>
        <time>2012-01-15T08:18:32Z</time>
      </trkpt>
      <trkpt lat="45.86419" lon="4.81767">
        <ele>307</ele>
        <time>2012-01-15T08:18:35Z</time>
      </trkpt>
      <trkpt lat="45.8642" lon="4.81762">
        <ele>308</ele>
        <time>2012-01-15T08:18:38Z</time>
      </trkpt>
      <trkpt lat="45.8642" lon="4.81759">
        <ele>309</ele>
        <time>2012-01-15T08:18:40Z</time>
      </trkpt>
      <trkpt lat="45.8642" lon="4.81755">
        <ele>310</ele>
        <time>2012-01-15T08:18:42Z</time>
      </trkpt>
      <trkpt lat="45.86422" lon="4.81749">
        <ele>312</ele>
        <time>2012-01-15T08:18:46Z</time>
      </trkpt>
      <trkpt lat="45.86422" lon="4.81747">
        <ele>312</ele>
        <time>2012-01-15T08:18:47Z</time>
      </trkpt>
      <trkpt lat="45.86423" lon="4.81744">
        <ele>312</ele>
        <time>2012-01-15T08:18:49Z</time>
      </trkpt>
      <trkpt lat="45.86424" lon="4.81735">
        <ele>312</ele>
        <time>2012-01-15T08:18:54Z</time>
      </trkpt>
      <trkpt lat="45.86426" lon="4.81722">
        <ele>313</ele>
        <time>2012-01-15T08:19:02Z</time>
      </trkpt>
      <trkpt lat="45.86426" lon="4.8172">
        <ele>313</ele>
        <time>2012-01-15T08:19:03Z</time>
      </trkpt>
      <trkpt lat="45.86426" lon="4.81719">
        <ele>313</ele>
        <time>2012-01-15T08:19:04Z</time>
      </trkpt>
      <trkpt lat="45.86427" lon="4.81716">
        <ele>313</ele>
        <time>2012-01-15T08:19:06Z</time>
      </trkpt>
      <trkpt lat="45.86428" lon="4.81711">
        <ele>314</ele>
        <time>2012-01-15T08:19:09Z</time>
      </trkpt>
      <trkpt lat="45.86429" lon="4.81699">
        <ele>315</ele>
        <time>2012-01-15T08:19:16Z</time>
      </trkpt>
      <trkpt lat="45.86429" lon="4.81695">
        <ele>315</ele>
        <time>2012-01-15T08:19:18Z</time>
      </trkpt>
      <trkpt lat="45.86429" lon="4.81693">
        <ele>316</ele>
        <time>2012-01-15T08:19:19Z</time>
      </trkpt>
      <trkpt lat="45.8643" lon="4.81685">
        <ele>317</ele>
        <time>2012-01-15T08:19:24Z</time>
      </trkpt>
      <trkpt lat="45.86431" lon="4.81673">
        <ele>319</ele>
        <time>2012-01-15T08:19:30Z</time>
      </trkpt>
      <trkpt lat="45.86432" lon="4.81669">
        <ele>319</ele>
        <time>2012-01-15T08:19:32Z</time>
      </trkpt>
      <trkpt lat="45.86432" lon="4.81662">
        <ele>321</ele>
        <time>2012-01-15T08:19:36Z</time>
      </trkpt>
      <trkpt lat="45.86435" lon="4.81651">
        <ele>320</ele>
        <time>2012-01-15T08:19:43Z</time>
      </trkpt>
      <trkpt lat="45.86436" lon="4.81644">
        <ele>320</ele>
        <time>2012-01-15T08:19:47Z</time>
      </trkpt>
      <trkpt lat="45.86436" lon="4.81642">
        <ele>320</ele>
        <time>2012-01-15T08:19:48Z</time>
      </trkpt>
      <trkpt lat="45.86437" lon="4.8164">
        <ele>320</ele>
        <time>2012-01-15T08:19:49Z</time>
      </trkpt>
      <trkpt lat="45.86438" lon="4.81625">
        <ele>320</ele>
        <time>2012-01-15T08:19:57Z</time>
      </trkpt>
      <trkpt lat="45.86438" lon="4.81617">
        <ele>320</ele>
        <time>2012-01-15T08:20:02Z</time>
      </trkpt>
      <trkpt lat="45.86438" lon="4.81612">
        <ele>320</ele>
        <time>2012-01-15T08:20:05Z</time>
      </trkpt>
      <trkpt lat="45.86437" lon="4.81599">
        <ele>322</ele>
        <time>2012-01-15T08:20:12Z</time>
      </trkpt>
      <trkpt lat="45.86434" lon="4.81591">
        <ele>323</ele>
        <time>2012-01-15T08:20:17Z</time>
      </trkpt>
      <trkpt lat="45.8643" lon="4.81579">
        <ele>322</ele>
        <time>2012-01-15T08:20:24Z</time>
      </trkpt>
      <trkpt lat="45.86429" lon="4.81577">
        <ele>322</ele>
        <time>2012-01-15T08:20:25Z</time>
      </trkpt>
      <trkpt lat="45.86426" lon="4.81569">
        <ele>321</ele>
        <time>2012-01-15T08:20:30Z</time>
      </trkpt>
      <trkpt lat="45.86426" lon="4.81568">
        <ele>321</ele>
        <time>2012-01-15T08:20:31Z</time>
      </trkpt>
      <trkpt lat="45.86423" lon="4.81562">
        <ele>319</ele>
        <time>2012-01-15T08:20:35Z</time>
      </trkpt>
      <trkpt lat="45.86423" lon="4.81561">
        <ele>319</ele>
        <time>2012-01-15T08:20:36Z</time>
      </trkpt>
      <trkpt lat="45.86421" lon="4.81559">
        <ele>318</ele>
        <time>2012-01-15T08:20:40Z</time>
      </trkpt>
      <trkpt lat="45.8642" lon="4.81563">
        <ele>320</ele>
        <time>2012-01-15T08:20:44Z</time>
      </trkpt>
      <trkpt lat="45.86418" lon="4.81574">
        <ele>325</ele>
        <time>2012-01-15T08:20:51Z</time>
      </trkpt>
      <trkpt lat="45.86416" lon="4.81585">
        <ele>332</ele>
        <time>2012-01-15T08:20:57Z</time>
      </trkpt>
      <trkpt lat="45.86414" lon="4.81596">
        <ele>332</ele>
        <time>2012-01-15T08:21:03Z</time>
      </trkpt>
      <trkpt lat="45.86413" lon="4.81599">
        <ele>332</ele>
        <time>2012-01-15T08:21:05Z</time>
      </trkpt>
      <trkpt lat="45.86411" lon="4.81608">
        <ele>332</ele>
        <time>2012-01-15T08:21:11Z</time>
      </trkpt>
      <trkpt lat="45.86404" lon="4.81618">
        <ele>332</ele>
        <time>2012-01-15T08:21:18Z</time>
      </trkpt>
      <trkpt lat="45.86402" lon="4.81619">
        <ele>332</ele>
        <time>2012-01-15T08:21:20Z</time>
      </trkpt>
      <trkpt lat="45.86395" lon="4.8162">
        <ele>332</ele>
        <time>2012-01-15T08:21:25Z</time>
      </trkpt>
      <trkpt lat="45.86385" lon="4.81621">
        <ele>333</ele>
        <time>2012-01-15T08:21:33Z</time>
      </trkpt>
      <trkpt lat="45.86383" lon="4.81621">
        <ele>333</ele>
        <time>2012-01-15T08:21:35Z</time>
      </trkpt>
      <trkpt lat="45.86376" lon="4.81619">
        <ele>333</ele>
        <time>2012-01-15T08:21:41Z</time>
      </trkpt>
      <trkpt lat="45.86367" lon="4.8161">
        <ele>334</ele>
        <time>2012-01-15T08:21:49Z</time>
      </trkpt>
      <trkpt lat="45.86365" lon="4.81599">
        <ele>335</ele>
        <time>2012-01-15T08:21:56Z</time>
      </trkpt>
      <trkpt lat="45.86359" lon="4.81588">
        <ele>337</ele>
        <time>2012-01-15T08:22:03Z</time>
      </trkpt>
      <trkpt lat="45.86358" lon="4.81587">
        <ele>337</ele>
        <time>2012-01-15T08:22:04Z</time>
      </trkpt>
      <trkpt lat="45.86355" lon="4.8158">
        <ele>338</ele>
        <time>2012-01-15T08:22:09Z</time>
      </trkpt>
      <trkpt lat="45.86353" lon="4.81577">
        <ele>338</ele>
        <time>2012-01-15T08:22:11Z</time>
      </trkpt>
      <trkpt lat="45.86351" lon="4.81574">
        <ele>338</ele>
        <time>2012-01-15T08:22:14Z</time>
      </trkpt>
      <trkpt lat="45.86348" lon="4.81571">
        <ele>339</ele>
        <time>2012-01-15T08:22:18Z</time>
      </trkpt>
      <trkpt lat="45.86345" lon="4.81569">
        <ele>339</ele>
        <time>2012-01-15T08:22:21Z</time>
      </trkpt>
      <trkpt lat="45.86341" lon="4.81566">
        <ele>339</ele>
        <time>2012-01-15T08:22:26Z</time>
      </trkpt>
      <trkpt lat="45.8634" lon="4.81566">
        <ele>339</ele>
        <time>2012-01-15T08:22:27Z</time>
      </trkpt>
      <trkpt lat="45.86335" lon="4.81566">
        <ele>339</ele>
        <time>2012-01-15T08:22:31Z</time>
      </trkpt>
      <trkpt lat="45.86329" lon="4.81563">
        <ele>344</ele>
        <time>2012-01-15T08:22:38Z</time>
      </trkpt>
      <trkpt lat="45.86328" lon="4.81562">
        <ele>344</ele>
        <time>2012-01-15T08:22:39Z</time>
      </trkpt>
      <trkpt lat="45.86322" lon="4.81556">
        <ele>344</ele>
        <time>2012-01-15T08:22:45Z</time>
      </trkpt>
      <trkpt lat="45.8632" lon="4.81554">
        <ele>344</ele>
        <time>2012-01-15T08:22:47Z</time>
      </trkpt>
      <trkpt lat="45.86316" lon="4.81551">
        <ele>344</ele>
        <time>2012-01-15T08:22:51Z</time>
      </trkpt>
      <trkpt lat="45.86313" lon="4.81549">
        <ele>344</ele>
        <time>2012-01-15T08:22:54Z</time>
      </trkpt>
      <trkpt lat="45.8631" lon="4.81547">
        <ele>344</ele>
        <time>2012-01-15T08:22:57Z</time>
      </trkpt>
      <trkpt lat="45.86302" lon="4.81542">
        <ele>344</ele>
        <time>2012-01-15T08:23:03Z</time>
      </trkpt>
      <trkpt lat="45.86297" lon="4.81539">
        <ele>344</ele>
        <time>2012-01-15T08:23:08Z</time>
      </trkpt>
      <trkpt lat="45.86296" lon="4.81539">
        <ele>344</ele>
        <time>2012-01-15T08:23:09Z</time>
      </trkpt>
      <trkpt lat="45.8629" lon="4.81537">
        <ele>344</ele>
        <time>2012-01-15T08:23:12Z</time>
      </trkpt>
      <trkpt lat="45.86288" lon="4.81537">
        <ele>344</ele>
        <time>2012-01-15T08:23:13Z</time>
      </trkpt>
      <trkpt lat="45.86278" lon="4.81532">
        <ele>345</ele>
        <time>2012-01-15T08:23:18Z</time>
      </trkpt>
      <trkpt lat="45.86276" lon="4.8153">
        <ele>345</ele>
        <time>2012-01-15T08:23:19Z</time>
      </trkpt>
      <trkpt lat="45.86266" lon="4.81526">
        <ele>346</ele>
        <time>2012-01-15T08:23:24Z</time>
      </trkpt>
      <trkpt lat="45.8626" lon="4.81523">
        <ele>346</ele>
        <time>2012-01-15T08:23:27Z</time>
      </trkpt>
      <trkpt lat="45.86254" lon="4.81521">
        <ele>347</ele>
        <time>2012-01-15T08:23:30Z</time>
      </trkpt>
      <trkpt lat="45.86241" lon="4.81515">
        <ele>347</ele>
        <time>2012-01-15T08:23:36Z</time>
      </trkpt>
      <trkpt lat="45.86239" lon="4.81514">
        <ele>347</ele>
        <time>2012-01-15T08:23:37Z</time>
      </trkpt>
      <trkpt lat="45.86227" lon="4.81512">
        <ele>346</ele>
        <time>2012-01-15T08:23:43Z</time>
      </trkpt>
      <trkpt lat="45.86222" lon="4.8151">
        <ele>346</ele>
        <time>2012-01-15T08:23:45Z</time>
      </trkpt>
      <trkpt lat="45.86215" lon="4.81507">
        <ele>346</ele>
        <time>2012-01-15T08:23:48Z</time>
      </trkpt>
      <trkpt lat="45.86204" lon="4.81502">
        <ele>345</ele>
        <time>2012-01-15T08:23:53Z</time>
      </trkpt>
      <trkpt lat="45.86202" lon="4.81501">
        <ele>345</ele>
        <time>2012-01-15T08:23:54Z</time>
      </trkpt>
      <trkpt lat="45.86191" lon="4.81494">
        <ele>342</ele>
        <time>2012-01-15T08:23:59Z</time>
      </trkpt>
      <trkpt lat="45.86187" lon="4.81491">
        <ele>342</ele>
        <time>2012-01-15T08:24:01Z</time>
      </trkpt>
      <trkpt lat="45.86177" lon="4.81488">
        <ele>343</ele>
        <time>2012-01-15T08:24:05Z</time>
      </trkpt>
      <trkpt lat="45.86168" lon="4.81485">
        <ele>343</ele>
        <time>2012-01-15T08:24:09Z</time>
      </trkpt>
      <trkpt lat="45.86161" lon="4.81481">
        <ele>344</ele>
        <time>2012-01-15T08:24:12Z</time>
      </trkpt>
      <trkpt lat="45.8615" lon="4.81477">
        <ele>342</ele>
        <time>2012-01-15T08:24:17Z</time>
      </trkpt>
      <trkpt lat="45.86148" lon="4.81476">
        <ele>342</ele>
        <time>2012-01-15T08:24:18Z</time>
      </trkpt>
      <trkpt lat="45.86136" lon="4.81472">
        <ele>341</ele>
        <time>2012-01-15T08:24:23Z</time>
      </trkpt>
      <trkpt lat="45.86129" lon="4.8147">
        <ele>341</ele>
        <time>2012-01-15T08:24:26Z</time>
      </trkpt>
      <trkpt lat="45.86122" lon="4.81468">
        <ele>341</ele>
        <time>2012-01-15T08:24:29Z</time>
      </trkpt>
      <trkpt lat="45.86111" lon="4.8146">
        <ele>341</ele>
        <time>2012-01-15T08:24:34Z</time>
      </trkpt>
      <trkpt lat="45.86106" lon="4.81458">
        <ele>340</ele>
        <time>2012-01-15T08:24:36Z</time>
      </trkpt>
      <trkpt lat="45.86092" lon="4.81452">
        <ele>341</ele>
        <time>2012-01-15T08:24:42Z</time>
      </trkpt>
      <trkpt lat="45.86076" lon="4.81444">
        <ele>344</ele>
        <time>2012-01-15T08:24:49Z</time>
      </trkpt>
      <trkpt lat="45.86074" lon="4.81443">
        <ele>344</ele>
        <time>2012-01-15T08:24:50Z</time>
      </trkpt>
      <trkpt lat="45.86062" lon="4.81437">
        <ele>344</ele>
        <time>2012-01-15T08:24:56Z</time>
      </trkpt>
      <trkpt lat="45.86055" lon="4.81437">
        <ele>345</ele>
        <time>2012-01-15T08:25:00Z</time>
      </trkpt>
      <trkpt lat="45.86054" lon="4.81437">
        <ele>345</ele>
        <time>2012-01-15T08:25:02Z</time>
      </trkpt>
      <trkpt lat="45.86048" lon="4.81434">
        <ele>345</ele>
        <time>2012-01-15T08:25:14Z</time>
      </trkpt>
      <trkpt lat="45.86046" lon="4.81434">
        <ele>346</ele>
        <time>2012-01-15T08:25:15Z</time>
      </trkpt>
      <trkpt lat="45.86037" lon="4.81431">
        <ele>347</ele>
        <time>2012-01-15T08:25:19Z</time>
      </trkpt>
      <trkpt lat="45.86034" lon="4.81431">
        <ele>347</ele>
        <time>2012-01-15T08:25:20Z</time>
      </trkpt>
      <trkpt lat="45.86019" lon="4.81426">
        <ele>349</ele>
        <time>2012-01-15T08:25:26Z</time>
      </trkpt>
      <trkpt lat="45.86016" lon="4.81426">
        <ele>350</ele>
        <time>2012-01-15T08:25:27Z</time>
      </trkpt>
      <trkpt lat="45.86002" lon="4.81418">
        <ele>354</ele>
        <time>2012-01-15T08:25:33Z</time>
      </trkpt>
      <trkpt lat="45.85998" lon="4.81417">
        <ele>355</ele>
        <time>2012-01-15T08:25:35Z</time>
      </trkpt>
      <trkpt lat="45.85992" lon="4.81414">
        <ele>355</ele>
        <time>2012-01-15T08:25:38Z</time>
      </trkpt>
      <trkpt lat="45.85986" lon="4.8141">
        <ele>355</ele>
        <time>2012-01-15T08:25:41Z</time>
      </trkpt>
      <trkpt lat="45.85982" lon="4.81408">
        <ele>355</ele>
        <time>2012-01-15T08:25:43Z</time>
      </trkpt>
      <trkpt lat="45.85979" lon="4.81407">
        <ele>355</ele>
        <time>2012-01-15T08:25:44Z</time>
      </trkpt>
      <trkpt lat="45.85972" lon="4.81404">
        <ele>355</ele>
        <time>2012-01-15T08:25:48Z</time>
      </trkpt>
      <trkpt lat="45.85965" lon="4.81402">
        <ele>356</ele>
        <time>2012-01-15T08:25:52Z</time>
      </trkpt>
      <trkpt lat="45.85961" lon="4.814">
        <ele>356</ele>
        <time>2012-01-15T08:25:55Z</time>
      </trkpt>
      <trkpt lat="45.85954" lon="4.81393">
        <ele>357</ele>
        <time>2012-01-15T08:25:59Z</time>
      </trkpt>
      <trkpt lat="45.85946" lon="4.81386">
        <ele>357</ele>
        <time>2012-01-15T08:26:03Z</time>
      </trkpt>
      <trkpt lat="45.85942" lon="4.81383">
        <ele>357</ele>
        <time>2012-01-15T08:26:05Z</time>
      </trkpt>
      <trkpt lat="45.85936" lon="4.81379">
        <ele>357</ele>
        <time>2012-01-15T08:26:08Z</time>
      </trkpt>
      <trkpt lat="45.85932" lon="4.81377">
        <ele>358</ele>
        <time>2012-01-15T08:26:10Z</time>
      </trkpt>
      <trkpt lat="45.85928" lon="4.81373">
        <ele>358</ele>
        <time>2012-01-15T08:26:12Z</time>
      </trkpt>
      <trkpt lat="45.8592" lon="4.81369">
        <ele>358</ele>
        <time>2012-01-15T08:26:16Z</time>
      </trkpt>
      <trkpt lat="45.8591" lon="4.81363">
        <ele>371</ele>
        <time>2012-01-15T08:26:22Z</time>
      </trkpt>
      <trkpt lat="45.85908" lon="4.81361">
        <ele>371</ele>
        <time>2012-01-15T08:26:32Z</time>
      </trkpt>
      <trkpt lat="45.85903" lon="4.81362">
        <ele>371</ele>
        <time>2012-01-15T08:26:52Z</time>
      </trkpt>
      <trkpt lat="45.85897" lon="4.81355">
        <ele>371</ele>
        <time>2012-01-15T08:26:58Z</time>
      </trkpt>
      <trkpt lat="45.85895" lon="4.8135">
        <ele>371</ele>
        <time>2012-01-15T08:27:01Z</time>
      </trkpt>
      <trkpt lat="45.85891" lon="4.81345">
        <ele>372</ele>
        <time>2012-01-15T08:27:04Z</time>
      </trkpt>
      <trkpt lat="45.85887" lon="4.81341">
        <ele>372</ele>
        <time>2012-01-15T08:27:07Z</time>
      </trkpt>
      <trkpt lat="45.85884" lon="4.81339">
        <ele>373</ele>
        <time>2012-01-15T08:27:09Z</time>
      </trkpt>
      <trkpt lat="45.85881" lon="4.81337">
        <ele>373</ele>
        <time>2012-01-15T08:27:11Z</time>
      </trkpt>
      <trkpt lat="45.85879" lon="4.81336">
        <ele>374</ele>
        <time>2012-01-15T08:27:12Z</time>
      </trkpt>
      <trkpt lat="45.85873" lon="4.8133">
        <ele>366</ele>
        <time>2012-01-15T08:27:16Z</time>
      </trkpt>
      <trkpt lat="45.85868" lon="4.81323">
        <ele>367</ele>
        <time>2012-01-15T08:27:21Z</time>
      </trkpt>
      <trkpt lat="45.85864" lon="4.8132">
        <ele>367</ele>
        <time>2012-01-15T08:27:23Z</time>
      </trkpt>
      <trkpt lat="45.85859" lon="4.81313">
        <ele>367</ele>
        <time>2012-01-15T08:27:27Z</time>
      </trkpt>
      <trkpt lat="45.85853" lon="4.81304">
        <ele>367</ele>
        <time>2012-01-15T08:27:32Z</time>
      </trkpt>
      <trkpt lat="45.85852" lon="4.81302">
        <ele>366</ele>
        <time>2012-01-15T08:27:33Z</time>
      </trkpt>
      <trkpt lat="45.8585" lon="4.81301">
        <ele>366</ele>
        <time>2012-01-15T08:27:34Z</time>
      </trkpt>
      <trkpt lat="45.85847" lon="4.81296">
        <ele>366</ele>
        <time>2012-01-15T08:27:37Z</time>
      </trkpt>
      <trkpt lat="45.85846" lon="4.81296">
        <ele>366</ele>
        <time>2012-01-15T08:27:38Z</time>
      </trkpt>
      <trkpt lat="45.85835" lon="4.81292">
        <ele>366</ele>
        <time>2012-01-15T08:27:44Z</time>
      </trkpt>
      <trkpt lat="45.85833" lon="4.81291">
        <ele>376</ele>
        <time>2012-01-15T08:27:46Z</time>
      </trkpt>
      <trkpt lat="45.8583" lon="4.81292">
        <ele>376</ele>
        <time>2012-01-15T08:27:50Z</time>
      </trkpt>
      <trkpt lat="45.85827" lon="4.81294">
        <ele>377</ele>
        <time>2012-01-15T08:27:55Z</time>
      </trkpt>
      <trkpt lat="45.85823" lon="4.813">
        <ele>378</ele>
        <time>2012-01-15T08:28:01Z</time>
      </trkpt>
      <trkpt lat="45.8582" lon="4.81304">
        <ele>379</ele>
        <time>2012-01-15T08:28:06Z</time>
      </trkpt>
      <trkpt lat="45.85819" lon="4.81307">
        <ele>379</ele>
        <time>2012-01-15T08:28:08Z</time>
      </trkpt>
      <trkpt lat="45.85818" lon="4.81308">
        <ele>379</ele>
        <time>2012-01-15T08:28:09Z</time>
      </trkpt>
      <trkpt lat="45.85817" lon="4.81309">
        <ele>379</ele>
        <time>2012-01-15T08:28:10Z</time>
      </trkpt>
      <trkpt lat="45.85814" lon="4.8131">
        <ele>380</ele>
        <time>2012-01-15T08:28:13Z</time>
      </trkpt>
      <trkpt lat="45.85808" lon="4.81306">
        <ele>379</ele>
        <time>2012-01-15T08:28:18Z</time>
      </trkpt>
      <trkpt lat="45.85802" lon="4.81305">
        <ele>380</ele>
        <time>2012-01-15T08:28:22Z</time>
      </trkpt>
      <trkpt lat="45.858" lon="4.81304">
        <ele>380</ele>
        <time>2012-01-15T08:28:23Z</time>
      </trkpt>
      <trkpt lat="45.85797" lon="4.81302">
        <ele>380</ele>
        <time>2012-01-15T08:28:25Z</time>
      </trkpt>
      <trkpt lat="45.85785" lon="4.81298">
        <ele>380</ele>
        <time>2012-01-15T08:28:31Z</time>
      </trkpt>
      <trkpt lat="45.85783" lon="4.81298">
        <ele>380</ele>
        <time>2012-01-15T08:28:32Z</time>
      </trkpt>
      <trkpt lat="45.85773" lon="4.81296">
        <ele>381</ele>
        <time>2012-01-15T08:28:38Z</time>
      </trkpt>
      <trkpt lat="45.85765" lon="4.81296">
        <ele>382</ele>
        <time>2012-01-15T08:28:42Z</time>
      </trkpt>
      <trkpt lat="45.85763" lon="4.81297">
        <ele>382</ele>
        <time>2012-01-15T08:28:43Z</time>
      </trkpt>
      <trkpt lat="45.85756" lon="4.81292">
        <ele>381</ele>
        <time>2012-01-15T08:28:48Z</time>
      </trkpt>
      <trkpt lat="45.85755" lon="4.81291">
        <ele>381</ele>
        <time>2012-01-15T08:28:49Z</time>
      </trkpt>
      <trkpt lat="45.85751" lon="4.81291">
        <ele>381</ele>
        <time>2012-01-15T08:28:51Z</time>
      </trkpt>
      <trkpt lat="45.85749" lon="4.81292">
        <ele>390</ele>
        <time>2012-01-15T08:28:52Z</time>
      </trkpt>
      <trkpt lat="45.85747" lon="4.81293">
        <ele>390</ele>
        <time>2012-01-15T08:28:53Z</time>
      </trkpt>
      <trkpt lat="45.85741" lon="4.81292">
        <ele>390</ele>
        <time>2012-01-15T08:28:56Z</time>
      </trkpt>
      <trkpt lat="45.85738" lon="4.81293">
        <ele>391</ele>
        <time>2012-01-15T08:28:58Z</time>
      </trkpt>
      <trkpt lat="45.85729" lon="4.81298">
        <ele>392</ele>
        <time>2012-01-15T08:29:04Z</time>
      </trkpt>
      <trkpt lat="45.85728" lon="4.81298">
        <ele>392</ele>
        <time>2012-01-15T08:29:05Z</time>
      </trkpt>
      <trkpt lat="45.85721" lon="4.81297">
        <ele>393</ele>
        <time>2012-01-15T08:29:09Z</time>
      </trkpt>
      <trkpt lat="45.85716" lon="4.81297">
        <ele>393</ele>
        <time>2012-01-15T08:29:12Z</time>
      </trkpt>
      <trkpt lat="45.85711" lon="4.81295">
        <ele>393</ele>
        <time>2012-01-15T08:29:16Z</time>
      </trkpt>
      <trkpt lat="45.85709" lon="4.81295">
        <ele>393</ele>
        <time>2012-01-15T08:29:17Z</time>
      </trkpt>
      <trkpt lat="45.85702" lon="4.8129">
        <ele>393</ele>
        <time>2012-01-15T08:29:21Z</time>
      </trkpt>
      <trkpt lat="45.857" lon="4.81288">
        <ele>393</ele>
        <time>2012-01-15T08:29:22Z</time>
      </trkpt>
      <trkpt lat="45.85694" lon="4.81284">
        <ele>393</ele>
        <time>2012-01-15T08:29:26Z</time>
      </trkpt>
      <trkpt lat="45.85692" lon="4.81283">
        <ele>393</ele>
        <time>2012-01-15T08:29:27Z</time>
      </trkpt>
      <trkpt lat="45.8569" lon="4.81281">
        <ele>392</ele>
        <time>2012-01-15T08:29:28Z</time>
      </trkpt>
      <trkpt lat="45.85685" lon="4.81276">
        <ele>392</ele>
        <time>2012-01-15T08:29:31Z</time>
      </trkpt>
      <trkpt lat="45.85675" lon="4.81269">
        <ele>390</ele>
        <time>2012-01-15T08:29:36Z</time>
      </trkpt>
      <trkpt lat="45.8567" lon="4.81265">
        <ele>390</ele>
        <time>2012-01-15T08:29:39Z</time>
      </trkpt>
      <trkpt lat="45.85663" lon="4.81263">
        <ele>396</ele>
        <time>2012-01-15T08:29:42Z</time>
      </trkpt>
      <trkpt lat="45.85658" lon="4.8126">
        <ele>396</ele>
        <time>2012-01-15T08:29:45Z</time>
      </trkpt>
      <trkpt lat="45.85654" lon="4.81258">
        <ele>397</ele>
        <time>2012-01-15T08:29:47Z</time>
      </trkpt>
      <trkpt lat="45.85651" lon="4.81256">
        <ele>398</ele>
        <time>2012-01-15T08:29:49Z</time>
      </trkpt>
      <trkpt lat="45.85645" lon="4.81251">
        <ele>399</ele>
        <time>2012-01-15T08:29:52Z</time>
      </trkpt>
      <trkpt lat="45.85641" lon="4.8125">
        <ele>401</ele>
        <time>2012-01-15T08:29:54Z</time>
      </trkpt>
      <trkpt lat="45.85634" lon="4.81247">
        <ele>386</ele>
        <time>2012-01-15T08:29:58Z</time>
      </trkpt>
      <trkpt lat="45.85624" lon="4.81243">
        <ele>387</ele>
        <time>2012-01-15T08:30:03Z</time>
      </trkpt>
      <trkpt lat="45.85619" lon="4.8124">
        <ele>388</ele>
        <time>2012-01-15T08:30:05Z</time>
      </trkpt>
      <trkpt lat="45.85611" lon="4.81233">
        <ele>389</ele>
        <time>2012-01-15T08:30:10Z</time>
      </trkpt>
      <trkpt lat="45.85607" lon="4.81229">
        <ele>389</ele>
        <time>2012-01-15T08:30:12Z</time>
      </trkpt>
      <trkpt lat="45.85602" lon="4.81224">
        <ele>388</ele>
        <time>2012-01-15T08:30:15Z</time>
      </trkpt>
      <trkpt lat="45.85595" lon="4.8122">
        <ele>388</ele>
        <time>2012-01-15T08:30:19Z</time>
      </trkpt>
      <trkpt lat="45.85593" lon="4.81218">
        <ele>388</ele>
        <time>2012-01-15T08:30:20Z</time>
      </trkpt>
      <trkpt lat="45.85591" lon="4.81216">
        <ele>388</ele>
        <time>2012-01-15T08:30:21Z</time>
      </trkpt>
      <trkpt lat="45.85582" lon="4.81211">
        <ele>401</ele>
        <time>2012-01-15T08:30:25Z</time>
      </trkpt>
      <trkpt lat="45.85581" lon="4.8121">
        <ele>401</ele>
        <time>2012-01-15T08:30:26Z</time>
      </trkpt>
      <trkpt lat="45.85578" lon="4.81207">
        <ele>400</ele>
        <time>2012-01-15T08:30:28Z</time>
      </trkpt>
      <trkpt lat="45.85575" lon="4.81207">
        <ele>400</ele>
        <time>2012-01-15T08:30:29Z</time>
      </trkpt>
      <trkpt lat="45.85574" lon="4.81204">
        <ele>400</ele>
        <time>2012-01-15T08:30:30Z</time>
      </trkpt>
      <trkpt lat="45.85563" lon="4.81194">
        <ele>398</ele>
        <time>2012-01-15T08:30:35Z</time>
      </trkpt>
      <trkpt lat="45.85557" lon="4.81187">
        <ele>398</ele>
        <time>2012-01-15T08:30:39Z</time>
      </trkpt>
      <trkpt lat="45.85549" lon="4.81176">
        <ele>398</ele>
        <time>2012-01-15T08:30:44Z</time>
      </trkpt>
      <trkpt lat="45.85546" lon="4.81171">
        <ele>398</ele>
        <time>2012-01-15T08:30:46Z</time>
      </trkpt>
      <trkpt lat="45.85545" lon="4.81166">
        <ele>378</ele>
        <time>2012-01-15T08:30:48Z</time>
      </trkpt>
      <trkpt lat="45.85544" lon="4.8116">
        <ele>378</ele>
        <time>2012-01-15T08:30:50Z</time>
      </trkpt>
      <trkpt lat="45.85543" lon="4.81158">
        <ele>377</ele>
        <time>2012-01-15T08:30:51Z</time>
      </trkpt>
      <trkpt lat="45.85539" lon="4.81147">
        <ele>377</ele>
        <time>2012-01-15T08:30:55Z</time>
      </trkpt>
      <trkpt lat="45.85534" lon="4.81145">
        <ele>378</ele>
        <time>2012-01-15T08:30:57Z</time>
      </trkpt>
      <trkpt lat="45.85527" lon="4.81141">
        <ele>379</ele>
        <time>2012-01-15T08:31:00Z</time>
      </trkpt>
      <trkpt lat="45.85518" lon="4.81131">
        <ele>378</ele>
        <time>2012-01-15T08:31:05Z</time>
      </trkpt>
      <trkpt lat="45.85518" lon="4.8113">
        <ele>378</ele>
        <time>2012-01-15T08:31:06Z</time>
      </trkpt>
      <trkpt lat="45.8551" lon="4.8112">
        <ele>376</ele>
        <time>2012-01-15T08:31:12Z</time>
      </trkpt>
      <trkpt lat="45.85503" lon="4.81112">
        <ele>375</ele>
        <time>2012-01-15T08:31:18Z</time>
      </trkpt>
      <trkpt lat="45.85501" lon="4.8111">
        <ele>375</ele>
        <time>2012-01-15T08:31:19Z</time>
      </trkpt>
      <trkpt lat="45.85498" lon="4.81108">
        <ele>391</ele>
        <time>2012-01-15T08:31:21Z</time>
      </trkpt>
      <trkpt lat="45.85492" lon="4.81103">
        <ele>390</ele>
        <time>2012-01-15T08:31:24Z</time>
      </trkpt>
      <trkpt lat="45.85485" lon="4.81099">
        <ele>390</ele>
        <time>2012-01-15T08:31:27Z</time>
      </trkpt>
      <trkpt lat="45.85479" lon="4.81096">
        <ele>391</ele>
        <time>2012-01-15T08:31:30Z</time>
      </trkpt>
      <trkpt lat="45.85475" lon="4.81092">
        <ele>392</ele>
        <time>2012-01-15T08:31:33Z</time>
      </trkpt>
      <trkpt lat="45.85471" lon="4.81086">
        <ele>393</ele>
        <time>2012-01-15T08:31:36Z</time>
      </trkpt>
      <trkpt lat="45.85469" lon="4.81083">
        <ele>377</ele>
        <time>2012-01-15T08:31:37Z</time>
      </trkpt>
      <trkpt lat="45.85462" lon="4.81076">
        <ele>379</ele>
        <time>2012-01-15T08:31:41Z</time>
      </trkpt>
      <trkpt lat="45.8546" lon="4.81074">
        <ele>379</ele>
        <time>2012-01-15T08:31:42Z</time>
      </trkpt>
      <trkpt lat="45.85453" lon="4.81067">
        <ele>380</ele>
        <time>2012-01-15T08:31:46Z</time>
      </trkpt>
      <trkpt lat="45.85451" lon="4.81066">
        <ele>380</ele>
        <time>2012-01-15T08:31:47Z</time>
      </trkpt>
      <trkpt lat="45.85442" lon="4.81057">
        <ele>381</ele>
        <time>2012-01-15T08:31:52Z</time>
      </trkpt>
      <trkpt lat="45.85437" lon="4.81053">
        <ele>381</ele>
        <time>2012-01-15T08:31:55Z</time>
      </trkpt>
      <trkpt lat="45.85436" lon="4.81051">
        <ele>381</ele>
        <time>2012-01-15T08:31:56Z</time>
      </trkpt>
      <trkpt lat="45.85433" lon="4.81048">
        <ele>380</ele>
        <time>2012-01-15T08:31:58Z</time>
      </trkpt>
      <trkpt lat="45.85426" lon="4.81039">
        <ele>379</ele>
        <time>2012-01-15T08:32:02Z</time>
      </trkpt>
      <trkpt lat="45.85423" lon="4.81036">
        <ele>379</ele>
        <time>2012-01-15T08:32:04Z</time>
      </trkpt>
      <trkpt lat="45.85416" lon="4.8103">
        <ele>395</ele>
        <time>2012-01-15T08:32:08Z</time>
      </trkpt>
      <trkpt lat="45.85412" lon="4.81026">
        <ele>394</ele>
        <time>2012-01-15T08:32:11Z</time>
      </trkpt>
      <trkpt lat="45.85408" lon="4.81021">
        <ele>393</ele>
        <time>2012-01-15T08:32:14Z</time>
      </trkpt>
      <trkpt lat="45.85407" lon="4.81019">
        <ele>392</ele>
        <time>2012-01-15T08:32:15Z</time>
      </trkpt>
      <trkpt lat="45.85399" lon="4.81009">
        <ele>392</ele>
        <time>2012-01-15T08:32:20Z</time>
      </trkpt>
      <trkpt lat="45.85393" lon="4.81001">
        <ele>393</ele>
        <time>2012-01-15T08:32:24Z</time>
      </trkpt>
      <trkpt lat="45.85391" lon="4.80996">
        <ele>382</ele>
        <time>2012-01-15T08:32:26Z</time>
      </trkpt>
      <trkpt lat="45.85386" lon="4.80984">
        <ele>382</ele>
        <time>2012-01-15T08:32:32Z</time>
      </trkpt>
      <trkpt lat="45.85382" lon="4.80979">
        <ele>383</ele>
        <time>2012-01-15T08:32:36Z</time>
      </trkpt>
      <trkpt lat="45.8538" lon="4.80974">
        <ele>383</ele>
        <time>2012-01-15T08:32:38Z</time>
      </trkpt>
      <trkpt lat="45.85378" lon="4.80972">
        <ele>383</ele>
        <time>2012-01-15T08:32:39Z</time>
      </trkpt>
      <trkpt lat="45.85375" lon="4.80968">
        <ele>384</ele>
        <time>2012-01-15T08:32:41Z</time>
      </trkpt>
      <trkpt lat="45.85373" lon="4.80962">
        <ele>383</ele>
        <time>2012-01-15T08:32:45Z</time>
      </trkpt>
      <trkpt lat="45.85373" lon="4.80961">
        <ele>383</ele>
        <time>2012-01-15T08:32:46Z</time>
      </trkpt>
      <trkpt lat="45.8537" lon="4.80962">
        <ele>384</ele>
        <time>2012-01-15T08:32:49Z</time>
      </trkpt>
      <trkpt lat="45.85369" lon="4.80962">
        <ele>384</ele>
        <time>2012-01-15T08:32:50Z</time>
      </trkpt>
      <trkpt lat="45.85364" lon="4.80957">
        <ele>384</ele>
        <time>2012-01-15T08:32:55Z</time>
      </trkpt>
      <trkpt lat="45.85363" lon="4.80955">
        <ele>384</ele>
        <time>2012-01-15T08:32:57Z</time>
      </trkpt>
      <trkpt lat="45.85359" lon="4.80952">
        <ele>385</ele>
        <time>2012-01-15T08:33:12Z</time>
      </trkpt>
      <trkpt lat="45.85355" lon="4.80953">
        <ele>385</ele>
        <time>2012-01-15T08:33:16Z</time>
      </trkpt>
      <trkpt lat="45.85354" lon="4.80954">
        <ele>385</ele>
        <time>2012-01-15T08:33:17Z</time>
      </trkpt>
      <trkpt lat="45.85347" lon="4.80956">
        <ele>387</ele>
        <time>2012-01-15T08:33:24Z</time>
      </trkpt>
      <trkpt lat="45.85346" lon="4.80956">
        <ele>387</ele>
        <time>2012-01-15T08:33:25Z</time>
      </trkpt>
      <trkpt lat="45.85344" lon="4.80955">
        <ele>387</ele>
        <time>2012-01-15T08:33:28Z</time>
      </trkpt>
      <trkpt lat="45.85341" lon="4.80956">
        <ele>387</ele>
        <time>2012-01-15T08:33:31Z</time>
      </trkpt>
      <trkpt lat="45.85339" lon="4.80957">
        <ele>388</ele>
        <time>2012-01-15T08:33:33Z</time>
      </trkpt>
      <trkpt lat="45.85337" lon="4.80957">
        <ele>388</ele>
        <time>2012-01-15T08:33:35Z</time>
      </trkpt>
      <trkpt lat="45.85334" lon="4.80956">
        <ele>388</ele>
        <time>2012-01-15T08:33:37Z</time>
      </trkpt>
      <trkpt lat="45.85326" lon="4.80954">
        <ele>408</ele>
        <time>2012-01-15T08:33:44Z</time>
      </trkpt>
      <trkpt lat="45.85321" lon="4.80954">
        <ele>409</ele>
        <time>2012-01-15T08:33:50Z</time>
      </trkpt>
      <trkpt lat="45.85319" lon="4.80953">
        <ele>409</ele>
        <time>2012-01-15T08:33:53Z</time>
      </trkpt>
      <trkpt lat="45.85315" lon="4.80951">
        <ele>409</ele>
        <time>2012-01-15T08:33:57Z</time>
      </trkpt>
      <trkpt lat="45.8531" lon="4.80948">
        <ele>410</ele>
        <time>2012-01-15T08:34:03Z</time>
      </trkpt>
      <trkpt lat="45.85309" lon="4.80947">
        <ele>410</ele>
        <time>2012-01-15T08:34:04Z</time>
      </trkpt>
      <trkpt lat="45.85302" lon="4.80944">
        <ele>411</ele>
        <time>2012-01-15T08:34:10Z</time>
      </trkpt>
      <trkpt lat="45.85297" lon="4.8094">
        <ele>412</ele>
        <time>2012-01-15T08:34:13Z</time>
      </trkpt>
      <trkpt lat="45.85296" lon="4.80939">
        <ele>412</ele>
        <time>2012-01-15T08:34:16Z</time>
      </trkpt>
      <trkpt lat="45.8529" lon="4.80936">
        <ele>413</ele>
        <time>2012-01-15T08:34:21Z</time>
      </trkpt>
      <trkpt lat="45.85288" lon="4.80933">
        <ele>413</ele>
        <time>2012-01-15T08:34:24Z</time>
      </trkpt>
      <trkpt lat="45.85286" lon="4.80931">
        <ele>413</ele>
        <time>2012-01-15T08:34:26Z</time>
      </trkpt>
      <trkpt lat="45.85284" lon="4.80929">
        <ele>414</ele>
        <time>2012-01-15T08:34:28Z</time>
      </trkpt>
      <trkpt lat="45.85279" lon="4.80925">
        <ele>415</ele>
        <time>2012-01-15T08:34:34Z</time>
      </trkpt>
      <trkpt lat="45.85278" lon="4.80925">
        <ele>415</ele>
        <time>2012-01-15T08:34:35Z</time>
      </trkpt>
      <trkpt lat="45.85274" lon="4.80921">
        <ele>415</ele>
        <time>2012-01-15T08:34:39Z</time>
      </trkpt>
      <trkpt lat="45.85274" lon="4.80921">
        <ele>415</ele>
        <time>2012-01-15T08:34:40Z</time>
      </trkpt>
      <trkpt lat="45.85271" lon="4.80917">
        <ele>405</ele>
        <time>2012-01-15T08:34:43Z</time>
      </trkpt>
      <trkpt lat="45.8527" lon="4.80916">
        <ele>405</ele>
        <time>2012-01-15T08:34:44Z</time>
      </trkpt>
      <trkpt lat="45.85269" lon="4.80915">
        <ele>406</ele>
        <time>2012-01-15T08:34:45Z</time>
      </trkpt>
      <trkpt lat="45.85269" lon="4.80914">
        <ele>406</ele>
        <time>2012-01-15T08:34:46Z</time>
      </trkpt>
      <trkpt lat="45.85265" lon="4.8091">
        <ele>407</ele>
        <time>2012-01-15T08:34:50Z</time>
      </trkpt>
      <trkpt lat="45.85263" lon="4.80909">
        <ele>408</ele>
        <time>2012-01-15T08:34:52Z</time>
      </trkpt>
      <trkpt lat="45.85257" lon="4.80904">
        <ele>408</ele>
        <time>2012-01-15T08:34:58Z</time>
      </trkpt>
      <trkpt lat="45.85256" lon="4.80903">
        <ele>408</ele>
        <time>2012-01-15T08:34:59Z</time>
      </trkpt>
      <trkpt lat="45.85252" lon="4.80897">
        <ele>406</ele>
        <time>2012-01-15T08:35:04Z</time>
      </trkpt>
      <trkpt lat="45.8525" lon="4.80895">
        <ele>405</ele>
        <time>2012-01-15T08:35:06Z</time>
      </trkpt>
      <trkpt lat="45.85246" lon="4.80892">
        <ele>423</ele>
        <time>2012-01-15T08:35:09Z</time>
      </trkpt>
      <trkpt lat="45.85243" lon="4.80889">
        <ele>423</ele>
        <time>2012-01-15T08:35:12Z</time>
      </trkpt>
      <trkpt lat="45.85242" lon="4.80887">
        <ele>423</ele>
        <time>2012-01-15T08:35:13Z</time>
      </trkpt>
      <trkpt lat="45.85237" lon="4.80882">
        <ele>423</ele>
        <time>2012-01-15T08:35:17Z</time>
      </trkpt>
      <trkpt lat="45.85227" lon="4.80872">
        <ele>424</ele>
        <time>2012-01-15T08:35:24Z</time>
      </trkpt>
      <trkpt lat="45.85218" lon="4.80866">
        <ele>424</ele>
        <time>2012-01-15T08:35:30Z</time>
      </trkpt>
      <trkpt lat="45.8521" lon="4.80862">
        <ele>426</ele>
        <time>2012-01-15T08:35:35Z</time>
      </trkpt>
      <trkpt lat="45.85208" lon="4.80861">
        <ele>426</ele>
        <time>2012-01-15T08:35:36Z</time>
      </trkpt>
      <trkpt lat="45.85197" lon="4.80854">
        <ele>428</ele>
        <time>2012-01-15T08:35:43Z</time>
      </trkpt>
      <trkpt lat="45.85194" lon="4.8085">
        <ele>429</ele>
        <time>2012-01-15T08:35:46Z</time>
      </trkpt>
      <trkpt lat="45.8519" lon="4.80844">
        <ele>429</ele>
        <time>2012-01-15T08:35:49Z</time>
      </trkpt>
      <trkpt lat="45.85184" lon="4.80834">
        <ele>431</ele>
        <time>2012-01-15T08:35:55Z</time>
      </trkpt>
      <trkpt lat="45.85182" lon="4.8083">
        <ele>422</ele>
        <time>2012-01-15T08:35:57Z</time>
      </trkpt>
      <trkpt lat="45.85181" lon="4.80824">
        <ele>421</ele>
        <time>2012-01-15T08:36:00Z</time>
      </trkpt>
      <trkpt lat="45.85178" lon="4.80814">
        <ele>419</ele>
        <time>2012-01-15T08:36:05Z</time>
      </trkpt>
      <trkpt lat="45.85177" lon="4.80811">
        <ele>418</ele>
        <time>2012-01-15T08:36:07Z</time>
      </trkpt>
      <trkpt lat="45.85175" lon="4.80807">
        <ele>417</ele>
        <time>2012-01-15T08:36:09Z</time>
      </trkpt>
      <trkpt lat="45.85174" lon="4.80805">
        <ele>417</ele>
        <time>2012-01-15T08:36:10Z</time>
      </trkpt>
      <trkpt lat="45.85172" lon="4.80803">
        <ele>416</ele>
        <time>2012-01-15T08:36:12Z</time>
      </trkpt>
      <trkpt lat="45.85168" lon="4.80794">
        <ele>415</ele>
        <time>2012-01-15T08:36:18Z</time>
      </trkpt>
      <trkpt lat="45.85164" lon="4.80787">
        <ele>438</ele>
        <time>2012-01-15T08:36:23Z</time>
      </trkpt>
      <trkpt lat="45.85162" lon="4.80785">
        <ele>438</ele>
        <time>2012-01-15T08:36:25Z</time>
      </trkpt>
      <trkpt lat="45.85153" lon="4.80772">
        <ele>436</ele>
        <time>2012-01-15T08:36:30Z</time>
      </trkpt>
      <trkpt lat="45.85149" lon="4.80767">
        <ele>435</ele>
        <time>2012-01-15T08:36:33Z</time>
      </trkpt>
      <trkpt lat="45.85142" lon="4.80757">
        <ele>436</ele>
        <time>2012-01-15T08:36:37Z</time>
      </trkpt>
      <trkpt lat="45.85135" lon="4.80748">
        <ele>427</ele>
        <time>2012-01-15T08:36:41Z</time>
      </trkpt>
      <trkpt lat="45.85134" lon="4.80746">
        <ele>427</ele>
        <time>2012-01-15T08:36:42Z</time>
      </trkpt>
      <trkpt lat="45.85127" lon="4.80736">
        <ele>429</ele>
        <time>2012-01-15T08:36:48Z</time>
      </trkpt>
      <trkpt lat="45.85119" lon="4.80729">
        <ele>431</ele>
        <time>2012-01-15T08:36:52Z</time>
      </trkpt>
      <trkpt lat="45.85115" lon="4.80726">
        <ele>431</ele>
        <time>2012-01-15T08:36:54Z</time>
      </trkpt>
      <trkpt lat="45.85109" lon="4.80718">
        <ele>431</ele>
        <time>2012-01-15T08:36:58Z</time>
      </trkpt>
      <trkpt lat="45.85107" lon="4.80717">
        <ele>432</ele>
        <time>2012-01-15T08:36:59Z</time>
      </trkpt>
      <trkpt lat="45.85105" lon="4.80712">
        <ele>431</ele>
        <time>2012-01-15T08:37:02Z</time>
      </trkpt>
      <trkpt lat="45.85103" lon="4.80707">
        <ele>431</ele>
        <time>2012-01-15T08:37:04Z</time>
      </trkpt>
      <trkpt lat="45.85102" lon="4.80705">
        <ele>431</ele>
        <time>2012-01-15T08:37:05Z</time>
      </trkpt>
      <trkpt lat="45.85095" lon="4.80694">
        <ele>431</ele>
        <time>2012-01-15T08:37:10Z</time>
      </trkpt>
      <trkpt lat="45.85091" lon="4.80689">
        <ele>431</ele>
        <time>2012-01-15T08:37:12Z</time>
      </trkpt>
      <trkpt lat="45.85086" lon="4.80678">
        <ele>432</ele>
        <time>2012-01-15T08:37:17Z</time>
      </trkpt>
      <trkpt lat="45.85081" lon="4.80667">
        <ele>437</ele>
        <time>2012-01-15T08:37:23Z</time>
      </trkpt>
      <trkpt lat="45.85077" lon="4.80656">
        <ele>439</ele>
        <time>2012-01-15T08:37:28Z</time>
      </trkpt>
      <trkpt lat="45.85072" lon="4.80644">
        <ele>442</ele>
        <time>2012-01-15T08:37:33Z</time>
      </trkpt>
      <trkpt lat="45.85061" lon="4.80631">
        <ele>444</ele>
        <time>2012-01-15T08:37:38Z</time>
      </trkpt>
      <trkpt lat="45.85059" lon="4.80628">
        <ele>444</ele>
        <time>2012-01-15T08:37:39Z</time>
      </trkpt>
      <trkpt lat="45.85058" lon="4.80626">
        <ele>444</ele>
        <time>2012-01-15T08:37:40Z</time>
      </trkpt>
      <trkpt lat="45.85052" lon="4.80615">
        <ele>444</ele>
        <time>2012-01-15T08:37:47Z</time>
      </trkpt>
      <trkpt lat="45.85048" lon="4.8061">
        <ele>445</ele>
        <time>2012-01-15T08:37:51Z</time>
      </trkpt>
      <trkpt lat="45.85046" lon="4.80606">
        <ele>445</ele>
        <time>2012-01-15T08:37:52Z</time>
      </trkpt>
      <trkpt lat="45.85045" lon="4.80603">
        <ele>445</ele>
        <time>2012-01-15T08:37:53Z</time>
      </trkpt>
      <trkpt lat="45.85043" lon="4.80596">
        <ele>445</ele>
        <time>2012-01-15T08:37:57Z</time>
      </trkpt>
      <trkpt lat="45.85043" lon="4.80592">
        <ele>445</ele>
        <time>2012-01-15T08:37:59Z</time>
      </trkpt>
      <trkpt lat="45.85043" lon="4.80591">
        <ele>445</ele>
        <time>2012-01-15T08:38:00Z</time>
      </trkpt>
      <trkpt lat="45.85039" lon="4.80583">
        <ele>437</ele>
        <time>2012-01-15T08:38:04Z</time>
      </trkpt>
      <trkpt lat="45.85037" lon="4.8058">
        <ele>438</ele>
        <time>2012-01-15T08:38:05Z</time>
      </trkpt>
      <trkpt lat="45.85033" lon="4.80572">
        <ele>439</ele>
        <time>2012-01-15T08:38:10Z</time>
      </trkpt>
      <trkpt lat="45.85026" lon="4.80565">
        <ele>441</ele>
        <time>2012-01-15T08:38:15Z</time>
      </trkpt>
      <trkpt lat="45.85025" lon="4.80562">
        <ele>441</ele>
        <time>2012-01-15T08:38:17Z</time>
      </trkpt>
      <trkpt lat="45.8502" lon="4.80548">
        <ele>440</ele>
        <time>2012-01-15T08:38:24Z</time>
      </trkpt>
      <trkpt lat="45.85018" lon="4.8054">
        <ele>439</ele>
        <time>2012-01-15T08:38:28Z</time>
      </trkpt>
      <trkpt lat="45.85017" lon="4.80538">
        <ele>439</ele>
        <time>2012-01-15T08:38:29Z</time>
      </trkpt>
      <trkpt lat="45.85012" lon="4.80526">
        <ele>439</ele>
        <time>2012-01-15T08:38:34Z</time>
      </trkpt>
      <trkpt lat="45.85011" lon="4.80524">
        <ele>440</ele>
        <time>2012-01-15T08:38:35Z</time>
      </trkpt>
      <trkpt lat="45.85007" lon="4.80517">
        <ele>441</ele>
        <time>2012-01-15T08:38:39Z</time>
      </trkpt>
      <trkpt lat="45.85005" lon="4.80516">
        <ele>441</ele>
        <time>2012-01-15T08:38:40Z</time>
      </trkpt>
      <trkpt lat="45.84999" lon="4.80509">
        <ele>455</ele>
        <time>2012-01-15T08:38:46Z</time>
      </trkpt>
      <trkpt lat="45.84992" lon="4.80501">
        <ele>454</ele>
        <time>2012-01-15T08:38:52Z</time>
      </trkpt>
      <trkpt lat="45.84991" lon="4.80499">
        <ele>450</ele>
        <time>2012-01-15T08:38:53Z</time>
      </trkpt>
      <trkpt lat="45.84986" lon="4.80489">
        <ele>452</ele>
        <time>2012-01-15T08:38:59Z</time>
      </trkpt>
      <trkpt lat="45.84981" lon="4.80486">
        <ele>453</ele>
        <time>2012-01-15T08:39:01Z</time>
      </trkpt>
      <trkpt lat="45.84978" lon="4.80482">
        <ele>454</ele>
        <time>2012-01-15T08:39:03Z</time>
      </trkpt>
      <trkpt lat="45.84976" lon="4.80479">
        <ele>454</ele>
        <time>2012-01-15T08:39:05Z</time>
      </trkpt>
      <trkpt lat="45.84964" lon="4.80467">
        <ele>456</ele>
        <time>2012-01-15T08:39:10Z</time>
      </trkpt>
      <trkpt lat="45.84962" lon="4.80464">
        <ele>456</ele>
        <time>2012-01-15T08:39:11Z</time>
      </trkpt>
      <trkpt lat="45.84955" lon="4.8045">
        <ele>456</ele>
        <time>2012-01-15T08:39:17Z</time>
      </trkpt>
      <trkpt lat="45.84952" lon="4.80445">
        <ele>456</ele>
        <time>2012-01-15T08:39:19Z</time>
      </trkpt>
      <trkpt lat="45.84945" lon="4.80436">
        <ele>456</ele>
        <time>2012-01-15T08:39:23Z</time>
      </trkpt>
      <trkpt lat="45.84936" lon="4.80435">
        <ele>458</ele>
        <time>2012-01-15T08:39:29Z</time>
      </trkpt>
      <trkpt lat="45.84934" lon="4.80435">
        <ele>458</ele>
        <time>2012-01-15T08:39:32Z</time>
      </trkpt>
      <trkpt lat="45.84936" lon="4.80437">
        <ele>458</ele>
        <time>2012-01-15T08:39:35Z</time>
      </trkpt>
      <trkpt lat="45.84937" lon="4.80441">
        <ele>458</ele>
        <time>2012-01-15T08:39:41Z</time>
      </trkpt>
      <trkpt lat="45.84938" lon="4.80446">
        <ele>458</ele>
        <time>2012-01-15T08:39:45Z</time>
      </trkpt>
      <trkpt lat="45.8494" lon="4.80456">
        <ele>459</ele>
        <time>2012-01-15T08:39:52Z</time>
      </trkpt>
      <trkpt lat="45.8494" lon="4.80458">
        <ele>460</ele>
        <time>2012-01-15T08:39:53Z</time>
      </trkpt>
      <trkpt lat="45.84941" lon="4.80464">
        <ele>460</ele>
        <time>2012-01-15T08:39:56Z</time>
      </trkpt>
      <trkpt lat="45.84942" lon="4.80469">
        <ele>461</ele>
        <time>2012-01-15T08:39:59Z</time>
      </trkpt>
      <trkpt lat="45.84946" lon="4.80483">
        <ele>462</ele>
        <time>2012-01-15T08:40:06Z</time>
      </trkpt>
      <trkpt lat="45.8495" lon="4.80493">
        <ele>462</ele>
        <time>2012-01-15T08:40:11Z</time>
      </trkpt>
      <trkpt lat="45.84953" lon="4.805">
        <ele>471</ele>
        <time>2012-01-15T08:40:15Z</time>
      </trkpt>
      <trkpt lat="45.84956" lon="4.80506">
        <ele>471</ele>
        <time>2012-01-15T08:40:18Z</time>
      </trkpt>
      <trkpt lat="45.8496" lon="4.80518">
        <ele>470</ele>
        <time>2012-01-15T08:40:24Z</time>
      </trkpt>
      <trkpt lat="45.84959" lon="4.80519">
        <ele>470</ele>
        <time>2012-01-15T08:40:25Z</time>
      </trkpt>
      <trkpt lat="45.84955" lon="4.80525">
        <ele>471</ele>
        <time>2012-01-15T08:40:30Z</time>
      </trkpt>
      <trkpt lat="45.84953" lon="4.80525">
        <ele>472</ele>
        <time>2012-01-15T08:40:32Z</time>
      </trkpt>
      <trkpt lat="45.84952" lon="4.80524">
        <ele>472</ele>
        <time>2012-01-15T08:40:33Z</time>
      </trkpt>
      <trkpt lat="45.84951" lon="4.80523">
        <ele>472</ele>
        <time>2012-01-15T08:40:35Z</time>
      </trkpt>
      <trkpt lat="45.84951" lon="4.80521">
        <ele>472</ele>
        <time>2012-01-15T08:40:36Z</time>
      </trkpt>
      <trkpt lat="45.84949" lon="4.80514">
        <ele>473</ele>
        <time>2012-01-15T08:40:40Z</time>
      </trkpt>
      <trkpt lat="45.84947" lon="4.80508">
        <ele>473</ele>
        <time>2012-01-15T08:40:43Z</time>
      </trkpt>
      <trkpt lat="45.84944" lon="4.80503">
        <ele>474</ele>
        <time>2012-01-15T08:40:46Z</time>
      </trkpt>
      <trkpt lat="45.84942" lon="4.80497">
        <ele>466</ele>
        <time>2012-01-15T08:40:49Z</time>
      </trkpt>
      <trkpt lat="45.84941" lon="4.80493">
        <ele>466</ele>
        <time>2012-01-15T08:40:52Z</time>
      </trkpt>
      <trkpt lat="45.84938" lon="4.80489">
        <ele>467</ele>
        <time>2012-01-15T08:40:55Z</time>
      </trkpt>
      <trkpt lat="45.84932" lon="4.80483">
        <ele>467</ele>
        <time>2012-01-15T08:40:59Z</time>
      </trkpt>
      <trkpt lat="45.8493" lon="4.8048">
        <ele>467</ele>
        <time>2012-01-15T08:41:01Z</time>
      </trkpt>
      <trkpt lat="45.84926" lon="4.80475">
        <ele>466</ele>
        <time>2012-01-15T08:41:04Z</time>
      </trkpt>
      <trkpt lat="45.84921" lon="4.80472">
        <ele>466</ele>
        <time>2012-01-15T08:41:07Z</time>
      </trkpt>
      <trkpt lat="45.84914" lon="4.80469">
        <ele>484</ele>
        <time>2012-01-15T08:41:10Z</time>
      </trkpt>
      <trkpt lat="45.8491" lon="4.80463">
        <ele>484</ele>
        <time>2012-01-15T08:41:14Z</time>
      </trkpt>
      <trkpt lat="45.84906" lon="4.80454">
        <ele>482</ele>
        <time>2012-01-15T08:41:20Z</time>
      </trkpt>
      <trkpt lat="45.84902" lon="4.80449">
        <ele>482</ele>
        <time>2012-01-15T08:41:24Z</time>
      </trkpt>
      <trkpt lat="45.849" lon="4.80446">
        <ele>482</ele>
        <time>2012-01-15T08:41:26Z</time>
      </trkpt>
      <trkpt lat="45.84895" lon="4.80438">
        <ele>481</ele>
        <time>2012-01-15T08:41:31Z</time>
      </trkpt>
      <trkpt lat="45.84889" lon="4.80431">
        <ele>481</ele>
        <time>2012-01-15T08:41:36Z</time>
      </trkpt>
      <trkpt lat="45.84888" lon="4.80429">
        <ele>481</ele>
        <time>2012-01-15T08:41:38Z</time>
      </trkpt>
      <trkpt lat="45.84884" lon="4.80422">
        <ele>482</ele>
        <time>2012-01-15T08:41:42Z</time>
      </trkpt>
      <trkpt lat="45.84876" lon="4.80413">
        <ele>473</ele>
        <time>2012-01-15T08:41:48Z</time>
      </trkpt>
      <trkpt lat="45.84875" lon="4.80411">
        <ele>474</ele>
        <time>2012-01-15T08:41:49Z</time>
      </trkpt>
      <trkpt lat="45.84873" lon="4.80408">
        <ele>474</ele>
        <time>2012-01-15T08:41:51Z</time>
      </trkpt>
      <trkpt lat="45.84868" lon="4.80401">
        <ele>475</ele>
        <time>2012-01-15T08:41:55Z</time>
      </trkpt>
      <trkpt lat="45.84863" lon="4.80393">
        <ele>475</ele>
        <time>2012-01-15T08:41:58Z</time>
      </trkpt>
      <trkpt lat="45.84861" lon="4.80388">
        <ele>475</ele>
        <time>2012-01-15T08:42:00Z</time>
      </trkpt>
      <trkpt lat="45.84854" lon="4.80375">
        <ele>474</ele>
        <time>2012-01-15T08:42:05Z</time>
      </trkpt>
      <trkpt lat="45.84852" lon="4.80371">
        <ele>473</ele>
        <time>2012-01-15T08:42:07Z</time>
      </trkpt>
      <trkpt lat="45.84849" lon="4.80366">
        <ele>473</ele>
        <time>2012-01-15T08:42:10Z</time>
      </trkpt>
      <trkpt lat="45.84842" lon="4.80357">
        <ele>473</ele>
        <time>2012-01-15T08:42:14Z</time>
      </trkpt>
      <trkpt lat="45.84839" lon="4.80352">
        <ele>473</ele>
        <time>2012-01-15T08:42:16Z</time>
      </trkpt>
      <trkpt lat="45.84835" lon="4.80345">
        <ele>474</ele>
        <time>2012-01-15T08:42:19Z</time>
      </trkpt>
      <trkpt lat="45.84826" lon="4.80333">
        <ele>477</ele>
        <time>2012-01-15T08:42:25Z</time>
      </trkpt>
      <trkpt lat="45.84823" lon="4.8033">
        <ele>478</ele>
        <time>2012-01-15T08:42:27Z</time>
      </trkpt>
      <trkpt lat="45.84815" lon="4.80324">
        <ele>481</ele>
        <time>2012-01-15T08:42:30Z</time>
      </trkpt>
      <trkpt lat="45.84812" lon="4.80319">
        <ele>481</ele>
        <time>2012-01-15T08:42:33Z</time>
      </trkpt>
      <trkpt lat="45.84809" lon="4.80317">
        <ele>482</ele>
        <time>2012-01-15T08:42:34Z</time>
      </trkpt>
      <trkpt lat="45.84804" lon="4.8031">
        <ele>483</ele>
        <time>2012-01-15T08:42:38Z</time>
      </trkpt>
      <trkpt lat="45.84798" lon="4.80303">
        <ele>484</ele>
        <time>2012-01-15T08:42:42Z</time>
      </trkpt>
      <trkpt lat="45.84794" lon="4.80298">
        <ele>484</ele>
        <time>2012-01-15T08:42:45Z</time>
      </trkpt>
      <trkpt lat="45.84793" lon="4.80297">
        <ele>484</ele>
        <time>2012-01-15T08:42:46Z</time>
      </trkpt>
      <trkpt lat="45.84792" lon="4.80295">
        <ele>484</ele>
        <time>2012-01-15T08:42:47Z</time>
      </trkpt>
      <trkpt lat="45.84787" lon="4.8029">
        <ele>484</ele>
        <time>2012-01-15T08:42:51Z</time>
      </trkpt>
      <trkpt lat="45.84781" lon="4.80281">
        <ele>485</ele>
        <time>2012-01-15T08:42:57Z</time>
      </trkpt>
      <trkpt lat="45.84775" lon="4.80273">
        <ele>486</ele>
        <time>2012-01-15T08:43:02Z</time>
      </trkpt>
      <trkpt lat="45.84773" lon="4.80272">
        <ele>486</ele>
        <time>2012-01-15T08:43:03Z</time>
      </trkpt>
      <trkpt lat="45.84766" lon="4.80264">
        <ele>487</ele>
        <time>2012-01-15T08:43:08Z</time>
      </trkpt>
      <trkpt lat="45.84764" lon="4.80263">
        <ele>488</ele>
        <time>2012-01-15T08:43:09Z</time>
      </trkpt>
      <trkpt lat="45.84753" lon="4.80249">
        <ele>489</ele>
        <time>2012-01-15T08:43:14Z</time>
      </trkpt>
      <trkpt lat="45.84752" lon="4.80247">
        <ele>489</ele>
        <time>2012-01-15T08:43:15Z</time>
      </trkpt>
      <trkpt lat="45.84744" lon="4.80237">
        <ele>496</ele>
        <time>2012-01-15T08:43:20Z</time>
      </trkpt>
      <trkpt lat="45.84738" lon="4.80232">
        <ele>497</ele>
        <time>2012-01-15T08:43:25Z</time>
      </trkpt>
      <trkpt lat="45.84737" lon="4.80231">
        <ele>498</ele>
        <time>2012-01-15T08:43:26Z</time>
      </trkpt>
      <trkpt lat="45.84732" lon="4.80227">
        <ele>498</ele>
        <time>2012-01-15T08:43:30Z</time>
      </trkpt>
      <trkpt lat="45.84729" lon="4.80223">
        <ele>499</ele>
        <time>2012-01-15T08:43:34Z</time>
      </trkpt>
      <trkpt lat="45.84723" lon="4.80214">
        <ele>499</ele>
        <time>2012-01-15T08:43:39Z</time>
      </trkpt>
      <trkpt lat="45.84714" lon="4.80204">
        <ele>500</ele>
        <time>2012-01-15T08:43:44Z</time>
      </trkpt>
      <trkpt lat="45.84708" lon="4.80198">
        <ele>501</ele>
        <time>2012-01-15T08:43:47Z</time>
      </trkpt>
      <trkpt lat="45.84704" lon="4.80192">
        <ele>502</ele>
        <time>2012-01-15T08:43:49Z</time>
      </trkpt>
      <trkpt lat="45.84701" lon="4.80187">
        <ele>503</ele>
        <time>2012-01-15T08:43:51Z</time>
      </trkpt>
      <trkpt lat="45.84695" lon="4.80179">
        <ele>504</ele>
        <time>2012-01-15T08:43:54Z</time>
      </trkpt>
      <trkpt lat="45.84682" lon="4.80163">
        <ele>501</ele>
        <time>2012-01-15T08:44:01Z</time>
      </trkpt>
      <trkpt lat="45.8468" lon="4.80161">
        <ele>502</ele>
        <time>2012-01-15T08:44:02Z</time>
      </trkpt>
      <trkpt lat="45.84677" lon="4.80158">
        <ele>503</ele>
        <time>2012-01-15T08:44:04Z</time>
      </trkpt>
      <trkpt lat="45.84674" lon="4.80155">
        <ele>503</ele>
        <time>2012-01-15T08:44:06Z</time>
      </trkpt>
      <trkpt lat="45.84668" lon="4.8015">
        <ele>502</ele>
        <time>2012-01-15T08:44:10Z</time>
      </trkpt>
      <trkpt lat="45.84665" lon="4.80147">
        <ele>516</ele>
        <time>2012-01-15T08:44:12Z</time>
      </trkpt>
      <trkpt lat="45.84664" lon="4.80145">
        <ele>516</ele>
        <time>2012-01-15T08:44:13Z</time>
      </trkpt>
      <trkpt lat="45.84659" lon="4.80138">
        <ele>516</ele>
        <time>2012-01-15T08:44:17Z</time>
      </trkpt>
      <trkpt lat="45.84649" lon="4.80129">
        <ele>516</ele>
        <time>2012-01-15T08:44:23Z</time>
      </trkpt>
      <trkpt lat="45.84648" lon="4.80128">
        <ele>517</ele>
        <time>2012-01-15T08:44:24Z</time>
      </trkpt>
      <trkpt lat="45.84643" lon="4.80121">
        <ele>516</ele>
        <time>2012-01-15T08:44:27Z</time>
      </trkpt>
      <trkpt lat="45.84639" lon="4.80115">
        <ele>516</ele>
        <time>2012-01-15T08:44:30Z</time>
      </trkpt>
      <trkpt lat="45.84637" lon="4.80109">
        <ele>516</ele>
        <time>2012-01-15T08:44:31Z</time>
      </trkpt>
      <trkpt lat="45.84634" lon="4.80099">
        <ele>515</ele>
        <time>2012-01-15T08:44:34Z</time>
      </trkpt>
      <trkpt lat="45.84632" lon="4.80096">
        <ele>515</ele>
        <time>2012-01-15T08:44:35Z</time>
      </trkpt>
      <trkpt lat="45.84628" lon="4.80087">
        <ele>516</ele>
        <time>2012-01-15T08:44:38Z</time>
      </trkpt>
      <trkpt lat="45.84624" lon="4.80081">
        <ele>506</ele>
        <time>2012-01-15T08:44:41Z</time>
      </trkpt>
      <trkpt lat="45.84613" lon="4.80071">
        <ele>508</ele>
        <time>2012-01-15T08:44:47Z</time>
      </trkpt>
      <trkpt lat="45.84612" lon="4.8007">
        <ele>509</ele>
        <time>2012-01-15T08:44:48Z</time>
      </trkpt>
      <trkpt lat="45.84606" lon="4.8006">
        <ele>508</ele>
        <time>2012-01-15T08:44:53Z</time>
      </trkpt>
      <trkpt lat="45.84604" lon="4.80058">
        <ele>508</ele>
        <time>2012-01-15T08:44:55Z</time>
      </trkpt>
      <trkpt lat="45.84602" lon="4.80058">
        <ele>509</ele>
        <time>2012-01-15T08:44:58Z</time>
      </trkpt>
      <trkpt lat="45.84601" lon="4.80061">
        <ele>510</ele>
        <time>2012-01-15T08:45:00Z</time>
      </trkpt>
      <trkpt lat="45.84599" lon="4.80062">
        <ele>511</ele>
        <time>2012-01-15T08:45:02Z</time>
      </trkpt>
      <trkpt lat="45.84598" lon="4.80062">
        <ele>511</ele>
        <time>2012-01-15T08:45:03Z</time>
      </trkpt>
      <trkpt lat="45.84599" lon="4.80063">
        <ele>511</ele>
        <time>2012-01-15T08:45:14Z</time>
      </trkpt>
      <trkpt lat="45.84601" lon="4.80059">
        <ele>509</ele>
        <time>2012-01-15T08:45:18Z</time>
      </trkpt>
      <trkpt lat="45.84601" lon="4.8006">
        <ele>510</ele>
        <time>2012-01-15T08:45:19Z</time>
      </trkpt>
      <trkpt lat="45.84601" lon="4.80061">
        <ele>510</ele>
        <time>2012-01-15T08:45:21Z</time>
      </trkpt>
      <trkpt lat="45.846" lon="4.80063">
        <ele>510</ele>
        <time>2012-01-15T08:45:23Z</time>
      </trkpt>
      <trkpt lat="45.84593" lon="4.80067">
        <ele>514</ele>
        <time>2012-01-15T08:45:28Z</time>
      </trkpt>
      <trkpt lat="45.84591" lon="4.80066">
        <ele>514</ele>
        <time>2012-01-15T08:45:29Z</time>
      </trkpt>
      <trkpt lat="45.84585" lon="4.80064">
        <ele>514</ele>
        <time>2012-01-15T08:45:36Z</time>
      </trkpt>
      <trkpt lat="45.84582" lon="4.80058">
        <ele>527</ele>
        <time>2012-01-15T08:45:40Z</time>
      </trkpt>
      <trkpt lat="45.84581" lon="4.80057">
        <ele>527</ele>
        <time>2012-01-15T08:45:41Z</time>
      </trkpt>
      <trkpt lat="45.84577" lon="4.80055">
        <ele>527</ele>
        <time>2012-01-15T08:45:45Z</time>
      </trkpt>
      <trkpt lat="45.84576" lon="4.80056">
        <ele>527</ele>
        <time>2012-01-15T08:45:46Z</time>
      </trkpt>
      <trkpt lat="45.84575" lon="4.80055">
        <ele>527</ele>
        <time>2012-01-15T08:45:47Z</time>
      </trkpt>
      <trkpt lat="45.84573" lon="4.80055">
        <ele>527</ele>
        <time>2012-01-15T08:45:49Z</time>
      </trkpt>
      <trkpt lat="45.8457" lon="4.80055">
        <ele>527</ele>
        <time>2012-01-15T08:45:54Z</time>
      </trkpt>
      <trkpt lat="45.84568" lon="4.80055">
        <ele>527</ele>
        <time>2012-01-15T08:45:56Z</time>
      </trkpt>
      <trkpt lat="45.84566" lon="4.80055">
        <ele>527</ele>
        <time>2012-01-15T08:45:57Z</time>
      </trkpt>
      <trkpt lat="45.84563" lon="4.80054">
        <ele>528</ele>
        <time>2012-01-15T08:46:00Z</time>
      </trkpt>
      <trkpt lat="45.84563" lon="4.80053">
        <ele>528</ele>
        <time>2012-01-15T08:46:01Z</time>
      </trkpt>
      <trkpt lat="45.84559" lon="4.80048">
        <ele>528</ele>
        <time>2012-01-15T08:46:06Z</time>
      </trkpt>
      <trkpt lat="45.84558" lon="4.80047">
        <ele>528</ele>
        <time>2012-01-15T08:46:07Z</time>
      </trkpt>
      <trkpt lat="45.84553" lon="4.8004">
        <ele>527</ele>
        <time>2012-01-15T08:46:13Z</time>
      </trkpt>
      <trkpt lat="45.84546" lon="4.80032">
        <ele>527</ele>
        <time>2012-01-15T08:46:21Z</time>
      </trkpt>
      <trkpt lat="45.84545" lon="4.80031">
        <ele>527</ele>
        <time>2012-01-15T08:46:23Z</time>
      </trkpt>
      <trkpt lat="45.84539" lon="4.80028">
        <ele>528</ele>
        <time>2012-01-15T08:46:30Z</time>
      </trkpt>
      <trkpt lat="45.84539" lon="4.80027">
        <ele>528</ele>
        <time>2012-01-15T08:46:31Z</time>
      </trkpt>
      <trkpt lat="45.84536" lon="4.80021">
        <ele>528</ele>
        <time>2012-01-15T08:46:35Z</time>
      </trkpt>
      <trkpt lat="45.84532" lon="4.80016">
        <ele>528</ele>
        <time>2012-01-15T08:46:39Z</time>
      </trkpt>
      <trkpt lat="45.84531" lon="4.80014">
        <ele>528</ele>
        <time>2012-01-15T08:46:40Z</time>
      </trkpt>
      <trkpt lat="45.84527" lon="4.80008">
        <ele>529</ele>
        <time>2012-01-15T08:46:42Z</time>
      </trkpt>
      <trkpt lat="45.8452" lon="4.80005">
        <ele>530</ele>
        <time>2012-01-15T08:46:48Z</time>
      </trkpt>
      <trkpt lat="45.84518" lon="4.80005">
        <ele>530</ele>
        <time>2012-01-15T08:46:49Z</time>
      </trkpt>
      <trkpt lat="45.84515" lon="4.80002">
        <ele>531</ele>
        <time>2012-01-15T08:46:51Z</time>
      </trkpt>
      <trkpt lat="45.84512" lon="4.79999">
        <ele>524</ele>
        <time>2012-01-15T08:46:53Z</time>
      </trkpt>
      <trkpt lat="45.84504" lon="4.79992">
        <ele>526</ele>
        <time>2012-01-15T08:47:00Z</time>
      </trkpt>
      <trkpt lat="45.84503" lon="4.79991">
        <ele>526</ele>
        <time>2012-01-15T08:47:01Z</time>
      </trkpt>
      <trkpt lat="45.845" lon="4.79984">
        <ele>536</ele>
        <time>2012-01-15T08:47:05Z</time>
      </trkpt>
      <trkpt lat="45.84499" lon="4.79983">
        <ele>536</ele>
        <time>2012-01-15T08:47:06Z</time>
      </trkpt>
      <trkpt lat="45.84496" lon="4.79978">
        <ele>536</ele>
        <time>2012-01-15T08:47:10Z</time>
      </trkpt>
      <trkpt lat="45.84494" lon="4.79974">
        <ele>536</ele>
        <time>2012-01-15T08:47:12Z</time>
      </trkpt>
      <trkpt lat="45.84492" lon="4.79971">
        <ele>536</ele>
        <time>2012-01-15T08:47:14Z</time>
      </trkpt>
      <trkpt lat="45.84491" lon="4.79966">
        <ele>536</ele>
        <time>2012-01-15T08:47:17Z</time>
      </trkpt>
      <trkpt lat="45.8449" lon="4.79962">
        <ele>536</ele>
        <time>2012-01-15T08:47:19Z</time>
      </trkpt>
      <trkpt lat="45.84488" lon="4.79958">
        <ele>536</ele>
        <time>2012-01-15T08:47:22Z</time>
      </trkpt>
      <trkpt lat="45.84483" lon="4.79954">
        <ele>536</ele>
        <time>2012-01-15T08:47:26Z</time>
      </trkpt>
      <trkpt lat="45.84479" lon="4.79952">
        <ele>536</ele>
        <time>2012-01-15T08:47:28Z</time>
      </trkpt>
      <trkpt lat="45.84476" lon="4.79951">
        <ele>536</ele>
        <time>2012-01-15T08:47:30Z</time>
      </trkpt>
      <trkpt lat="45.84474" lon="4.79949">
        <ele>537</ele>
        <time>2012-01-15T08:47:34Z</time>
      </trkpt>
      <trkpt lat="45.84474" lon="4.79948">
        <ele>537</ele>
        <time>2012-01-15T08:47:35Z</time>
      </trkpt>
      <trkpt lat="45.84479" lon="4.79955">
        <ele>536</ele>
        <time>2012-01-15T08:48:04Z</time>
      </trkpt>
      <trkpt lat="45.84476" lon="4.79951">
        <ele>536</ele>
        <time>2012-01-15T08:48:07Z</time>
      </trkpt>
      <trkpt lat="45.84468" lon="4.7994">
        <ele>537</ele>
        <time>2012-01-15T08:48:13Z</time>
      </trkpt>
      <trkpt lat="45.84463" lon="4.79932">
        <ele>537</ele>
        <time>2012-01-15T08:48:18Z</time>
      </trkpt>
      <trkpt lat="45.84455" lon="4.79919">
        <ele>540</ele>
        <time>2012-01-15T08:48:23Z</time>
      </trkpt>
      <trkpt lat="45.84448" lon="4.79913">
        <ele>534</ele>
        <time>2012-01-15T08:48:26Z</time>
      </trkpt>
      <trkpt lat="45.84441" lon="4.79901">
        <ele>536</ele>
        <time>2012-01-15T08:48:31Z</time>
      </trkpt>
      <trkpt lat="45.84431" lon="4.79888">
        <ele>536</ele>
        <time>2012-01-15T08:48:37Z</time>
      </trkpt>
      <trkpt lat="45.84427" lon="4.79883">
        <ele>535</ele>
        <time>2012-01-15T08:48:41Z</time>
      </trkpt>
      <trkpt lat="45.84424" lon="4.79879">
        <ele>535</ele>
        <time>2012-01-15T08:48:43Z</time>
      </trkpt>
      <trkpt lat="45.84416" lon="4.79866">
        <ele>552</ele>
        <time>2012-01-15T08:48:50Z</time>
      </trkpt>
      <trkpt lat="45.84416" lon="4.79864">
        <ele>552</ele>
        <time>2012-01-15T08:48:51Z</time>
      </trkpt>
      <trkpt lat="45.84416" lon="4.79852">
        <ele>549</ele>
        <time>2012-01-15T08:48:56Z</time>
      </trkpt>
      <trkpt lat="45.84414" lon="4.79847">
        <ele>547</ele>
        <time>2012-01-15T08:48:58Z</time>
      </trkpt>
      <trkpt lat="45.84412" lon="4.7984">
        <ele>544</ele>
        <time>2012-01-15T08:49:01Z</time>
      </trkpt>
      <trkpt lat="45.84412" lon="4.79837">
        <ele>543</ele>
        <time>2012-01-15T08:49:02Z</time>
      </trkpt>
      <trkpt lat="45.84408" lon="4.79821">
        <ele>542</ele>
        <time>2012-01-15T08:49:08Z</time>
      </trkpt>
      <trkpt lat="45.84405" lon="4.79812">
        <ele>542</ele>
        <time>2012-01-15T08:49:11Z</time>
      </trkpt>
      <trkpt lat="45.84403" lon="4.79806">
        <ele>543</ele>
        <time>2012-01-15T08:49:13Z</time>
      </trkpt>
      <trkpt lat="45.84402" lon="4.798">
        <ele>542</ele>
        <time>2012-01-15T08:49:15Z</time>
      </trkpt>
      <trkpt lat="45.84403" lon="4.79793">
        <ele>542</ele>
        <time>2012-01-15T08:49:18Z</time>
      </trkpt>
      <trkpt lat="45.84405" lon="4.79786">
        <ele>540</ele>
        <time>2012-01-15T08:49:21Z</time>
      </trkpt>
      <trkpt lat="45.84406" lon="4.79782">
        <ele>540</ele>
        <time>2012-01-15T08:49:23Z</time>
      </trkpt>
      <trkpt lat="45.84406" lon="4.79778">
        <ele>539</ele>
        <time>2012-01-15T08:49:25Z</time>
      </trkpt>
      <trkpt lat="45.84402" lon="4.79769">
        <ele>537</ele>
        <time>2012-01-15T08:49:31Z</time>
      </trkpt>
      <trkpt lat="45.84401" lon="4.79768">
        <ele>537</ele>
        <time>2012-01-15T08:49:32Z</time>
      </trkpt>
      <trkpt lat="45.84399" lon="4.79766">
        <ele>538</ele>
        <time>2012-01-15T08:49:34Z</time>
      </trkpt>
      <trkpt lat="45.84396" lon="4.79762">
        <ele>538</ele>
        <time>2012-01-15T08:49:37Z</time>
      </trkpt>
      <trkpt lat="45.84394" lon="4.79761">
        <ele>538</ele>
        <time>2012-01-15T08:49:39Z</time>
      </trkpt>
      <trkpt lat="45.84391" lon="4.79756">
        <ele>539</ele>
        <time>2012-01-15T08:49:43Z</time>
      </trkpt>
      <trkpt lat="45.84387" lon="4.79752">
        <ele>540</ele>
        <time>2012-01-15T08:49:46Z</time>
      </trkpt>
      <trkpt lat="45.84384" lon="4.79749">
        <ele>532</ele>
        <time>2012-01-15T08:49:49Z</time>
      </trkpt>
      <trkpt lat="45.84381" lon="4.79745">
        <ele>533</ele>
        <time>2012-01-15T08:49:52Z</time>
      </trkpt>
      <trkpt lat="45.84375" lon="4.79734">
        <ele>534</ele>
        <time>2012-01-15T08:50:00Z</time>
      </trkpt>
      <trkpt lat="45.84372" lon="4.79729">
        <ele>534</ele>
        <time>2012-01-15T08:50:04Z</time>
      </trkpt>
      <trkpt lat="45.84369" lon="4.79725">
        <ele>535</ele>
        <time>2012-01-15T08:50:08Z</time>
      </trkpt>
      <trkpt lat="45.84364" lon="4.79718">
        <ele>535</ele>
        <time>2012-01-15T08:50:14Z</time>
      </trkpt>
      <trkpt lat="45.84357" lon="4.79712">
        <ele>535</ele>
        <time>2012-01-15T08:50:20Z</time>
      </trkpt>
      <trkpt lat="45.84356" lon="4.79711">
        <ele>535</ele>
        <time>2012-01-15T08:50:21Z</time>
      </trkpt>
      <trkpt lat="45.84352" lon="4.79709">
        <ele>536</ele>
        <time>2012-01-15T08:50:25Z</time>
      </trkpt>
      <trkpt lat="45.84351" lon="4.79706">
        <ele>536</ele>
        <time>2012-01-15T08:50:27Z</time>
      </trkpt>
      <trkpt lat="45.84348" lon="4.79704">
        <ele>536</ele>
        <time>2012-01-15T08:50:31Z</time>
      </trkpt>
      <trkpt lat="45.84346" lon="4.79705">
        <ele>536</ele>
        <time>2012-01-15T08:50:35Z</time>
      </trkpt>
      <trkpt lat="45.84343" lon="4.79704">
        <ele>536</ele>
        <time>2012-01-15T08:50:41Z</time>
      </trkpt>
      <trkpt lat="45.84342" lon="4.79703">
        <ele>536</ele>
        <time>2012-01-15T08:50:42Z</time>
      </trkpt>
      <trkpt lat="45.84339" lon="4.79697">
        <ele>536</ele>
        <time>2012-01-15T08:50:47Z</time>
      </trkpt>
      <trkpt lat="45.84337" lon="4.79695">
        <ele>536</ele>
        <time>2012-01-15T08:50:49Z</time>
      </trkpt>
      <trkpt lat="45.84335" lon="4.79689">
        <ele>536</ele>
        <time>2012-01-15T08:50:53Z</time>
      </trkpt>
      <trkpt lat="45.84331" lon="4.79681">
        <ele>549</ele>
        <time>2012-01-15T08:50:58Z</time>
      </trkpt>
      <trkpt lat="45.8433" lon="4.79678">
        <ele>547</ele>
        <time>2012-01-15T08:51:00Z</time>
      </trkpt>
      <trkpt lat="45.84327" lon="4.79669">
        <ele>544</ele>
        <time>2012-01-15T08:51:06Z</time>
      </trkpt>
      <trkpt lat="45.84324" lon="4.79657">
        <ele>543</ele>
        <time>2012-01-15T08:51:13Z</time>
      </trkpt>
      <trkpt lat="45.8432" lon="4.79646">
        <ele>546</ele>
        <time>2012-01-15T08:51:21Z</time>
      </trkpt>
      <trkpt lat="45.84316" lon="4.79639">
        <ele>547</ele>
        <time>2012-01-15T08:51:26Z</time>
      </trkpt>
      <trkpt lat="45.84313" lon="4.79635">
        <ele>547</ele>
        <time>2012-01-15T08:51:29Z</time>
      </trkpt>
      <trkpt lat="45.84311" lon="4.79631">
        <ele>548</ele>
        <time>2012-01-15T08:51:32Z</time>
      </trkpt>
      <trkpt lat="45.84306" lon="4.79618">
        <ele>548</ele>
        <time>2012-01-15T08:51:40Z</time>
      </trkpt>
      <trkpt lat="45.84304" lon="4.79613">
        <ele>548</ele>
        <time>2012-01-15T08:51:43Z</time>
      </trkpt>
      <trkpt lat="45.84302" lon="4.79609">
        <ele>548</ele>
        <time>2012-01-15T08:51:46Z</time>
      </trkpt>
      <trkpt lat="45.84301" lon="4.79606">
        <ele>548</ele>
        <time>2012-01-15T08:51:49Z</time>
      </trkpt>
      <trkpt lat="45.84298" lon="4.79607">
        <ele>548</ele>
        <time>2012-01-15T08:51:52Z</time>
      </trkpt>
      <trkpt lat="45.84296" lon="4.79608">
        <ele>549</ele>
        <time>2012-01-15T08:51:55Z</time>
      </trkpt>
      <trkpt lat="45.84293" lon="4.79608">
        <ele>550</ele>
        <time>2012-01-15T08:51:58Z</time>
      </trkpt>
      <trkpt lat="45.8429" lon="4.79607">
        <ele>550</ele>
        <time>2012-01-15T08:52:01Z</time>
      </trkpt>
      <trkpt lat="45.8429" lon="4.79606">
        <ele>550</ele>
        <time>2012-01-15T08:52:02Z</time>
      </trkpt>
      <trkpt lat="45.84288" lon="4.79598">
        <ele>550</ele>
        <time>2012-01-15T08:52:07Z</time>
      </trkpt>
      <trkpt lat="45.84285" lon="4.79594">
        <ele>551</ele>
        <time>2012-01-15T08:52:11Z</time>
      </trkpt>
      <trkpt lat="45.84285" lon="4.79594">
        <ele>551</ele>
        <time>2012-01-15T08:52:13Z</time>
      </trkpt>
      <trkpt lat="45.84282" lon="4.79594">
        <ele>551</ele>
        <time>2012-01-15T08:52:19Z</time>
      </trkpt>
      <trkpt lat="45.84279" lon="4.79595">
        <ele>552</ele>
        <time>2012-01-15T08:52:23Z</time>
      </trkpt>
      <trkpt lat="45.84277" lon="4.79596">
        <ele>553</ele>
        <time>2012-01-15T08:52:25Z</time>
      </trkpt>
      <trkpt lat="45.84275" lon="4.79596">
        <ele>553</ele>
        <time>2012-01-15T08:52:27Z</time>
      </trkpt>
      <trkpt lat="45.84274" lon="4.79596">
        <ele>553</ele>
        <time>2012-01-15T08:52:29Z</time>
      </trkpt>
      <trkpt lat="45.84274" lon="4.79597">
        <ele>553</ele>
        <time>2012-01-15T08:52:30Z</time>
      </trkpt>
      <trkpt lat="45.84273" lon="4.79601">
        <ele>553</ele>
        <time>2012-01-15T08:52:33Z</time>
      </trkpt>
      <trkpt lat="45.84272" lon="4.79602">
        <ele>553</ele>
        <time>2012-01-15T08:52:34Z</time>
      </trkpt>
      <trkpt lat="45.84268" lon="4.79602">
        <ele>554</ele>
        <time>2012-01-15T08:52:39Z</time>
      </trkpt>
      <trkpt lat="45.84266" lon="4.79604">
        <ele>555</ele>
        <time>2012-01-15T08:52:43Z</time>
      </trkpt>
      <trkpt lat="45.84264" lon="4.79605">
        <ele>555</ele>
        <time>2012-01-15T08:52:46Z</time>
      </trkpt>
      <trkpt lat="45.84263" lon="4.79606">
        <ele>555</ele>
        <time>2012-01-15T08:52:48Z</time>
      </trkpt>
      <trkpt lat="45.84262" lon="4.7961">
        <ele>555</ele>
        <time>2012-01-15T08:52:52Z</time>
      </trkpt>
      <trkpt lat="45.84258" lon="4.79617">
        <ele>555</ele>
        <time>2012-01-15T08:52:58Z</time>
      </trkpt>
      <trkpt lat="45.84254" lon="4.79618">
        <ele>556</ele>
        <time>2012-01-15T08:53:05Z</time>
      </trkpt>
      <trkpt lat="45.84252" lon="4.79614">
        <ele>556</ele>
        <time>2012-01-15T08:53:10Z</time>
      </trkpt>
      <trkpt lat="45.84249" lon="4.79611">
        <ele>571</ele>
        <time>2012-01-15T08:53:15Z</time>
      </trkpt>
      <trkpt lat="45.84249" lon="4.79611">
        <ele>571</ele>
        <time>2012-01-15T08:53:24Z</time>
      </trkpt>
      <trkpt lat="45.84253" lon="4.79614">
        <ele>556</ele>
        <time>2012-01-15T08:53:29Z</time>
      </trkpt>
      <trkpt lat="45.84253" lon="4.79622">
        <ele>556</ele>
        <time>2012-01-15T08:53:34Z</time>
      </trkpt>
      <trkpt lat="45.84251" lon="4.79625">
        <ele>557</ele>
        <time>2012-01-15T08:53:36Z</time>
      </trkpt>
      <trkpt lat="45.84249" lon="4.79628">
        <ele>573</ele>
        <time>2012-01-15T08:53:39Z</time>
      </trkpt>
      <trkpt lat="45.84249" lon="4.79629">
        <ele>573</ele>
        <time>2012-01-15T08:53:40Z</time>
      </trkpt>
      <trkpt lat="45.84249" lon="4.79632">
        <ele>574</ele>
        <time>2012-01-15T08:53:45Z</time>
      </trkpt>
      <trkpt lat="45.84248" lon="4.79638">
        <ele>574</ele>
        <time>2012-01-15T08:53:50Z</time>
      </trkpt>
      <trkpt lat="45.84247" lon="4.7964">
        <ele>574</ele>
        <time>2012-01-15T08:53:52Z</time>
      </trkpt>
      <trkpt lat="45.84246" lon="4.79644">
        <ele>574</ele>
        <time>2012-01-15T08:53:56Z</time>
      </trkpt>
      <trkpt lat="45.84246" lon="4.79647">
        <ele>574</ele>
        <time>2012-01-15T08:54:01Z</time>
      </trkpt>
      <trkpt lat="45.84247" lon="4.79647">
        <ele>574</ele>
        <time>2012-01-15T08:54:08Z</time>
      </trkpt>
      <trkpt lat="45.84247" lon="4.79649">
        <ele>574</ele>
        <time>2012-01-15T08:54:10Z</time>
      </trkpt>
      <trkpt lat="45.84246" lon="4.79648">
        <ele>574</ele>
        <time>2012-01-15T08:54:14Z</time>
      </trkpt>
      <trkpt lat="45.84244" lon="4.79648">
        <ele>575</ele>
        <time>2012-01-15T08:54:17Z</time>
      </trkpt>
      <trkpt lat="45.84243" lon="4.79645">
        <ele>575</ele>
        <time>2012-01-15T08:54:19Z</time>
      </trkpt>
      <trkpt lat="45.84242" lon="4.79648">
        <ele>575</ele>
        <time>2012-01-15T08:54:25Z</time>
      </trkpt>
      <trkpt lat="45.84239" lon="4.79647">
        <ele>575</ele>
        <time>2012-01-15T08:54:31Z</time>
      </trkpt>
      <trkpt lat="45.84238" lon="4.79647">
        <ele>575</ele>
        <time>2012-01-15T08:54:32Z</time>
      </trkpt>
      <trkpt lat="45.84236" lon="4.79648">
        <ele>575</ele>
        <time>2012-01-15T08:54:36Z</time>
      </trkpt>
      <trkpt lat="45.84236" lon="4.79647">
        <ele>575</ele>
        <time>2012-01-15T08:54:37Z</time>
      </trkpt>
      <trkpt lat="45.84236" lon="4.79647">
        <ele>575</ele>
        <time>2012-01-15T08:54:40Z</time>
      </trkpt>
      <trkpt lat="45.84235" lon="4.79647">
        <ele>575</ele>
        <time>2012-01-15T08:54:41Z</time>
      </trkpt>
      <trkpt lat="45.84235" lon="4.79647">
        <ele>575</ele>
        <time>2012-01-15T08:54:42Z</time>
      </trkpt>
      <trkpt lat="45.8423" lon="4.79647">
        <ele>576</ele>
        <time>2012-01-15T08:54:50Z</time>
      </trkpt>
      <trkpt lat="45.84227" lon="4.79645">
        <ele>576</ele>
        <time>2012-01-15T08:54:56Z</time>
      </trkpt>
      <trkpt lat="45.84227" lon="4.79648">
        <ele>576</ele>
        <time>2012-01-15T08:55:35Z</time>
      </trkpt>
      <trkpt lat="45.84225" lon="4.79653">
        <ele>576</ele>
        <time>2012-01-15T08:55:41Z</time>
      </trkpt>
      <trkpt lat="45.84225" lon="4.79655">
        <ele>577</ele>
        <time>2012-01-15T08:55:45Z</time>
      </trkpt>
      <trkpt lat="45.84225" lon="4.79657">
        <ele>577</ele>
        <time>2012-01-15T08:55:48Z</time>
      </trkpt>
      <trkpt lat="45.84221" lon="4.79665">
        <ele>577</ele>
        <time>2012-01-15T08:55:56Z</time>
      </trkpt>
      <trkpt lat="45.84221" lon="4.79666">
        <ele>577</ele>
        <time>2012-01-15T08:55:57Z</time>
      </trkpt>
      <trkpt lat="45.8422" lon="4.79669">
        <ele>584</ele>
        <time>2012-01-15T08:56:00Z</time>
      </trkpt>
      <trkpt lat="45.84221" lon="4.79672">
        <ele>585</ele>
        <time>2012-01-15T08:56:03Z</time>
      </trkpt>
      <trkpt lat="45.8422" lon="4.79675">
        <ele>585</ele>
        <time>2012-01-15T08:56:08Z</time>
      </trkpt>
      <trkpt lat="45.84219" lon="4.79676">
        <ele>585</ele>
        <time>2012-01-15T08:56:10Z</time>
      </trkpt>
      <trkpt lat="45.84219" lon="4.79677">
        <ele>585</ele>
        <time>2012-01-15T08:56:13Z</time>
      </trkpt>
      <trkpt lat="45.84218" lon="4.7968">
        <ele>585</ele>
        <time>2012-01-15T08:56:17Z</time>
      </trkpt>
      <trkpt lat="45.84218" lon="4.79683">
        <ele>586</ele>
        <time>2012-01-15T08:56:22Z</time>
      </trkpt>
      <trkpt lat="45.84216" lon="4.79686">
        <ele>586</ele>
        <time>2012-01-15T08:56:27Z</time>
      </trkpt>
      <trkpt lat="45.84215" lon="4.79691">
        <ele>587</ele>
        <time>2012-01-15T08:56:32Z</time>
      </trkpt>
      <trkpt lat="45.84213" lon="4.79694">
        <ele>587</ele>
        <time>2012-01-15T08:56:38Z</time>
      </trkpt>
      <trkpt lat="45.84213" lon="4.79695">
        <ele>587</ele>
        <time>2012-01-15T08:56:39Z</time>
      </trkpt>
      <trkpt lat="45.84212" lon="4.797">
        <ele>588</ele>
        <time>2012-01-15T08:56:45Z</time>
      </trkpt>
      <trkpt lat="45.84208" lon="4.797">
        <ele>588</ele>
        <time>2012-01-15T08:56:52Z</time>
      </trkpt>
      <trkpt lat="45.84205" lon="4.79699">
        <ele>588</ele>
        <time>2012-01-15T08:56:58Z</time>
      </trkpt>
      <trkpt lat="45.84204" lon="4.79697">
        <ele>589</ele>
        <time>2012-01-15T08:57:05Z</time>
      </trkpt>
      <trkpt lat="45.84203" lon="4.79698">
        <ele>589</ele>
        <time>2012-01-15T08:57:11Z</time>
      </trkpt>
      <trkpt lat="45.84201" lon="4.79703">
        <ele>589</ele>
        <time>2012-01-15T08:57:15Z</time>
      </trkpt>
      <trkpt lat="45.84195" lon="4.79704">
        <ele>590</ele>
        <time>2012-01-15T08:57:20Z</time>
      </trkpt>
      <trkpt lat="45.84193" lon="4.79703">
        <ele>590</ele>
        <time>2012-01-15T08:57:21Z</time>
      </trkpt>
      <trkpt lat="45.84188" lon="4.79692">
        <ele>590</ele>
        <time>2012-01-15T08:57:27Z</time>
      </trkpt>
      <trkpt lat="45.84187" lon="4.7969">
        <ele>590</ele>
        <time>2012-01-15T08:57:28Z</time>
      </trkpt>
      <trkpt lat="45.84181" lon="4.79678">
        <ele>592</ele>
        <time>2012-01-15T08:57:35Z</time>
      </trkpt>
      <trkpt lat="45.84179" lon="4.79668">
        <ele>593</ele>
        <time>2012-01-15T08:57:40Z</time>
      </trkpt>
      <trkpt lat="45.84179" lon="4.79662">
        <ele>588</ele>
        <time>2012-01-15T08:57:43Z</time>
      </trkpt>
      <trkpt lat="45.84179" lon="4.7966">
        <ele>587</ele>
        <time>2012-01-15T08:57:48Z</time>
      </trkpt>
      <trkpt lat="45.84179" lon="4.79671">
        <ele>593</ele>
        <time>2012-01-15T08:57:55Z</time>
      </trkpt>
      <trkpt lat="45.84178" lon="4.79675">
        <ele>592</ele>
        <time>2012-01-15T08:57:58Z</time>
      </trkpt>
      <trkpt lat="45.84178" lon="4.79675">
        <ele>592</ele>
        <time>2012-01-15T08:58:01Z</time>
      </trkpt>
      <trkpt lat="45.84178" lon="4.79673">
        <ele>593</ele>
        <time>2012-01-15T08:58:05Z</time>
      </trkpt>
      <trkpt lat="45.84178" lon="4.79669">
        <ele>593</ele>
        <time>2012-01-15T08:58:08Z</time>
      </trkpt>
    </trkseg>
    </trkseg>
      <trkpt lat="45.84225" lon="4.79812">
        <ele>591</ele>
        <time>2012-01-15T09:08:01Z</time>
      </trkpt>
      <trkpt lat="45.84225" lon="4.79815">
        <ele>591</ele>
        <time>2012-01-15T09:08:03Z</time>
      </trkpt>
      <trkpt lat="45.8423" lon="4.79829">
        <ele>591</ele>
        <time>2012-01-15T09:08:10Z</time>
      </trkpt>
      <trkpt lat="45.84231" lon="4.79835">
        <ele>588</ele>
        <time>2012-01-15T09:08:12Z</time>
      </trkpt>
      <trkpt lat="45.84235" lon="4.7985">
        <ele>587</ele>
        <time>2012-01-15T09:08:17Z</time>
      </trkpt>
      <trkpt lat="45.84237" lon="4.79862">
        <ele>586</ele>
        <time>2012-01-15T09:08:21Z</time>
      </trkpt>
      <trkpt lat="45.84238" lon="4.79867">
        <ele>586</ele>
        <time>2012-01-15T09:08:23Z</time>
      </trkpt>
      <trkpt lat="45.8424" lon="4.79882">
        <ele>584</ele>
        <time>2012-01-15T09:08:28Z</time>
      </trkpt>
      <trkpt lat="45.84241" lon="4.79888">
        <ele>584</ele>
        <time>2012-01-15T09:08:30Z</time>
      </trkpt>
      <trkpt lat="45.84244" lon="4.79901">
        <ele>582</ele>
        <time>2012-01-15T09:08:34Z</time>
      </trkpt>
      <trkpt lat="45.84247" lon="4.79913">
        <ele>580</ele>
        <time>2012-01-15T09:08:38Z</time>
      </trkpt>
      <trkpt lat="45.8425" lon="4.79922">
        <ele>578</ele>
        <time>2012-01-15T09:08:41Z</time>
      </trkpt>
      <trkpt lat="45.84253" lon="4.79938">
        <ele>575</ele>
        <time>2012-01-15T09:08:46Z</time>
      </trkpt>
      <trkpt lat="45.84253" lon="4.79944">
        <ele>574</ele>
        <time>2012-01-15T09:08:48Z</time>
      </trkpt>
      <trkpt lat="45.84256" lon="4.79964">
        <ele>573</ele>
        <time>2012-01-15T09:08:54Z</time>
      </trkpt>
      <trkpt lat="45.84255" lon="4.7998">
        <ele>571</ele>
        <time>2012-01-15T09:08:59Z</time>
      </trkpt>
      <trkpt lat="45.84254" lon="4.79991">
        <ele>570</ele>
        <time>2012-01-15T09:09:02Z</time>
      </trkpt>
      <trkpt lat="45.84252" lon="4.80001">
        <ele>569</ele>
        <time>2012-01-15T09:09:05Z</time>
      </trkpt>
      <trkpt lat="45.84247" lon="4.80017">
        <ele>566</ele>
        <time>2012-01-15T09:09:10Z</time>
      </trkpt>
      <trkpt lat="45.84244" lon="4.80024">
        <ele>565</ele>
        <time>2012-01-15T09:09:12Z</time>
      </trkpt>
      <trkpt lat="45.84237" lon="4.8004">
        <ele>564</ele>
        <time>2012-01-15T09:09:17Z</time>
      </trkpt>
      <trkpt lat="45.84233" lon="4.80048">
        <ele>563</ele>
        <time>2012-01-15T09:09:20Z</time>
      </trkpt>
      <trkpt lat="45.84225" lon="4.80062">
        <ele>562</ele>
        <time>2012-01-15T09:09:25Z</time>
      </trkpt>
      <trkpt lat="45.84224" lon="4.80065">
        <ele>562</ele>
        <time>2012-01-15T09:09:26Z</time>
      </trkpt>
      <trkpt lat="45.8422" lon="4.8007">
        <ele>562</ele>
        <time>2012-01-15T09:09:28Z</time>
      </trkpt>
      <trkpt lat="45.84214" lon="4.80075">
        <ele>562</ele>
        <time>2012-01-15T09:09:31Z</time>
      </trkpt>
      <trkpt lat="45.8421" lon="4.8008">
        <ele>562</ele>
        <time>2012-01-15T09:09:33Z</time>
      </trkpt>
      <trkpt lat="45.84206" lon="4.80085">
        <ele>555</ele>
        <time>2012-01-15T09:09:35Z</time>
      </trkpt>
      <trkpt lat="45.84203" lon="4.80087">
        <ele>555</ele>
        <time>2012-01-15T09:09:36Z</time>
      </trkpt>
      <trkpt lat="45.84194" lon="4.80088">
        <ele>555</ele>
        <time>2012-01-15T09:09:40Z</time>
      </trkpt>
      <trkpt lat="45.84192" lon="4.80087">
        <ele>556</ele>
        <time>2012-01-15T09:09:41Z</time>
      </trkpt>
      <trkpt lat="45.84179" lon="4.80083">
        <ele>561</ele>
        <time>2012-01-15T09:09:47Z</time>
      </trkpt>
      <trkpt lat="45.84172" lon="4.80081">
        <ele>561</ele>
        <time>2012-01-15T09:09:50Z</time>
      </trkpt>
      <trkpt lat="45.84159" lon="4.80079">
        <ele>561</ele>
        <time>2012-01-15T09:09:56Z</time>
      </trkpt>
      <trkpt lat="45.84154" lon="4.80078">
        <ele>562</ele>
        <time>2012-01-15T09:09:58Z</time>
      </trkpt>
      <trkpt lat="45.84145" lon="4.80077">
        <ele>562</ele>
        <time>2012-01-15T09:10:03Z</time>
      </trkpt>
      <trkpt lat="45.84134" lon="4.80074">
        <ele>562</ele>
        <time>2012-01-15T09:10:08Z</time>
      </trkpt>
      <trkpt lat="45.84132" lon="4.80074">
        <ele>563</ele>
        <time>2012-01-15T09:10:09Z</time>
      </trkpt>
      <trkpt lat="45.84115" lon="4.80073">
        <ele>562</ele>
        <time>2012-01-15T09:10:16Z</time>
      </trkpt>
      <trkpt lat="45.84099" lon="4.80076">
        <ele>561</ele>
        <time>2012-01-15T09:10:23Z</time>
      </trkpt>
      <trkpt lat="45.84096" lon="4.80075">
        <ele>561</ele>
        <time>2012-01-15T09:10:24Z</time>
      </trkpt>
      <trkpt lat="45.84086" lon="4.80072">
        <ele>561</ele>
        <time>2012-01-15T09:10:29Z</time>
      </trkpt>
      <trkpt lat="45.84084" lon="4.80072">
        <ele>561</ele>
        <time>2012-01-15T09:10:30Z</time>
      </trkpt>
      <trkpt lat="45.84077" lon="4.80074">
        <ele>559</ele>
        <time>2012-01-15T09:10:33Z</time>
      </trkpt>
      <trkpt lat="45.84072" lon="4.80075">
        <ele>559</ele>
        <time>2012-01-15T09:10:35Z</time>
      </trkpt>
      <trkpt lat="45.8406" lon="4.80078">
        <ele>559</ele>
        <time>2012-01-15T09:10:40Z</time>
      </trkpt>
      <trkpt lat="45.84057" lon="4.80078">
        <ele>559</ele>
        <time>2012-01-15T09:10:41Z</time>
      </trkpt>
      <trkpt lat="45.84047" lon="4.80081">
        <ele>558</ele>
        <time>2012-01-15T09:10:45Z</time>
      </trkpt>
      <trkpt lat="45.84039" lon="4.80083">
        <ele>553</ele>
        <time>2012-01-15T09:10:48Z</time>
      </trkpt>
      <trkpt lat="45.84031" lon="4.80084">
        <ele>552</ele>
        <time>2012-01-15T09:10:51Z</time>
      </trkpt>
      <trkpt lat="45.8402" lon="4.80084">
        <ele>552</ele>
        <time>2012-01-15T09:10:55Z</time>
      </trkpt>
      <trkpt lat="45.84012" lon="4.80082">
        <ele>555</ele>
        <time>2012-01-15T09:10:58Z</time>
      </trkpt>
      <trkpt lat="45.84002" lon="4.80076">
        <ele>555</ele>
        <time>2012-01-15T09:11:02Z</time>
      </trkpt>
      <trkpt lat="45.83997" lon="4.80072">
        <ele>551</ele>
        <time>2012-01-15T09:11:04Z</time>
      </trkpt>
      <trkpt lat="45.83986" lon="4.80059">
        <ele>549</ele>
        <time>2012-01-15T09:11:09Z</time>
      </trkpt>
      <trkpt lat="45.83979" lon="4.80039">
        <ele>548</ele>
        <time>2012-01-15T09:11:15Z</time>
      </trkpt>
      <trkpt lat="45.83978" lon="4.80035">
        <ele>548</ele>
        <time>2012-01-15T09:11:16Z</time>
      </trkpt>
      <trkpt lat="45.83975" lon="4.80014">
        <ele>549</ele>
        <time>2012-01-15T09:11:22Z</time>
      </trkpt>
      <trkpt lat="45.83974" lon="4.80006">
        <ele>549</ele>
        <time>2012-01-15T09:11:24Z</time>
      </trkpt>
      <trkpt lat="45.83973" lon="4.79997">
        <ele>551</ele>
        <time>2012-01-15T09:11:27Z</time>
      </trkpt>
      <trkpt lat="45.83968" lon="4.79983">
        <ele>550</ele>
        <time>2012-01-15T09:11:32Z</time>
      </trkpt>
      <trkpt lat="45.83967" lon="4.7998">
        <ele>550</ele>
        <time>2012-01-15T09:11:33Z</time>
      </trkpt>
      <trkpt lat="45.8396" lon="4.79963">
        <ele>550</ele>
        <time>2012-01-15T09:11:39Z</time>
      </trkpt>
      <trkpt lat="45.83956" lon="4.79957">
        <ele>550</ele>
        <time>2012-01-15T09:11:41Z</time>
      </trkpt>
      <trkpt lat="45.83954" lon="4.79952">
        <ele>549</ele>
        <time>2012-01-15T09:11:43Z</time>
      </trkpt>
      <trkpt lat="45.83943" lon="4.79939">
        <ele>549</ele>
        <time>2012-01-15T09:11:48Z</time>
      </trkpt>
      <trkpt lat="45.83941" lon="4.79936">
        <ele>548</ele>
        <time>2012-01-15T09:11:49Z</time>
      </trkpt>
      <trkpt lat="45.83933" lon="4.79924">
        <ele>547</ele>
        <time>2012-01-15T09:11:54Z</time>
      </trkpt>
      <trkpt lat="45.83929" lon="4.79919">
        <ele>546</ele>
        <time>2012-01-15T09:11:56Z</time>
      </trkpt>
      <trkpt lat="45.83921" lon="4.79911">
        <ele>547</ele>
        <time>2012-01-15T09:12:00Z</time>
      </trkpt>
      <trkpt lat="45.83915" lon="4.79905">
        <ele>543</ele>
        <time>2012-01-15T09:12:03Z</time>
      </trkpt>
      <trkpt lat="45.8391" lon="4.79901">
        <ele>542</ele>
        <time>2012-01-15T09:12:05Z</time>
      </trkpt>
      <trkpt lat="45.83898" lon="4.79897">
        <ele>541</ele>
        <time>2012-01-15T09:12:10Z</time>
      </trkpt>
      <trkpt lat="45.83895" lon="4.79896">
        <ele>541</ele>
        <time>2012-01-15T09:12:11Z</time>
      </trkpt>
      <trkpt lat="45.83884" lon="4.79894">
        <ele>540</ele>
        <time>2012-01-15T09:12:15Z</time>
      </trkpt>
      <trkpt lat="45.83876" lon="4.79894">
        <ele>539</ele>
        <time>2012-01-15T09:12:18Z</time>
      </trkpt>
      <trkpt lat="45.83868" lon="4.79893">
        <ele>538</ele>
        <time>2012-01-15T09:12:21Z</time>
      </trkpt>
      <trkpt lat="45.83857" lon="4.79894">
        <ele>537</ele>
        <time>2012-01-15T09:12:25Z</time>
      </trkpt>
      <trkpt lat="45.83854" lon="4.79894">
        <ele>536</ele>
        <time>2012-01-15T09:12:26Z</time>
      </trkpt>
      <trkpt lat="45.83838" lon="4.79897">
        <ele>535</ele>
        <time>2012-01-15T09:12:32Z</time>
      </trkpt>
      <trkpt lat="45.83828" lon="4.79899">
        <ele>527</ele>
        <time>2012-01-15T09:12:36Z</time>
      </trkpt>
      <trkpt lat="45.83821" lon="4.79902">
        <ele>527</ele>
        <time>2012-01-15T09:12:39Z</time>
      </trkpt>
      <trkpt lat="45.83818" lon="4.79903">
        <ele>527</ele>
        <time>2012-01-15T09:12:40Z</time>
      </trkpt>
      <trkpt lat="45.83803" lon="4.79908">
        <ele>526</ele>
        <time>2012-01-15T09:12:46Z</time>
      </trkpt>
      <trkpt lat="45.838" lon="4.79909">
        <ele>526</ele>
        <time>2012-01-15T09:12:47Z</time>
      </trkpt>
      <trkpt lat="45.83785" lon="4.7991">
        <ele>525</ele>
        <time>2012-01-15T09:12:53Z</time>
      </trkpt>
      <trkpt lat="45.83783" lon="4.79909">
        <ele>525</ele>
        <time>2012-01-15T09:12:54Z</time>
      </trkpt>
      <trkpt lat="45.83776" lon="4.79906">
        <ele>525</ele>
        <time>2012-01-15T09:12:57Z</time>
      </trkpt>
      <trkpt lat="45.83765" lon="4.79902">
        <ele>524</ele>
        <time>2012-01-15T09:13:02Z</time>
      </trkpt>
      <trkpt lat="45.83763" lon="4.79901">
        <ele>524</ele>
        <time>2012-01-15T09:13:03Z</time>
      </trkpt>
      <trkpt lat="45.83761" lon="4.79899">
        <ele>524</ele>
        <time>2012-01-15T09:13:05Z</time>
      </trkpt>
      <trkpt lat="45.83761" lon="4.79897">
        <ele>524</ele>
        <time>2012-01-15T09:13:07Z</time>
      </trkpt>
      <trkpt lat="45.83755" lon="4.79892">
        <ele>524</ele>
        <time>2012-01-15T09:13:14Z</time>
      </trkpt>
      <trkpt lat="45.83749" lon="4.79889">
        <ele>518</ele>
        <time>2012-01-15T09:13:18Z</time>
      </trkpt>
      <trkpt lat="45.83748" lon="4.79887">
        <ele>517</ele>
        <time>2012-01-15T09:13:19Z</time>
      </trkpt>
      <trkpt lat="45.83746" lon="4.79882">
        <ele>517</ele>
        <time>2012-01-15T09:13:24Z</time>
      </trkpt>
      <trkpt lat="45.83743" lon="4.79878">
        <ele>516</ele>
        <time>2012-01-15T09:13:27Z</time>
      </trkpt>
      <trkpt lat="45.83741" lon="4.79876">
        <ele>516</ele>
        <time>2012-01-15T09:13:29Z</time>
      </trkpt>
      <trkpt lat="45.83736" lon="4.7987">
        <ele>516</ele>
        <time>2012-01-15T09:13:34Z</time>
      </trkpt>
      <trkpt lat="45.83734" lon="4.79869">
        <ele>516</ele>
        <time>2012-01-15T09:13:36Z</time>
      </trkpt>
      <trkpt lat="45.83728" lon="4.79866">
        <ele>515</ele>
        <time>2012-01-15T09:13:43Z</time>
      </trkpt>
      <trkpt lat="45.83727" lon="4.79866">
        <ele>515</ele>
        <time>2012-01-15T09:13:44Z</time>
      </trkpt>
      <trkpt lat="45.83726" lon="4.79866">
        <ele>515</ele>
        <time>2012-01-15T09:13:49Z</time>
      </trkpt>
      <trkpt lat="45.83722" lon="4.79863">
        <ele>515</ele>
        <time>2012-01-15T09:14:00Z</time>
      </trkpt>
      <trkpt lat="45.8372" lon="4.79861">
        <ele>515</ele>
        <time>2012-01-15T09:14:02Z</time>
      </trkpt>
      <trkpt lat="45.83717" lon="4.79859">
        <ele>514</ele>
        <time>2012-01-15T09:14:07Z</time>
      </trkpt>
      <trkpt lat="45.83716" lon="4.79858">
        <ele>514</ele>
        <time>2012-01-15T09:14:14Z</time>
      </trkpt>
      <trkpt lat="45.83707" lon="4.7985">
        <ele>513</ele>
        <time>2012-01-15T09:14:19Z</time>
      </trkpt>
      <trkpt lat="45.83705" lon="4.79848">
        <ele>513</ele>
        <time>2012-01-15T09:14:20Z</time>
      </trkpt>
      <trkpt lat="45.83693" lon="4.79835">
        <ele>510</ele>
        <time>2012-01-15T09:14:26Z</time>
      </trkpt>
      <trkpt lat="45.83691" lon="4.79832">
        <ele>505</ele>
        <time>2012-01-15T09:14:27Z</time>
      </trkpt>
      <trkpt lat="45.83685" lon="4.79823">
        <ele>504</ele>
        <time>2012-01-15T09:14:30Z</time>
      </trkpt>
      <trkpt lat="45.83677" lon="4.79815">
        <ele>503</ele>
        <time>2012-01-15T09:14:33Z</time>
      </trkpt>
      <trkpt lat="45.83674" lon="4.79813">
        <ele>503</ele>
        <time>2012-01-15T09:14:34Z</time>
      </trkpt>
      <trkpt lat="45.83661" lon="4.79804">
        <ele>497</ele>
        <time>2012-01-15T09:14:38Z</time>
      </trkpt>
      <trkpt lat="45.83651" lon="4.79792">
        <ele>496</ele>
        <time>2012-01-15T09:14:43Z</time>
      </trkpt>
      <trkpt lat="45.83646" lon="4.79785">
        <ele>495</ele>
        <time>2012-01-15T09:14:46Z</time>
      </trkpt>
      <trkpt lat="45.83641" lon="4.79777">
        <ele>495</ele>
        <time>2012-01-15T09:14:49Z</time>
      </trkpt>
      <trkpt lat="45.83632" lon="4.79767">
        <ele>494</ele>
        <time>2012-01-15T09:14:53Z</time>
      </trkpt>
      <trkpt lat="45.8363" lon="4.79764">
        <ele>494</ele>
        <time>2012-01-15T09:14:54Z</time>
      </trkpt>
      <trkpt lat="45.83628" lon="4.79758">
        <ele>493</ele>
        <time>2012-01-15T09:14:56Z</time>
      </trkpt>
      <trkpt lat="45.83626" lon="4.79753">
        <ele>493</ele>
        <time>2012-01-15T09:14:58Z</time>
      </trkpt>
      <trkpt lat="45.8362" lon="4.79747">
        <ele>488</ele>
        <time>2012-01-15T09:15:02Z</time>
      </trkpt>
      <trkpt lat="45.83617" lon="4.79746">
        <ele>487</ele>
        <time>2012-01-15T09:15:03Z</time>
      </trkpt>
      <trkpt lat="45.83603" lon="4.79739">
        <ele>487</ele>
        <time>2012-01-15T09:15:09Z</time>
      </trkpt>
      <trkpt lat="45.83601" lon="4.79739">
        <ele>487</ele>
        <time>2012-01-15T09:15:10Z</time>
      </trkpt>
      <trkpt lat="45.83586" lon="4.79736">
        <ele>486</ele>
        <time>2012-01-15T09:15:16Z</time>
      </trkpt>
      <trkpt lat="45.83581" lon="4.79736">
        <ele>484</ele>
        <time>2012-01-15T09:15:18Z</time>
      </trkpt>
      <trkpt lat="45.83574" lon="4.79735">
        <ele>484</ele>
        <time>2012-01-15T09:15:21Z</time>
      </trkpt>
      <trkpt lat="45.83569" lon="4.79735">
        <ele>483</ele>
        <time>2012-01-15T09:15:25Z</time>
      </trkpt>
      <trkpt lat="45.83567" lon="4.79737">
        <ele>483</ele>
        <time>2012-01-15T09:15:28Z</time>
      </trkpt>
      <trkpt lat="45.83567" lon="4.79739">
        <ele>483</ele>
        <time>2012-01-15T09:15:30Z</time>
      </trkpt>
      <trkpt lat="45.83566" lon="4.79738">
        <ele>483</ele>
        <time>2012-01-15T09:15:33Z</time>
      </trkpt>
      <trkpt lat="45.83565" lon="4.79736">
        <ele>483</ele>
        <time>2012-01-15T09:15:34Z</time>
      </trkpt>
      <trkpt lat="45.83559" lon="4.79729">
        <ele>482</ele>
        <time>2012-01-15T09:15:42Z</time>
      </trkpt>
      <trkpt lat="45.83554" lon="4.79726">
        <ele>482</ele>
        <time>2012-01-15T09:15:52Z</time>
      </trkpt>
      <trkpt lat="45.83551" lon="4.79726">
        <ele>482</ele>
        <time>2012-01-15T09:15:54Z</time>
      </trkpt>
      <trkpt lat="45.83548" lon="4.79726">
        <ele>482</ele>
        <time>2012-01-15T09:15:57Z</time>
      </trkpt>
      <trkpt lat="45.83543" lon="4.79726">
        <ele>482</ele>
        <time>2012-01-15T09:16:01Z</time>
      </trkpt>
      <trkpt lat="45.8354" lon="4.79728">
        <ele>482</ele>
        <time>2012-01-15T09:16:03Z</time>
      </trkpt>
      <trkpt lat="45.83535" lon="4.79728">
        <ele>481</ele>
        <time>2012-01-15T09:16:08Z</time>
      </trkpt>
      <trkpt lat="45.83533" lon="4.79728">
        <ele>481</ele>
        <time>2012-01-15T09:16:09Z</time>
      </trkpt>
      <trkpt lat="45.8353" lon="4.79728">
        <ele>481</ele>
        <time>2012-01-15T09:16:12Z</time>
      </trkpt>
      <trkpt lat="45.83527" lon="4.79728">
        <ele>481</ele>
        <time>2012-01-15T09:16:15Z</time>
      </trkpt>
      <trkpt lat="45.83523" lon="4.79728">
        <ele>481</ele>
        <time>2012-01-15T09:16:19Z</time>
      </trkpt>
      <trkpt lat="45.83522" lon="4.79728">
        <ele>481</ele>
        <time>2012-01-15T09:16:21Z</time>
      </trkpt>
      <trkpt lat="45.83518" lon="4.79726">
        <ele>481</ele>
        <time>2012-01-15T09:16:24Z</time>
      </trkpt>
      <trkpt lat="45.83516" lon="4.79726">
        <ele>481</ele>
        <time>2012-01-15T09:16:25Z</time>
      </trkpt>
      <trkpt lat="45.83515" lon="4.79726">
        <ele>481</ele>
        <time>2012-01-15T09:16:26Z</time>
      </trkpt>
      <trkpt lat="45.83505" lon="4.79725">
        <ele>481</ele>
        <time>2012-01-15T09:16:32Z</time>
      </trkpt>
      <trkpt lat="45.83497" lon="4.79722">
        <ele>477</ele>
        <time>2012-01-15T09:16:36Z</time>
      </trkpt>
      <trkpt lat="45.83496" lon="4.79721">
        <ele>477</ele>
        <time>2012-01-15T09:16:37Z</time>
      </trkpt>
      <trkpt lat="45.83485" lon="4.79714">
        <ele>476</ele>
        <time>2012-01-15T09:16:43Z</time>
      </trkpt>
      <trkpt lat="45.83484" lon="4.79711">
        <ele>476</ele>
        <time>2012-01-15T09:16:44Z</time>
      </trkpt>
      <trkpt lat="45.83484" lon="4.79708">
        <ele>476</ele>
        <time>2012-01-15T09:16:45Z</time>
      </trkpt>
      <trkpt lat="45.83484" lon="4.79698">
        <ele>475</ele>
        <time>2012-01-15T09:16:48Z</time>
      </trkpt>
      <trkpt lat="45.83487" lon="4.79682">
        <ele>475</ele>
        <time>2012-01-15T09:16:53Z</time>
      </trkpt>
      <trkpt lat="45.83487" lon="4.79678">
        <ele>475</ele>
        <time>2012-01-15T09:16:54Z</time>
      </trkpt>
      <trkpt lat="45.83487" lon="4.79657">
        <ele>474</ele>
        <time>2012-01-15T09:17:00Z</time>
      </trkpt>
      <trkpt lat="45.83487" lon="4.79654">
        <ele>474</ele>
        <time>2012-01-15T09:17:01Z</time>
      </trkpt>
      <trkpt lat="45.83486" lon="4.79635">
        <ele>473</ele>
        <time>2012-01-15T09:17:06Z</time>
      </trkpt>
      <trkpt lat="45.83486" lon="4.79627">
        <ele>473</ele>
        <time>2012-01-15T09:17:08Z</time>
      </trkpt>
      <trkpt lat="45.83484" lon="4.79613">
        <ele>473</ele>
        <time>2012-01-15T09:17:12Z</time>
      </trkpt>
      <trkpt lat="45.8348" lon="4.79608">
        <ele>473</ele>
        <time>2012-01-15T09:17:14Z</time>
      </trkpt>
      <trkpt lat="45.83477" lon="4.79608">
        <ele>473</ele>
        <time>2012-01-15T09:17:15Z</time>
      </trkpt>
      <trkpt lat="45.83474" lon="4.79608">
        <ele>473</ele>
        <time>2012-01-15T09:17:16Z</time>
      </trkpt>
      <trkpt lat="45.83466" lon="4.79606">
        <ele>472</ele>
        <time>2012-01-15T09:17:19Z</time>
      </trkpt>
      <trkpt lat="45.83458" lon="4.79605">
        <ele>472</ele>
        <time>2012-01-15T09:17:22Z</time>
      </trkpt>
      <trkpt lat="45.8345" lon="4.79603">
        <ele>472</ele>
        <time>2012-01-15T09:17:25Z</time>
      </trkpt>
      <trkpt lat="45.83447" lon="4.79597">
        <ele>472</ele>
        <time>2012-01-15T09:17:27Z</time>
      </trkpt>
      <trkpt lat="45.83447" lon="4.79589">
        <ele>472</ele>
        <time>2012-01-15T09:17:29Z</time>
      </trkpt>
      <trkpt lat="45.83448" lon="4.79582">
        <ele>472</ele>
        <time>2012-01-15T09:17:31Z</time>
      </trkpt>
      <trkpt lat="45.83448" lon="4.79579">
        <ele>473</ele>
        <time>2012-01-15T09:17:32Z</time>
      </trkpt>
      <trkpt lat="45.8345" lon="4.79563">
        <ele>473</ele>
        <time>2012-01-15T09:17:37Z</time>
      </trkpt>
      <trkpt lat="45.83451" lon="4.79557">
        <ele>473</ele>
        <time>2012-01-15T09:17:39Z</time>
      </trkpt>
      <trkpt lat="45.83451" lon="4.7954">
        <ele>473</ele>
        <time>2012-01-15T09:17:44Z</time>
      </trkpt>
      <trkpt lat="45.83449" lon="4.79538">
        <ele>473</ele>
        <time>2012-01-15T09:17:45Z</time>
      </trkpt>
      <trkpt lat="45.83442" lon="4.79533">
        <ele>473</ele>
        <time>2012-01-15T09:17:48Z</time>
      </trkpt>
      <trkpt lat="45.83434" lon="4.79532">
        <ele>473</ele>
        <time>2012-01-15T09:17:51Z</time>
      </trkpt>
      <trkpt lat="45.83432" lon="4.79532">
        <ele>473</ele>
        <time>2012-01-15T09:17:52Z</time>
      </trkpt>
      <trkpt lat="45.83426" lon="4.79531">
        <ele>473</ele>
        <time>2012-01-15T09:17:54Z</time>
      </trkpt>
      <trkpt lat="45.83413" lon="4.7953">
        <ele>470</ele>
        <time>2012-01-15T09:17:59Z</time>
      </trkpt>
      <trkpt lat="45.83411" lon="4.7953">
        <ele>470</ele>
        <time>2012-01-15T09:18:00Z</time>
      </trkpt>
      <trkpt lat="45.83394" lon="4.79526">
        <ele>470</ele>
        <time>2012-01-15T09:18:07Z</time>
      </trkpt>
      <trkpt lat="45.83386" lon="4.79515">
        <ele>470</ele>
        <time>2012-01-15T09:18:13Z</time>
      </trkpt>
      <trkpt lat="45.8338" lon="4.79505">
        <ele>470</ele>
        <time>2012-01-15T09:18:19Z</time>
      </trkpt>
      <trkpt lat="45.83379" lon="4.79504">
        <ele>470</ele>
        <time>2012-01-15T09:18:20Z</time>
      </trkpt>
      <trkpt lat="45.83372" lon="4.7949">
        <ele>473</ele>
        <time>2012-01-15T09:18:29Z</time>
      </trkpt>
      <trkpt lat="45.83371" lon="4.79484">
        <ele>473</ele>
        <time>2012-01-15T09:18:32Z</time>
      </trkpt>
      <trkpt lat="45.83372" lon="4.79477">
        <ele>473</ele>
        <time>2012-01-15T09:18:36Z</time>
      </trkpt>
      <trkpt lat="45.8337" lon="4.79457">
        <ele>474</ele>
        <time>2012-01-15T09:18:44Z</time>
      </trkpt>
      <trkpt lat="45.83362" lon="4.79442">
        <ele>474</ele>
        <time>2012-01-15T09:18:50Z</time>
      </trkpt>
      <trkpt lat="45.83359" lon="4.79438">
        <ele>474</ele>
        <time>2012-01-15T09:18:52Z</time>
      </trkpt>
      <trkpt lat="45.8335" lon="4.79427">
        <ele>475</ele>
        <time>2012-01-15T09:18:57Z</time>
      </trkpt>
      <trkpt lat="45.83345" lon="4.79421">
        <ele>475</ele>
        <time>2012-01-15T09:19:00Z</time>
      </trkpt>
      <trkpt lat="45.83338" lon="4.79415">
        <ele>477</ele>
        <time>2012-01-15T09:19:04Z</time>
      </trkpt>
      <trkpt lat="45.83328" lon="4.79408">
        <ele>477</ele>
        <time>2012-01-15T09:19:09Z</time>
      </trkpt>
      <trkpt lat="45.83326" lon="4.79407">
        <ele>477</ele>
        <time>2012-01-15T09:19:10Z</time>
      </trkpt>
      <trkpt lat="45.83314" lon="4.79401">
        <ele>478</ele>
        <time>2012-01-15T09:19:16Z</time>
      </trkpt>
      <trkpt lat="45.8331" lon="4.79399">
        <ele>478</ele>
        <time>2012-01-15T09:19:18Z</time>
      </trkpt>
      <trkpt lat="45.83298" lon="4.79394">
        <ele>478</ele>
        <time>2012-01-15T09:19:24Z</time>
      </trkpt>
      <trkpt lat="45.83293" lon="4.79392">
        <ele>478</ele>
        <time>2012-01-15T09:19:27Z</time>
      </trkpt>
      <trkpt lat="45.83287" lon="4.79389">
        <ele>478</ele>
        <time>2012-01-15T09:19:30Z</time>
      </trkpt>
      <trkpt lat="45.83281" lon="4.7938">
        <ele>478</ele>
        <time>2012-01-15T09:19:35Z</time>
      </trkpt>
      <trkpt lat="45.8328" lon="4.79375">
        <ele>478</ele>
        <time>2012-01-15T09:19:37Z</time>
      </trkpt>
      <trkpt lat="45.83278" lon="4.7936">
        <ele>479</ele>
        <time>2012-01-15T09:19:43Z</time>
      </trkpt>
      <trkpt lat="45.83276" lon="4.79358">
        <ele>480</ele>
        <time>2012-01-15T09:19:44Z</time>
      </trkpt>
      <trkpt lat="45.83273" lon="4.79353">
        <ele>480</ele>
        <time>2012-01-15T09:19:46Z</time>
      </trkpt>
      <trkpt lat="45.83265" lon="4.79342">
        <ele>480</ele>
        <time>2012-01-15T09:19:51Z</time>
      </trkpt>
      <trkpt lat="45.8326" lon="4.79331">
        <ele>484</ele>
        <time>2012-01-15T09:19:55Z</time>
      </trkpt>
      <trkpt lat="45.83258" lon="4.79326">
        <ele>484</ele>
        <time>2012-01-15T09:19:57Z</time>
      </trkpt>
      <trkpt lat="45.83249" lon="4.79316">
        <ele>484</ele>
        <time>2012-01-15T09:20:02Z</time>
      </trkpt>
      <trkpt lat="45.83247" lon="4.79315">
        <ele>484</ele>
        <time>2012-01-15T09:20:03Z</time>
      </trkpt>
      <trkpt lat="45.83233" lon="4.7931">
        <ele>484</ele>
        <time>2012-01-15T09:20:09Z</time>
      </trkpt>
      <trkpt lat="45.83229" lon="4.79308">
        <ele>484</ele>
        <time>2012-01-15T09:20:11Z</time>
      </trkpt>
      <trkpt lat="45.8322" lon="4.79306">
        <ele>484</ele>
        <time>2012-01-15T09:20:15Z</time>
      </trkpt>
      <trkpt lat="45.8321" lon="4.79304">
        <ele>484</ele>
        <time>2012-01-15T09:20:19Z</time>
      </trkpt>
      <trkpt lat="45.83205" lon="4.79303">
        <ele>484</ele>
        <time>2012-01-15T09:20:21Z</time>
      </trkpt>
      <trkpt lat="45.83192" lon="4.79298">
        <ele>484</ele>
        <time>2012-01-15T09:20:27Z</time>
      </trkpt>
      <trkpt lat="45.83189" lon="4.79298">
        <ele>484</ele>
        <time>2012-01-15T09:20:28Z</time>
      </trkpt>
      <trkpt lat="45.83176" lon="4.79295">
        <ele>484</ele>
        <time>2012-01-15T09:20:34Z</time>
      </trkpt>
      <trkpt lat="45.83172" lon="4.79294">
        <ele>484</ele>
        <time>2012-01-15T09:20:36Z</time>
      </trkpt>
      <trkpt lat="45.83168" lon="4.79291">
        <ele>484</ele>
        <time>2012-01-15T09:20:38Z</time>
      </trkpt>
      <trkpt lat="45.83169" lon="4.79288">
        <ele>485</ele>
        <time>2012-01-15T09:20:40Z</time>
      </trkpt>
      <trkpt lat="45.83172" lon="4.79288">
        <ele>485</ele>
        <time>2012-01-15T09:20:42Z</time>
      </trkpt>
      <trkpt lat="45.83177" lon="4.79289">
        <ele>485</ele>
        <time>2012-01-15T09:20:45Z</time>
      </trkpt>
      <trkpt lat="45.83179" lon="4.79288">
        <ele>485</ele>
        <time>2012-01-15T09:20:46Z</time>
      </trkpt>
      <trkpt lat="45.83185" lon="4.79284">
        <ele>485</ele>
        <time>2012-01-15T09:20:51Z</time>
      </trkpt>
      <trkpt lat="45.8319" lon="4.79275">
        <ele>486</ele>
        <time>2012-01-15T09:20:57Z</time>
      </trkpt>
      <trkpt lat="45.83192" lon="4.79271">
        <ele>486</ele>
        <time>2012-01-15T09:20:59Z</time>
      </trkpt>
      <trkpt lat="45.83195" lon="4.79262">
        <ele>487</ele>
        <time>2012-01-15T09:21:04Z</time>
      </trkpt>
      <trkpt lat="45.83199" lon="4.79251">
        <ele>487</ele>
        <time>2012-01-15T09:21:10Z</time>
      </trkpt>
      <trkpt lat="45.832" lon="4.79247">
        <ele>494</ele>
        <time>2012-01-15T09:21:12Z</time>
      </trkpt>
      <trkpt lat="45.83203" lon="4.79241">
        <ele>494</ele>
        <time>2012-01-15T09:21:16Z</time>
      </trkpt>
      <trkpt lat="45.83204" lon="4.79238">
        <ele>494</ele>
        <time>2012-01-15T09:21:18Z</time>
      </trkpt>
      <trkpt lat="45.83208" lon="4.79233">
        <ele>495</ele>
        <time>2012-01-15T09:21:22Z</time>
      </trkpt>
      <trkpt lat="45.83208" lon="4.79231">
        <ele>495</ele>
        <time>2012-01-15T09:21:23Z</time>
      </trkpt>
      <trkpt lat="45.8321" lon="4.79226">
        <ele>495</ele>
        <time>2012-01-15T09:21:26Z</time>
      </trkpt>
      <trkpt lat="45.83211" lon="4.79223">
        <ele>495</ele>
        <time>2012-01-15T09:21:28Z</time>
      </trkpt>
      <trkpt lat="45.83217" lon="4.7921">
        <ele>496</ele>
        <time>2012-01-15T09:21:35Z</time>
      </trkpt>
      <trkpt lat="45.8322" lon="4.79202">
        <ele>497</ele>
        <time>2012-01-15T09:21:40Z</time>
      </trkpt>
      <trkpt lat="45.83222" lon="4.79196">
        <ele>497</ele>
        <time>2012-01-15T09:21:44Z</time>
      </trkpt>
      <trkpt lat="45.83225" lon="4.79186">
        <ele>498</ele>
        <time>2012-01-15T09:21:50Z</time>
      </trkpt>
      <trkpt lat="45.83228" lon="4.79178">
        <ele>499</ele>
        <time>2012-01-15T09:21:55Z</time>
      </trkpt>
      <trkpt lat="45.83229" lon="4.79174">
        <ele>500</ele>
        <time>2012-01-15T09:21:57Z</time>
      </trkpt>
      <trkpt lat="45.83235" lon="4.79158">
        <ele>505</ele>
        <time>2012-01-15T09:22:06Z</time>
      </trkpt>
      <trkpt lat="45.83236" lon="4.79153">
        <ele>505</ele>
        <time>2012-01-15T09:22:09Z</time>
      </trkpt>
      <trkpt lat="45.83238" lon="4.79147">
        <ele>505</ele>
        <time>2012-01-15T09:22:13Z</time>
      </trkpt>
      <trkpt lat="45.83242" lon="4.79133">
        <ele>506</ele>
        <time>2012-01-15T09:22:21Z</time>
      </trkpt>
      <trkpt lat="45.83243" lon="4.79129">
        <ele>506</ele>
        <time>2012-01-15T09:22:23Z</time>
      </trkpt>
      <trkpt lat="45.83246" lon="4.79119">
        <ele>507</ele>
        <time>2012-01-15T09:22:29Z</time>
      </trkpt>
      <trkpt lat="45.83251" lon="4.79105">
        <ele>511</ele>
        <time>2012-01-15T09:22:37Z</time>
      </trkpt>
      <trkpt lat="45.83255" lon="4.79094">
        <ele>512</ele>
        <time>2012-01-15T09:22:43Z</time>
      </trkpt>
      <trkpt lat="45.83259" lon="4.79081">
        <ele>514</ele>
        <time>2012-01-15T09:22:50Z</time>
      </trkpt>
      <trkpt lat="45.83261" lon="4.79077">
        <ele>515</ele>
        <time>2012-01-15T09:22:52Z</time>
      </trkpt>
      <trkpt lat="45.83265" lon="4.79069">
        <ele>516</ele>
        <time>2012-01-15T09:22:58Z</time>
      </trkpt>
      <trkpt lat="45.83267" lon="4.79069">
        <ele>516</ele>
        <time>2012-01-15T09:23:00Z</time>
      </trkpt>
      <trkpt lat="45.83272" lon="4.7907">
        <ele>516</ele>
        <time>2012-01-15T09:23:03Z</time>
      </trkpt>
      <trkpt lat="45.8328" lon="4.79072">
        <ele>516</ele>
        <time>2012-01-15T09:23:07Z</time>
      </trkpt>
      <trkpt lat="45.8329" lon="4.79074">
        <ele>516</ele>
        <time>2012-01-15T09:23:12Z</time>
      </trkpt>
      <trkpt lat="45.83296" lon="4.79075">
        <ele>516</ele>
        <time>2012-01-15T09:23:15Z</time>
      </trkpt>
      <trkpt lat="45.83306" lon="4.79077">
        <ele>516</ele>
        <time>2012-01-15T09:23:20Z</time>
      </trkpt>
      <trkpt lat="45.83308" lon="4.79077">
        <ele>516</ele>
        <time>2012-01-15T09:23:21Z</time>
      </trkpt>
      <trkpt lat="45.83317" lon="4.79071">
        <ele>516</ele>
        <time>2012-01-15T09:23:26Z</time>
      </trkpt>
      <trkpt lat="45.83319" lon="4.79067">
        <ele>516</ele>
        <time>2012-01-15T09:23:28Z</time>
      </trkpt>
      <trkpt lat="45.83321" lon="4.79058">
        <ele>517</ele>
        <time>2012-01-15T09:23:31Z</time>
      </trkpt>
      <trkpt lat="45.83322" lon="4.7905">
        <ele>517</ele>
        <time>2012-01-15T09:23:34Z</time>
      </trkpt>
      <trkpt lat="45.83324" lon="4.79045">
        <ele>518</ele>
        <time>2012-01-15T09:23:36Z</time>
      </trkpt>
      <trkpt lat="45.83325" lon="4.79044">
        <ele>518</ele>
        <time>2012-01-15T09:23:37Z</time>
      </trkpt>
      <trkpt lat="45.83325" lon="4.79045">
        <ele>518</ele>
        <time>2012-01-15T09:23:44Z</time>
      </trkpt>
      <trkpt lat="45.8333" lon="4.7904">
        <ele>518</ele>
        <time>2012-01-15T09:24:05Z</time>
      </trkpt>
      <trkpt lat="45.83331" lon="4.7904">
        <ele>518</ele>
        <time>2012-01-15T09:24:06Z</time>
      </trkpt>
      <trkpt lat="45.83338" lon="4.79033">
        <ele>520</ele>
        <time>2012-01-15T09:24:11Z</time>
      </trkpt>
      <trkpt lat="45.8334" lon="4.79021">
        <ele>521</ele>
        <time>2012-01-15T09:24:15Z</time>
      </trkpt>
      <trkpt lat="45.8334" lon="4.79002">
        <ele>522</ele>
        <time>2012-01-15T09:24:21Z</time>
      </trkpt>
      <trkpt lat="45.8334" lon="4.78995">
        <ele>525</ele>
        <time>2012-01-15T09:24:24Z</time>
      </trkpt>
      <trkpt lat="45.83341" lon="4.78987">
        <ele>526</ele>
        <time>2012-01-15T09:24:27Z</time>
      </trkpt>
      <trkpt lat="45.83343" lon="4.78975">
        <ele>527</ele>
        <time>2012-01-15T09:24:32Z</time>
      </trkpt>
      <trkpt lat="45.83345" lon="4.78969">
        <ele>528</ele>
        <time>2012-01-15T09:24:35Z</time>
      </trkpt>
      <trkpt lat="45.83345" lon="4.78963">
        <ele>528</ele>
        <time>2012-01-15T09:24:37Z</time>
      </trkpt>
      <trkpt lat="45.83344" lon="4.78955">
        <ele>529</ele>
        <time>2012-01-15T09:24:40Z</time>
      </trkpt>
      <trkpt lat="45.83345" lon="4.78951">
        <ele>529</ele>
        <time>2012-01-15T09:24:42Z</time>
      </trkpt>
      <trkpt lat="45.83345" lon="4.7894">
        <ele>530</ele>
        <time>2012-01-15T09:24:47Z</time>
      </trkpt>
      <trkpt lat="45.83343" lon="4.78937">
        <ele>530</ele>
        <time>2012-01-15T09:24:49Z</time>
      </trkpt>
      <trkpt lat="45.83344" lon="4.78935">
        <ele>530</ele>
        <time>2012-01-15T09:24:50Z</time>
      </trkpt>
      <trkpt lat="45.83343" lon="4.78928">
        <ele>531</ele>
        <time>2012-01-15T09:24:54Z</time>
      </trkpt>
      <trkpt lat="45.83344" lon="4.78921">
        <ele>531</ele>
        <time>2012-01-15T09:24:58Z</time>
      </trkpt>
      <trkpt lat="45.83343" lon="4.78916">
        <ele>534</ele>
        <time>2012-01-15T09:25:00Z</time>
      </trkpt>
      <trkpt lat="45.83343" lon="4.78914">
        <ele>534</ele>
        <time>2012-01-15T09:25:01Z</time>
      </trkpt>
      <trkpt lat="45.83344" lon="4.78905">
        <ele>535</ele>
        <time>2012-01-15T09:25:06Z</time>
      </trkpt>
      <trkpt lat="45.83344" lon="4.7889">
        <ele>537</ele>
        <time>2012-01-15T09:25:14Z</time>
      </trkpt>
      <trkpt lat="45.83344" lon="4.78886">
        <ele>537</ele>
        <time>2012-01-15T09:25:16Z</time>
      </trkpt>
      <trkpt lat="45.83344" lon="4.78876">
        <ele>538</ele>
        <time>2012-01-15T09:25:21Z</time>
      </trkpt>
      <trkpt lat="45.83341" lon="4.78859">
        <ele>539</ele>
        <time>2012-01-15T09:25:28Z</time>
      </trkpt>
      <trkpt lat="45.83341" lon="4.78845">
        <ele>540</ele>
        <time>2012-01-15T09:25:35Z</time>
      </trkpt>
      <trkpt lat="45.83341" lon="4.78833">
        <ele>542</ele>
        <time>2012-01-15T09:25:41Z</time>
      </trkpt>
      <trkpt lat="45.83341" lon="4.78829">
        <ele>542</ele>
        <time>2012-01-15T09:25:43Z</time>
      </trkpt>
      <trkpt lat="45.83341" lon="4.78817">
        <ele>542</ele>
        <time>2012-01-15T09:25:49Z</time>
      </trkpt>
      <trkpt lat="45.83341" lon="4.78811">
        <ele>542</ele>
        <time>2012-01-15T09:25:53Z</time>
      </trkpt>
      <trkpt lat="45.83342" lon="4.78808">
        <ele>542</ele>
        <time>2012-01-15T09:25:55Z</time>
      </trkpt>
      <trkpt lat="45.83342" lon="4.78806">
        <ele>542</ele>
        <time>2012-01-15T09:25:56Z</time>
      </trkpt>
      <trkpt lat="45.83342" lon="4.78803">
        <ele>542</ele>
        <time>2012-01-15T09:25:58Z</time>
      </trkpt>
      <trkpt lat="45.83343" lon="4.78802">
        <ele>542</ele>
        <time>2012-01-15T09:26:01Z</time>
      </trkpt>
      <trkpt lat="45.83345" lon="4.78795">
        <ele>542</ele>
        <time>2012-01-15T09:27:24Z</time>
      </trkpt>
      <trkpt lat="45.83351" lon="4.7879">
        <ele>543</ele>
        <time>2012-01-15T09:27:29Z</time>
      </trkpt>
      <trkpt lat="45.83352" lon="4.78789">
        <ele>543</ele>
        <time>2012-01-15T09:27:30Z</time>
      </trkpt>
      <trkpt lat="45.83361" lon="4.78782">
        <ele>543</ele>
        <time>2012-01-15T09:27:36Z</time>
      </trkpt>
      <trkpt lat="45.83367" lon="4.78777">
        <ele>543</ele>
        <time>2012-01-15T09:27:40Z</time>
      </trkpt>
      <trkpt lat="45.83373" lon="4.78773">
        <ele>544</ele>
        <time>2012-01-15T09:27:43Z</time>
      </trkpt>
      <trkpt lat="45.83384" lon="4.78766">
        <ele>545</ele>
        <time>2012-01-15T09:27:50Z</time>
      </trkpt>
      <trkpt lat="45.83393" lon="4.78763">
        <ele>546</ele>
        <time>2012-01-15T09:27:56Z</time>
      </trkpt>
      <trkpt lat="45.83403" lon="4.78759">
        <ele>547</ele>
        <time>2012-01-15T09:28:02Z</time>
      </trkpt>
      <trkpt lat="45.83405" lon="4.78759">
        <ele>547</ele>
        <time>2012-01-15T09:28:03Z</time>
      </trkpt>
      <trkpt lat="45.83415" lon="4.78756">
        <ele>549</ele>
        <time>2012-01-15T09:28:09Z</time>
      </trkpt>
      <trkpt lat="45.83421" lon="4.78754">
        <ele>550</ele>
        <time>2012-01-15T09:28:13Z</time>
      </trkpt>
      <trkpt lat="45.83423" lon="4.78755">
        <ele>550</ele>
        <time>2012-01-15T09:28:14Z</time>
      </trkpt>
      <trkpt lat="45.83425" lon="4.78754">
        <ele>551</ele>
        <time>2012-01-15T09:28:16Z</time>
      </trkpt>
      <trkpt lat="45.83433" lon="4.78751">
        <ele>551</ele>
        <time>2012-01-15T09:28:20Z</time>
      </trkpt>
      <trkpt lat="45.83434" lon="4.78751">
        <ele>551</ele>
        <time>2012-01-15T09:28:21Z</time>
      </trkpt>
      <trkpt lat="45.8344" lon="4.78748">
        <ele>552</ele>
        <time>2012-01-15T09:28:24Z</time>
      </trkpt>
      <trkpt lat="45.83443" lon="4.78747">
        <ele>552</ele>
        <time>2012-01-15T09:28:26Z</time>
      </trkpt>
      <trkpt lat="45.83454" lon="4.78742">
        <ele>553</ele>
        <time>2012-01-15T09:28:34Z</time>
      </trkpt>
      <trkpt lat="45.83458" lon="4.7874">
        <ele>553</ele>
        <time>2012-01-15T09:28:37Z</time>
      </trkpt>
      <trkpt lat="45.83462" lon="4.78738">
        <ele>554</ele>
        <time>2012-01-15T09:28:40Z</time>
      </trkpt>
      <trkpt lat="45.83471" lon="4.78732">
        <ele>554</ele>
        <time>2012-01-15T09:28:47Z</time>
      </trkpt>
      <trkpt lat="45.83477" lon="4.78731">
        <ele>555</ele>
        <time>2012-01-15T09:28:51Z</time>
      </trkpt>
      <trkpt lat="45.8348" lon="4.78729">
        <ele>555</ele>
        <time>2012-01-15T09:28:54Z</time>
      </trkpt>
      <trkpt lat="45.83484" lon="4.78727">
        <ele>555</ele>
        <time>2012-01-15T09:28:57Z</time>
      </trkpt>
      <trkpt lat="45.83487" lon="4.78726">
        <ele>555</ele>
        <time>2012-01-15T09:29:00Z</time>
      </trkpt>
      <trkpt lat="45.83489" lon="4.78725">
        <ele>555</ele>
        <time>2012-01-15T09:29:01Z</time>
      </trkpt>
      <trkpt lat="45.83494" lon="4.78723">
        <ele>556</ele>
        <time>2012-01-15T09:29:05Z</time>
      </trkpt>
      <trkpt lat="45.83501" lon="4.78721">
        <ele>561</ele>
        <time>2012-01-15T09:29:10Z</time>
      </trkpt>
      <trkpt lat="45.83512" lon="4.78717">
        <ele>562</ele>
        <time>2012-01-15T09:29:17Z</time>
      </trkpt>
      <trkpt lat="45.83525" lon="4.78713">
        <ele>562</ele>
        <time>2012-01-15T09:29:26Z</time>
      </trkpt>
      <trkpt lat="45.8353" lon="4.78712">
        <ele>563</ele>
        <time>2012-01-15T09:29:29Z</time>
      </trkpt>
      <trkpt lat="45.83538" lon="4.78709">
        <ele>563</ele>
        <time>2012-01-15T09:29:35Z</time>
      </trkpt>
      <trkpt lat="45.83547" lon="4.78704">
        <ele>564</ele>
        <time>2012-01-15T09:29:42Z</time>
      </trkpt>
      <trkpt lat="45.83555" lon="4.78698">
        <ele>564</ele>
        <time>2012-01-15T09:29:48Z</time>
      </trkpt>
      <trkpt lat="45.83555" lon="4.78697">
        <ele>564</ele>
        <time>2012-01-15T09:29:50Z</time>
      </trkpt>
      <trkpt lat="45.83555" lon="4.78696">
        <ele>564</ele>
        <time>2012-01-15T09:29:52Z</time>
      </trkpt>
      <trkpt lat="45.8356" lon="4.78696">
        <ele>565</ele>
        <time>2012-01-15T09:29:57Z</time>
      </trkpt>
      <trkpt lat="45.83563" lon="4.78696">
        <ele>565</ele>
        <time>2012-01-15T09:29:59Z</time>
      </trkpt>
      <trkpt lat="45.83573" lon="4.78688">
        <ele>566</ele>
        <time>2012-01-15T09:30:07Z</time>
      </trkpt>
      <trkpt lat="45.8358" lon="4.78685">
        <ele>567</ele>
        <time>2012-01-15T09:30:11Z</time>
      </trkpt>
      <trkpt lat="45.83587" lon="4.78682">
        <ele>570</ele>
        <time>2012-01-15T09:30:16Z</time>
      </trkpt>
      <trkpt lat="45.8359" lon="4.78681">
        <ele>570</ele>
        <time>2012-01-15T09:30:18Z</time>
      </trkpt>
      <trkpt lat="45.83593" lon="4.78679">
        <ele>570</ele>
        <time>2012-01-15T09:30:20Z</time>
      </trkpt>
      <trkpt lat="45.83598" lon="4.78677">
        <ele>570</ele>
        <time>2012-01-15T09:30:24Z</time>
      </trkpt>
      <trkpt lat="45.836" lon="4.78676">
        <ele>570</ele>
        <time>2012-01-15T09:30:25Z</time>
      </trkpt>
      <trkpt lat="45.83611" lon="4.78673">
        <ele>571</ele>
        <time>2012-01-15T09:30:33Z</time>
      </trkpt>
      <trkpt lat="45.83616" lon="4.78671">
        <ele>571</ele>
        <time>2012-01-15T09:30:37Z</time>
      </trkpt>
      <trkpt lat="45.83621" lon="4.78668">
        <ele>571</ele>
        <time>2012-01-15T09:30:41Z</time>
      </trkpt>
      <trkpt lat="45.83624" lon="4.78669">
        <ele>571</ele>
        <time>2012-01-15T09:30:48Z</time>
      </trkpt>
      <trkpt lat="45.83624" lon="4.78667">
        <ele>571</ele>
        <time>2012-01-15T09:31:00Z</time>
      </trkpt>
      <trkpt lat="45.83625" lon="4.78667">
        <ele>571</ele>
        <time>2012-01-15T09:31:02Z</time>
      </trkpt>
      <trkpt lat="45.83625" lon="4.78669">
        <ele>571</ele>
        <time>2012-01-15T09:31:07Z</time>
      </trkpt>
      <trkpt lat="45.83626" lon="4.78669">
        <ele>571</ele>
        <time>2012-01-15T09:31:45Z</time>
      </trkpt>
      <trkpt lat="45.83625" lon="4.7867">
        <ele>571</ele>
        <time>2012-01-15T09:32:00Z</time>
      </trkpt>
      <trkpt lat="45.83625" lon="4.78671">
        <ele>571</ele>
        <time>2012-01-15T09:32:35Z</time>
      </trkpt>
      <trkpt lat="45.8363" lon="4.78672">
        <ele>571</ele>
        <time>2012-01-15T09:33:45Z</time>
      </trkpt>
      <trkpt lat="45.83639" lon="4.78665">
        <ele>574</ele>
        <time>2012-01-15T09:33:50Z</time>
      </trkpt>
      <trkpt lat="45.83641" lon="4.78664">
        <ele>574</ele>
        <time>2012-01-15T09:33:51Z</time>
      </trkpt>
      <trkpt lat="45.83649" lon="4.78657">
        <ele>575</ele>
        <time>2012-01-15T09:33:56Z</time>
      </trkpt>
      <trkpt lat="45.83656" lon="4.78652">
        <ele>575</ele>
        <time>2012-01-15T09:34:00Z</time>
      </trkpt>
      <trkpt lat="45.8366" lon="4.78649">
        <ele>575</ele>
        <time>2012-01-15T09:34:02Z</time>
      </trkpt>
      <trkpt lat="45.8367" lon="4.78642">
        <ele>578</ele>
        <time>2012-01-15T09:34:07Z</time>
      </trkpt>
      <trkpt lat="45.83674" lon="4.78639">
        <ele>578</ele>
        <time>2012-01-15T09:34:09Z</time>
      </trkpt>
      <trkpt lat="45.83677" lon="4.78632">
        <ele>578</ele>
        <time>2012-01-15T09:34:12Z</time>
      </trkpt>
      <trkpt lat="45.83671" lon="4.78615">
        <ele>578</ele>
        <time>2012-01-15T09:34:18Z</time>
      </trkpt>
      <trkpt lat="45.83665" lon="4.78596">
        <ele>575</ele>
        <time>2012-01-15T09:34:24Z</time>
      </trkpt>
      <trkpt lat="45.83666" lon="4.78592">
        <ele>575</ele>
        <time>2012-01-15T09:34:25Z</time>
      </trkpt>
      <trkpt lat="45.83668" lon="4.78579">
        <ele>576</ele>
        <time>2012-01-15T09:34:29Z</time>
      </trkpt>
      <trkpt lat="45.83671" lon="4.78565">
        <ele>576</ele>
        <time>2012-01-15T09:34:33Z</time>
      </trkpt>
      <trkpt lat="45.83671" lon="4.78563">
        <ele>576</ele>
        <time>2012-01-15T09:34:34Z</time>
      </trkpt>
      <trkpt lat="45.83674" lon="4.78561">
        <ele>576</ele>
        <time>2012-01-15T09:34:36Z</time>
      </trkpt>
      <trkpt lat="45.83677" lon="4.78552">
        <ele>575</ele>
        <time>2012-01-15T09:34:39Z</time>
      </trkpt>
      <trkpt lat="45.83678" lon="4.78549">
        <ele>575</ele>
        <time>2012-01-15T09:34:40Z</time>
      </trkpt>
      <trkpt lat="45.83679" lon="4.78545">
        <ele>575</ele>
        <time>2012-01-15T09:34:41Z</time>
      </trkpt>
      <trkpt lat="45.83681" lon="4.78542">
        <ele>575</ele>
        <time>2012-01-15T09:34:42Z</time>
      </trkpt>
      <trkpt lat="45.83684" lon="4.78537">
        <ele>575</ele>
        <time>2012-01-15T09:34:44Z</time>
      </trkpt>
      <trkpt lat="45.83691" lon="4.78531">
        <ele>575</ele>
        <time>2012-01-15T09:34:47Z</time>
      </trkpt>
      <trkpt lat="45.83693" lon="4.78532">
        <ele>575</ele>
        <time>2012-01-15T09:34:48Z</time>
      </trkpt>
      <trkpt lat="45.83695" lon="4.78533">
        <ele>575</ele>
        <time>2012-01-15T09:34:49Z</time>
      </trkpt>
      <trkpt lat="45.83707" lon="4.78534">
        <ele>576</ele>
        <time>2012-01-15T09:34:54Z</time>
      </trkpt>
      <trkpt lat="45.83712" lon="4.78535">
        <ele>576</ele>
        <time>2012-01-15T09:34:56Z</time>
      </trkpt>
      <trkpt lat="45.83721" lon="4.78537">
        <ele>576</ele>
        <time>2012-01-15T09:35:00Z</time>
      </trkpt>
      <trkpt lat="45.83732" lon="4.78538">
        <ele>577</ele>
        <time>2012-01-15T09:35:05Z</time>
      </trkpt>
      <trkpt lat="45.83738" lon="4.78539">
        <ele>577</ele>
        <time>2012-01-15T09:35:08Z</time>
      </trkpt>
      <trkpt lat="45.83752" lon="4.78538">
        <ele>580</ele>
        <time>2012-01-15T09:35:13Z</time>
      </trkpt>
      <trkpt lat="45.83755" lon="4.78537">
        <ele>580</ele>
        <time>2012-01-15T09:35:15Z</time>
      </trkpt>
      <trkpt lat="45.83766" lon="4.78536">
        <ele>580</ele>
        <time>2012-01-15T09:35:20Z</time>
      </trkpt>
      <trkpt lat="45.8377" lon="4.78537">
        <ele>580</ele>
        <time>2012-01-15T09:35:22Z</time>
      </trkpt>
      <trkpt lat="45.83778" lon="4.78537">
        <ele>580</ele>
        <time>2012-01-15T09:35:26Z</time>
      </trkpt>
      <trkpt lat="45.83789" lon="4.78534">
        <ele>580</ele>
        <time>2012-01-15T09:35:31Z</time>
      </trkpt>
      <trkpt lat="45.83794" lon="4.78534">
        <ele>580</ele>
        <time>2012-01-15T09:35:33Z</time>
      </trkpt>
      <trkpt lat="45.83807" lon="4.78537">
        <ele>580</ele>
        <time>2012-01-15T09:35:39Z</time>
      </trkpt>
      <trkpt lat="45.83809" lon="4.78537">
        <ele>580</ele>
        <time>2012-01-15T09:35:40Z</time>
      </trkpt>
      <trkpt lat="45.83818" lon="4.78537">
        <ele>580</ele>
        <time>2012-01-15T09:35:44Z</time>
      </trkpt>
      <trkpt lat="45.83827" lon="4.78537">
        <ele>580</ele>
        <time>2012-01-15T09:35:48Z</time>
      </trkpt>
      <trkpt lat="45.83832" lon="4.78537">
        <ele>580</ele>
        <time>2012-01-15T09:35:50Z</time>
      </trkpt>
      <trkpt lat="45.83845" lon="4.78538">
        <ele>581</ele>
        <time>2012-01-15T09:35:56Z</time>
      </trkpt>
      <trkpt lat="45.83858" lon="4.78536">
        <ele>581</ele>
        <time>2012-01-15T09:36:02Z</time>
      </trkpt>
      <trkpt lat="45.83865" lon="4.78534">
        <ele>581</ele>
        <time>2012-01-15T09:36:05Z</time>
      </trkpt>
      <trkpt lat="45.83875" lon="4.7853">
        <ele>581</ele>
        <time>2012-01-15T09:36:09Z</time>
      </trkpt>
      <trkpt lat="45.83885" lon="4.78522">
        <ele>581</ele>
        <time>2012-01-15T09:36:13Z</time>
      </trkpt>
      <trkpt lat="45.83887" lon="4.78519">
        <ele>581</ele>
        <time>2012-01-15T09:36:14Z</time>
      </trkpt>
      <trkpt lat="45.83897" lon="4.78505">
        <ele>581</ele>
        <time>2012-01-15T09:36:21Z</time>
      </trkpt>
      <trkpt lat="45.83898" lon="4.78503">
        <ele>581</ele>
        <time>2012-01-15T09:36:22Z</time>
      </trkpt>
      <trkpt lat="45.83909" lon="4.78494">
        <ele>578</ele>
        <time>2012-01-15T09:36:28Z</time>
      </trkpt>
      <trkpt lat="45.83913" lon="4.78488">
        <ele>577</ele>
        <time>2012-01-15T09:36:30Z</time>
      </trkpt>
      <trkpt lat="45.83916" lon="4.78481">
        <ele>577</ele>
        <time>2012-01-15T09:36:33Z</time>
      </trkpt>
      <trkpt lat="45.83917" lon="4.78474">
        <ele>576</ele>
        <time>2012-01-15T09:36:34Z</time>
      </trkpt>
      <trkpt lat="45.83921" lon="4.78462">
        <ele>575</ele>
        <time>2012-01-15T09:36:38Z</time>
      </trkpt>
      <trkpt lat="45.83931" lon="4.78446">
        <ele>574</ele>
        <time>2012-01-15T09:36:43Z</time>
      </trkpt>
      <trkpt lat="45.83935" lon="4.78442">
        <ele>573</ele>
        <time>2012-01-15T09:36:45Z</time>
      </trkpt>
      <trkpt lat="45.83941" lon="4.78435">
        <ele>573</ele>
        <time>2012-01-15T09:36:48Z</time>
      </trkpt>
      <trkpt lat="45.8395" lon="4.78424">
        <ele>573</ele>
        <time>2012-01-15T09:36:52Z</time>
      </trkpt>
      <trkpt lat="45.83955" lon="4.78418">
        <ele>573</ele>
        <time>2012-01-15T09:36:54Z</time>
      </trkpt>
      <trkpt lat="45.83964" lon="4.78406">
        <ele>562</ele>
        <time>2012-01-15T09:36:58Z</time>
      </trkpt>
      <trkpt lat="45.83974" lon="4.78406">
        <ele>563</ele>
        <time>2012-01-15T09:37:02Z</time>
      </trkpt>
      <trkpt lat="45.83983" lon="4.78408">
        <ele>564</ele>
        <time>2012-01-15T09:37:05Z</time>
      </trkpt>
      <trkpt lat="45.8399" lon="4.78409">
        <ele>565</ele>
        <time>2012-01-15T09:37:08Z</time>
      </trkpt>
      <trkpt lat="45.84003" lon="4.78407">
        <ele>565</ele>
        <time>2012-01-15T09:37:14Z</time>
      </trkpt>
      <trkpt lat="45.84007" lon="4.78407">
        <ele>565</ele>
        <time>2012-01-15T09:37:16Z</time>
      </trkpt>
      <trkpt lat="45.8401" lon="4.78409">
        <ele>565</ele>
        <time>2012-01-15T09:37:18Z</time>
      </trkpt>
      <trkpt lat="45.84014" lon="4.7841">
        <ele>564</ele>
        <time>2012-01-15T09:37:20Z</time>
      </trkpt>
      <trkpt lat="45.84018" lon="4.78411">
        <ele>563</ele>
        <time>2012-01-15T09:37:22Z</time>
      </trkpt>
      <trkpt lat="45.8402" lon="4.78412">
        <ele>563</ele>
        <time>2012-01-15T09:37:23Z</time>
      </trkpt>
      <trkpt lat="45.84023" lon="4.78413">
        <ele>563</ele>
        <time>2012-01-15T09:37:24Z</time>
      </trkpt>
      <trkpt lat="45.84033" lon="4.78424">
        <ele>572</ele>
        <time>2012-01-15T09:37:30Z</time>
      </trkpt>
      <trkpt lat="45.84035" lon="4.78427">
        <ele>572</ele>
        <time>2012-01-15T09:37:32Z</time>
      </trkpt>
      <trkpt lat="45.84038" lon="4.78432">
        <ele>572</ele>
        <time>2012-01-15T09:37:35Z</time>
      </trkpt>
      <trkpt lat="45.84046" lon="4.78433">
        <ele>572</ele>
        <time>2012-01-15T09:37:40Z</time>
      </trkpt>
      <trkpt lat="45.84057" lon="4.78432">
        <ele>571</ele>
        <time>2012-01-15T09:37:45Z</time>
      </trkpt>
      <trkpt lat="45.8406" lon="4.78433">
        <ele>571</ele>
        <time>2012-01-15T09:37:47Z</time>
      </trkpt>
      <trkpt lat="45.84066" lon="4.78435">
        <ele>571</ele>
        <time>2012-01-15T09:37:50Z</time>
      </trkpt>
      <trkpt lat="45.84069" lon="4.78435">
        <ele>571</ele>
        <time>2012-01-15T09:37:52Z</time>
      </trkpt>
      <trkpt lat="45.84076" lon="4.78431">
        <ele>570</ele>
        <time>2012-01-15T09:37:56Z</time>
      </trkpt>
      <trkpt lat="45.84078" lon="4.78429">
        <ele>569</ele>
        <time>2012-01-15T09:37:57Z</time>
      </trkpt>
      <trkpt lat="45.8408" lon="4.78428">
        <ele>569</ele>
        <time>2012-01-15T09:37:58Z</time>
      </trkpt>
      <trkpt lat="45.84088" lon="4.78427">
        <ele>568</ele>
        <time>2012-01-15T09:38:02Z</time>
      </trkpt>
      <trkpt lat="45.84095" lon="4.78422">
        <ele>568</ele>
        <time>2012-01-15T09:38:05Z</time>
      </trkpt>
      <trkpt lat="45.84102" lon="4.78416">
        <ele>562</ele>
        <time>2012-01-15T09:38:08Z</time>
      </trkpt>
      <trkpt lat="45.84107" lon="4.78412">
        <ele>561</ele>
        <time>2012-01-15T09:38:10Z</time>
      </trkpt>
      <trkpt lat="45.84112" lon="4.7841">
        <ele>561</ele>
        <time>2012-01-15T09:38:12Z</time>
      </trkpt>
      <trkpt lat="45.84124" lon="4.784">
        <ele>560</ele>
        <time>2012-01-15T09:38:17Z</time>
      </trkpt>
      <trkpt lat="45.84129" lon="4.78395">
        <ele>560</ele>
        <time>2012-01-15T09:38:19Z</time>
      </trkpt>
      <trkpt lat="45.84139" lon="4.78381">
        <ele>558</ele>
        <time>2012-01-15T09:38:24Z</time>
      </trkpt>
      <trkpt lat="45.84144" lon="4.78374">
        <ele>558</ele>
        <time>2012-01-15T09:38:26Z</time>
      </trkpt>
      <trkpt lat="45.84157" lon="4.78363">
        <ele>557</ele>
        <time>2012-01-15T09:38:30Z</time>
      </trkpt>
      <trkpt lat="45.84161" lon="4.7836">
        <ele>557</ele>
        <time>2012-01-15T09:38:31Z</time>
      </trkpt>
      <trkpt lat="45.8417" lon="4.78352">
        <ele>554</ele>
        <time>2012-01-15T09:38:34Z</time>
      </trkpt>
      <trkpt lat="45.84177" lon="4.78343">
        <ele>553</ele>
        <time>2012-01-15T09:38:37Z</time>
      </trkpt>
      <trkpt lat="45.8418" lon="4.78338">
        <ele>553</ele>
        <time>2012-01-15T09:38:39Z</time>
      </trkpt>
      <trkpt lat="45.84186" lon="4.78321">
        <ele>551</ele>
        <time>2012-01-15T09:38:44Z</time>
      </trkpt>
      <trkpt lat="45.84188" lon="4.78318">
        <ele>551</ele>
        <time>2012-01-15T09:38:45Z</time>
      </trkpt>
      <trkpt lat="45.84195" lon="4.78304">
        <ele>550</ele>
        <time>2012-01-15T09:38:51Z</time>
      </trkpt>
      <trkpt lat="45.84197" lon="4.78298">
        <ele>550</ele>
        <time>2012-01-15T09:38:52Z</time>
      </trkpt>
      <trkpt lat="45.84204" lon="4.78289">
        <ele>550</ele>
        <time>2012-01-15T09:38:56Z</time>
      </trkpt>
      <trkpt lat="45.84213" lon="4.78282">
        <ele>550</ele>
        <time>2012-01-15T09:39:01Z</time>
      </trkpt>
      <trkpt lat="45.84214" lon="4.78281">
        <ele>550</ele>
        <time>2012-01-15T09:39:03Z</time>
      </trkpt>
      <trkpt lat="45.84216" lon="4.78279">
        <ele>550</ele>
        <time>2012-01-15T09:39:04Z</time>
      </trkpt>
      <trkpt lat="45.84221" lon="4.78275">
        <ele>550</ele>
        <time>2012-01-15T09:39:10Z</time>
      </trkpt>
      <trkpt lat="45.84223" lon="4.78273">
        <ele>550</ele>
        <time>2012-01-15T09:39:14Z</time>
      </trkpt>
      <trkpt lat="45.84224" lon="4.78272">
        <ele>550</ele>
        <time>2012-01-15T09:39:15Z</time>
      </trkpt>
      <trkpt lat="45.84227" lon="4.78272">
        <ele>551</ele>
        <time>2012-01-15T09:39:25Z</time>
      </trkpt>
      <trkpt lat="45.84229" lon="4.78271">
        <ele>551</ele>
        <time>2012-01-15T09:39:30Z</time>
      </trkpt>
      <trkpt lat="45.8423" lon="4.78271">
        <ele>551</ele>
        <time>2012-01-15T09:39:31Z</time>
      </trkpt>
      <trkpt lat="45.84233" lon="4.78267">
        <ele>551</ele>
        <time>2012-01-15T09:39:35Z</time>
      </trkpt>
      <trkpt lat="45.84233" lon="4.78266">
        <ele>551</ele>
        <time>2012-01-15T09:39:36Z</time>
      </trkpt>
      <trkpt lat="45.8424" lon="4.78264">
        <ele>551</ele>
        <time>2012-01-15T09:39:41Z</time>
      </trkpt>
      <trkpt lat="45.84245" lon="4.78262">
        <ele>552</ele>
        <time>2012-01-15T09:39:43Z</time>
      </trkpt>
      <trkpt lat="45.84257" lon="4.78259">
        <ele>551</ele>
        <time>2012-01-15T09:39:48Z</time>
      </trkpt>
      <trkpt lat="45.84263" lon="4.78257">
        <ele>551</ele>
        <time>2012-01-15T09:39:51Z</time>
      </trkpt>
      <trkpt lat="45.8427" lon="4.78255">
        <ele>551</ele>
        <time>2012-01-15T09:39:54Z</time>
      </trkpt>
      <trkpt lat="45.84282" lon="4.78252">
        <ele>550</ele>
        <time>2012-01-15T09:40:00Z</time>
      </trkpt>
      <trkpt lat="45.84285" lon="4.78251">
        <ele>550</ele>
        <time>2012-01-15T09:40:02Z</time>
      </trkpt>
      <trkpt lat="45.84299" lon="4.78248">
        <ele>558</ele>
        <time>2012-01-15T09:40:09Z</time>
      </trkpt>
      <trkpt lat="45.84303" lon="4.78247">
        <ele>558</ele>
        <time>2012-01-15T09:40:10Z</time>
      </trkpt>
      <trkpt lat="45.84311" lon="4.78243">
        <ele>558</ele>
        <time>2012-01-15T09:40:15Z</time>
      </trkpt>
      <trkpt lat="45.84315" lon="4.78242">
        <ele>557</ele>
        <time>2012-01-15T09:40:17Z</time>
      </trkpt>
      <trkpt lat="45.84321" lon="4.7824">
        <ele>557</ele>
        <time>2012-01-15T09:40:19Z</time>
      </trkpt>
      <trkpt lat="45.84323" lon="4.78239">
        <ele>557</ele>
        <time>2012-01-15T09:40:21Z</time>
      </trkpt>
      <trkpt lat="45.84336" lon="4.78236">
        <ele>559</ele>
        <time>2012-01-15T09:40:27Z</time>
      </trkpt>
      <trkpt lat="45.84339" lon="4.78235">
        <ele>560</ele>
        <time>2012-01-15T09:40:28Z</time>
      </trkpt>
      <trkpt lat="45.84354" lon="4.78231">
        <ele>562</ele>
        <time>2012-01-15T09:40:34Z</time>
      </trkpt>
      <trkpt lat="45.84356" lon="4.78231">
        <ele>563</ele>
        <time>2012-01-15T09:40:36Z</time>
      </trkpt>
      <trkpt lat="45.84366" lon="4.78229">
        <ele>564</ele>
        <time>2012-01-15T09:40:40Z</time>
      </trkpt>
      <trkpt lat="45.84377" lon="4.78231">
        <ele>564</ele>
        <time>2012-01-15T09:40:44Z</time>
      </trkpt>
      <trkpt lat="45.84382" lon="4.78231">
        <ele>565</ele>
        <time>2012-01-15T09:40:46Z</time>
      </trkpt>
      <trkpt lat="45.84394" lon="4.78233">
        <ele>565</ele>
        <time>2012-01-15T09:40:52Z</time>
      </trkpt>
      <trkpt lat="45.84408" lon="4.78239">
        <ele>564</ele>
        <time>2012-01-15T09:40:57Z</time>
      </trkpt>
      <trkpt lat="45.84414" lon="4.78241">
        <ele>564</ele>
        <time>2012-01-15T09:41:00Z</time>
      </trkpt>
      <trkpt lat="45.84423" lon="4.78244">
        <ele>567</ele>
        <time>2012-01-15T09:41:04Z</time>
      </trkpt>
      <trkpt lat="45.84431" lon="4.78248">
        <ele>569</ele>
        <time>2012-01-15T09:41:09Z</time>
      </trkpt>
      <trkpt lat="45.84445" lon="4.78252">
        <ele>564</ele>
        <time>2012-01-15T09:41:14Z</time>
      </trkpt>
      <trkpt lat="45.84451" lon="4.78258">
        <ele>564</ele>
        <time>2012-01-15T09:41:17Z</time>
      </trkpt>
      <trkpt lat="45.84454" lon="4.7826">
        <ele>564</ele>
        <time>2012-01-15T09:41:19Z</time>
      </trkpt>
      <trkpt lat="45.84467" lon="4.78264">
        <ele>565</ele>
        <time>2012-01-15T09:41:25Z</time>
      </trkpt>
      <trkpt lat="45.84469" lon="4.78264">
        <ele>566</ele>
        <time>2012-01-15T09:41:26Z</time>
      </trkpt>
      <trkpt lat="45.8448" lon="4.78265">
        <ele>567</ele>
        <time>2012-01-15T09:41:31Z</time>
      </trkpt>
      <trkpt lat="45.84489" lon="4.78265">
        <ele>568</ele>
        <time>2012-01-15T09:41:35Z</time>
      </trkpt>
      <trkpt lat="45.84491" lon="4.78265">
        <ele>568</ele>
        <time>2012-01-15T09:41:36Z</time>
      </trkpt>
      <trkpt lat="45.84504" lon="4.78266">
        <ele>572</ele>
        <time>2012-01-15T09:41:42Z</time>
      </trkpt>
      <trkpt lat="45.84508" lon="4.78266">
        <ele>572</ele>
        <time>2012-01-15T09:41:44Z</time>
      </trkpt>
      <trkpt lat="45.84514" lon="4.78267">
        <ele>572</ele>
        <time>2012-01-15T09:41:47Z</time>
      </trkpt>
      <trkpt lat="45.84525" lon="4.78268">
        <ele>572</ele>
        <time>2012-01-15T09:41:52Z</time>
      </trkpt>
      <trkpt lat="45.84527" lon="4.78268">
        <ele>572</ele>
        <time>2012-01-15T09:41:53Z</time>
      </trkpt>
      <trkpt lat="45.84533" lon="4.78269">
        <ele>572</ele>
        <time>2012-01-15T09:41:57Z</time>
      </trkpt>
      <trkpt lat="45.84544" lon="4.78273">
        <ele>572</ele>
        <time>2012-01-15T09:42:04Z</time>
      </trkpt>
      <trkpt lat="45.84545" lon="4.78272">
        <ele>572</ele>
        <time>2012-01-15T09:42:06Z</time>
      </trkpt>
      <trkpt lat="45.84545" lon="4.78273">
        <ele>572</ele>
        <time>2012-01-15T09:42:10Z</time>
      </trkpt>
      <trkpt lat="45.84543" lon="4.78264">
        <ele>573</ele>
        <time>2012-01-15T09:42:33Z</time>
      </trkpt>
      <trkpt lat="45.84544" lon="4.78265">
        <ele>573</ele>
        <time>2012-01-15T09:42:43Z</time>
      </trkpt>
      <trkpt lat="45.84547" lon="4.78274">
        <ele>572</ele>
        <time>2012-01-15T09:42:46Z</time>
      </trkpt>
      <trkpt lat="45.8455" lon="4.78283">
        <ele>572</ele>
        <time>2012-01-15T09:42:48Z</time>
      </trkpt>
      <trkpt lat="45.84553" lon="4.78288">
        <ele>572</ele>
        <time>2012-01-15T09:42:49Z</time>
      </trkpt>
      <trkpt lat="45.84555" lon="4.78292">
        <ele>571</ele>
        <time>2012-01-15T09:42:51Z</time>
      </trkpt>
      <trkpt lat="45.84564" lon="4.78313">
        <ele>570</ele>
        <time>2012-01-15T09:42:55Z</time>
      </trkpt>
      <trkpt lat="45.84566" lon="4.78317">
        <ele>570</ele>
        <time>2012-01-15T09:42:56Z</time>
      </trkpt>
      <trkpt lat="45.84574" lon="4.78335">
        <ele>565</ele>
        <time>2012-01-15T09:43:00Z</time>
      </trkpt>
      <trkpt lat="45.8458" lon="4.78357">
        <ele>562</ele>
        <time>2012-01-15T09:43:05Z</time>
      </trkpt>
      <trkpt lat="45.84579" lon="4.7836">
        <ele>561</ele>
        <time>2012-01-15T09:43:06Z</time>
      </trkpt>
      <trkpt lat="45.84578" lon="4.78364">
        <ele>560</ele>
        <time>2012-01-15T09:43:08Z</time>
      </trkpt>
      <trkpt lat="45.84571" lon="4.78362">
        <ele>560</ele>
        <time>2012-01-15T09:43:12Z</time>
      </trkpt>
      <trkpt lat="45.84567" lon="4.78371">
        <ele>559</ele>
        <time>2012-01-15T09:43:16Z</time>
      </trkpt>
      <trkpt lat="45.84565" lon="4.78375">
        <ele>559</ele>
        <time>2012-01-15T09:43:17Z</time>
      </trkpt>
      <trkpt lat="45.84564" lon="4.78382">
        <ele>558</ele>
        <time>2012-01-15T09:43:19Z</time>
      </trkpt>
      <trkpt lat="45.84565" lon="4.78386">
        <ele>557</ele>
        <time>2012-01-15T09:43:21Z</time>
      </trkpt>
      <trkpt lat="45.84566" lon="4.78399">
        <ele>556</ele>
        <time>2012-01-15T09:43:23Z</time>
      </trkpt>
      <trkpt lat="45.84565" lon="4.78403">
        <ele>556</ele>
        <time>2012-01-15T09:43:24Z</time>
      </trkpt>
      <trkpt lat="45.84559" lon="4.78416">
        <ele>555</ele>
        <time>2012-01-15T09:43:28Z</time>
      </trkpt>
      <trkpt lat="45.84558" lon="4.78421">
        <ele>547</ele>
        <time>2012-01-15T09:43:29Z</time>
      </trkpt>
      <trkpt lat="45.84557" lon="4.7843">
        <ele>546</ele>
        <time>2012-01-15T09:43:31Z</time>
      </trkpt>
      <trkpt lat="45.84557" lon="4.78434">
        <ele>545</ele>
        <time>2012-01-15T09:43:33Z</time>
      </trkpt>
      <trkpt lat="45.84553" lon="4.78442">
        <ele>544</ele>
        <time>2012-01-15T09:43:34Z</time>
      </trkpt>
      <trkpt lat="45.84546" lon="4.78449">
        <ele>543</ele>
        <time>2012-01-15T09:43:38Z</time>
      </trkpt>
      <trkpt lat="45.84546" lon="4.78462">
        <ele>542</ele>
        <time>2012-01-15T09:43:42Z</time>
      </trkpt>
      <trkpt lat="45.84551" lon="4.78475">
        <ele>541</ele>
        <time>2012-01-15T09:43:46Z</time>
      </trkpt>
      <trkpt lat="45.84552" lon="4.78484">
        <ele>540</ele>
        <time>2012-01-15T09:43:48Z</time>
      </trkpt>
      <trkpt lat="45.84552" lon="4.78501">
        <ele>530</ele>
        <time>2012-01-15T09:43:52Z</time>
      </trkpt>
      <trkpt lat="45.84552" lon="4.78505">
        <ele>529</ele>
        <time>2012-01-15T09:43:53Z</time>
      </trkpt>
      <trkpt lat="45.8455" lon="4.78508">
        <ele>529</ele>
        <time>2012-01-15T09:43:54Z</time>
      </trkpt>
      <trkpt lat="45.84545" lon="4.78522">
        <ele>527</ele>
        <time>2012-01-15T09:44:00Z</time>
      </trkpt>
      <trkpt lat="45.84543" lon="4.78521">
        <ele>527</ele>
        <time>2012-01-15T09:44:02Z</time>
      </trkpt>
      <trkpt lat="45.84541" lon="4.7852">
        <ele>527</ele>
        <time>2012-01-15T09:44:03Z</time>
      </trkpt>
      <trkpt lat="45.8454" lon="4.78519">
        <ele>527</ele>
        <time>2012-01-15T09:44:05Z</time>
      </trkpt>
      <trkpt lat="45.84538" lon="4.78521">
        <ele>527</ele>
        <time>2012-01-15T09:44:13Z</time>
      </trkpt>
      <trkpt lat="45.84537" lon="4.78522">
        <ele>527</ele>
        <time>2012-01-15T09:44:16Z</time>
      </trkpt>
      <trkpt lat="45.84535" lon="4.78527">
        <ele>526</ele>
        <time>2012-01-15T09:44:19Z</time>
      </trkpt>
      <trkpt lat="45.84533" lon="4.78531">
        <ele>526</ele>
        <time>2012-01-15T09:44:21Z</time>
      </trkpt>
      <trkpt lat="45.84531" lon="4.78536">
        <ele>525</ele>
        <time>2012-01-15T09:44:23Z</time>
      </trkpt>
      <trkpt lat="45.8453" lon="4.78539">
        <ele>525</ele>
        <time>2012-01-15T09:44:24Z</time>
      </trkpt>
      <trkpt lat="45.84526" lon="4.78546">
        <ele>524</ele>
        <time>2012-01-15T09:44:27Z</time>
      </trkpt>
      <trkpt lat="45.84522" lon="4.78559">
        <ele>522</ele>
        <time>2012-01-15T09:44:31Z</time>
      </trkpt>
      <trkpt lat="45.84521" lon="4.78562">
        <ele>521</ele>
        <time>2012-01-15T09:44:32Z</time>
      </trkpt>
      <trkpt lat="45.84518" lon="4.78571">
        <ele>519</ele>
        <time>2012-01-15T09:44:35Z</time>
      </trkpt>
      <trkpt lat="45.84517" lon="4.78574">
        <ele>519</ele>
        <time>2012-01-15T09:44:36Z</time>
      </trkpt>
      <trkpt lat="45.84517" lon="4.78578">
        <ele>518</ele>
        <time>2012-01-15T09:44:37Z</time>
      </trkpt>
      <trkpt lat="45.84516" lon="4.78585">
        <ele>510</ele>
        <time>2012-01-15T09:44:39Z</time>
      </trkpt>
      <trkpt lat="45.84515" lon="4.78587">
        <ele>510</ele>
        <time>2012-01-15T09:44:40Z</time>
      </trkpt>
      <trkpt lat="45.84513" lon="4.78595">
        <ele>510</ele>
        <time>2012-01-15T09:44:44Z</time>
      </trkpt>
      <trkpt lat="45.84513" lon="4.78596">
        <ele>510</ele>
        <time>2012-01-15T09:44:45Z</time>
      </trkpt>
      <trkpt lat="45.84513" lon="4.78595">
        <ele>510</ele>
        <time>2012-01-15T09:44:51Z</time>
      </trkpt>
      <trkpt lat="45.84514" lon="4.78596">
        <ele>509</ele>
        <time>2012-01-15T09:44:57Z</time>
      </trkpt>
      <trkpt lat="45.84518" lon="4.786">
        <ele>509</ele>
        <time>2012-01-15T09:45:45Z</time>
      </trkpt>
      <trkpt lat="45.84519" lon="4.78601">
        <ele>509</ele>
        <time>2012-01-15T09:45:48Z</time>
      </trkpt>
      <trkpt lat="45.8452" lon="4.78601">
        <ele>509</ele>
        <time>2012-01-15T09:45:53Z</time>
      </trkpt>
      <trkpt lat="45.8452" lon="4.78601">
        <ele>509</ele>
        <time>2012-01-15T09:46:00Z</time>
      </trkpt>
      <trkpt lat="45.8452" lon="4.78602">
        <ele>509</ele>
        <time>2012-01-15T09:46:03Z</time>
      </trkpt>
      <trkpt lat="45.84524" lon="4.78608">
        <ele>509</ele>
        <time>2012-01-15T09:46:07Z</time>
      </trkpt>
      <trkpt lat="45.8453" lon="4.7862">
        <ele>508</ele>
        <time>2012-01-15T09:46:12Z</time>
      </trkpt>
      <trkpt lat="45.84532" lon="4.78623">
        <ele>508</ele>
        <time>2012-01-15T09:46:13Z</time>
      </trkpt>
      <trkpt lat="45.84538" lon="4.78632">
        <ele>507</ele>
        <time>2012-01-15T09:46:17Z</time>
      </trkpt>
      <trkpt lat="45.84545" lon="4.78641">
        <ele>507</ele>
        <time>2012-01-15T09:46:20Z</time>
      </trkpt>
      <trkpt lat="45.84547" lon="4.78644">
        <ele>506</ele>
        <time>2012-01-15T09:46:21Z</time>
      </trkpt>
      <trkpt lat="45.84554" lon="4.78659">
        <ele>506</ele>
        <time>2012-01-15T09:46:26Z</time>
      </trkpt>
      <trkpt lat="45.84557" lon="4.78663">
        <ele>506</ele>
        <time>2012-01-15T09:46:28Z</time>
      </trkpt>
      <trkpt lat="45.84562" lon="4.78667">
        <ele>496</ele>
        <time>2012-01-15T09:46:30Z</time>
      </trkpt>
      <trkpt lat="45.84571" lon="4.78677">
        <ele>497</ele>
        <time>2012-01-15T09:46:34Z</time>
      </trkpt>
      <trkpt lat="45.84573" lon="4.78679">
        <ele>497</ele>
        <time>2012-01-15T09:46:35Z</time>
      </trkpt>
      <trkpt lat="45.8458" lon="4.7869">
        <ele>495</ele>
        <time>2012-01-15T09:46:39Z</time>
      </trkpt>
      <trkpt lat="45.84587" lon="4.78697">
        <ele>497</ele>
        <time>2012-01-15T09:46:42Z</time>
      </trkpt>
      <trkpt lat="45.84589" lon="4.78699">
        <ele>497</ele>
        <time>2012-01-15T09:46:43Z</time>
      </trkpt>
      <trkpt lat="45.84597" lon="4.78704">
        <ele>496</ele>
        <time>2012-01-15T09:46:47Z</time>
      </trkpt>
      <trkpt lat="45.84604" lon="4.78708">
        <ele>496</ele>
        <time>2012-01-15T09:46:50Z</time>
      </trkpt>
      <trkpt lat="45.84609" lon="4.7871">
        <ele>496</ele>
        <time>2012-01-15T09:46:52Z</time>
      </trkpt>
      <trkpt lat="45.84621" lon="4.78722">
        <ele>495</ele>
        <time>2012-01-15T09:46:57Z</time>
      </trkpt>
      <trkpt lat="45.84628" lon="4.7874">
        <ele>494</ele>
        <time>2012-01-15T09:47:02Z</time>
      </trkpt>
      <trkpt lat="45.84629" lon="4.78747">
        <ele>493</ele>
        <time>2012-01-15T09:47:04Z</time>
      </trkpt>
      <trkpt lat="45.84629" lon="4.78757">
        <ele>483</ele>
        <time>2012-01-15T09:47:07Z</time>
      </trkpt>
      <trkpt lat="45.84629" lon="4.78764">
        <ele>482</ele>
        <time>2012-01-15T09:47:09Z</time>
      </trkpt>
      <trkpt lat="45.8463" lon="4.78772">
        <ele>482</ele>
        <time>2012-01-15T09:47:11Z</time>
      </trkpt>
      <trkpt lat="45.84631" lon="4.78775">
        <ele>482</ele>
        <time>2012-01-15T09:47:12Z</time>
      </trkpt>
      <trkpt lat="45.84636" lon="4.78786">
        <ele>481</ele>
        <time>2012-01-15T09:47:15Z</time>
      </trkpt>
      <trkpt lat="45.84642" lon="4.78799">
        <ele>480</ele>
        <time>2012-01-15T09:47:19Z</time>
      </trkpt>
      <trkpt lat="45.84643" lon="4.78803">
        <ele>480</ele>
        <time>2012-01-15T09:47:20Z</time>
      </trkpt>
      <trkpt lat="45.84653" lon="4.7882">
        <ele>478</ele>
        <time>2012-01-15T09:47:26Z</time>
      </trkpt>
      <trkpt lat="45.84654" lon="4.78822">
        <ele>478</ele>
        <time>2012-01-15T09:47:27Z</time>
      </trkpt>
      <trkpt lat="45.84663" lon="4.78829">
        <ele>477</ele>
        <time>2012-01-15T09:47:31Z</time>
      </trkpt>
      <trkpt lat="45.84671" lon="4.78835">
        <ele>476</ele>
        <time>2012-01-15T09:47:34Z</time>
      </trkpt>
      <trkpt lat="45.84675" lon="4.78839">
        <ele>475</ele>
        <time>2012-01-15T09:47:36Z</time>
      </trkpt>
      <trkpt lat="45.84685" lon="4.7885">
        <ele>475</ele>
        <time>2012-01-15T09:47:41Z</time>
      </trkpt>
      <trkpt lat="45.84687" lon="4.78852">
        <ele>475</ele>
        <time>2012-01-15T09:47:42Z</time>
      </trkpt>
      <trkpt lat="45.84697" lon="4.78857">
        <ele>475</ele>
        <time>2012-01-15T09:47:46Z</time>
      </trkpt>
      <trkpt lat="45.84705" lon="4.7886">
        <ele>475</ele>
        <time>2012-01-15T09:47:49Z</time>
      </trkpt>
      <trkpt lat="45.8471" lon="4.78863">
        <ele>475</ele>
        <time>2012-01-15T09:47:51Z</time>
      </trkpt>
      <trkpt lat="45.84724" lon="4.78867">
        <ele>475</ele>
        <time>2012-01-15T09:47:56Z</time>
      </trkpt>
      <trkpt lat="45.84739" lon="4.78874">
        <ele>474</ele>
        <time>2012-01-15T09:48:02Z</time>
      </trkpt>
      <trkpt lat="45.84742" lon="4.78876">
        <ele>474</ele>
        <time>2012-01-15T09:48:03Z</time>
      </trkpt>
      <trkpt lat="45.84754" lon="4.78888">
        <ele>475</ele>
        <time>2012-01-15T09:48:08Z</time>
      </trkpt>
      <trkpt lat="45.84759" lon="4.78893">
        <ele>474</ele>
        <time>2012-01-15T09:48:10Z</time>
      </trkpt>
      <trkpt lat="45.84768" lon="4.78904">
        <ele>473</ele>
        <time>2012-01-15T09:48:14Z</time>
      </trkpt>
      <trkpt lat="45.84774" lon="4.78912">
        <ele>473</ele>
        <time>2012-01-15T09:48:17Z</time>
      </trkpt>
      <trkpt lat="45.84779" lon="4.78922">
        <ele>465</ele>
        <time>2012-01-15T09:48:21Z</time>
      </trkpt>
      <trkpt lat="45.84784" lon="4.78934">
        <ele>465</ele>
        <time>2012-01-15T09:48:24Z</time>
      </trkpt>
      <trkpt lat="45.84789" lon="4.7894">
        <ele>465</ele>
        <time>2012-01-15T09:48:28Z</time>
      </trkpt>
      <trkpt lat="45.84789" lon="4.78943">
        <ele>465</ele>
        <time>2012-01-15T09:48:33Z</time>
      </trkpt>
      <trkpt lat="45.84784" lon="4.78938">
        <ele>465</ele>
        <time>2012-01-15T09:48:39Z</time>
      </trkpt>
      <trkpt lat="45.84783" lon="4.78934">
        <ele>465</ele>
        <time>2012-01-15T09:48:41Z</time>
      </trkpt>
      <trkpt lat="45.84785" lon="4.78931">
        <ele>465</ele>
        <time>2012-01-15T09:48:44Z</time>
      </trkpt>
      <trkpt lat="45.84786" lon="4.78932">
        <ele>465</ele>
        <time>2012-01-15T09:48:50Z</time>
      </trkpt>
      <trkpt lat="45.84785" lon="4.78936">
        <ele>465</ele>
        <time>2012-01-15T09:48:59Z</time>
      </trkpt>
      <trkpt lat="45.84786" lon="4.78939">
        <ele>465</ele>
        <time>2012-01-15T09:49:01Z</time>
      </trkpt>
      <trkpt lat="45.84789" lon="4.78943">
        <ele>465</ele>
        <time>2012-01-15T09:49:04Z</time>
      </trkpt>
      <trkpt lat="45.84792" lon="4.78946">
        <ele>465</ele>
        <time>2012-01-15T09:49:06Z</time>
      </trkpt>
      <trkpt lat="45.84793" lon="4.78948">
        <ele>465</ele>
        <time>2012-01-15T09:49:07Z</time>
      </trkpt>
      <trkpt lat="45.84797" lon="4.78953">
        <ele>464</ele>
        <time>2012-01-15T09:49:09Z</time>
      </trkpt>
      <trkpt lat="45.84807" lon="4.78965">
        <ele>463</ele>
        <time>2012-01-15T09:49:14Z</time>
      </trkpt>
      <trkpt lat="45.84809" lon="4.78967">
        <ele>463</ele>
        <time>2012-01-15T09:49:15Z</time>
      </trkpt>
      <trkpt lat="45.84818" lon="4.78983">
        <ele>461</ele>
        <time>2012-01-15T09:49:20Z</time>
      </trkpt>
      <trkpt lat="45.84822" lon="4.7899">
        <ele>459</ele>
        <time>2012-01-15T09:49:22Z</time>
      </trkpt>
      <trkpt lat="45.84828" lon="4.79002">
        <ele>455</ele>
        <time>2012-01-15T09:49:26Z</time>
      </trkpt>
      <trkpt lat="45.84834" lon="4.79011">
        <ele>455</ele>
        <time>2012-01-15T09:49:29Z</time>
      </trkpt>
      <trkpt lat="45.84838" lon="4.7902">
        <ele>456</ele>
        <time>2012-01-15T09:49:32Z</time>
      </trkpt>
      <trkpt lat="45.84843" lon="4.79029">
        <ele>456</ele>
        <time>2012-01-15T09:49:35Z</time>
      </trkpt>
      <trkpt lat="45.84845" lon="4.79035">
        <ele>456</ele>
        <time>2012-01-15T09:49:37Z</time>
      </trkpt>
      <trkpt lat="45.84848" lon="4.79042">
        <ele>456</ele>
        <time>2012-01-15T09:49:39Z</time>
      </trkpt>
      <trkpt lat="45.84851" lon="4.79048">
        <ele>456</ele>
        <time>2012-01-15T09:49:42Z</time>
      </trkpt>
      <trkpt lat="45.84857" lon="4.79055">
        <ele>456</ele>
        <time>2012-01-15T09:49:48Z</time>
      </trkpt>
      <trkpt lat="45.84867" lon="4.7906">
        <ele>457</ele>
        <time>2012-01-15T09:49:56Z</time>
      </trkpt>
      <trkpt lat="45.84875" lon="4.79066">
        <ele>457</ele>
        <time>2012-01-15T09:50:01Z</time>
      </trkpt>
      <trkpt lat="45.84878" lon="4.7907">
        <ele>457</ele>
        <time>2012-01-15T09:50:03Z</time>
      </trkpt>
      <trkpt lat="45.84883" lon="4.79087">
        <ele>454</ele>
        <time>2012-01-15T09:50:09Z</time>
      </trkpt>
      <trkpt lat="45.84884" lon="4.79091">
        <ele>454</ele>
        <time>2012-01-15T09:50:10Z</time>
      </trkpt>
      <trkpt lat="45.84887" lon="4.79106">
        <ele>453</ele>
        <time>2012-01-15T09:50:14Z</time>
      </trkpt>
      <trkpt lat="45.84888" lon="4.79117">
        <ele>453</ele>
        <time>2012-01-15T09:50:17Z</time>
      </trkpt>
      <trkpt lat="45.84888" lon="4.79128">
        <ele>453</ele>
        <time>2012-01-15T09:50:20Z</time>
      </trkpt>
      <trkpt lat="45.84887" lon="4.79143">
        <ele>452</ele>
        <time>2012-01-15T09:50:24Z</time>
      </trkpt>
      <trkpt lat="45.84886" lon="4.79147">
        <ele>452</ele>
        <time>2012-01-15T09:50:25Z</time>
      </trkpt>
      <trkpt lat="45.84888" lon="4.79163">
        <ele>452</ele>
        <time>2012-01-15T09:50:30Z</time>
      </trkpt>
      <trkpt lat="45.84889" lon="4.79169">
        <ele>450</ele>
        <time>2012-01-15T09:50:32Z</time>
      </trkpt>
      <trkpt lat="45.84888" lon="4.79175">
        <ele>450</ele>
        <time>2012-01-15T09:50:34Z</time>
      </trkpt>
      <trkpt lat="45.84891" lon="4.79189">
        <ele>450</ele>
        <time>2012-01-15T09:50:39Z</time>
      </trkpt>
      <trkpt lat="45.84891" lon="4.79195">
        <ele>450</ele>
        <time>2012-01-15T09:50:41Z</time>
      </trkpt>
      <trkpt lat="45.84891" lon="4.79208">
        <ele>450</ele>
        <time>2012-01-15T09:50:45Z</time>
      </trkpt>
      <trkpt lat="45.84892" lon="4.79223">
        <ele>450</ele>
        <time>2012-01-15T09:50:50Z</time>
      </trkpt>
      <trkpt lat="45.84892" lon="4.79226">
        <ele>450</ele>
        <time>2012-01-15T09:50:51Z</time>
      </trkpt>
      <trkpt lat="45.84893" lon="4.79231">
        <ele>450</ele>
        <time>2012-01-15T09:50:53Z</time>
      </trkpt>
      <trkpt lat="45.84895" lon="4.79236">
        <ele>451</ele>
        <time>2012-01-15T09:50:55Z</time>
      </trkpt>
      <trkpt lat="45.84898" lon="4.79248">
        <ele>451</ele>
        <time>2012-01-15T09:51:00Z</time>
      </trkpt>
      <trkpt lat="45.84899" lon="4.7925">
        <ele>451</ele>
        <time>2012-01-15T09:51:01Z</time>
      </trkpt>
      <trkpt lat="45.84904" lon="4.79258">
        <ele>449</ele>
        <time>2012-01-15T09:51:05Z</time>
      </trkpt>
      <trkpt lat="45.8491" lon="4.79269">
        <ele>448</ele>
        <time>2012-01-15T09:51:10Z</time>
      </trkpt>
      <trkpt lat="45.84912" lon="4.79271">
        <ele>448</ele>
        <time>2012-01-15T09:51:11Z</time>
      </trkpt>
      <trkpt lat="45.84916" lon="4.79279">
        <ele>447</ele>
        <time>2012-01-15T09:51:15Z</time>
      </trkpt>
      <trkpt lat="45.84924" lon="4.79287">
        <ele>452</ele>
        <time>2012-01-15T09:51:20Z</time>
      </trkpt>
      <trkpt lat="45.84932" lon="4.79293">
        <ele>452</ele>
        <time>2012-01-15T09:51:26Z</time>
      </trkpt>
      <trkpt lat="45.84942" lon="4.79298">
        <ele>453</ele>
        <time>2012-01-15T09:51:32Z</time>
      </trkpt>
      <trkpt lat="45.8495" lon="4.79297">
        <ele>454</ele>
        <time>2012-01-15T09:51:36Z</time>
      </trkpt>
      <trkpt lat="45.84959" lon="4.79302">
        <ele>454</ele>
        <time>2012-01-15T09:51:41Z</time>
      </trkpt>
      <trkpt lat="45.84961" lon="4.79303">
        <ele>455</ele>
        <time>2012-01-15T09:51:42Z</time>
      </trkpt>
      <trkpt lat="45.84967" lon="4.79301">
        <ele>455</ele>
        <time>2012-01-15T09:51:45Z</time>
      </trkpt>
      <trkpt lat="45.84967" lon="4.79299">
        <ele>455</ele>
        <time>2012-01-15T09:51:46Z</time>
      </trkpt>
      <trkpt lat="45.84963" lon="4.79295">
        <ele>455</ele>
        <time>2012-01-15T09:51:49Z</time>
      </trkpt>
      <trkpt lat="45.84961" lon="4.79293">
        <ele>455</ele>
        <time>2012-01-15T09:51:50Z</time>
      </trkpt>
      <trkpt lat="45.8496" lon="4.79291">
        <ele>455</ele>
        <time>2012-01-15T09:51:51Z</time>
      </trkpt>
      <trkpt lat="45.84949" lon="4.79273">
        <ele>455</ele>
        <time>2012-01-15T09:51:59Z</time>
      </trkpt>
      <trkpt lat="45.84947" lon="4.79271">
        <ele>455</ele>
        <time>2012-01-15T09:52:00Z</time>
      </trkpt>
      <trkpt lat="45.84944" lon="4.79264">
        <ele>455</ele>
        <time>2012-01-15T09:52:03Z</time>
      </trkpt>
      <trkpt lat="45.84943" lon="4.79262">
        <ele>455</ele>
        <time>2012-01-15T09:52:04Z</time>
      </trkpt>
      <trkpt lat="45.84941" lon="4.79249">
        <ele>457</ele>
        <time>2012-01-15T09:52:09Z</time>
      </trkpt>
      <trkpt lat="45.84942" lon="4.79246">
        <ele>457</ele>
        <time>2012-01-15T09:52:10Z</time>
      </trkpt>
      <trkpt lat="45.84948" lon="4.79242">
        <ele>458</ele>
        <time>2012-01-15T09:52:13Z</time>
      </trkpt>
      <trkpt lat="45.84952" lon="4.79244">
        <ele>458</ele>
        <time>2012-01-15T09:52:15Z</time>
      </trkpt>
      <trkpt lat="45.84956" lon="4.79244">
        <ele>459</ele>
        <time>2012-01-15T09:52:17Z</time>
      </trkpt>
      <trkpt lat="45.84959" lon="4.79245">
        <ele>459</ele>
        <time>2012-01-15T09:52:18Z</time>
      </trkpt>
      <trkpt lat="45.84968" lon="4.79244">
        <ele>461</ele>
        <time>2012-01-15T09:52:22Z</time>
      </trkpt>
      <trkpt lat="45.84976" lon="4.79245">
        <ele>462</ele>
        <time>2012-01-15T09:52:27Z</time>
      </trkpt>
      <trkpt lat="45.84978" lon="4.79246">
        <ele>463</ele>
        <time>2012-01-15T09:52:28Z</time>
      </trkpt>
      <trkpt lat="45.84988" lon="4.79247">
        <ele>465</ele>
        <time>2012-01-15T09:52:33Z</time>
      </trkpt>
      <trkpt lat="45.84997" lon="4.79248">
        <ele>468</ele>
        <time>2012-01-15T09:52:38Z</time>
      </trkpt>
      <trkpt lat="45.84999" lon="4.79249">
        <ele>468</ele>
        <time>2012-01-15T09:52:39Z</time>
      </trkpt>
      <trkpt lat="45.85009" lon="4.7925">
        <ele>470</ele>
        <time>2012-01-15T09:52:45Z</time>
      </trkpt>
      <trkpt lat="45.85015" lon="4.7925">
        <ele>469</ele>
        <time>2012-01-15T09:52:48Z</time>
      </trkpt>
      <trkpt lat="45.85023" lon="4.79252">
        <ele>469</ele>
        <time>2012-01-15T09:52:52Z</time>
      </trkpt>
      <trkpt lat="45.85035" lon="4.79254">
        <ele>470</ele>
        <time>2012-01-15T09:52:58Z</time>
      </trkpt>
      <trkpt lat="45.85037" lon="4.79255">
        <ele>470</ele>
        <time>2012-01-15T09:52:59Z</time>
      </trkpt>
      <trkpt lat="45.85049" lon="4.79256">
        <ele>471</ele>
        <time>2012-01-15T09:53:05Z</time>
      </trkpt>
      <trkpt lat="45.85054" lon="4.79256">
        <ele>472</ele>
        <time>2012-01-15T09:53:07Z</time>
      </trkpt>
      <trkpt lat="45.8506" lon="4.79254">
        <ele>473</ele>
        <time>2012-01-15T09:53:11Z</time>
      </trkpt>
      <trkpt lat="45.85064" lon="4.79251">
        <ele>474</ele>
        <time>2012-01-15T09:53:18Z</time>
      </trkpt>
      <trkpt lat="45.85067" lon="4.79251">
        <ele>474</ele>
        <time>2012-01-15T09:53:45Z</time>
      </trkpt>
      <trkpt lat="45.85071" lon="4.79253">
        <ele>475</ele>
        <time>2012-01-15T09:54:19Z</time>
      </trkpt>
      <trkpt lat="45.85073" lon="4.79258">
        <ele>475</ele>
        <time>2012-01-15T09:54:21Z</time>
      </trkpt>
      <trkpt lat="45.85076" lon="4.79265">
        <ele>474</ele>
        <time>2012-01-15T09:54:24Z</time>
      </trkpt>
      <trkpt lat="45.85082" lon="4.79273">
        <ele>473</ele>
        <time>2012-01-15T09:54:29Z</time>
      </trkpt>
      <trkpt lat="45.85084" lon="4.79273">
        <ele>476</ele>
        <time>2012-01-15T09:54:30Z</time>
      </trkpt>
      <trkpt lat="45.85087" lon="4.79273">
        <ele>476</ele>
        <time>2012-01-15T09:54:32Z</time>
      </trkpt>
      <trkpt lat="45.85089" lon="4.79273">
        <ele>476</ele>
        <time>2012-01-15T09:54:33Z</time>
      </trkpt>
      <trkpt lat="45.85099" lon="4.79275">
        <ele>476</ele>
        <time>2012-01-15T09:54:39Z</time>
      </trkpt>
      <trkpt lat="45.85106" lon="4.79276">
        <ele>476</ele>
        <time>2012-01-15T09:54:43Z</time>
      </trkpt>
      <trkpt lat="45.85107" lon="4.79275">
        <ele>476</ele>
        <time>2012-01-15T09:54:44Z</time>
      </trkpt>
      <trkpt lat="45.85118" lon="4.79275">
        <ele>476</ele>
        <time>2012-01-15T09:54:49Z</time>
      </trkpt>
      <trkpt lat="45.85124" lon="4.79277">
        <ele>476</ele>
        <time>2012-01-15T09:54:52Z</time>
      </trkpt>
      <trkpt lat="45.85129" lon="4.79278">
        <ele>476</ele>
        <time>2012-01-15T09:54:54Z</time>
      </trkpt>
      <trkpt lat="45.8514" lon="4.79279">
        <ele>476</ele>
        <time>2012-01-15T09:54:59Z</time>
      </trkpt>
      <trkpt lat="45.85143" lon="4.79278">
        <ele>477</ele>
        <time>2012-01-15T09:55:00Z</time>
      </trkpt>
      <trkpt lat="45.85153" lon="4.79277">
        <ele>477</ele>
        <time>2012-01-15T09:55:04Z</time>
      </trkpt>
      <trkpt lat="45.85154" lon="4.79277">
        <ele>477</ele>
        <time>2012-01-15T09:55:05Z</time>
      </trkpt>
      <trkpt lat="45.85163" lon="4.79273">
        <ele>478</ele>
        <time>2012-01-15T09:55:09Z</time>
      </trkpt>
      <trkpt lat="45.85167" lon="4.79273">
        <ele>478</ele>
        <time>2012-01-15T09:55:11Z</time>
      </trkpt>
      <trkpt lat="45.85172" lon="4.79278">
        <ele>477</ele>
        <time>2012-01-15T09:55:14Z</time>
      </trkpt>
      <trkpt lat="45.8518" lon="4.79282">
        <ele>477</ele>
        <time>2012-01-15T09:55:18Z</time>
      </trkpt>
      <trkpt lat="45.85183" lon="4.79284">
        <ele>476</ele>
        <time>2012-01-15T09:55:19Z</time>
      </trkpt>
      <trkpt lat="45.85191" lon="4.79291">
        <ele>476</ele>
        <time>2012-01-15T09:55:23Z</time>
      </trkpt>
      <trkpt lat="45.85197" lon="4.79298">
        <ele>475</ele>
        <time>2012-01-15T09:55:27Z</time>
      </trkpt>
      <trkpt lat="45.85198" lon="4.793">
        <ele>475</ele>
        <time>2012-01-15T09:55:28Z</time>
      </trkpt>
      <trkpt lat="45.85208" lon="4.79312">
        <ele>473</ele>
        <time>2012-01-15T09:55:33Z</time>
      </trkpt>
      <trkpt lat="45.85214" lon="4.79316">
        <ele>473</ele>
        <time>2012-01-15T09:55:35Z</time>
      </trkpt>
      <trkpt lat="45.85226" lon="4.79322">
        <ele>471</ele>
        <time>2012-01-15T09:55:39Z</time>
      </trkpt>
      <trkpt lat="45.85232" lon="4.79325">
        <ele>470</ele>
        <time>2012-01-15T09:55:41Z</time>
      </trkpt>
      <trkpt lat="45.85238" lon="4.79328">
        <ele>468</ele>
        <time>2012-01-15T09:55:43Z</time>
      </trkpt>
      <trkpt lat="45.8525" lon="4.79332">
        <ele>464</ele>
        <time>2012-01-15T09:55:47Z</time>
      </trkpt>
      <trkpt lat="45.85253" lon="4.79332">
        <ele>463</ele>
        <time>2012-01-15T09:55:48Z</time>
      </trkpt>
      <trkpt lat="45.85269" lon="4.79331">
        <ele>464</ele>
        <time>2012-01-15T09:55:54Z</time>
      </trkpt>
      <trkpt lat="45.85282" lon="4.7933">
        <ele>464</ele>
        <time>2012-01-15T09:55:58Z</time>
      </trkpt>
      <trkpt lat="45.85285" lon="4.7933">
        <ele>464</ele>
        <time>2012-01-15T09:55:59Z</time>
      </trkpt>
      <trkpt lat="45.85287" lon="4.79331">
        <ele>463</ele>
        <time>2012-01-15T09:56:00Z</time>
      </trkpt>
      <trkpt lat="45.8529" lon="4.79331">
        <ele>463</ele>
        <time>2012-01-15T09:56:01Z</time>
      </trkpt>
      <trkpt lat="45.85296" lon="4.79331">
        <ele>462</ele>
        <time>2012-01-15T09:56:04Z</time>
      </trkpt>
      <trkpt lat="45.85307" lon="4.79333">
        <ele>461</ele>
        <time>2012-01-15T09:56:07Z</time>
      </trkpt>
      <trkpt lat="45.8531" lon="4.79334">
        <ele>450</ele>
        <time>2012-01-15T09:56:08Z</time>
      </trkpt>
      <trkpt lat="45.85326" lon="4.79343">
        <ele>450</ele>
        <time>2012-01-15T09:56:13Z</time>
      </trkpt>
      <trkpt lat="45.85346" lon="4.79354">
        <ele>448</ele>
        <time>2012-01-15T09:56:19Z</time>
      </trkpt>
      <trkpt lat="45.85364" lon="4.79366">
        <ele>447</ele>
        <time>2012-01-15T09:56:25Z</time>
      </trkpt>
      <trkpt lat="45.85378" lon="4.79373">
        <ele>446</ele>
        <time>2012-01-15T09:56:30Z</time>
      </trkpt>
      <trkpt lat="45.85383" lon="4.79372">
        <ele>446</ele>
        <time>2012-01-15T09:56:32Z</time>
      </trkpt>
      <trkpt lat="45.85385" lon="4.79367">
        <ele>446</ele>
        <time>2012-01-15T09:56:34Z</time>
      </trkpt>
      <trkpt lat="45.85387" lon="4.79361">
        <ele>447</ele>
        <time>2012-01-15T09:56:36Z</time>
      </trkpt>
      <trkpt lat="45.85389" lon="4.79348">
        <ele>447</ele>
        <time>2012-01-15T09:56:40Z</time>
      </trkpt>
      <trkpt lat="45.8539" lon="4.79345">
        <ele>447</ele>
        <time>2012-01-15T09:56:41Z</time>
      </trkpt>
      <trkpt lat="45.85391" lon="4.79332">
        <ele>452</ele>
        <time>2012-01-15T09:56:45Z</time>
      </trkpt>
      <trkpt lat="45.85394" lon="4.79317">
        <ele>452</ele>
        <time>2012-01-15T09:56:50Z</time>
      </trkpt>
      <trkpt lat="45.85394" lon="4.79308">
        <ele>453</ele>
        <time>2012-01-15T09:56:52Z</time>
      </trkpt>
      <trkpt lat="45.85397" lon="4.79297">
        <ele>453</ele>
        <time>2012-01-15T09:56:56Z</time>
      </trkpt>
      <trkpt lat="45.85399" lon="4.79295">
        <ele>453</ele>
        <time>2012-01-15T09:56:57Z</time>
      </trkpt>
      <trkpt lat="45.85401" lon="4.79294">
        <ele>453</ele>
        <time>2012-01-15T09:56:58Z</time>
      </trkpt>
      <trkpt lat="45.85406" lon="4.79295">
        <ele>453</ele>
        <time>2012-01-15T09:57:00Z</time>
      </trkpt>
      <trkpt lat="45.85408" lon="4.79295">
        <ele>453</ele>
        <time>2012-01-15T09:57:01Z</time>
      </trkpt>
      <trkpt lat="45.85419" lon="4.793">
        <ele>451</ele>
        <time>2012-01-15T09:57:06Z</time>
      </trkpt>
      <trkpt lat="45.85422" lon="4.79301">
        <ele>451</ele>
        <time>2012-01-15T09:57:07Z</time>
      </trkpt>
      <trkpt lat="45.85434" lon="4.79306">
        <ele>452</ele>
        <time>2012-01-15T09:57:13Z</time>
      </trkpt>
      <trkpt lat="45.85438" lon="4.79308">
        <ele>452</ele>
        <time>2012-01-15T09:57:15Z</time>
      </trkpt>
      <trkpt lat="45.85448" lon="4.79312">
        <ele>452</ele>
        <time>2012-01-15T09:57:20Z</time>
      </trkpt>
      <trkpt lat="45.85457" lon="4.79315">
        <ele>452</ele>
        <time>2012-01-15T09:57:24Z</time>
      </trkpt>
      <trkpt lat="45.85461" lon="4.79316">
        <ele>452</ele>
        <time>2012-01-15T09:57:26Z</time>
      </trkpt>
      <trkpt lat="45.8547" lon="4.79317">
        <ele>453</ele>
        <time>2012-01-15T09:57:31Z</time>
      </trkpt>
      <trkpt lat="45.85472" lon="4.79316">
        <ele>453</ele>
        <time>2012-01-15T09:57:32Z</time>
      </trkpt>
      <trkpt lat="45.85473" lon="4.79311">
        <ele>453</ele>
        <time>2012-01-15T09:57:34Z</time>
      </trkpt>
      <trkpt lat="45.85473" lon="4.79305">
        <ele>453</ele>
        <time>2012-01-15T09:57:36Z</time>
      </trkpt>
      <trkpt lat="45.85474" lon="4.79286">
        <ele>453</ele>
        <time>2012-01-15T09:57:42Z</time>
      </trkpt>
      <trkpt lat="45.85474" lon="4.79283">
        <ele>453</ele>
        <time>2012-01-15T09:57:43Z</time>
      </trkpt>
      <trkpt lat="45.85476" lon="4.7928">
        <ele>454</ele>
        <time>2012-01-15T09:57:44Z</time>
      </trkpt>
      <trkpt lat="45.85479" lon="4.79278">
        <ele>454</ele>
        <time>2012-01-15T09:57:46Z</time>
      </trkpt>
      <trkpt lat="45.85492" lon="4.79276">
        <ele>454</ele>
        <time>2012-01-15T09:57:52Z</time>
      </trkpt>
      <trkpt lat="45.85504" lon="4.79274">
        <ele>459</ele>
        <time>2012-01-15T09:57:58Z</time>
      </trkpt>
      <trkpt lat="45.8551" lon="4.79272">
        <ele>459</ele>
        <time>2012-01-15T09:58:01Z</time>
      </trkpt>
      <trkpt lat="45.85516" lon="4.79272">
        <ele>459</ele>
        <time>2012-01-15T09:58:04Z</time>
      </trkpt>
      <trkpt lat="45.85528" lon="4.7927">
        <ele>460</ele>
        <time>2012-01-15T09:58:10Z</time>
      </trkpt>
      <trkpt lat="45.8553" lon="4.7927">
        <ele>460</ele>
        <time>2012-01-15T09:58:11Z</time>
      </trkpt>
      <trkpt lat="45.85541" lon="4.79267">
        <ele>461</ele>
        <time>2012-01-15T09:58:17Z</time>
      </trkpt>
      <trkpt lat="45.85547" lon="4.79267">
        <ele>462</ele>
        <time>2012-01-15T09:58:20Z</time>
      </trkpt>
      <trkpt lat="45.85554" lon="4.79267">
        <ele>462</ele>
        <time>2012-01-15T09:58:24Z</time>
      </trkpt>
      <trkpt lat="45.8556" lon="4.79268">
        <ele>463</ele>
        <time>2012-01-15T09:58:27Z</time>
      </trkpt>
      <trkpt lat="45.85563" lon="4.79271">
        <ele>463</ele>
        <time>2012-01-15T09:58:29Z</time>
      </trkpt>
      <trkpt lat="45.85566" lon="4.79274">
        <ele>463</ele>
        <time>2012-01-15T09:58:31Z</time>
      </trkpt>
      <trkpt lat="45.85571" lon="4.79282">
        <ele>463</ele>
        <time>2012-01-15T09:58:35Z</time>
      </trkpt>
      <trkpt lat="45.8558" lon="4.79294">
        <ele>462</ele>
        <time>2012-01-15T09:58:41Z</time>
      </trkpt>
      <trkpt lat="45.85587" lon="4.79304">
        <ele>468</ele>
        <time>2012-01-15T09:58:46Z</time>
      </trkpt>
      <trkpt lat="45.85593" lon="4.79312">
        <ele>468</ele>
        <time>2012-01-15T09:58:50Z</time>
      </trkpt>
      <trkpt lat="45.85595" lon="4.79315">
        <ele>467</ele>
        <time>2012-01-15T09:58:51Z</time>
      </trkpt>
      <trkpt lat="45.85603" lon="4.79325">
        <ele>467</ele>
        <time>2012-01-15T09:58:56Z</time>
      </trkpt>
      <trkpt lat="45.85607" lon="4.79331">
        <ele>468</ele>
        <time>2012-01-15T09:58:59Z</time>
      </trkpt>
      <trkpt lat="45.8561" lon="4.79336">
        <ele>465</ele>
        <time>2012-01-15T09:59:01Z</time>
      </trkpt>
      <trkpt lat="45.85618" lon="4.7935">
        <ele>466</ele>
        <time>2012-01-15T09:59:07Z</time>
      </trkpt>
      <trkpt lat="45.85619" lon="4.79352">
        <ele>466</ele>
        <time>2012-01-15T09:59:08Z</time>
      </trkpt>
      <trkpt lat="45.85623" lon="4.79356">
        <ele>466</ele>
        <time>2012-01-15T09:59:11Z</time>
      </trkpt>
      <trkpt lat="45.85624" lon="4.79355">
        <ele>466</ele>
        <time>2012-01-15T09:59:12Z</time>
      </trkpt>
      <trkpt lat="45.85624" lon="4.79343">
        <ele>467</ele>
        <time>2012-01-15T09:59:16Z</time>
      </trkpt>
      <trkpt lat="45.85622" lon="4.79337">
        <ele>466</ele>
        <time>2012-01-15T09:59:18Z</time>
      </trkpt>
      <trkpt lat="45.8562" lon="4.79325">
        <ele>469</ele>
        <time>2012-01-15T09:59:22Z</time>
      </trkpt>
      <trkpt lat="45.85616" lon="4.7931">
        <ele>469</ele>
        <time>2012-01-15T09:59:27Z</time>
      </trkpt>
      <trkpt lat="45.85615" lon="4.79307">
        <ele>469</ele>
        <time>2012-01-15T09:59:28Z</time>
      </trkpt>
      <trkpt lat="45.85609" lon="4.79285">
        <ele>470</ele>
        <time>2012-01-15T09:59:35Z</time>
      </trkpt>
      <trkpt lat="45.85605" lon="4.79265">
        <ele>470</ele>
        <time>2012-01-15T09:59:41Z</time>
      </trkpt>
      <trkpt lat="45.85604" lon="4.79258">
        <ele>470</ele>
        <time>2012-01-15T09:59:43Z</time>
      </trkpt>
      <trkpt lat="45.85603" lon="4.79245">
        <ele>473</ele>
        <time>2012-01-15T09:59:47Z</time>
      </trkpt>
      <trkpt lat="45.85602" lon="4.7923">
        <ele>473</ele>
        <time>2012-01-15T09:59:52Z</time>
      </trkpt>
      <trkpt lat="45.85602" lon="4.79227">
        <ele>474</ele>
        <time>2012-01-15T09:59:53Z</time>
      </trkpt>
      <trkpt lat="45.85602" lon="4.79208">
        <ele>475</ele>
        <time>2012-01-15T09:59:59Z</time>
      </trkpt>
      <trkpt lat="45.85602" lon="4.79202">
        <ele>475</ele>
        <time>2012-01-15T10:00:01Z</time>
      </trkpt>
      <trkpt lat="45.85601" lon="4.79186">
        <ele>475</ele>
        <time>2012-01-15T10:00:06Z</time>
      </trkpt>
      <trkpt lat="45.85601" lon="4.79176">
        <ele>475</ele>
        <time>2012-01-15T10:00:09Z</time>
      </trkpt>
      <trkpt lat="45.85601" lon="4.79167">
        <ele>475</ele>
        <time>2012-01-15T10:00:12Z</time>
      </trkpt>
      <trkpt lat="45.85601" lon="4.79148">
        <ele>480</ele>
        <time>2012-01-15T10:00:18Z</time>
      </trkpt>
      <trkpt lat="45.85601" lon="4.79142">
        <ele>481</ele>
        <time>2012-01-15T10:00:20Z</time>
      </trkpt>
      <trkpt lat="45.856" lon="4.7912">
        <ele>483</ele>
        <time>2012-01-15T10:00:27Z</time>
      </trkpt>
      <trkpt lat="45.85598" lon="4.79105">
        <ele>484</ele>
        <time>2012-01-15T10:00:32Z</time>
      </trkpt>
      <trkpt lat="45.85593" lon="4.79093">
        <ele>484</ele>
        <time>2012-01-15T10:00:36Z</time>
      </trkpt>
      <trkpt lat="45.8559" lon="4.79088">
        <ele>484</ele>
        <time>2012-01-15T10:00:38Z</time>
      </trkpt>
      <trkpt lat="45.85578" lon="4.79076">
        <ele>485</ele>
        <time>2012-01-15T10:00:45Z</time>
      </trkpt>
      <trkpt lat="45.85568" lon="4.79068">
        <ele>485</ele>
        <time>2012-01-15T10:00:51Z</time>
      </trkpt>
      <trkpt lat="45.85561" lon="4.79063">
        <ele>485</ele>
        <time>2012-01-15T10:00:55Z</time>
      </trkpt>
      <trkpt lat="45.85557" lon="4.7906">
        <ele>485</ele>
        <time>2012-01-15T10:00:57Z</time>
      </trkpt>
      <trkpt lat="45.85547" lon="4.79051">
        <ele>486</ele>
        <time>2012-01-15T10:01:03Z</time>
      </trkpt>
      <trkpt lat="45.85545" lon="4.79049">
        <ele>486</ele>
        <time>2012-01-15T10:01:04Z</time>
      </trkpt>
      <trkpt lat="45.85534" lon="4.79041">
        <ele>486</ele>
        <time>2012-01-15T10:01:10Z</time>
      </trkpt>
      <trkpt lat="45.85528" lon="4.79037">
        <ele>486</ele>
        <time>2012-01-15T10:01:13Z</time>
      </trkpt>
      <trkpt lat="45.85522" lon="4.79033">
        <ele>486</ele>
        <time>2012-01-15T10:01:16Z</time>
      </trkpt>
      <trkpt lat="45.85511" lon="4.79026">
        <ele>487</ele>
        <time>2012-01-15T10:01:22Z</time>
      </trkpt>
      <trkpt lat="45.85509" lon="4.79024">
        <ele>487</ele>
        <time>2012-01-15T10:01:23Z</time>
      </trkpt>
      <trkpt lat="45.85503" lon="4.7902">
        <ele>487</ele>
        <time>2012-01-15T10:01:28Z</time>
      </trkpt>
      <trkpt lat="45.85502" lon="4.79016">
        <ele>488</ele>
        <time>2012-01-15T10:01:30Z</time>
      </trkpt>
      <trkpt lat="45.85504" lon="4.79015">
        <ele>488</ele>
        <time>2012-01-15T10:01:32Z</time>
      </trkpt>
      <trkpt lat="45.8551" lon="4.79019">
        <ele>487</ele>
        <time>2012-01-15T10:01:35Z</time>
      </trkpt>
      <trkpt lat="45.85514" lon="4.79022">
        <ele>487</ele>
        <time>2012-01-15T10:01:37Z</time>
      </trkpt>
      <trkpt lat="45.85527" lon="4.79031">
        <ele>486</ele>
        <time>2012-01-15T10:01:43Z</time>
      </trkpt>
      <trkpt lat="45.85529" lon="4.79032">
        <ele>486</ele>
        <time>2012-01-15T10:01:44Z</time>
      </trkpt>
      <trkpt lat="45.8554" lon="4.79042">
        <ele>486</ele>
        <time>2012-01-15T10:01:50Z</time>
      </trkpt>
      <trkpt lat="45.85543" lon="4.79045">
        <ele>486</ele>
        <time>2012-01-15T10:01:52Z</time>
      </trkpt>
      <trkpt lat="45.85544" lon="4.79046">
        <ele>486</ele>
        <time>2012-01-15T10:01:54Z</time>
      </trkpt>
      <trkpt lat="45.8555" lon="4.79053">
        <ele>486</ele>
        <time>2012-01-15T10:01:58Z</time>
      </trkpt>
      <trkpt lat="45.8556" lon="4.79057">
        <ele>486</ele>
        <time>2012-01-15T10:02:03Z</time>
      </trkpt>
      <trkpt lat="45.85574" lon="4.79057">
        <ele>486</ele>
        <time>2012-01-15T10:02:08Z</time>
      </trkpt>
      <trkpt lat="45.85579" lon="4.79057">
        <ele>486</ele>
        <time>2012-01-15T10:02:10Z</time>
      </trkpt>
      <trkpt lat="45.85592" lon="4.79059">
        <ele>490</ele>
        <time>2012-01-15T10:02:14Z</time>
      </trkpt>
      <trkpt lat="45.85599" lon="4.79058">
        <ele>491</ele>
        <time>2012-01-15T10:02:17Z</time>
      </trkpt>
      <trkpt lat="45.85603" lon="4.79059">
        <ele>491</ele>
        <time>2012-01-15T10:02:19Z</time>
      </trkpt>
      <trkpt lat="45.85614" lon="4.79062">
        <ele>492</ele>
        <time>2012-01-15T10:02:24Z</time>
      </trkpt>
      <trkpt lat="45.85617" lon="4.79063">
        <ele>492</ele>
        <time>2012-01-15T10:02:26Z</time>
      </trkpt>
      <trkpt lat="45.85628" lon="4.79067">
        <ele>493</ele>
        <time>2012-01-15T10:02:31Z</time>
      </trkpt>
      <trkpt lat="45.85636" lon="4.7907">
        <ele>493</ele>
        <time>2012-01-15T10:02:35Z</time>
      </trkpt>
      <trkpt lat="45.85636" lon="4.7907">
        <ele>493</ele>
        <time>2012-01-15T10:02:37Z</time>
      </trkpt>
      <trkpt lat="45.8564" lon="4.79073">
        <ele>493</ele>
        <time>2012-01-15T10:02:42Z</time>
      </trkpt>
      <trkpt lat="45.85645" lon="4.79075">
        <ele>493</ele>
        <time>2012-01-15T10:02:48Z</time>
      </trkpt>
      <trkpt lat="45.85649" lon="4.79078">
        <ele>494</ele>
        <time>2012-01-15T10:03:14Z</time>
      </trkpt>
      <trkpt lat="45.85652" lon="4.7908">
        <ele>494</ele>
        <time>2012-01-15T10:03:15Z</time>
      </trkpt>
      <trkpt lat="45.85657" lon="4.79086">
        <ele>491</ele>
        <time>2012-01-15T10:03:18Z</time>
      </trkpt>
      <trkpt lat="45.85661" lon="4.79089">
        <ele>491</ele>
        <time>2012-01-15T10:03:20Z</time>
      </trkpt>
      <trkpt lat="45.85663" lon="4.79092">
        <ele>491</ele>
        <time>2012-01-15T10:03:22Z</time>
      </trkpt>
      <trkpt lat="45.85665" lon="4.79093">
        <ele>491</ele>
        <time>2012-01-15T10:03:23Z</time>
      </trkpt>
      <trkpt lat="45.85669" lon="4.79097">
        <ele>495</ele>
        <time>2012-01-15T10:03:25Z</time>
      </trkpt>
      <trkpt lat="45.85681" lon="4.79108">
        <ele>495</ele>
        <time>2012-01-15T10:03:31Z</time>
      </trkpt>
      <trkpt lat="45.85682" lon="4.79109">
        <ele>495</ele>
        <time>2012-01-15T10:03:32Z</time>
      </trkpt>
      <trkpt lat="45.85692" lon="4.79118">
        <ele>495</ele>
        <time>2012-01-15T10:03:38Z</time>
      </trkpt>
      <trkpt lat="45.85697" lon="4.7912">
        <ele>496</ele>
        <time>2012-01-15T10:03:40Z</time>
      </trkpt>
      <trkpt lat="45.85705" lon="4.79125">
        <ele>496</ele>
        <time>2012-01-15T10:03:44Z</time>
      </trkpt>
      <trkpt lat="45.85715" lon="4.79128">
        <ele>497</ele>
        <time>2012-01-15T10:03:49Z</time>
      </trkpt>
      <trkpt lat="45.85717" lon="4.79129">
        <ele>497</ele>
        <time>2012-01-15T10:03:50Z</time>
      </trkpt>
      <trkpt lat="45.85729" lon="4.79133">
        <ele>497</ele>
        <time>2012-01-15T10:03:55Z</time>
      </trkpt>
      <trkpt lat="45.85733" lon="4.79134">
        <ele>498</ele>
        <time>2012-01-15T10:03:57Z</time>
      </trkpt>
      <trkpt lat="45.85742" lon="4.79137">
        <ele>498</ele>
        <time>2012-01-15T10:04:01Z</time>
      </trkpt>
      <trkpt lat="45.85753" lon="4.79141">
        <ele>504</ele>
        <time>2012-01-15T10:04:06Z</time>
      </trkpt>
      <trkpt lat="45.85756" lon="4.79142">
        <ele>504</ele>
        <time>2012-01-15T10:04:07Z</time>
      </trkpt>
      <trkpt lat="45.85768" lon="4.79148">
        <ele>504</ele>
        <time>2012-01-15T10:04:13Z</time>
      </trkpt>
      <trkpt lat="45.85772" lon="4.7915">
        <ele>504</ele>
        <time>2012-01-15T10:04:15Z</time>
      </trkpt>
      <trkpt lat="45.85779" lon="4.79152">
        <ele>505</ele>
        <time>2012-01-15T10:04:18Z</time>
      </trkpt>
      <trkpt lat="45.85792" lon="4.79158">
        <ele>505</ele>
        <time>2012-01-15T10:04:23Z</time>
      </trkpt>
      <trkpt lat="45.85794" lon="4.79159">
        <ele>505</ele>
        <time>2012-01-15T10:04:24Z</time>
      </trkpt>
      <trkpt lat="45.85802" lon="4.79162">
        <ele>506</ele>
        <time>2012-01-15T10:04:28Z</time>
      </trkpt>
      <trkpt lat="45.8581" lon="4.79165">
        <ele>506</ele>
        <time>2012-01-15T10:04:32Z</time>
      </trkpt>
      <trkpt lat="45.85815" lon="4.79168">
        <ele>503</ele>
        <time>2012-01-15T10:04:34Z</time>
      </trkpt>
      <trkpt lat="45.85828" lon="4.79175">
        <ele>505</ele>
        <time>2012-01-15T10:04:40Z</time>
      </trkpt>
      <trkpt lat="45.8583" lon="4.79176">
        <ele>505</ele>
        <time>2012-01-15T10:04:41Z</time>
      </trkpt>
      <trkpt lat="45.85842" lon="4.79183">
        <ele>508</ele>
        <time>2012-01-15T10:04:47Z</time>
      </trkpt>
      <trkpt lat="45.85846" lon="4.79185">
        <ele>508</ele>
        <time>2012-01-15T10:04:49Z</time>
      </trkpt>
      <trkpt lat="45.85853" lon="4.79189">
        <ele>509</ele>
        <time>2012-01-15T10:04:53Z</time>
      </trkpt>
      <trkpt lat="45.85854" lon="4.79189">
        <ele>509</ele>
        <time>2012-01-15T10:04:54Z</time>
      </trkpt>
      <trkpt lat="45.85858" lon="4.79186">
        <ele>509</ele>
        <time>2012-01-15T10:04:59Z</time>
      </trkpt>
      <trkpt lat="45.85859" lon="4.79185">
        <ele>509</ele>
        <time>2012-01-15T10:05:00Z</time>
      </trkpt>
      <trkpt lat="45.85861" lon="4.7918">
        <ele>509</ele>
        <time>2012-01-15T10:05:05Z</time>
      </trkpt>
      <trkpt lat="45.85861" lon="4.79181">
        <ele>509</ele>
        <time>2012-01-15T10:05:15Z</time>
      </trkpt>
      <trkpt lat="45.85861" lon="4.7917">
        <ele>509</ele>
        <time>2012-01-15T10:06:05Z</time>
      </trkpt>
      <trkpt lat="45.85857" lon="4.79155">
        <ele>514</ele>
        <time>2012-01-15T10:06:10Z</time>
      </trkpt>
      <trkpt lat="45.85857" lon="4.79152">
        <ele>514</ele>
        <time>2012-01-15T10:06:11Z</time>
      </trkpt>
      <trkpt lat="45.85852" lon="4.79135">
        <ele>515</ele>
        <time>2012-01-15T10:06:17Z</time>
      </trkpt>
      <trkpt lat="45.8585" lon="4.7913">
        <ele>515</ele>
        <time>2012-01-15T10:06:19Z</time>
      </trkpt>
      <trkpt lat="45.85847" lon="4.79116">
        <ele>516</ele>
        <time>2012-01-15T10:06:24Z</time>
      </trkpt>
      <trkpt lat="45.85844" lon="4.79106">
        <ele>515</ele>
        <time>2012-01-15T10:06:28Z</time>
      </trkpt>
      <trkpt lat="45.85843" lon="4.791">
        <ele>515</ele>
        <time>2012-01-15T10:06:30Z</time>
      </trkpt>
      <trkpt lat="45.85839" lon="4.79088">
        <ele>514</ele>
        <time>2012-01-15T10:06:35Z</time>
      </trkpt>
      <trkpt lat="45.85837" lon="4.7908">
        <ele>516</ele>
        <time>2012-01-15T10:06:38Z</time>
      </trkpt>
      <trkpt lat="45.85832" lon="4.79069">
        <ele>514</ele>
        <time>2012-01-15T10:06:42Z</time>
      </trkpt>
      <trkpt lat="45.85827" lon="4.79055">
        <ele>515</ele>
        <time>2012-01-15T10:06:47Z</time>
      </trkpt>
      <trkpt lat="45.85824" lon="4.7905">
        <ele>515</ele>
        <time>2012-01-15T10:06:49Z</time>
      </trkpt>
      <trkpt lat="45.8582" lon="4.79035">
        <ele>516</ele>
        <time>2012-01-15T10:06:55Z</time>
      </trkpt>
      <trkpt lat="45.85818" lon="4.7903">
        <ele>516</ele>
        <time>2012-01-15T10:06:57Z</time>
      </trkpt>
      <trkpt lat="45.85816" lon="4.7902">
        <ele>517</ele>
        <time>2012-01-15T10:07:01Z</time>
      </trkpt>
      <trkpt lat="45.85812" lon="4.79004">
        <ele>518</ele>
        <time>2012-01-15T10:07:07Z</time>
      </trkpt>
      <trkpt lat="45.85808" lon="4.78988">
        <ele>522</ele>
        <time>2012-01-15T10:07:13Z</time>
      </trkpt>
      <trkpt lat="45.85806" lon="4.78977">
        <ele>522</ele>
        <time>2012-01-15T10:07:17Z</time>
      </trkpt>
      <trkpt lat="45.85804" lon="4.78972">
        <ele>522</ele>
        <time>2012-01-15T10:07:19Z</time>
      </trkpt>
      <trkpt lat="45.85801" lon="4.78956">
        <ele>522</ele>
        <time>2012-01-15T10:07:25Z</time>
      </trkpt>
      <trkpt lat="45.85799" lon="4.7895">
        <ele>523</ele>
        <time>2012-01-15T10:07:27Z</time>
      </trkpt>
      <trkpt lat="45.85797" lon="4.78942">
        <ele>523</ele>
        <time>2012-01-15T10:07:30Z</time>
      </trkpt>
      <trkpt lat="45.85792" lon="4.78926">
        <ele>523</ele>
        <time>2012-01-15T10:07:36Z</time>
      </trkpt>
      <trkpt lat="45.8579" lon="4.78911">
        <ele>526</ele>
        <time>2012-01-15T10:07:41Z</time>
      </trkpt>
      <trkpt lat="45.85787" lon="4.789">
        <ele>526</ele>
        <time>2012-01-15T10:07:45Z</time>
      </trkpt>
      <trkpt lat="45.85787" lon="4.78896">
        <ele>526</ele>
        <time>2012-01-15T10:07:47Z</time>
      </trkpt>
      <trkpt lat="45.8579" lon="4.78883">
        <ele>527</ele>
        <time>2012-01-15T10:07:53Z</time>
      </trkpt>
      <trkpt lat="45.85794" lon="4.78877">
        <ele>528</ele>
        <time>2012-01-15T10:07:57Z</time>
      </trkpt>
      <trkpt lat="45.85797" lon="4.78867">
        <ele>528</ele>
        <time>2012-01-15T10:08:02Z</time>
      </trkpt>
      <trkpt lat="45.858" lon="4.78855">
        <ele>529</ele>
        <time>2012-01-15T10:08:08Z</time>
      </trkpt>
      <trkpt lat="45.85801" lon="4.78851">
        <ele>529</ele>
        <time>2012-01-15T10:08:10Z</time>
      </trkpt>
      <trkpt lat="45.85804" lon="4.78839">
        <ele>529</ele>
        <time>2012-01-15T10:08:16Z</time>
      </trkpt>
      <trkpt lat="45.85809" lon="4.78828">
        <ele>531</ele>
        <time>2012-01-15T10:08:22Z</time>
      </trkpt>
      <trkpt lat="45.8581" lon="4.78826">
        <ele>531</ele>
        <time>2012-01-15T10:08:23Z</time>
      </trkpt>
      <trkpt lat="45.85819" lon="4.78814">
        <ele>531</ele>
        <time>2012-01-15T10:08:32Z</time>
      </trkpt>
      <trkpt lat="45.85823" lon="4.7881">
        <ele>531</ele>
        <time>2012-01-15T10:08:37Z</time>
      </trkpt>
      <trkpt lat="45.85823" lon="4.7881">
        <ele>531</ele>
        <time>2012-01-15T10:08:38Z</time>
      </trkpt>
      <trkpt lat="45.85826" lon="4.78809">
        <ele>531</ele>
        <time>2012-01-15T10:08:47Z</time>
      </trkpt>
      <trkpt lat="45.8583" lon="4.78811">
        <ele>531</ele>
        <time>2012-01-15T10:08:53Z</time>
      </trkpt>
      <trkpt lat="45.85828" lon="4.78812">
        <ele>531</ele>
        <time>2012-01-15T10:09:22Z</time>
      </trkpt>
      <trkpt lat="45.85826" lon="4.78813">
        <ele>531</ele>
        <time>2012-01-15T10:09:44Z</time>
      </trkpt>
      <trkpt lat="45.85828" lon="4.78822">
        <ele>532</ele>
        <time>2012-01-15T10:09:49Z</time>
      </trkpt>
      <trkpt lat="45.85835" lon="4.78841">
        <ele>535</ele>
        <time>2012-01-15T10:09:55Z</time>
      </trkpt>
      <trkpt lat="45.85837" lon="4.78847">
        <ele>535</ele>
        <time>2012-01-15T10:09:57Z</time>
      </trkpt>
      <trkpt lat="45.85839" lon="4.78856">
        <ele>535</ele>
        <time>2012-01-15T10:10:00Z</time>
      </trkpt>
      <trkpt lat="45.85842" lon="4.78871">
        <ele>536</ele>
        <time>2012-01-15T10:10:05Z</time>
      </trkpt>
      <trkpt lat="45.85843" lon="4.78874">
        <ele>536</ele>
        <time>2012-01-15T10:10:06Z</time>
      </trkpt>
      <trkpt lat="45.85846" lon="4.78886">
        <ele>535</ele>
        <time>2012-01-15T10:10:10Z</time>
      </trkpt>
      <trkpt lat="45.85852" lon="4.78899">
        <ele>535</ele>
        <time>2012-01-15T10:10:15Z</time>
      </trkpt>
      <trkpt lat="45.85853" lon="4.78901">
        <ele>535</ele>
        <time>2012-01-15T10:10:16Z</time>
      </trkpt>
      <trkpt lat="45.85863" lon="4.78919">
        <ele>536</ele>
        <time>2012-01-15T10:10:23Z</time>
      </trkpt>
      <trkpt lat="45.8587" lon="4.78931">
        <ele>536</ele>
        <time>2012-01-15T10:10:28Z</time>
      </trkpt>
      <trkpt lat="45.85877" lon="4.7894">
        <ele>537</ele>
        <time>2012-01-15T10:10:32Z</time>
      </trkpt>
      <trkpt lat="45.8588" lon="4.78945">
        <ele>537</ele>
        <time>2012-01-15T10:10:34Z</time>
      </trkpt>
      <trkpt lat="45.85889" lon="4.78954">
        <ele>537</ele>
        <time>2012-01-15T10:10:39Z</time>
      </trkpt>
      <trkpt lat="45.85893" lon="4.78958">
        <ele>537</ele>
        <time>2012-01-15T10:10:41Z</time>
      </trkpt>
      <trkpt lat="45.85899" lon="4.78963">
        <ele>538</ele>
        <time>2012-01-15T10:10:44Z</time>
      </trkpt>
      <trkpt lat="45.85909" lon="4.78969">
        <ele>538</ele>
        <time>2012-01-15T10:10:49Z</time>
      </trkpt>
      <trkpt lat="45.85911" lon="4.78971">
        <ele>538</ele>
        <time>2012-01-15T10:10:50Z</time>
      </trkpt>
      <trkpt lat="45.85923" lon="4.78977">
        <ele>546</ele>
        <time>2012-01-15T10:10:56Z</time>
      </trkpt>
      <trkpt lat="45.85929" lon="4.78982">
        <ele>546</ele>
        <time>2012-01-15T10:10:59Z</time>
      </trkpt>
      <trkpt lat="45.85935" lon="4.78986">
        <ele>546</ele>
        <time>2012-01-15T10:11:02Z</time>
      </trkpt>
      <trkpt lat="45.85945" lon="4.78997">
        <ele>547</ele>
        <time>2012-01-15T10:11:08Z</time>
      </trkpt>
      <trkpt lat="45.85947" lon="4.78999">
        <ele>547</ele>
        <time>2012-01-15T10:11:09Z</time>
      </trkpt>
      <trkpt lat="45.85954" lon="4.79013">
        <ele>548</ele>
        <time>2012-01-15T10:11:15Z</time>
      </trkpt>
      <trkpt lat="45.85956" lon="4.79019">
        <ele>548</ele>
        <time>2012-01-15T10:11:17Z</time>
      </trkpt>
      <trkpt lat="45.8596" lon="4.7903">
        <ele>548</ele>
        <time>2012-01-15T10:11:21Z</time>
      </trkpt>
      <trkpt lat="45.85963" lon="4.79044">
        <ele>548</ele>
        <time>2012-01-15T10:11:26Z</time>
      </trkpt>
      <trkpt lat="45.85966" lon="4.79064">
        <ele>548</ele>
        <time>2012-01-15T10:11:33Z</time>
      </trkpt>
      <trkpt lat="45.85968" lon="4.7907">
        <ele>548</ele>
        <time>2012-01-15T10:11:35Z</time>
      </trkpt>
      <trkpt lat="45.85969" lon="4.79079">
        <ele>549</ele>
        <time>2012-01-15T10:11:38Z</time>
      </trkpt>
      <trkpt lat="45.8597" lon="4.79082">
        <ele>549</ele>
        <time>2012-01-15T10:11:39Z</time>
      </trkpt>
      <trkpt lat="45.85974" lon="4.79096">
        <ele>545</ele>
        <time>2012-01-15T10:11:44Z</time>
      </trkpt>
      <trkpt lat="45.85976" lon="4.79102">
        <ele>545</ele>
        <time>2012-01-15T10:11:46Z</time>
      </trkpt>
      <trkpt lat="45.85984" lon="4.7912">
        <ele>544</ele>
        <time>2012-01-15T10:11:53Z</time>
      </trkpt>
      <trkpt lat="45.85991" lon="4.79134">
        <ele>544</ele>
        <time>2012-01-15T10:11:59Z</time>
      </trkpt>
      <trkpt lat="45.85995" lon="4.79141">
        <ele>544</ele>
        <time>2012-01-15T10:12:02Z</time>
      </trkpt>
      <trkpt lat="45.86" lon="4.79151">
        <ele>553</ele>
        <time>2012-01-15T10:12:06Z</time>
      </trkpt>
      <trkpt lat="45.86008" lon="4.79162">
        <ele>552</ele>
        <time>2012-01-15T10:12:11Z</time>
      </trkpt>
      <trkpt lat="45.86011" lon="4.79166">
        <ele>552</ele>
        <time>2012-01-15T10:12:13Z</time>
      </trkpt>
      <trkpt lat="45.86019" lon="4.7918">
        <ele>550</ele>
        <time>2012-01-15T10:12:19Z</time>
      </trkpt>
      <trkpt lat="45.86021" lon="4.79182">
        <ele>550</ele>
        <time>2012-01-15T10:12:20Z</time>
      </trkpt>
      <trkpt lat="45.86027" lon="4.79191">
        <ele>550</ele>
        <time>2012-01-15T10:12:24Z</time>
      </trkpt>
      <trkpt lat="45.86035" lon="4.79201">
        <ele>550</ele>
        <time>2012-01-15T10:12:29Z</time>
      </trkpt>
      <trkpt lat="45.86037" lon="4.79202">
        <ele>550</ele>
        <time>2012-01-15T10:12:30Z</time>
      </trkpt>
      <trkpt lat="45.86047" lon="4.79207">
        <ele>550</ele>
        <time>2012-01-15T10:12:35Z</time>
      </trkpt>
      <trkpt lat="45.86054" lon="4.79209">
        <ele>551</ele>
        <time>2012-01-15T10:12:38Z</time>
      </trkpt>
      <trkpt lat="45.86068" lon="4.79209">
        <ele>552</ele>
        <time>2012-01-15T10:12:44Z</time>
      </trkpt>
      <trkpt lat="45.86073" lon="4.79206">
        <ele>553</ele>
        <time>2012-01-15T10:12:47Z</time>
      </trkpt>
      <trkpt lat="45.86075" lon="4.79205">
        <ele>553</ele>
        <time>2012-01-15T10:12:49Z</time>
      </trkpt>
      <trkpt lat="45.86078" lon="4.79204">
        <ele>553</ele>
        <time>2012-01-15T10:12:54Z</time>
      </trkpt>
      <trkpt lat="45.86083" lon="4.79202">
        <ele>553</ele>
        <time>2012-01-15T10:13:04Z</time>
      </trkpt>
      <trkpt lat="45.86084" lon="4.79201">
        <ele>556</ele>
        <time>2012-01-15T10:13:05Z</time>
      </trkpt>
      <trkpt lat="45.86084" lon="4.79201">
        <ele>556</ele>
        <time>2012-01-15T10:13:08Z</time>
      </trkpt>
      <trkpt lat="45.86083" lon="4.79201">
        <ele>553</ele>
        <time>2012-01-15T10:13:35Z</time>
      </trkpt>
      <trkpt lat="45.8608" lon="4.79203">
        <ele>553</ele>
        <time>2012-01-15T10:13:53Z</time>
      </trkpt>
      <trkpt lat="45.86079" lon="4.79205">
        <ele>553</ele>
        <time>2012-01-15T10:14:01Z</time>
      </trkpt>
      <trkpt lat="45.8608" lon="4.79205">
        <ele>553</ele>
        <time>2012-01-15T10:14:07Z</time>
      </trkpt>
      <trkpt lat="45.86079" lon="4.79202">
        <ele>553</ele>
        <time>2012-01-15T10:14:22Z</time>
      </trkpt>
      <trkpt lat="45.86079" lon="4.79202">
        <ele>553</ele>
        <time>2012-01-15T10:14:26Z</time>
      </trkpt>
      <trkpt lat="45.86082" lon="4.79199">
        <ele>554</ele>
        <time>2012-01-15T10:15:08Z</time>
      </trkpt>
      <trkpt lat="45.86082" lon="4.79199">
        <ele>554</ele>
        <time>2012-01-15T10:15:18Z</time>
      </trkpt>
      <trkpt lat="45.86083" lon="4.79202">
        <ele>553</ele>
        <time>2012-01-15T10:16:35Z</time>
      </trkpt>
      <trkpt lat="45.86083" lon="4.79202">
        <ele>553</ele>
        <time>2012-01-15T10:16:43Z</time>
      </trkpt>
      <trkpt lat="45.86083" lon="4.79202">
        <ele>553</ele>
        <time>2012-01-15T10:17:02Z</time>
      </trkpt>
      <trkpt lat="45.86082" lon="4.79203">
        <ele>553</ele>
        <time>2012-01-15T10:17:20Z</time>
      </trkpt>
      <trkpt lat="45.86081" lon="4.79204">
        <ele>553</ele>
        <time>2012-01-15T10:18:25Z</time>
      </trkpt>
      <trkpt lat="45.8608" lon="4.79205">
        <ele>553</ele>
        <time>2012-01-15T10:18:26Z</time>
      </trkpt>
      <trkpt lat="45.86078" lon="4.79203">
        <ele>553</ele>
        <time>2012-01-15T10:18:28Z</time>
      </trkpt>
      <trkpt lat="45.86079" lon="4.792">
        <ele>553</ele>
        <time>2012-01-15T10:18:34Z</time>
      </trkpt>
      <trkpt lat="45.86082" lon="4.792">
        <ele>553</ele>
        <time>2012-01-15T10:19:03Z</time>
      </trkpt>
      <trkpt lat="45.86083" lon="4.79204">
        <ele>556</ele>
        <time>2012-01-15T10:19:11Z</time>
      </trkpt>
      <trkpt lat="45.86089" lon="4.7921">
        <ele>556</ele>
        <time>2012-01-15T10:19:16Z</time>
      </trkpt>
      <trkpt lat="45.8609" lon="4.79214">
        <ele>556</ele>
        <time>2012-01-15T10:19:18Z</time>
      </trkpt>
      <trkpt lat="45.86099" lon="4.79225">
        <ele>555</ele>
        <time>2012-01-15T10:19:23Z</time>
      </trkpt>
      <trkpt lat="45.86102" lon="4.79231">
        <ele>555</ele>
        <time>2012-01-15T10:19:25Z</time>
      </trkpt>
      <trkpt lat="45.86109" lon="4.79241">
        <ele>555</ele>
        <time>2012-01-15T10:19:28Z</time>
      </trkpt>
      <trkpt lat="45.86114" lon="4.79251">
        <ele>551</ele>
        <time>2012-01-15T10:19:31Z</time>
      </trkpt>
      <trkpt lat="45.86119" lon="4.79258">
        <ele>551</ele>
        <time>2012-01-15T10:19:33Z</time>
      </trkpt>
      <trkpt lat="45.86128" lon="4.79272">
        <ele>550</ele>
        <time>2012-01-15T10:19:38Z</time>
      </trkpt>
      <trkpt lat="45.86135" lon="4.79291">
        <ele>550</ele>
        <time>2012-01-15T10:19:44Z</time>
      </trkpt>
      <trkpt lat="45.86139" lon="4.79296">
        <ele>549</ele>
        <time>2012-01-15T10:19:46Z</time>
      </trkpt>
      <trkpt lat="45.86143" lon="4.793">
        <ele>549</ele>
        <time>2012-01-15T10:19:48Z</time>
      </trkpt>
      <trkpt lat="45.86154" lon="4.79307">
        <ele>549</ele>
        <time>2012-01-15T10:19:53Z</time>
      </trkpt>
      <trkpt lat="45.86156" lon="4.79309">
        <ele>549</ele>
        <time>2012-01-15T10:19:54Z</time>
      </trkpt>
      <trkpt lat="45.86165" lon="4.79316">
        <ele>550</ele>
        <time>2012-01-15T10:19:58Z</time>
      </trkpt>
      <trkpt lat="45.86173" lon="4.79321">
        <ele>549</ele>
        <time>2012-01-15T10:20:01Z</time>
      </trkpt>
      <trkpt lat="45.86175" lon="4.79321">
        <ele>549</ele>
        <time>2012-01-15T10:20:02Z</time>
      </trkpt>
      <trkpt lat="45.86189" lon="4.79322">
        <ele>548</ele>
        <time>2012-01-15T10:20:07Z</time>
      </trkpt>
      <trkpt lat="45.86192" lon="4.79322">
        <ele>548</ele>
        <time>2012-01-15T10:20:08Z</time>
      </trkpt>
      <trkpt lat="45.86205" lon="4.79317">
        <ele>547</ele>
        <time>2012-01-15T10:20:13Z</time>
      </trkpt>
      <trkpt lat="45.86207" lon="4.79317">
        <ele>547</ele>
        <time>2012-01-15T10:20:20Z</time>
      </trkpt>
      <trkpt lat="45.86209" lon="4.79317">
        <ele>547</ele>
        <time>2012-01-15T10:20:23Z</time>
      </trkpt>
      <trkpt lat="45.86211" lon="4.79316">
        <ele>547</ele>
        <time>2012-01-15T10:20:24Z</time>
      </trkpt>
      <trkpt lat="45.86215" lon="4.79314">
        <ele>546</ele>
        <time>2012-01-15T10:20:26Z</time>
      </trkpt>
      <trkpt lat="45.86227" lon="4.79305">
        <ele>546</ele>
        <time>2012-01-15T10:20:31Z</time>
      </trkpt>
      <trkpt lat="45.86238" lon="4.79293">
        <ele>545</ele>
        <time>2012-01-15T10:20:36Z</time>
      </trkpt>
      <trkpt lat="45.8624" lon="4.79287">
        <ele>545</ele>
        <time>2012-01-15T10:20:38Z</time>
      </trkpt>
      <trkpt lat="45.86241" lon="4.79284">
        <ele>545</ele>
        <time>2012-01-15T10:20:39Z</time>
      </trkpt>
      <trkpt lat="45.86242" lon="4.79281">
        <ele>544</ele>
        <time>2012-01-15T10:20:40Z</time>
      </trkpt>
      <trkpt lat="45.86249" lon="4.79275">
        <ele>544</ele>
        <time>2012-01-15T10:20:44Z</time>
      </trkpt>
      <trkpt lat="45.86254" lon="4.79275">
        <ele>535</ele>
        <time>2012-01-15T10:20:46Z</time>
      </trkpt>
      <trkpt lat="45.86262" lon="4.7928">
        <ele>535</ele>
        <time>2012-01-15T10:20:49Z</time>
      </trkpt>
      <trkpt lat="45.86268" lon="4.79292">
        <ele>535</ele>
        <time>2012-01-15T10:20:53Z</time>
      </trkpt>
      <trkpt lat="45.8627" lon="4.79296">
        <ele>535</ele>
        <time>2012-01-15T10:20:54Z</time>
      </trkpt>
      <trkpt lat="45.8628" lon="4.7931">
        <ele>535</ele>
        <time>2012-01-15T10:20:59Z</time>
      </trkpt>
      <trkpt lat="45.86283" lon="4.79313">
        <ele>534</ele>
        <time>2012-01-15T10:21:00Z</time>
      </trkpt>
      <trkpt lat="45.86294" lon="4.79323">
        <ele>533</ele>
        <time>2012-01-15T10:21:04Z</time>
      </trkpt>
      <trkpt lat="45.86301" lon="4.79328">
        <ele>533</ele>
        <time>2012-01-15T10:21:06Z</time>
      </trkpt>
      <trkpt lat="45.86307" lon="4.79333">
        <ele>532</ele>
        <time>2012-01-15T10:21:08Z</time>
      </trkpt>
      <trkpt lat="45.8632" lon="4.79343">
        <ele>533</ele>
        <time>2012-01-15T10:21:13Z</time>
      </trkpt>
      <trkpt lat="45.86333" lon="4.79356">
        <ele>533</ele>
        <time>2012-01-15T10:21:18Z</time>
      </trkpt>
      <trkpt lat="45.86336" lon="4.79358">
        <ele>524</ele>
        <time>2012-01-15T10:21:19Z</time>
      </trkpt>
      <trkpt lat="45.86345" lon="4.79365">
        <ele>523</ele>
        <time>2012-01-15T10:21:22Z</time>
      </trkpt>
      <trkpt lat="45.86355" lon="4.79373">
        <ele>522</ele>
        <time>2012-01-15T10:21:25Z</time>
      </trkpt>
      <trkpt lat="45.86358" lon="4.79375">
        <ele>521</ele>
        <time>2012-01-15T10:21:26Z</time>
      </trkpt>
      <trkpt lat="45.8637" lon="4.79385">
        <ele>520</ele>
        <time>2012-01-15T10:21:30Z</time>
      </trkpt>
      <trkpt lat="45.86372" lon="4.79387">
        <ele>520</ele>
        <time>2012-01-15T10:21:31Z</time>
      </trkpt>
      <trkpt lat="45.86383" lon="4.79397">
        <ele>519</ele>
        <time>2012-01-15T10:21:36Z</time>
      </trkpt>
      <trkpt lat="45.86388" lon="4.79402">
        <ele>519</ele>
        <time>2012-01-15T10:21:38Z</time>
      </trkpt>
      <trkpt lat="45.86399" lon="4.79408">
        <ele>518</ele>
        <time>2012-01-15T10:21:42Z</time>
      </trkpt>
      <trkpt lat="45.86405" lon="4.79413">
        <ele>517</ele>
        <time>2012-01-15T10:21:44Z</time>
      </trkpt>
      <trkpt lat="45.86414" lon="4.79421">
        <ele>517</ele>
        <time>2012-01-15T10:21:48Z</time>
      </trkpt>
      <trkpt lat="45.86421" lon="4.79427">
        <ele>512</ele>
        <time>2012-01-15T10:21:51Z</time>
      </trkpt>
      <trkpt lat="45.86426" lon="4.79433">
        <ele>511</ele>
        <time>2012-01-15T10:21:53Z</time>
      </trkpt>
      <trkpt lat="45.86437" lon="4.79442">
        <ele>509</ele>
        <time>2012-01-15T10:21:57Z</time>
      </trkpt>
      <trkpt lat="45.86444" lon="4.79446">
        <ele>508</ele>
        <time>2012-01-15T10:21:59Z</time>
      </trkpt>
      <trkpt lat="45.86454" lon="4.79452">
        <ele>507</ele>
        <time>2012-01-15T10:22:02Z</time>
      </trkpt>
      <trkpt lat="45.8646" lon="4.79457">
        <ele>506</ele>
        <time>2012-01-15T10:22:04Z</time>
      </trkpt>
      <trkpt lat="45.86472" lon="4.79467">
        <ele>506</ele>
        <time>2012-01-15T10:22:09Z</time>
      </trkpt>
      <trkpt lat="45.86475" lon="4.79469">
        <ele>505</ele>
        <time>2012-01-15T10:22:10Z</time>
      </trkpt>
      <trkpt lat="45.86491" lon="4.79482">
        <ele>505</ele>
        <time>2012-01-15T10:22:15Z</time>
      </trkpt>
      <trkpt lat="45.86505" lon="4.79493">
        <ele>498</ele>
        <time>2012-01-15T10:22:20Z</time>
      </trkpt>
      <trkpt lat="45.86507" lon="4.79495">
        <ele>498</ele>
        <time>2012-01-15T10:22:21Z</time>
      </trkpt>
      <trkpt lat="45.86517" lon="4.79505">
        <ele>498</ele>
        <time>2012-01-15T10:22:25Z</time>
      </trkpt>
      <trkpt lat="45.86524" lon="4.79512">
        <ele>496</ele>
        <time>2012-01-15T10:22:28Z</time>
      </trkpt>
      <trkpt lat="45.86527" lon="4.79514">
        <ele>495</ele>
        <time>2012-01-15T10:22:29Z</time>
      </trkpt>
      <trkpt lat="45.86538" lon="4.79527">
        <ele>493</ele>
        <time>2012-01-15T10:22:34Z</time>
      </trkpt>
      <trkpt lat="45.8654" lon="4.7953">
        <ele>493</ele>
        <time>2012-01-15T10:22:35Z</time>
      </trkpt>
      <trkpt lat="45.86547" lon="4.79544">
        <ele>493</ele>
        <time>2012-01-15T10:22:40Z</time>
      </trkpt>
      <trkpt lat="45.86551" lon="4.79552">
        <ele>492</ele>
        <time>2012-01-15T10:22:43Z</time>
      </trkpt>
      <trkpt lat="45.86552" lon="4.79556">
        <ele>492</ele>
        <time>2012-01-15T10:22:44Z</time>
      </trkpt>
      <trkpt lat="45.86559" lon="4.79567">
        <ele>492</ele>
        <time>2012-01-15T10:22:48Z</time>
      </trkpt>
      <trkpt lat="45.86559" lon="4.79569">
        <ele>492</ele>
        <time>2012-01-15T10:22:49Z</time>
      </trkpt>
      <trkpt lat="45.86564" lon="4.79577">
        <ele>491</ele>
        <time>2012-01-15T10:22:52Z</time>
      </trkpt>
      <trkpt lat="45.86566" lon="4.79583">
        <ele>490</ele>
        <time>2012-01-15T10:22:54Z</time>
      </trkpt>
      <trkpt lat="45.86567" lon="4.79594">
        <ele>491</ele>
        <time>2012-01-15T10:23:00Z</time>
      </trkpt>
      <trkpt lat="45.86563" lon="4.79602">
        <ele>491</ele>
        <time>2012-01-15T10:23:04Z</time>
      </trkpt>
      <trkpt lat="45.8656" lon="4.79607">
        <ele>492</ele>
        <time>2012-01-15T10:23:06Z</time>
      </trkpt>
      <trkpt lat="45.8655" lon="4.79623">
        <ele>492</ele>
        <time>2012-01-15T10:23:13Z</time>
      </trkpt>
      <trkpt lat="45.86543" lon="4.79641">
        <ele>492</ele>
        <time>2012-01-15T10:23:19Z</time>
      </trkpt>
      <trkpt lat="45.8654" lon="4.79647">
        <ele>492</ele>
        <time>2012-01-15T10:23:21Z</time>
      </trkpt>
      <trkpt lat="45.86537" lon="4.79652">
        <ele>492</ele>
        <time>2012-01-15T10:23:23Z</time>
      </trkpt>
      <trkpt lat="45.86529" lon="4.79664">
        <ele>493</ele>
        <time>2012-01-15T10:23:28Z</time>
      </trkpt>
      <trkpt lat="45.86528" lon="4.79666">
        <ele>493</ele>
        <time>2012-01-15T10:23:29Z</time>
      </trkpt>
      <trkpt lat="45.86527" lon="4.79668">
        <ele>487</ele>
        <time>2012-01-15T10:23:30Z</time>
      </trkpt>
      <trkpt lat="45.86526" lon="4.79669">
        <ele>487</ele>
        <time>2012-01-15T10:23:32Z</time>
      </trkpt>
      <trkpt lat="45.86522" lon="4.79679">
        <ele>486</ele>
        <time>2012-01-15T10:23:48Z</time>
      </trkpt>
      <trkpt lat="45.86515" lon="4.79688">
        <ele>486</ele>
        <time>2012-01-15T10:23:53Z</time>
      </trkpt>
      <trkpt lat="45.86512" lon="4.79692">
        <ele>486</ele>
        <time>2012-01-15T10:23:55Z</time>
      </trkpt>
      <trkpt lat="45.86508" lon="4.79693">
        <ele>486</ele>
        <time>2012-01-15T10:23:57Z</time>
      </trkpt>
      <trkpt lat="45.86498" lon="4.79693">
        <ele>486</ele>
        <time>2012-01-15T10:24:01Z</time>
      </trkpt>
      <trkpt lat="45.86493" lon="4.79693">
        <ele>486</ele>
        <time>2012-01-15T10:24:03Z</time>
      </trkpt>
      <trkpt lat="45.86479" lon="4.79695">
        <ele>485</ele>
        <time>2012-01-15T10:24:08Z</time>
      </trkpt>
      <trkpt lat="45.86475" lon="4.79696">
        <ele>485</ele>
        <time>2012-01-15T10:24:09Z</time>
      </trkpt>
      <trkpt lat="45.86465" lon="4.79698">
        <ele>484</ele>
        <time>2012-01-15T10:24:13Z</time>
      </trkpt>
      <trkpt lat="45.8646" lon="4.79699">
        <ele>484</ele>
        <time>2012-01-15T10:24:15Z</time>
      </trkpt>
      <trkpt lat="45.86448" lon="4.79703">
        <ele>484</ele>
        <time>2012-01-15T10:24:19Z</time>
      </trkpt>
      <trkpt lat="45.8644" lon="4.79704">
        <ele>483</ele>
        <time>2012-01-15T10:24:22Z</time>
      </trkpt>
      <trkpt lat="45.86433" lon="4.79703">
        <ele>484</ele>
        <time>2012-01-15T10:24:25Z</time>
      </trkpt>
      <trkpt lat="45.8642" lon="4.79703">
        <ele>484</ele>
        <time>2012-01-15T10:24:30Z</time>
      </trkpt>
      <trkpt lat="45.86404" lon="4.79704">
        <ele>481</ele>
        <time>2012-01-15T10:24:37Z</time>
      </trkpt>
      <trkpt lat="45.86401" lon="4.79705">
        <ele>481</ele>
        <time>2012-01-15T10:24:38Z</time>
      </trkpt>
      <trkpt lat="45.86392" lon="4.79707">
        <ele>480</ele>
        <time>2012-01-15T10:24:42Z</time>
      </trkpt>
      <trkpt lat="45.86383" lon="4.79708">
        <ele>480</ele>
        <time>2012-01-15T10:24:45Z</time>
      </trkpt>
      <trkpt lat="45.86378" lon="4.79707">
        <ele>480</ele>
        <time>2012-01-15T10:24:47Z</time>
      </trkpt>
      <trkpt lat="45.86363" lon="4.79708">
        <ele>479</ele>
        <time>2012-01-15T10:24:52Z</time>
      </trkpt>
      <trkpt lat="45.86346" lon="4.79712">
        <ele>478</ele>
        <time>2012-01-15T10:24:58Z</time>
      </trkpt>
      <trkpt lat="45.86343" lon="4.79712">
        <ele>478</ele>
        <time>2012-01-15T10:24:59Z</time>
      </trkpt>
      <trkpt lat="45.86329" lon="4.79714">
        <ele>475</ele>
        <time>2012-01-15T10:25:04Z</time>
      </trkpt>
      <trkpt lat="45.86324" lon="4.79714">
        <ele>475</ele>
        <time>2012-01-15T10:25:06Z</time>
      </trkpt>
      <trkpt lat="45.86314" lon="4.79714">
        <ele>475</ele>
        <time>2012-01-15T10:25:10Z</time>
      </trkpt>
      <trkpt lat="45.86306" lon="4.79714">
        <ele>475</ele>
        <time>2012-01-15T10:25:13Z</time>
      </trkpt>
      <trkpt lat="45.86298" lon="4.79716">
        <ele>474</ele>
        <time>2012-01-15T10:25:16Z</time>
      </trkpt>
      <trkpt lat="45.86285" lon="4.79721">
        <ele>473</ele>
        <time>2012-01-15T10:25:20Z</time>
      </trkpt>
      <trkpt lat="45.86282" lon="4.79722">
        <ele>473</ele>
        <time>2012-01-15T10:25:21Z</time>
      </trkpt>
      <trkpt lat="45.86268" lon="4.79729">
        <ele>471</ele>
        <time>2012-01-15T10:25:26Z</time>
      </trkpt>
      <trkpt lat="45.86265" lon="4.79731">
        <ele>471</ele>
        <time>2012-01-15T10:25:27Z</time>
      </trkpt>
      <trkpt lat="45.86252" lon="4.79743">
        <ele>467</ele>
        <time>2012-01-15T10:25:33Z</time>
      </trkpt>
      <trkpt lat="45.8625" lon="4.79746">
        <ele>466</ele>
        <time>2012-01-15T10:25:34Z</time>
      </trkpt>
      <trkpt lat="45.8624" lon="4.79756">
        <ele>463</ele>
        <time>2012-01-15T10:25:39Z</time>
      </trkpt>
      <trkpt lat="45.86236" lon="4.79759">
        <ele>462</ele>
        <time>2012-01-15T10:25:41Z</time>
      </trkpt>
      <trkpt lat="45.8623" lon="4.79764">
        <ele>462</ele>
        <time>2012-01-15T10:25:45Z</time>
      </trkpt>
      <trkpt lat="45.86224" lon="4.7977">
        <ele>461</ele>
        <time>2012-01-15T10:25:49Z</time>
      </trkpt>
      <trkpt lat="45.86219" lon="4.79774">
        <ele>461</ele>
        <time>2012-01-15T10:25:51Z</time>
      </trkpt>
      <trkpt lat="45.86213" lon="4.79779">
        <ele>461</ele>
        <time>2012-01-15T10:25:54Z</time>
      </trkpt>
      <trkpt lat="45.86202" lon="4.79786">
        <ele>460</ele>
        <time>2012-01-15T10:25:58Z</time>
      </trkpt>
      <trkpt lat="45.862" lon="4.79787">
        <ele>460</ele>
        <time>2012-01-15T10:25:59Z</time>
      </trkpt>
      <trkpt lat="45.86189" lon="4.79799">
        <ele>459</ele>
        <time>2012-01-15T10:26:04Z</time>
      </trkpt>
      <trkpt lat="45.86188" lon="4.79802">
        <ele>459</ele>
        <time>2012-01-15T10:26:05Z</time>
      </trkpt>
      <trkpt lat="45.86187" lon="4.79805">
        <ele>459</ele>
        <time>2012-01-15T10:26:06Z</time>
      </trkpt>
      <trkpt lat="45.86188" lon="4.79808">
        <ele>458</ele>
        <time>2012-01-15T10:26:07Z</time>
      </trkpt>
      <trkpt lat="45.8619" lon="4.7982">
        <ele>458</ele>
        <time>2012-01-15T10:26:11Z</time>
      </trkpt>
      <trkpt lat="45.86188" lon="4.79826">
        <ele>457</ele>
        <time>2012-01-15T10:26:13Z</time>
      </trkpt>
      <trkpt lat="45.86187" lon="4.79828">
        <ele>457</ele>
        <time>2012-01-15T10:26:14Z</time>
      </trkpt>
      <trkpt lat="45.86181" lon="4.79835">
        <ele>452</ele>
        <time>2012-01-15T10:26:17Z</time>
      </trkpt>
      <trkpt lat="45.8617" lon="4.79844">
        <ele>452</ele>
        <time>2012-01-15T10:26:21Z</time>
      </trkpt>
      <trkpt lat="45.86156" lon="4.79852">
        <ele>450</ele>
        <time>2012-01-15T10:26:26Z</time>
      </trkpt>
      <trkpt lat="45.86153" lon="4.79854">
        <ele>449</ele>
        <time>2012-01-15T10:26:27Z</time>
      </trkpt>
      <trkpt lat="45.86136" lon="4.79861">
        <ele>448</ele>
        <time>2012-01-15T10:26:33Z</time>
      </trkpt>
      <trkpt lat="45.8612" lon="4.79864">
        <ele>447</ele>
        <time>2012-01-15T10:26:39Z</time>
      </trkpt>
      <trkpt lat="45.86117" lon="4.79864">
        <ele>447</ele>
        <time>2012-01-15T10:26:40Z</time>
      </trkpt>
      <trkpt lat="45.8611" lon="4.7986">
        <ele>447</ele>
        <time>2012-01-15T10:26:43Z</time>
      </trkpt>
      <trkpt lat="45.86105" lon="4.79856">
        <ele>447</ele>
        <time>2012-01-15T10:26:48Z</time>
      </trkpt>
      <trkpt lat="45.86107" lon="4.79856">
        <ele>447</ele>
        <time>2012-01-15T10:26:54Z</time>
      </trkpt>
      <trkpt lat="45.86109" lon="4.79857">
        <ele>447</ele>
        <time>2012-01-15T10:26:55Z</time>
      </trkpt>
      <trkpt lat="45.86118" lon="4.79864">
        <ele>447</ele>
        <time>2012-01-15T10:26:59Z</time>
      </trkpt>
      <trkpt lat="45.86126" lon="4.7987">
        <ele>447</ele>
        <time>2012-01-15T10:27:02Z</time>
      </trkpt>
      <trkpt lat="45.86134" lon="4.79876">
        <ele>447</ele>
        <time>2012-01-15T10:27:05Z</time>
      </trkpt>
      <trkpt lat="45.86142" lon="4.79882">
        <ele>447</ele>
        <time>2012-01-15T10:27:08Z</time>
      </trkpt>
      <trkpt lat="45.86146" lon="4.79888">
        <ele>446</ele>
        <time>2012-01-15T10:27:10Z</time>
      </trkpt>
      <trkpt lat="45.86147" lon="4.79894">
        <ele>446</ele>
        <time>2012-01-15T10:27:12Z</time>
      </trkpt>
      <trkpt lat="45.86146" lon="4.799">
        <ele>446</ele>
        <time>2012-01-15T10:27:14Z</time>
      </trkpt>
      <trkpt lat="45.86145" lon="4.79908">
        <ele>445</ele>
        <time>2012-01-15T10:27:16Z</time>
      </trkpt>
      <trkpt lat="45.86145" lon="4.79912">
        <ele>445</ele>
        <time>2012-01-15T10:27:17Z</time>
      </trkpt>
      <trkpt lat="45.86144" lon="4.79921">
        <ele>440</ele>
        <time>2012-01-15T10:27:19Z</time>
      </trkpt>
      <trkpt lat="45.86144" lon="4.79935">
        <ele>439</ele>
        <time>2012-01-15T10:27:22Z</time>
      </trkpt>
      <trkpt lat="45.86143" lon="4.79941">
        <ele>438</ele>
        <time>2012-01-15T10:27:23Z</time>
      </trkpt>
      <trkpt lat="45.86143" lon="4.79963">
        <ele>437</ele>
        <time>2012-01-15T10:27:28Z</time>
      </trkpt>
      <trkpt lat="45.86147" lon="4.79974">
        <ele>436</ele>
        <time>2012-01-15T10:27:31Z</time>
      </trkpt>
      <trkpt lat="45.86149" lon="4.79976">
        <ele>436</ele>
        <time>2012-01-15T10:27:32Z</time>
      </trkpt>
      <trkpt lat="45.86154" lon="4.79983">
        <ele>435</ele>
        <time>2012-01-15T10:27:35Z</time>
      </trkpt>
      <trkpt lat="45.86154" lon="4.79985">
        <ele>435</ele>
        <time>2012-01-15T10:27:36Z</time>
      </trkpt>
      <trkpt lat="45.86153" lon="4.79985">
        <ele>435</ele>
        <time>2012-01-15T10:27:37Z</time>
      </trkpt>
      <trkpt lat="45.86154" lon="4.79986">
        <ele>435</ele>
        <time>2012-01-15T10:27:42Z</time>
      </trkpt>
      <trkpt lat="45.86155" lon="4.79986">
        <ele>435</ele>
        <time>2012-01-15T10:27:43Z</time>
      </trkpt>
      <trkpt lat="45.86162" lon="4.79988">
        <ele>434</ele>
        <time>2012-01-15T10:27:46Z</time>
      </trkpt>
      <trkpt lat="45.8617" lon="4.79991">
        <ele>433</ele>
        <time>2012-01-15T10:27:49Z</time>
      </trkpt>
      <trkpt lat="45.86178" lon="4.79991">
        <ele>434</ele>
        <time>2012-01-15T10:27:52Z</time>
      </trkpt>
      <trkpt lat="45.86191" lon="4.79992">
        <ele>434</ele>
        <time>2012-01-15T10:27:57Z</time>
      </trkpt>
      <trkpt lat="45.86194" lon="4.79992">
        <ele>434</ele>
        <time>2012-01-15T10:27:58Z</time>
      </trkpt>
      <trkpt lat="45.86208" lon="4.79992">
        <ele>434</ele>
        <time>2012-01-15T10:28:03Z</time>
      </trkpt>
      <trkpt lat="45.8621" lon="4.79992">
        <ele>434</ele>
        <time>2012-01-15T10:28:04Z</time>
      </trkpt>
      <trkpt lat="45.86227" lon="4.79998">
        <ele>433</ele>
        <time>2012-01-15T10:28:10Z</time>
      </trkpt>
      <trkpt lat="45.8623" lon="4.8">
        <ele>432</ele>
        <time>2012-01-15T10:28:11Z</time>
      </trkpt>
      <trkpt lat="45.8624" lon="4.80005">
        <ele>427</ele>
        <time>2012-01-15T10:28:16Z</time>
      </trkpt>
      <trkpt lat="45.8624" lon="4.80009">
        <ele>427</ele>
        <time>2012-01-15T10:28:20Z</time>
      </trkpt>
      <trkpt lat="45.86242" lon="4.80015">
        <ele>426</ele>
        <time>2012-01-15T10:28:24Z</time>
      </trkpt>
      <trkpt lat="45.86242" lon="4.80018">
        <ele>426</ele>
        <time>2012-01-15T10:28:25Z</time>
      </trkpt>
      <trkpt lat="45.86242" lon="4.80025">
        <ele>426</ele>
        <time>2012-01-15T10:28:27Z</time>
      </trkpt>
      <trkpt lat="45.86242" lon="4.80038">
        <ele>425</ele>
        <time>2012-01-15T10:28:30Z</time>
      </trkpt>
      <trkpt lat="45.86242" lon="4.80042">
        <ele>424</ele>
        <time>2012-01-15T10:28:31Z</time>
      </trkpt>
      <trkpt lat="45.86241" lon="4.80055">
        <ele>423</ele>
        <time>2012-01-15T10:28:35Z</time>
      </trkpt>
      <trkpt lat="45.86243" lon="4.80069">
        <ele>422</ele>
        <time>2012-01-15T10:28:39Z</time>
      </trkpt>
      <trkpt lat="45.86243" lon="4.80073">
        <ele>421</ele>
        <time>2012-01-15T10:28:40Z</time>
      </trkpt>
      <trkpt lat="45.86246" lon="4.80088">
        <ele>418</ele>
        <time>2012-01-15T10:28:45Z</time>
      </trkpt>
      <trkpt lat="45.86246" lon="4.80095">
        <ele>417</ele>
        <time>2012-01-15T10:28:47Z</time>
      </trkpt>
      <trkpt lat="45.86247" lon="4.80107">
        <ele>416</ele>
        <time>2012-01-15T10:28:51Z</time>
      </trkpt>
      <trkpt lat="45.86247" lon="4.8011">
        <ele>415</ele>
        <time>2012-01-15T10:28:52Z</time>
      </trkpt>
      <trkpt lat="45.8625" lon="4.80118">
        <ele>416</ele>
        <time>2012-01-15T10:28:55Z</time>
      </trkpt>
      <trkpt lat="45.86251" lon="4.80121">
        <ele>415</ele>
        <time>2012-01-15T10:28:56Z</time>
      </trkpt>
      <trkpt lat="45.86252" lon="4.80124">
        <ele>415</ele>
        <time>2012-01-15T10:28:57Z</time>
      </trkpt>
      <trkpt lat="45.86254" lon="4.80135">
        <ele>414</ele>
        <time>2012-01-15T10:29:01Z</time>
      </trkpt>
      <trkpt lat="45.86257" lon="4.80148">
        <ele>413</ele>
        <time>2012-01-15T10:29:05Z</time>
      </trkpt>
      <trkpt lat="45.86259" lon="4.80155">
        <ele>412</ele>
        <time>2012-01-15T10:29:07Z</time>
      </trkpt>
      <trkpt lat="45.86264" lon="4.8017">
        <ele>408</ele>
        <time>2012-01-15T10:29:11Z</time>
      </trkpt>
      <trkpt lat="45.86265" lon="4.80174">
        <ele>407</ele>
        <time>2012-01-15T10:29:12Z</time>
      </trkpt>
      <trkpt lat="45.86269" lon="4.80188">
        <ele>407</ele>
        <time>2012-01-15T10:29:16Z</time>
      </trkpt>
      <trkpt lat="45.86274" lon="4.80197">
        <ele>407</ele>
        <time>2012-01-15T10:29:19Z</time>
      </trkpt>
      <trkpt lat="45.86278" lon="4.80202">
        <ele>406</ele>
        <time>2012-01-15T10:29:21Z</time>
      </trkpt>
      <trkpt lat="45.8629" lon="4.80213">
        <ele>406</ele>
        <time>2012-01-15T10:29:26Z</time>
      </trkpt>
      <trkpt lat="45.86291" lon="4.80216">
        <ele>406</ele>
        <time>2012-01-15T10:29:27Z</time>
      </trkpt>
      <trkpt lat="45.86292" lon="4.80229">
        <ele>405</ele>
        <time>2012-01-15T10:29:30Z</time>
      </trkpt>
      <trkpt lat="45.86292" lon="4.80238">
        <ele>405</ele>
        <time>2012-01-15T10:29:32Z</time>
      </trkpt>
      <trkpt lat="45.86294" lon="4.80246">
        <ele>405</ele>
        <time>2012-01-15T10:29:34Z</time>
      </trkpt>
      <trkpt lat="45.86295" lon="4.80254">
        <ele>397</ele>
        <time>2012-01-15T10:29:36Z</time>
      </trkpt>
      <trkpt lat="45.86296" lon="4.80262">
        <ele>397</ele>
        <time>2012-01-15T10:29:38Z</time>
      </trkpt>
      <trkpt lat="45.86296" lon="4.80266">
        <ele>397</ele>
        <time>2012-01-15T10:29:39Z</time>
      </trkpt>
      <trkpt lat="45.86297" lon="4.80274">
        <ele>396</ele>
        <time>2012-01-15T10:29:41Z</time>
      </trkpt>
      <trkpt lat="45.86299" lon="4.80281">
        <ele>396</ele>
        <time>2012-01-15T10:29:43Z</time>
      </trkpt>
      <trkpt lat="45.86303" lon="4.80292">
        <ele>395</ele>
        <time>2012-01-15T10:29:46Z</time>
      </trkpt>
      <trkpt lat="45.86307" lon="4.80302">
        <ele>395</ele>
        <time>2012-01-15T10:29:49Z</time>
      </trkpt>
      <trkpt lat="45.86313" lon="4.80316">
        <ele>394</ele>
        <time>2012-01-15T10:29:53Z</time>
      </trkpt>
      <trkpt lat="45.86316" lon="4.80323">
        <ele>393</ele>
        <time>2012-01-15T10:29:55Z</time>
      </trkpt>
      <trkpt lat="45.86325" lon="4.80339">
        <ele>389</ele>
        <time>2012-01-15T10:30:00Z</time>
      </trkpt>
      <trkpt lat="45.86329" lon="4.80362">
        <ele>386</ele>
        <time>2012-01-15T10:30:06Z</time>
      </trkpt>
      <trkpt lat="45.86329" lon="4.80366">
        <ele>385</ele>
        <time>2012-01-15T10:30:07Z</time>
      </trkpt>
      <trkpt lat="45.8633" lon="4.80369">
        <ele>385</ele>
        <time>2012-01-15T10:30:10Z</time>
      </trkpt>
      <trkpt lat="45.86331" lon="4.8037">
        <ele>385</ele>
        <time>2012-01-15T10:30:12Z</time>
      </trkpt>
      <trkpt lat="45.86333" lon="4.80376">
        <ele>384</ele>
        <time>2012-01-15T10:30:15Z</time>
      </trkpt>
      <trkpt lat="45.86337" lon="4.80389">
        <ele>389</ele>
        <time>2012-01-15T10:30:19Z</time>
      </trkpt>
      <trkpt lat="45.86339" lon="4.80392">
        <ele>389</ele>
        <time>2012-01-15T10:30:20Z</time>
      </trkpt>
      <trkpt lat="45.86347" lon="4.80414">
        <ele>386</ele>
        <time>2012-01-15T10:30:26Z</time>
      </trkpt>
      <trkpt lat="45.86354" lon="4.8044">
        <ele>379</ele>
        <time>2012-01-15T10:30:33Z</time>
      </trkpt>
      <trkpt lat="45.86355" lon="4.80444">
        <ele>379</ele>
        <time>2012-01-15T10:30:35Z</time>
      </trkpt>
      <trkpt lat="45.86355" lon="4.80446">
        <ele>379</ele>
        <time>2012-01-15T10:30:37Z</time>
      </trkpt>
      <trkpt lat="45.86355" lon="4.80445">
        <ele>379</ele>
        <time>2012-01-15T10:30:44Z</time>
      </trkpt>
      <trkpt lat="45.86354" lon="4.80442">
        <ele>379</ele>
        <time>2012-01-15T10:30:46Z</time>
      </trkpt>
      <trkpt lat="45.86352" lon="4.80443">
        <ele>379</ele>
        <time>2012-01-15T10:30:49Z</time>
      </trkpt>
      <trkpt lat="45.86352" lon="4.80444">
        <ele>379</ele>
        <time>2012-01-15T10:30:50Z</time>
      </trkpt>
      <trkpt lat="45.8635" lon="4.80453">
        <ele>378</ele>
        <time>2012-01-15T10:30:53Z</time>
      </trkpt>
      <trkpt lat="45.8635" lon="4.80456">
        <ele>378</ele>
        <time>2012-01-15T10:30:54Z</time>
      </trkpt>
      <trkpt lat="45.86346" lon="4.80457">
        <ele>377</ele>
        <time>2012-01-15T10:30:56Z</time>
      </trkpt>
      <trkpt lat="45.86334" lon="4.80457">
        <ele>377</ele>
        <time>2012-01-15T10:31:01Z</time>
      </trkpt>
      <trkpt lat="45.86334" lon="4.80457">
        <ele>377</ele>
        <time>2012-01-15T10:31:02Z</time>
      </trkpt>
      <trkpt lat="45.86333" lon="4.80458">
        <ele>376</ele>
        <time>2012-01-15T10:31:03Z</time>
      </trkpt>
      <trkpt lat="45.86334" lon="4.80465">
        <ele>375</ele>
        <time>2012-01-15T10:31:05Z</time>
      </trkpt>
      <trkpt lat="45.86335" lon="4.80478">
        <ele>373</ele>
        <time>2012-01-15T10:31:09Z</time>
      </trkpt>
      <trkpt lat="45.86333" lon="4.80479">
        <ele>372</ele>
        <time>2012-01-15T10:31:10Z</time>
      </trkpt>
      <trkpt lat="45.86331" lon="4.80478">
        <ele>368</ele>
        <time>2012-01-15T10:31:11Z</time>
      </trkpt>
      <trkpt lat="45.86327" lon="4.80477">
        <ele>368</ele>
        <time>2012-01-15T10:31:13Z</time>
      </trkpt>
      <trkpt lat="45.86324" lon="4.80487">
        <ele>367</ele>
        <time>2012-01-15T10:31:16Z</time>
      </trkpt>
      <trkpt lat="45.86321" lon="4.80494">
        <ele>366</ele>
        <time>2012-01-15T10:31:18Z</time>
      </trkpt>
      <trkpt lat="45.86317" lon="4.805">
        <ele>366</ele>
        <time>2012-01-15T10:31:20Z</time>
      </trkpt>
      <trkpt lat="45.86307" lon="4.80513">
        <ele>359</ele>
        <time>2012-01-15T10:31:25Z</time>
      </trkpt>
      <trkpt lat="45.86304" lon="4.80518">
        <ele>358</ele>
        <time>2012-01-15T10:31:27Z</time>
      </trkpt>
      <trkpt lat="45.86299" lon="4.80521">
        <ele>358</ele>
        <time>2012-01-15T10:31:30Z</time>
      </trkpt>
      <trkpt lat="45.86295" lon="4.80521">
        <ele>358</ele>
        <time>2012-01-15T10:31:33Z</time>
      </trkpt>
      <trkpt lat="45.86292" lon="4.80518">
        <ele>358</ele>
        <time>2012-01-15T10:31:36Z</time>
      </trkpt>
      <trkpt lat="45.86291" lon="4.80517">
        <ele>358</ele>
        <time>2012-01-15T10:31:37Z</time>
      </trkpt>
      <trkpt lat="45.86289" lon="4.80515">
        <ele>358</ele>
        <time>2012-01-15T10:31:39Z</time>
      </trkpt>
      <trkpt lat="45.86287" lon="4.80514">
        <ele>358</ele>
        <time>2012-01-15T10:31:40Z</time>
      </trkpt>
      <trkpt lat="45.86273" lon="4.80509">
        <ele>359</ele>
        <time>2012-01-15T10:31:46Z</time>
      </trkpt>
      <trkpt lat="45.86271" lon="4.80509">
        <ele>359</ele>
        <time>2012-01-15T10:31:47Z</time>
      </trkpt>
      <trkpt lat="45.86259" lon="4.80512">
        <ele>360</ele>
        <time>2012-01-15T10:31:53Z</time>
      </trkpt>
      <trkpt lat="45.86255" lon="4.80514">
        <ele>360</ele>
        <time>2012-01-15T10:31:55Z</time>
      </trkpt>
      <trkpt lat="45.86247" lon="4.8052">
        <ele>360</ele>
        <time>2012-01-15T10:31:59Z</time>
      </trkpt>
      <trkpt lat="45.86239" lon="4.80526">
        <ele>360</ele>
        <time>2012-01-15T10:32:04Z</time>
      </trkpt>
      <trkpt lat="45.86237" lon="4.80528">
        <ele>360</ele>
        <time>2012-01-15T10:32:05Z</time>
      </trkpt>
      <trkpt lat="45.86227" lon="4.80535">
        <ele>359</ele>
        <time>2012-01-15T10:32:10Z</time>
      </trkpt>
      <trkpt lat="45.86222" lon="4.80537">
        <ele>359</ele>
        <time>2012-01-15T10:32:12Z</time>
      </trkpt>
      <trkpt lat="45.86213" lon="4.80541">
        <ele>359</ele>
        <time>2012-01-15T10:32:16Z</time>
      </trkpt>
      <trkpt lat="45.86205" lon="4.80543">
        <ele>359</ele>
        <time>2012-01-15T10:32:20Z</time>
      </trkpt>
      <trkpt lat="45.86203" lon="4.80543">
        <ele>359</ele>
        <time>2012-01-15T10:32:21Z</time>
      </trkpt>
      <trkpt lat="45.86194" lon="4.80542">
        <ele>360</ele>
        <time>2012-01-15T10:32:27Z</time>
      </trkpt>
      <trkpt lat="45.86186" lon="4.80541">
        <ele>360</ele>
        <time>2012-01-15T10:32:32Z</time>
      </trkpt>
      <trkpt lat="45.86182" lon="4.80539">
        <ele>361</ele>
        <time>2012-01-15T10:32:35Z</time>
      </trkpt>
      <trkpt lat="45.8617" lon="4.80534">
        <ele>362</ele>
        <time>2012-01-15T10:32:43Z</time>
      </trkpt>
      <trkpt lat="45.86168" lon="4.80533">
        <ele>362</ele>
        <time>2012-01-15T10:32:44Z</time>
      </trkpt>
      <trkpt lat="45.86156" lon="4.80529">
        <ele>364</ele>
        <time>2012-01-15T10:32:52Z</time>
      </trkpt>
      <trkpt lat="45.8615" lon="4.80527">
        <ele>365</ele>
        <time>2012-01-15T10:32:57Z</time>
      </trkpt>
      <trkpt lat="45.86145" lon="4.80525">
        <ele>365</ele>
        <time>2012-01-15T10:33:01Z</time>
      </trkpt>
      <trkpt lat="45.86133" lon="4.8052">
        <ele>365</ele>
        <time>2012-01-15T10:33:10Z</time>
      </trkpt>
      <trkpt lat="45.86132" lon="4.8052">
        <ele>364</ele>
        <time>2012-01-15T10:33:11Z</time>
      </trkpt>
      <trkpt lat="45.86126" lon="4.80518">
        <ele>364</ele>
        <time>2012-01-15T10:33:15Z</time>
      </trkpt>
      <trkpt lat="45.86115" lon="4.80513">
        <ele>365</ele>
        <time>2012-01-15T10:33:23Z</time>
      </trkpt>
      <trkpt lat="45.86096" lon="4.80506">
        <ele>365</ele>
        <time>2012-01-15T10:33:34Z</time>
      </trkpt>
      <trkpt lat="45.86094" lon="4.80506">
        <ele>366</ele>
        <time>2012-01-15T10:33:35Z</time>
      </trkpt>
      <trkpt lat="45.8608" lon="4.80497">
        <ele>368</ele>
        <time>2012-01-15T10:33:44Z</time>
      </trkpt>
      <trkpt lat="45.86078" lon="4.80496">
        <ele>368</ele>
        <time>2012-01-15T10:33:45Z</time>
      </trkpt>
      <trkpt lat="45.86063" lon="4.80487">
        <ele>370</ele>
        <time>2012-01-15T10:33:54Z</time>
      </trkpt>
      <trkpt lat="45.8606" lon="4.80485">
        <ele>370</ele>
        <time>2012-01-15T10:33:56Z</time>
      </trkpt>
      <trkpt lat="45.8605" lon="4.80477">
        <ele>371</ele>
        <time>2012-01-15T10:34:03Z</time>
      </trkpt>
      <trkpt lat="45.86044" lon="4.80472">
        <ele>371</ele>
        <time>2012-01-15T10:34:07Z</time>
      </trkpt>
      <trkpt lat="45.86036" lon="4.80466">
        <ele>371</ele>
        <time>2012-01-15T10:34:12Z</time>
      </trkpt>
      <trkpt lat="45.86027" lon="4.80458">
        <ele>371</ele>
        <time>2012-01-15T10:34:18Z</time>
      </trkpt>
      <trkpt lat="45.86021" lon="4.80453">
        <ele>372</ele>
        <time>2012-01-15T10:34:22Z</time>
      </trkpt>
      <trkpt lat="45.86011" lon="4.80442">
        <ele>372</ele>
        <time>2012-01-15T10:34:27Z</time>
      </trkpt>
      <trkpt lat="45.86009" lon="4.8044">
        <ele>373</ele>
        <time>2012-01-15T10:34:28Z</time>
      </trkpt>
      <trkpt lat="45.85998" lon="4.80428">
        <ele>372</ele>
        <time>2012-01-15T10:34:34Z</time>
      </trkpt>
      <trkpt lat="45.85996" lon="4.80426">
        <ele>373</ele>
        <time>2012-01-15T10:34:35Z</time>
      </trkpt>
      <trkpt lat="45.85984" lon="4.80414">
        <ele>378</ele>
        <time>2012-01-15T10:34:41Z</time>
      </trkpt>
      <trkpt lat="45.85979" lon="4.8041">
        <ele>378</ele>
        <time>2012-01-15T10:34:43Z</time>
      </trkpt>
      <trkpt lat="45.8597" lon="4.80403">
        <ele>379</ele>
        <time>2012-01-15T10:34:48Z</time>
      </trkpt>
      <trkpt lat="45.85962" lon="4.80398">
        <ele>379</ele>
        <time>2012-01-15T10:34:52Z</time>
      </trkpt>
      <trkpt lat="45.85958" lon="4.80394">
        <ele>379</ele>
        <time>2012-01-15T10:34:54Z</time>
      </trkpt>
      <trkpt lat="45.85947" lon="4.80387">
        <ele>379</ele>
        <time>2012-01-15T10:35:00Z</time>
      </trkpt>
      <trkpt lat="45.85945" lon="4.80385">
        <ele>379</ele>
        <time>2012-01-15T10:35:01Z</time>
      </trkpt>
      <trkpt lat="45.85931" lon="4.80375">
        <ele>380</ele>
        <time>2012-01-15T10:35:08Z</time>
      </trkpt>
      <trkpt lat="45.85927" lon="4.80373">
        <ele>380</ele>
        <time>2012-01-15T10:35:10Z</time>
      </trkpt>
      <trkpt lat="45.85918" lon="4.80366">
        <ele>381</ele>
        <time>2012-01-15T10:35:15Z</time>
      </trkpt>
      <trkpt lat="45.85911" lon="4.8036">
        <ele>380</ele>
        <time>2012-01-15T10:35:19Z</time>
      </trkpt>
      <trkpt lat="45.85907" lon="4.80358">
        <ele>380</ele>
        <time>2012-01-15T10:35:21Z</time>
      </trkpt>
      <trkpt lat="45.85894" lon="4.80348">
        <ele>380</ele>
        <time>2012-01-15T10:35:27Z</time>
      </trkpt>
      <trkpt lat="45.85892" lon="4.80346">
        <ele>380</ele>
        <time>2012-01-15T10:35:28Z</time>
      </trkpt>
      <trkpt lat="45.85877" lon="4.80337">
        <ele>380</ele>
        <time>2012-01-15T10:35:35Z</time>
      </trkpt>
      <trkpt lat="45.85862" lon="4.80327">
        <ele>386</ele>
        <time>2012-01-15T10:35:42Z</time>
      </trkpt>
      <trkpt lat="45.8586" lon="4.80326">
        <ele>386</ele>
        <time>2012-01-15T10:35:43Z</time>
      </trkpt>
      <trkpt lat="45.85852" lon="4.80319">
        <ele>385</ele>
        <time>2012-01-15T10:35:48Z</time>
      </trkpt>
      <trkpt lat="45.85843" lon="4.80313">
        <ele>385</ele>
        <time>2012-01-15T10:35:53Z</time>
      </trkpt>
      <trkpt lat="45.85839" lon="4.80311">
        <ele>386</ele>
        <time>2012-01-15T10:35:55Z</time>
      </trkpt>
      <trkpt lat="45.85825" lon="4.80302">
        <ele>385</ele>
        <time>2012-01-15T10:36:01Z</time>
      </trkpt>
      <trkpt lat="45.85813" lon="4.80293">
        <ele>385</ele>
        <time>2012-01-15T10:36:07Z</time>
      </trkpt>
      <trkpt lat="45.85808" lon="4.8029">
        <ele>385</ele>
        <time>2012-01-15T10:36:09Z</time>
      </trkpt>
      <trkpt lat="45.858" lon="4.80283">
        <ele>386</ele>
        <time>2012-01-15T10:36:13Z</time>
      </trkpt>
      <trkpt lat="45.8579" lon="4.80277">
        <ele>386</ele>
        <time>2012-01-15T10:36:18Z</time>
      </trkpt>
      <trkpt lat="45.85788" lon="4.80275">
        <ele>386</ele>
        <time>2012-01-15T10:36:19Z</time>
      </trkpt>
      <trkpt lat="45.85779" lon="4.80269">
        <ele>386</ele>
        <time>2012-01-15T10:36:24Z</time>
      </trkpt>
      <trkpt lat="45.85774" lon="4.80267">
        <ele>386</ele>
        <time>2012-01-15T10:36:27Z</time>
      </trkpt>
      <trkpt lat="45.85772" lon="4.80266">
        <ele>386</ele>
        <time>2012-01-15T10:36:28Z</time>
      </trkpt>
      <trkpt lat="45.85771" lon="4.80264">
        <ele>386</ele>
        <time>2012-01-15T10:36:29Z</time>
      </trkpt>
      <trkpt lat="45.85763" lon="4.80256">
        <ele>386</ele>
        <time>2012-01-15T10:36:33Z</time>
      </trkpt>
      <trkpt lat="45.85762" lon="4.80255">
        <ele>386</ele>
        <time>2012-01-15T10:36:34Z</time>
      </trkpt>
      <trkpt lat="45.85756" lon="4.80252">
        <ele>387</ele>
        <time>2012-01-15T10:36:37Z</time>
      </trkpt>
      <trkpt lat="45.85753" lon="4.80257">
        <ele>386</ele>
        <time>2012-01-15T10:36:39Z</time>
      </trkpt>
      <trkpt lat="45.85744" lon="4.80265">
        <ele>380</ele>
        <time>2012-01-15T10:36:43Z</time>
      </trkpt>
      <trkpt lat="45.85741" lon="4.80265">
        <ele>379</ele>
        <time>2012-01-15T10:36:44Z</time>
      </trkpt>
      <trkpt lat="45.85732" lon="4.80255">
        <ele>379</ele>
        <time>2012-01-15T10:36:48Z</time>
      </trkpt>
      <trkpt lat="45.85728" lon="4.80249">
        <ele>381</ele>
        <time>2012-01-15T10:36:50Z</time>
      </trkpt>
      <trkpt lat="45.85727" lon="4.80245">
        <ele>381</ele>
        <time>2012-01-15T10:36:51Z</time>
      </trkpt>
      <trkpt lat="45.85723" lon="4.80235">
        <ele>380</ele>
        <time>2012-01-15T10:36:54Z</time>
      </trkpt>
      <trkpt lat="45.85717" lon="4.80219">
        <ele>379</ele>
        <time>2012-01-15T10:36:59Z</time>
      </trkpt>
      <trkpt lat="45.85718" lon="4.80208">
        <ele>379</ele>
        <time>2012-01-15T10:37:03Z</time>
      </trkpt>
      <trkpt lat="45.85718" lon="4.80207">
        <ele>379</ele>
        <time>2012-01-15T10:37:04Z</time>
      </trkpt>
      <trkpt lat="45.85716" lon="4.80206">
        <ele>379</ele>
        <time>2012-01-15T10:37:07Z</time>
      </trkpt>
      <trkpt lat="45.85716" lon="4.80216">
        <ele>379</ele>
        <time>2012-01-15T10:37:10Z</time>
      </trkpt>
      <trkpt lat="45.85716" lon="4.8022">
        <ele>379</ele>
        <time>2012-01-15T10:37:11Z</time>
      </trkpt>
      <trkpt lat="45.85716" lon="4.80233">
        <ele>379</ele>
        <time>2012-01-15T10:37:14Z</time>
      </trkpt>
      <trkpt lat="45.85716" lon="4.80241">
        <ele>379</ele>
        <time>2012-01-15T10:37:16Z</time>
      </trkpt>
      <trkpt lat="45.85715" lon="4.80249">
        <ele>379</ele>
        <time>2012-01-15T10:37:18Z</time>
      </trkpt>
      <trkpt lat="45.85713" lon="4.80252">
        <ele>375</ele>
        <time>2012-01-15T10:37:19Z</time>
      </trkpt>
      <trkpt lat="45.85708" lon="4.80261">
        <ele>373</ele>
        <time>2012-01-15T10:37:24Z</time>
      </trkpt>
      <trkpt lat="45.85702" lon="4.8027">
        <ele>372</ele>
        <time>2012-01-15T10:37:27Z</time>
      </trkpt>
      <trkpt lat="45.85698" lon="4.80276">
        <ele>371</ele>
        <time>2012-01-15T10:37:29Z</time>
      </trkpt>
      <trkpt lat="45.85692" lon="4.80287">
        <ele>370</ele>
        <time>2012-01-15T10:37:33Z</time>
      </trkpt>
      <trkpt lat="45.85689" lon="4.80293">
        <ele>370</ele>
        <time>2012-01-15T10:37:35Z</time>
      </trkpt>
      <trkpt lat="45.85686" lon="4.80299">
        <ele>369</ele>
        <time>2012-01-15T10:37:38Z</time>
      </trkpt>
      <trkpt lat="45.8568" lon="4.80309">
        <ele>367</ele>
        <time>2012-01-15T10:37:46Z</time>
      </trkpt>
      <trkpt lat="45.85676" lon="4.80312">
        <ele>366</ele>
        <time>2012-01-15T10:37:50Z</time>
      </trkpt>
      <trkpt lat="45.85672" lon="4.80316">
        <ele>364</ele>
        <time>2012-01-15T10:37:55Z</time>
      </trkpt>
      <trkpt lat="45.85665" lon="4.80324">
        <ele>353</ele>
        <time>2012-01-15T10:38:02Z</time>
      </trkpt>
      <trkpt lat="45.85662" lon="4.80329">
        <ele>354</ele>
        <time>2012-01-15T10:38:07Z</time>
      </trkpt>
      <trkpt lat="45.85658" lon="4.80334">
        <ele>351</ele>
        <time>2012-01-15T10:38:12Z</time>
      </trkpt>
      <trkpt lat="45.85652" lon="4.80342">
        <ele>347</ele>
        <time>2012-01-15T10:38:19Z</time>
      </trkpt>
      <trkpt lat="45.85649" lon="4.80348">
        <ele>344</ele>
        <time>2012-01-15T10:38:22Z</time>
      </trkpt>
      <trkpt lat="45.85649" lon="4.80356">
        <ele>343</ele>
        <time>2012-01-15T10:38:24Z</time>
      </trkpt>
      <trkpt lat="45.85649" lon="4.80374">
        <ele>340</ele>
        <time>2012-01-15T10:38:28Z</time>
      </trkpt>
      <trkpt lat="45.8565" lon="4.80378">
        <ele>340</ele>
        <time>2012-01-15T10:38:29Z</time>
      </trkpt>
      <trkpt lat="45.8565" lon="4.80383">
        <ele>340</ele>
        <time>2012-01-15T10:38:30Z</time>
      </trkpt>
      <trkpt lat="45.85652" lon="4.804">
        <ele>340</ele>
        <time>2012-01-15T10:38:34Z</time>
      </trkpt>
      <trkpt lat="45.85652" lon="4.8042">
        <ele>337</ele>
        <time>2012-01-15T10:38:39Z</time>
      </trkpt>
      <trkpt lat="45.85653" lon="4.80426">
        <ele>336</ele>
        <time>2012-01-15T10:38:42Z</time>
      </trkpt>
      <trkpt lat="45.85652" lon="4.80427">
        <ele>336</ele>
        <time>2012-01-15T10:38:43Z</time>
      </trkpt>
      <trkpt lat="45.85652" lon="4.80429">
        <ele>335</ele>
        <time>2012-01-15T10:38:44Z</time>
      </trkpt>
      <trkpt lat="45.85649" lon="4.80439">
        <ele>333</ele>
        <time>2012-01-15T10:38:51Z</time>
      </trkpt>
      <trkpt lat="45.85645" lon="4.8045">
        <ele>330</ele>
        <time>2012-01-15T10:38:58Z</time>
      </trkpt>
      <trkpt lat="45.85645" lon="4.80451">
        <ele>330</ele>
        <time>2012-01-15T10:38:59Z</time>
      </trkpt>
      <trkpt lat="45.8564" lon="4.80459">
        <ele>329</ele>
        <time>2012-01-15T10:39:05Z</time>
      </trkpt>
      <trkpt lat="45.85639" lon="4.80464">
        <ele>328</ele>
        <time>2012-01-15T10:39:08Z</time>
      </trkpt>
      <trkpt lat="45.85638" lon="4.80469">
        <ele>328</ele>
        <time>2012-01-15T10:39:11Z</time>
      </trkpt>
      <trkpt lat="45.85638" lon="4.80475">
        <ele>327</ele>
        <time>2012-01-15T10:39:14Z</time>
      </trkpt>
      <trkpt lat="45.85637" lon="4.80483">
        <ele>327</ele>
        <time>2012-01-15T10:39:19Z</time>
      </trkpt>
      <trkpt lat="45.85636" lon="4.80489">
        <ele>327</ele>
        <time>2012-01-15T10:39:23Z</time>
      </trkpt>
      <trkpt lat="45.85636" lon="4.80491">
        <ele>327</ele>
        <time>2012-01-15T10:39:24Z</time>
      </trkpt>
      <trkpt lat="45.85636" lon="4.80497">
        <ele>327</ele>
        <time>2012-01-15T10:39:27Z</time>
      </trkpt>
      <trkpt lat="45.85637" lon="4.80501">
        <ele>320</ele>
        <time>2012-01-15T10:39:29Z</time>
      </trkpt>
      <trkpt lat="45.85638" lon="4.80503">
        <ele>320</ele>
        <time>2012-01-15T10:39:30Z</time>
      </trkpt>
      <trkpt lat="45.85639" lon="4.8052">
        <ele>319</ele>
        <time>2012-01-15T10:39:35Z</time>
      </trkpt>
      <trkpt lat="45.8564" lon="4.80528">
        <ele>318</ele>
        <time>2012-01-15T10:39:38Z</time>
      </trkpt>
      <trkpt lat="45.85639" lon="4.80535">
        <ele>318</ele>
        <time>2012-01-15T10:39:41Z</time>
      </trkpt>
      <trkpt lat="45.85636" lon="4.80551">
        <ele>316</ele>
        <time>2012-01-15T10:39:47Z</time>
      </trkpt>
      <trkpt lat="45.85635" lon="4.80553">
        <ele>316</ele>
        <time>2012-01-15T10:39:49Z</time>
      </trkpt>
      <trkpt lat="45.85632" lon="4.80556">
        <ele>315</ele>
        <time>2012-01-15T10:39:52Z</time>
      </trkpt>
      <trkpt lat="45.85631" lon="4.80558">
        <ele>315</ele>
        <time>2012-01-15T10:39:54Z</time>
      </trkpt>
      <trkpt lat="45.85626" lon="4.80554">
        <ele>315</ele>
        <time>2012-01-15T10:39:57Z</time>
      </trkpt>
      <trkpt lat="45.85619" lon="4.80551">
        <ele>314</ele>
        <time>2012-01-15T10:40:01Z</time>
      </trkpt>
      <trkpt lat="45.85617" lon="4.8055">
        <ele>314</ele>
        <time>2012-01-15T10:40:02Z</time>
      </trkpt>
      <trkpt lat="45.85609" lon="4.80551">
        <ele>313</ele>
        <time>2012-01-15T10:40:06Z</time>
      </trkpt>
      <trkpt lat="45.856" lon="4.80558">
        <ele>312</ele>
        <time>2012-01-15T10:40:11Z</time>
      </trkpt>
      <trkpt lat="45.85588" lon="4.80573">
        <ele>308</ele>
        <time>2012-01-15T10:40:18Z</time>
      </trkpt>
      <trkpt lat="45.85586" lon="4.80575">
        <ele>307</ele>
        <time>2012-01-15T10:40:19Z</time>
      </trkpt>
      <trkpt lat="45.85577" lon="4.80585">
        <ele>305</ele>
        <time>2012-01-15T10:40:24Z</time>
      </trkpt>
      <trkpt lat="45.85572" lon="4.80593">
        <ele>306</ele>
        <time>2012-01-15T10:40:27Z</time>
      </trkpt>
      <trkpt lat="45.8557" lon="4.806">
        <ele>306</ele>
        <time>2012-01-15T10:40:29Z</time>
      </trkpt>
      <trkpt lat="45.85568" lon="4.80618">
        <ele>306</ele>
        <time>2012-01-15T10:40:34Z</time>
      </trkpt>
      <trkpt lat="45.85566" lon="4.80641">
        <ele>306</ele>
        <time>2012-01-15T10:40:41Z</time>
      </trkpt>
      <trkpt lat="45.85565" lon="4.80643">
        <ele>306</ele>
        <time>2012-01-15T10:40:42Z</time>
      </trkpt>
      <trkpt lat="45.85562" lon="4.80652">
        <ele>306</ele>
        <time>2012-01-15T10:40:46Z</time>
      </trkpt>
      <trkpt lat="45.85561" lon="4.80654">
        <ele>306</ele>
        <time>2012-01-15T10:40:48Z</time>
      </trkpt>
      <trkpt lat="45.85559" lon="4.80654">
        <ele>306</ele>
        <time>2012-01-15T10:40:50Z</time>
      </trkpt>
      <trkpt lat="45.85558" lon="4.80653">
        <ele>306</ele>
        <time>2012-01-15T10:40:51Z</time>
      </trkpt>
      <trkpt lat="45.85557" lon="4.80652">
        <ele>306</ele>
        <time>2012-01-15T10:40:57Z</time>
      </trkpt>
      <trkpt lat="45.85555" lon="4.80653">
        <ele>307</ele>
        <time>2012-01-15T10:41:09Z</time>
      </trkpt>
      <trkpt lat="45.85552" lon="4.80656">
        <ele>307</ele>
        <time>2012-01-15T10:41:23Z</time>
      </trkpt>
      <trkpt lat="45.85551" lon="4.80656">
        <ele>307</ele>
        <time>2012-01-15T10:41:24Z</time>
      </trkpt>
      <trkpt lat="45.85549" lon="4.80656">
        <ele>307</ele>
        <time>2012-01-15T10:41:27Z</time>
      </trkpt>
      <trkpt lat="45.85548" lon="4.80655">
        <ele>307</ele>
        <time>2012-01-15T10:41:28Z</time>
      </trkpt>
      <trkpt lat="45.85544" lon="4.80644">
        <ele>308</ele>
        <time>2012-01-15T10:41:33Z</time>
      </trkpt>
      <trkpt lat="45.85543" lon="4.80642">
        <ele>308</ele>
        <time>2012-01-15T10:41:34Z</time>
      </trkpt>
      <trkpt lat="45.85541" lon="4.80637">
        <ele>308</ele>
        <time>2012-01-15T10:41:36Z</time>
      </trkpt>
      <trkpt lat="45.85537" lon="4.80629">
        <ele>308</ele>
        <time>2012-01-15T10:41:39Z</time>
      </trkpt>
      <trkpt lat="45.85529" lon="4.80615">
        <ele>308</ele>
        <time>2012-01-15T10:41:45Z</time>
      </trkpt>
      <trkpt lat="45.8552" lon="4.806">
        <ele>309</ele>
        <time>2012-01-15T10:41:51Z</time>
      </trkpt>
      <trkpt lat="45.85516" lon="4.80594">
        <ele>309</ele>
        <time>2012-01-15T10:41:54Z</time>
      </trkpt>
      <trkpt lat="45.85511" lon="4.80584">
        <ele>309</ele>
        <time>2012-01-15T10:41:58Z</time>
      </trkpt>
      <trkpt lat="45.85505" lon="4.80571">
        <ele>309</ele>
        <time>2012-01-15T10:42:03Z</time>
      </trkpt>
      <trkpt lat="45.85503" lon="4.80566">
        <ele>309</ele>
        <time>2012-01-15T10:42:05Z</time>
      </trkpt>
      <trkpt lat="45.85496" lon="4.80551">
        <ele>316</ele>
        <time>2012-01-15T10:42:11Z</time>
      </trkpt>
      <trkpt lat="45.85495" lon="4.80548">
        <ele>316</ele>
        <time>2012-01-15T10:42:12Z</time>
      </trkpt>
      <trkpt lat="45.85492" lon="4.80534">
        <ele>316</ele>
        <time>2012-01-15T10:42:17Z</time>
      </trkpt>
      <trkpt lat="45.85489" lon="4.80523">
        <ele>316</ele>
        <time>2012-01-15T10:42:21Z</time>
      </trkpt>
      <trkpt lat="45.85488" lon="4.80521">
        <ele>316</ele>
        <time>2012-01-15T10:42:22Z</time>
      </trkpt>
      <trkpt lat="45.85485" lon="4.80507">
        <ele>315</ele>
        <time>2012-01-15T10:42:27Z</time>
      </trkpt>
      <trkpt lat="45.85483" lon="4.80498">
        <ele>314</ele>
        <time>2012-01-15T10:42:30Z</time>
      </trkpt>
      <trkpt lat="45.85483" lon="4.80496">
        <ele>314</ele>
        <time>2012-01-15T10:42:31Z</time>
      </trkpt>
      <trkpt lat="45.85483" lon="4.80482">
        <ele>315</ele>
        <time>2012-01-15T10:42:36Z</time>
      </trkpt>
      <trkpt lat="45.85483" lon="4.80471">
        <ele>315</ele>
        <time>2012-01-15T10:42:40Z</time>
      </trkpt>
      <trkpt lat="45.8548" lon="4.80454">
        <ele>316</ele>
        <time>2012-01-15T10:42:45Z</time>
      </trkpt>
      <trkpt lat="45.85478" lon="4.80444">
        <ele>316</ele>
        <time>2012-01-15T10:42:49Z</time>
      </trkpt>
      <trkpt lat="45.85478" lon="4.80442">
        <ele>316</ele>
        <time>2012-01-15T10:42:50Z</time>
      </trkpt>
      <trkpt lat="45.85476" lon="4.80428">
        <ele>316</ele>
        <time>2012-01-15T10:42:55Z</time>
      </trkpt>
      <trkpt lat="45.85475" lon="4.80419">
        <ele>316</ele>
        <time>2012-01-15T10:42:58Z</time>
      </trkpt>
      <trkpt lat="45.85474" lon="4.80403">
        <ele>316</ele>
        <time>2012-01-15T10:43:03Z</time>
      </trkpt>
      <trkpt lat="45.85472" lon="4.8039">
        <ele>317</ele>
        <time>2012-01-15T10:43:07Z</time>
      </trkpt>
      <trkpt lat="45.85472" lon="4.80384">
        <ele>317</ele>
        <time>2012-01-15T10:43:09Z</time>
      </trkpt>
      <trkpt lat="45.85472" lon="4.80368">
        <ele>317</ele>
        <time>2012-01-15T10:43:14Z</time>
      </trkpt>
      <trkpt lat="45.85471" lon="4.80362">
        <ele>317</ele>
        <time>2012-01-15T10:43:16Z</time>
      </trkpt>
      <trkpt lat="45.85469" lon="4.8035">
        <ele>318</ele>
        <time>2012-01-15T10:43:20Z</time>
      </trkpt>
      <trkpt lat="45.85466" lon="4.80336">
        <ele>318</ele>
        <time>2012-01-15T10:43:25Z</time>
      </trkpt>
      <trkpt lat="45.85466" lon="4.80333">
        <ele>320</ele>
        <time>2012-01-15T10:43:26Z</time>
      </trkpt>
      <trkpt lat="45.8546" lon="4.80317">
        <ele>320</ele>
        <time>2012-01-15T10:43:32Z</time>
      </trkpt>
      <trkpt lat="45.85459" lon="4.80312">
        <ele>320</ele>
        <time>2012-01-15T10:43:34Z</time>
      </trkpt>
      <trkpt lat="45.85455" lon="4.80301">
        <ele>320</ele>
        <time>2012-01-15T10:43:38Z</time>
      </trkpt>
      <trkpt lat="45.8545" lon="4.80288">
        <ele>321</ele>
        <time>2012-01-15T10:43:43Z</time>
      </trkpt>
      <trkpt lat="45.85449" lon="4.80286">
        <ele>321</ele>
        <time>2012-01-15T10:43:44Z</time>
      </trkpt>
      <trkpt lat="45.85444" lon="4.80271">
        <ele>322</ele>
        <time>2012-01-15T10:43:50Z</time>
      </trkpt>
      <trkpt lat="45.85441" lon="4.80264">
        <ele>322</ele>
        <time>2012-01-15T10:43:53Z</time>
      </trkpt>
      <trkpt lat="45.85437" lon="4.80253">
        <ele>323</ele>
        <time>2012-01-15T10:43:57Z</time>
      </trkpt>
      <trkpt lat="45.85433" lon="4.80238">
        <ele>325</ele>
        <time>2012-01-15T10:44:03Z</time>
      </trkpt>
      <trkpt lat="45.85432" lon="4.80235">
        <ele>325</ele>
        <time>2012-01-15T10:44:04Z</time>
      </trkpt>
      <trkpt lat="45.8543" lon="4.80223">
        <ele>325</ele>
        <time>2012-01-15T10:44:09Z</time>
      </trkpt>
      <trkpt lat="45.85428" lon="4.80221">
        <ele>325</ele>
        <time>2012-01-15T10:44:10Z</time>
      </trkpt>
      <trkpt lat="45.85422" lon="4.80217">
        <ele>326</ele>
        <time>2012-01-15T10:44:13Z</time>
      </trkpt>
      <trkpt lat="45.85418" lon="4.80214">
        <ele>326</ele>
        <time>2012-01-15T10:44:15Z</time>
      </trkpt>
      <trkpt lat="45.85409" lon="4.80207">
        <ele>331</ele>
        <time>2012-01-15T10:44:20Z</time>
      </trkpt>
      <trkpt lat="45.85406" lon="4.80207">
        <ele>331</ele>
        <time>2012-01-15T10:44:22Z</time>
      </trkpt>
      <trkpt lat="45.85404" lon="4.80207">
        <ele>331</ele>
        <time>2012-01-15T10:44:23Z</time>
      </trkpt>
      <trkpt lat="45.85403" lon="4.80207">
        <ele>331</ele>
        <time>2012-01-15T10:44:24Z</time>
      </trkpt>
      <trkpt lat="45.85398" lon="4.80208">
        <ele>331</ele>
        <time>2012-01-15T10:44:28Z</time>
      </trkpt>
      <trkpt lat="45.85395" lon="4.80209">
        <ele>331</ele>
        <time>2012-01-15T10:44:30Z</time>
      </trkpt>
      <trkpt lat="45.85386" lon="4.80213">
        <ele>332</ele>
        <time>2012-01-15T10:44:36Z</time>
      </trkpt>
      <trkpt lat="45.85384" lon="4.80214">
        <ele>332</ele>
        <time>2012-01-15T10:44:37Z</time>
      </trkpt>
      <trkpt lat="45.85374" lon="4.80215">
        <ele>332</ele>
        <time>2012-01-15T10:44:44Z</time>
      </trkpt>
      <trkpt lat="45.85367" lon="4.80216">
        <ele>333</ele>
        <time>2012-01-15T10:44:49Z</time>
      </trkpt>
      <trkpt lat="45.85359" lon="4.80215">
        <ele>333</ele>
        <time>2012-01-15T10:44:54Z</time>
      </trkpt>
      <trkpt lat="45.85358" lon="4.80216">
        <ele>333</ele>
        <time>2012-01-15T10:44:55Z</time>
      </trkpt>
      <trkpt lat="45.85353" lon="4.80217">
        <ele>333</ele>
        <time>2012-01-15T10:44:59Z</time>
      </trkpt>
      <trkpt lat="45.85352" lon="4.80216">
        <ele>333</ele>
        <time>2012-01-15T10:45:00Z</time>
      </trkpt>
      <trkpt lat="45.85349" lon="4.80213">
        <ele>334</ele>
        <time>2012-01-15T10:45:03Z</time>
      </trkpt>
      <trkpt lat="45.85345" lon="4.80208">
        <ele>334</ele>
        <time>2012-01-15T10:45:08Z</time>
      </trkpt>
      <trkpt lat="45.85341" lon="4.80203">
        <ele>334</ele>
        <time>2012-01-15T10:45:13Z</time>
      </trkpt>
      <trkpt lat="45.8534" lon="4.80202">
        <ele>334</ele>
        <time>2012-01-15T10:45:14Z</time>
      </trkpt>
      <trkpt lat="45.85337" lon="4.80197">
        <ele>334</ele>
        <time>2012-01-15T10:45:19Z</time>
      </trkpt>
      <trkpt lat="45.85336" lon="4.80196">
        <ele>334</ele>
        <time>2012-01-15T10:45:20Z</time>
      </trkpt>
      <trkpt lat="45.85334" lon="4.80194">
        <ele>335</ele>
        <time>2012-01-15T10:45:22Z</time>
      </trkpt>
      <trkpt lat="45.85333" lon="4.80192">
        <ele>343</ele>
        <time>2012-01-15T10:45:24Z</time>
      </trkpt>
      <trkpt lat="45.85332" lon="4.80191">
        <ele>343</ele>
        <time>2012-01-15T10:45:25Z</time>
      </trkpt>
      <trkpt lat="45.85331" lon="4.8019">
        <ele>343</ele>
        <time>2012-01-15T10:45:26Z</time>
      </trkpt>
      <trkpt lat="45.85328" lon="4.80188">
        <ele>343</ele>
        <time>2012-01-15T10:45:30Z</time>
      </trkpt>
      <trkpt lat="45.85326" lon="4.80187">
        <ele>343</ele>
        <time>2012-01-15T10:45:32Z</time>
      </trkpt>
      <trkpt lat="45.85321" lon="4.8018">
        <ele>342</ele>
        <time>2012-01-15T10:45:38Z</time>
      </trkpt>
      <trkpt lat="45.85318" lon="4.80177">
        <ele>343</ele>
        <time>2012-01-15T10:45:43Z</time>
      </trkpt>
      <trkpt lat="45.85315" lon="4.80179">
        <ele>343</ele>
        <time>2012-01-15T10:45:48Z</time>
      </trkpt>
      <trkpt lat="45.85311" lon="4.80178">
        <ele>344</ele>
        <time>2012-01-15T10:45:51Z</time>
      </trkpt>
      <trkpt lat="45.85308" lon="4.80177">
        <ele>344</ele>
        <time>2012-01-15T10:45:54Z</time>
      </trkpt>
      <trkpt lat="45.85307" lon="4.80177">
        <ele>344</ele>
        <time>2012-01-15T10:45:55Z</time>
      </trkpt>
      <trkpt lat="45.85304" lon="4.80179">
        <ele>345</ele>
        <time>2012-01-15T10:45:58Z</time>
      </trkpt>
      <trkpt lat="45.85303" lon="4.80179">
        <ele>345</ele>
        <time>2012-01-15T10:45:59Z</time>
      </trkpt>
      <trkpt lat="45.85297" lon="4.80178">
        <ele>346</ele>
        <time>2012-01-15T10:46:05Z</time>
      </trkpt>
      <trkpt lat="45.85293" lon="4.80175">
        <ele>347</ele>
        <time>2012-01-15T10:46:10Z</time>
      </trkpt>
      <trkpt lat="45.85287" lon="4.8017">
        <ele>347</ele>
        <time>2012-01-15T10:46:17Z</time>
      </trkpt>
      <trkpt lat="45.85286" lon="4.80169">
        <ele>348</ele>
        <time>2012-01-15T10:46:18Z</time>
      </trkpt>
      <trkpt lat="45.8528" lon="4.80165">
        <ele>351</ele>
        <time>2012-01-15T10:46:24Z</time>
      </trkpt>
      <trkpt lat="45.85274" lon="4.80158">
        <ele>351</ele>
        <time>2012-01-15T10:46:31Z</time>
      </trkpt>
      <trkpt lat="45.85271" lon="4.80156">
        <ele>352</ele>
        <time>2012-01-15T10:46:34Z</time>
      </trkpt>
      <trkpt lat="45.85267" lon="4.80152">
        <ele>352</ele>
        <time>2012-01-15T10:46:39Z</time>
      </trkpt>
      <trkpt lat="45.85261" lon="4.80146">
        <ele>353</ele>
        <time>2012-01-15T10:46:46Z</time>
      </trkpt>
      <trkpt lat="45.85257" lon="4.8014">
        <ele>353</ele>
        <time>2012-01-15T10:46:51Z</time>
      </trkpt>
      <trkpt lat="45.85256" lon="4.80139">
        <ele>353</ele>
        <time>2012-01-15T10:46:52Z</time>
      </trkpt>
      <trkpt lat="45.85251" lon="4.80134">
        <ele>353</ele>
        <time>2012-01-15T10:46:58Z</time>
      </trkpt>
      <trkpt lat="45.85245" lon="4.80129">
        <ele>369</ele>
        <time>2012-01-15T10:47:05Z</time>
      </trkpt>
      <trkpt lat="45.85242" lon="4.80126">
        <ele>369</ele>
        <time>2012-01-15T10:47:09Z</time>
      </trkpt>
      <trkpt lat="45.8524" lon="4.80123">
        <ele>370</ele>
        <time>2012-01-15T10:47:12Z</time>
      </trkpt>
      <trkpt lat="45.85234" lon="4.80116">
        <ele>370</ele>
        <time>2012-01-15T10:47:19Z</time>
      </trkpt>
      <trkpt lat="45.85229" lon="4.80109">
        <ele>371</ele>
        <time>2012-01-15T10:47:26Z</time>
      </trkpt>
      <trkpt lat="45.85228" lon="4.80108">
        <ele>371</ele>
        <time>2012-01-15T10:47:27Z</time>
      </trkpt>
      <trkpt lat="45.85225" lon="4.80102">
        <ele>372</ele>
        <time>2012-01-15T10:47:32Z</time>
      </trkpt>
      <trkpt lat="45.85224" lon="4.801">
        <ele>372</ele>
        <time>2012-01-15T10:47:33Z</time>
      </trkpt>
      <trkpt lat="45.85223" lon="4.80088">
        <ele>372</ele>
        <time>2012-01-15T10:47:41Z</time>
      </trkpt>
      <trkpt lat="45.85222" lon="4.80084">
        <ele>372</ele>
        <time>2012-01-15T10:47:43Z</time>
      </trkpt>
      <trkpt lat="45.85219" lon="4.80073">
        <ele>375</ele>
        <time>2012-01-15T10:47:50Z</time>
      </trkpt>
      <trkpt lat="45.85218" lon="4.80069">
        <ele>376</ele>
        <time>2012-01-15T10:47:53Z</time>
      </trkpt>
      <trkpt lat="45.85216" lon="4.80068">
        <ele>376</ele>
        <time>2012-01-15T10:47:55Z</time>
      </trkpt>
      <trkpt lat="45.85212" lon="4.80064">
        <ele>377</ele>
        <time>2012-01-15T10:47:59Z</time>
      </trkpt>
      <trkpt lat="45.85211" lon="4.80061">
        <ele>378</ele>
        <time>2012-01-15T10:48:01Z</time>
      </trkpt>
      <trkpt lat="45.85211" lon="4.80056">
        <ele>378</ele>
        <time>2012-01-15T10:48:06Z</time>
      </trkpt>
      <trkpt lat="45.85211" lon="4.80055">
        <ele>377</ele>
        <time>2012-01-15T10:48:08Z</time>
      </trkpt>
      <trkpt lat="45.85214" lon="4.80052">
        <ele>377</ele>
        <time>2012-01-15T10:48:14Z</time>
      </trkpt>
      <trkpt lat="45.85215" lon="4.80049">
        <ele>377</ele>
        <time>2012-01-15T10:48:16Z</time>
      </trkpt>
      <trkpt lat="45.85214" lon="4.80047">
        <ele>377</ele>
        <time>2012-01-15T10:48:19Z</time>
      </trkpt>
      <trkpt lat="45.85214" lon="4.80041">
        <ele>377</ele>
        <time>2012-01-15T10:48:40Z</time>
      </trkpt>
      <trkpt lat="45.85214" lon="4.80037">
        <ele>377</ele>
        <time>2012-01-15T10:48:44Z</time>
      </trkpt>
      <trkpt lat="45.85211" lon="4.80023">
        <ele>377</ele>
        <time>2012-01-15T10:48:50Z</time>
      </trkpt>
      <trkpt lat="45.85209" lon="4.80016">
        <ele>378</ele>
        <time>2012-01-15T10:48:53Z</time>
      </trkpt>
      <trkpt lat="45.85207" lon="4.80011">
        <ele>378</ele>
        <time>2012-01-15T10:48:56Z</time>
      </trkpt>
      <trkpt lat="45.85204" lon="4.8">
        <ele>379</ele>
        <time>2012-01-15T10:49:02Z</time>
      </trkpt>
      <trkpt lat="45.85201" lon="4.79996">
        <ele>378</ele>
        <time>2012-01-15T10:49:05Z</time>
      </trkpt>
      <trkpt lat="45.852" lon="4.79994">
        <ele>378</ele>
        <time>2012-01-15T10:49:06Z</time>
      </trkpt>
      <trkpt lat="45.852" lon="4.79992">
        <ele>378</ele>
        <time>2012-01-15T10:49:07Z</time>
      </trkpt>
      <trkpt lat="45.85199" lon="4.79984">
        <ele>378</ele>
        <time>2012-01-15T10:49:12Z</time>
      </trkpt>
      <trkpt lat="45.85194" lon="4.79984">
        <ele>379</ele>
        <time>2012-01-15T10:49:16Z</time>
      </trkpt>
      <trkpt lat="45.85193" lon="4.79985">
        <ele>379</ele>
        <time>2012-01-15T10:49:17Z</time>
      </trkpt>
      <trkpt lat="45.85191" lon="4.79989">
        <ele>380</ele>
        <time>2012-01-15T10:49:21Z</time>
      </trkpt>
      <trkpt lat="45.8519" lon="4.79989">
        <ele>380</ele>
        <time>2012-01-15T10:49:22Z</time>
      </trkpt>
      <trkpt lat="45.85188" lon="4.79993">
        <ele>382</ele>
        <time>2012-01-15T10:49:26Z</time>
      </trkpt>
      <trkpt lat="45.85185" lon="4.79995">
        <ele>383</ele>
        <time>2012-01-15T10:49:28Z</time>
      </trkpt>
      <trkpt lat="45.85182" lon="4.79994">
        <ele>384</ele>
        <time>2012-01-15T10:49:32Z</time>
      </trkpt>
      <trkpt lat="45.85181" lon="4.79993">
        <ele>384</ele>
        <time>2012-01-15T10:49:34Z</time>
      </trkpt>
      <trkpt lat="45.85177" lon="4.79996">
        <ele>386</ele>
        <time>2012-01-15T10:49:40Z</time>
      </trkpt>
      <trkpt lat="45.85176" lon="4.79999">
        <ele>387</ele>
        <time>2012-01-15T10:49:42Z</time>
      </trkpt>
      <trkpt lat="45.85173" lon="4.80001">
        <ele>390</ele>
        <time>2012-01-15T10:49:45Z</time>
      </trkpt>
      <trkpt lat="45.85166" lon="4.80005">
        <ele>395</ele>
        <time>2012-01-15T10:49:51Z</time>
      </trkpt>
      <trkpt lat="45.8516" lon="4.80009">
        <ele>397</ele>
        <time>2012-01-15T10:49:58Z</time>
      </trkpt>
      <trkpt lat="45.85159" lon="4.8001">
        <ele>398</ele>
        <time>2012-01-15T10:49:59Z</time>
      </trkpt>
      <trkpt lat="45.85158" lon="4.80012">
        <ele>399</ele>
        <time>2012-01-15T10:50:03Z</time>
      </trkpt>
      <trkpt lat="45.85157" lon="4.80019">
        <ele>400</ele>
        <time>2012-01-15T10:50:08Z</time>
      </trkpt>
      <trkpt lat="45.85154" lon="4.80022">
        <ele>401</ele>
        <time>2012-01-15T10:50:12Z</time>
      </trkpt>
      <trkpt lat="45.85153" lon="4.80022">
        <ele>401</ele>
        <time>2012-01-15T10:50:13Z</time>
      </trkpt>
      <trkpt lat="45.85149" lon="4.80022">
        <ele>401</ele>
        <time>2012-01-15T10:50:22Z</time>
      </trkpt>
      <trkpt lat="45.85145" lon="4.80021">
        <ele>402</ele>
        <time>2012-01-15T10:50:25Z</time>
      </trkpt>
      <trkpt lat="45.85144" lon="4.80021">
        <ele>402</ele>
        <time>2012-01-15T10:50:27Z</time>
      </trkpt>
      <trkpt lat="45.85143" lon="4.80022">
        <ele>402</ele>
        <time>2012-01-15T10:50:28Z</time>
      </trkpt>
      <trkpt lat="45.85141" lon="4.80022">
        <ele>403</ele>
        <time>2012-01-15T10:50:30Z</time>
      </trkpt>
      <trkpt lat="45.85138" lon="4.80019">
        <ele>403</ele>
        <time>2012-01-15T10:50:33Z</time>
      </trkpt>
      <trkpt lat="45.85135" lon="4.80016">
        <ele>404</ele>
        <time>2012-01-15T10:50:36Z</time>
      </trkpt>
      <trkpt lat="45.85134" lon="4.80013">
        <ele>404</ele>
        <time>2012-01-15T10:50:38Z</time>
      </trkpt>
      <trkpt lat="45.85131" lon="4.80008">
        <ele>405</ele>
        <time>2012-01-15T10:50:42Z</time>
      </trkpt>
      <trkpt lat="45.8513" lon="4.80006">
        <ele>405</ele>
        <time>2012-01-15T10:50:44Z</time>
      </trkpt>
      <trkpt lat="45.85126" lon="4.80001">
        <ele>406</ele>
        <time>2012-01-15T10:50:50Z</time>
      </trkpt>
      <trkpt lat="45.85125" lon="4.80001">
        <ele>406</ele>
        <time>2012-01-15T10:50:52Z</time>
      </trkpt>
      <trkpt lat="45.85122" lon="4.80002">
        <ele>407</ele>
        <time>2012-01-15T10:50:56Z</time>
      </trkpt>
      <trkpt lat="45.85117" lon="4.80002">
        <ele>408</ele>
        <time>2012-01-15T10:51:02Z</time>
      </trkpt>
      <trkpt lat="45.85118" lon="4.80006">
        <ele>408</ele>
        <time>2012-01-15T10:51:05Z</time>
      </trkpt>
      <trkpt lat="45.85118" lon="4.80007">
        <ele>408</ele>
        <time>2012-01-15T10:51:06Z</time>
      </trkpt>
      <trkpt lat="45.85118" lon="4.8001">
        <ele>408</ele>
        <time>2012-01-15T10:51:08Z</time>
      </trkpt>
      <trkpt lat="45.85118" lon="4.80015">
        <ele>407</ele>
        <time>2012-01-15T10:51:12Z</time>
      </trkpt>
      <trkpt lat="45.85118" lon="4.80017">
        <ele>407</ele>
        <time>2012-01-15T10:51:14Z</time>
      </trkpt>
      <trkpt lat="45.85117" lon="4.8002">
        <ele>407</ele>
        <time>2012-01-15T10:51:18Z</time>
      </trkpt>
      <trkpt lat="45.85117" lon="4.80021">
        <ele>407</ele>
        <time>2012-01-15T10:51:19Z</time>
      </trkpt>
      <trkpt lat="45.85117" lon="4.80025">
        <ele>407</ele>
        <time>2012-01-15T10:51:23Z</time>
      </trkpt>
      <trkpt lat="45.85116" lon="4.80031">
        <ele>407</ele>
        <time>2012-01-15T10:51:27Z</time>
      </trkpt>
      <trkpt lat="45.85116" lon="4.80034">
        <ele>407</ele>
        <time>2012-01-15T10:51:29Z</time>
      </trkpt>
      <trkpt lat="45.85114" lon="4.80035">
        <ele>407</ele>
        <time>2012-01-15T10:51:30Z</time>
      </trkpt>
      <trkpt lat="45.85108" lon="4.80037">
        <ele>408</ele>
        <time>2012-01-15T10:51:35Z</time>
      </trkpt>
      <trkpt lat="45.851" lon="4.80043">
        <ele>409</ele>
        <time>2012-01-15T10:51:40Z</time>
      </trkpt>
      <trkpt lat="45.85094" lon="4.80046">
        <ele>409</ele>
        <time>2012-01-15T10:51:46Z</time>
      </trkpt>
      <trkpt lat="45.85089" lon="4.80049">
        <ele>410</ele>
        <time>2012-01-15T10:51:52Z</time>
      </trkpt>
      <trkpt lat="45.85087" lon="4.8005">
        <ele>410</ele>
        <time>2012-01-15T10:51:56Z</time>
      </trkpt>
      <trkpt lat="45.85086" lon="4.8005">
        <ele>410</ele>
        <time>2012-01-15T10:51:58Z</time>
      </trkpt>
      <trkpt lat="45.85083" lon="4.80053">
        <ele>410</ele>
        <time>2012-01-15T10:52:04Z</time>
      </trkpt>
      <trkpt lat="45.8508" lon="4.80053">
        <ele>419</ele>
        <time>2012-01-15T10:52:11Z</time>
      </trkpt>
      <trkpt lat="45.85079" lon="4.80056">
        <ele>419</ele>
        <time>2012-01-15T10:52:18Z</time>
      </trkpt>
      <trkpt lat="45.85075" lon="4.8006">
        <ele>418</ele>
        <time>2012-01-15T10:52:22Z</time>
      </trkpt>
      <trkpt lat="45.8507" lon="4.80069">
        <ele>418</ele>
        <time>2012-01-15T10:52:27Z</time>
      </trkpt>
      <trkpt lat="45.8507" lon="4.80071">
        <ele>418</ele>
        <time>2012-01-15T10:52:28Z</time>
      </trkpt>
      <trkpt lat="45.85071" lon="4.80082">
        <ele>417</ele>
        <time>2012-01-15T10:52:32Z</time>
      </trkpt>
      <trkpt lat="45.85072" lon="4.80087">
        <ele>415</ele>
        <time>2012-01-15T10:52:34Z</time>
      </trkpt>
      <trkpt lat="45.85072" lon="4.80091">
        <ele>415</ele>
        <time>2012-01-15T10:52:35Z</time>
      </trkpt>
      <trkpt lat="45.85072" lon="4.80094">
        <ele>415</ele>
        <time>2012-01-15T10:52:36Z</time>
      </trkpt>
      <trkpt lat="45.85072" lon="4.80102">
        <ele>416</ele>
        <time>2012-01-15T10:52:38Z</time>
      </trkpt>
      <trkpt lat="45.85071" lon="4.80109">
        <ele>416</ele>
        <time>2012-01-15T10:52:42Z</time>
      </trkpt>
      <trkpt lat="45.85071" lon="4.80112">
        <ele>416</ele>
        <time>2012-01-15T10:52:45Z</time>
      </trkpt>
      <trkpt lat="45.85068" lon="4.80115">
        <ele>416</ele>
        <time>2012-01-15T10:52:47Z</time>
      </trkpt>
      <trkpt lat="45.85065" lon="4.80117">
        <ele>416</ele>
        <time>2012-01-15T10:52:49Z</time>
      </trkpt>
      <trkpt lat="45.85058" lon="4.80123">
        <ele>416</ele>
        <time>2012-01-15T10:52:54Z</time>
      </trkpt>
      <trkpt lat="45.85051" lon="4.80129">
        <ele>416</ele>
        <time>2012-01-15T10:53:00Z</time>
      </trkpt>
      <trkpt lat="45.85049" lon="4.8013">
        <ele>416</ele>
        <time>2012-01-15T10:53:01Z</time>
      </trkpt>
      <trkpt lat="45.85039" lon="4.8014">
        <ele>416</ele>
        <time>2012-01-15T10:53:08Z</time>
      </trkpt>
      <trkpt lat="45.85033" lon="4.80145">
        <ele>417</ele>
        <time>2012-01-15T10:53:13Z</time>
      </trkpt>
      <trkpt lat="45.85032" lon="4.80146">
        <ele>417</ele>
        <time>2012-01-15T10:53:14Z</time>
      </trkpt>
      <trkpt lat="45.85021" lon="4.80157">
        <ele>417</ele>
        <time>2012-01-15T10:53:21Z</time>
      </trkpt>
      <trkpt lat="45.85018" lon="4.80161">
        <ele>418</ele>
        <time>2012-01-15T10:53:23Z</time>
      </trkpt>
      <trkpt lat="45.85012" lon="4.80167">
        <ele>418</ele>
        <time>2012-01-15T10:53:27Z</time>
      </trkpt>
      <trkpt lat="45.85006" lon="4.80179">
        <ele>418</ele>
        <time>2012-01-15T10:53:33Z</time>
      </trkpt>
      <trkpt lat="45.85006" lon="4.8018">
        <ele>418</ele>
        <time>2012-01-15T10:53:34Z</time>
      </trkpt>
      <trkpt lat="45.85005" lon="4.80182">
        <ele>418</ele>
        <time>2012-01-15T10:53:37Z</time>
      </trkpt>
      <trkpt lat="45.85005" lon="4.80183">
        <ele>418</ele>
        <time>2012-01-15T10:53:38Z</time>
      </trkpt>
      <trkpt lat="45.85011" lon="4.80196">
        <ele>417</ele>
        <time>2012-01-15T10:53:44Z</time>
      </trkpt>
      <trkpt lat="45.85014" lon="4.80201">
        <ele>417</ele>
        <time>2012-01-15T10:53:46Z</time>
      </trkpt>
      <trkpt lat="45.85021" lon="4.80211">
        <ele>417</ele>
        <time>2012-01-15T10:53:51Z</time>
      </trkpt>
      <trkpt lat="45.85028" lon="4.8022">
        <ele>416</ele>
        <time>2012-01-15T10:53:55Z</time>
      </trkpt>
      <trkpt lat="45.8503" lon="4.80222">
        <ele>416</ele>
        <time>2012-01-15T10:53:56Z</time>
      </trkpt>
      <trkpt lat="45.8504" lon="4.8024">
        <ele>415</ele>
        <time>2012-01-15T10:54:03Z</time>
      </trkpt>
      <trkpt lat="45.85045" lon="4.80251">
        <ele>415</ele>
        <time>2012-01-15T10:54:07Z</time>
      </trkpt>
      <trkpt lat="45.85043" lon="4.80254">
        <ele>415</ele>
        <time>2012-01-15T10:54:08Z</time>
      </trkpt>
      <trkpt lat="45.85037" lon="4.80257">
        <ele>416</ele>
        <time>2012-01-15T10:54:12Z</time>
      </trkpt>
      <trkpt lat="45.85035" lon="4.80258">
        <ele>416</ele>
        <time>2012-01-15T10:54:13Z</time>
      </trkpt>
      <trkpt lat="45.85027" lon="4.80262">
        <ele>417</ele>
        <time>2012-01-15T10:54:20Z</time>
      </trkpt>
      <trkpt lat="45.8502" lon="4.80268">
        <ele>418</ele>
        <time>2012-01-15T10:54:26Z</time>
      </trkpt>
      <trkpt lat="45.85019" lon="4.80269">
        <ele>418</ele>
        <time>2012-01-15T10:54:27Z</time>
      </trkpt>
      <trkpt lat="45.85008" lon="4.8028">
        <ele>418</ele>
        <time>2012-01-15T10:54:35Z</time>
      </trkpt>
      <trkpt lat="45.85005" lon="4.80284">
        <ele>418</ele>
        <time>2012-01-15T10:54:38Z</time>
      </trkpt>
      <trkpt lat="45.85001" lon="4.80288">
        <ele>419</ele>
        <time>2012-01-15T10:54:41Z</time>
      </trkpt>
      <trkpt lat="45.84997" lon="4.80293">
        <ele>428</ele>
        <time>2012-01-15T10:54:46Z</time>
      </trkpt>
      <trkpt lat="45.84996" lon="4.80294">
        <ele>428</ele>
        <time>2012-01-15T10:54:47Z</time>
      </trkpt>
      <trkpt lat="45.84995" lon="4.80297">
        <ele>429</ele>
        <time>2012-01-15T10:54:50Z</time>
      </trkpt>
      <trkpt lat="45.84991" lon="4.80302">
        <ele>429</ele>
        <time>2012-01-15T10:54:54Z</time>
      </trkpt>
      <trkpt lat="45.84991" lon="4.80304">
        <ele>429</ele>
        <time>2012-01-15T10:54:55Z</time>
      </trkpt>
      <trkpt lat="45.8499" lon="4.80306">
        <ele>429</ele>
        <time>2012-01-15T10:54:57Z</time>
      </trkpt>
      <trkpt lat="45.84986" lon="4.80311">
        <ele>429</ele>
        <time>2012-01-15T10:55:01Z</time>
      </trkpt>
      <trkpt lat="45.8498" lon="4.80321">
        <ele>429</ele>
        <time>2012-01-15T10:55:08Z</time>
      </trkpt>
      <trkpt lat="45.84979" lon="4.80322">
        <ele>429</ele>
        <time>2012-01-15T10:55:09Z</time>
      </trkpt>
      <trkpt lat="45.84974" lon="4.80329">
        <ele>430</ele>
        <time>2012-01-15T10:55:14Z</time>
      </trkpt>
      <trkpt lat="45.84969" lon="4.80336">
        <ele>436</ele>
        <time>2012-01-15T10:55:20Z</time>
      </trkpt>
      <trkpt lat="45.84965" lon="4.8034">
        <ele>437</ele>
        <time>2012-01-15T10:55:24Z</time>
      </trkpt>
      <trkpt lat="45.84961" lon="4.80344">
        <ele>438</ele>
        <time>2012-01-15T10:55:28Z</time>
      </trkpt>
      <trkpt lat="45.84959" lon="4.80347">
        <ele>439</ele>
        <time>2012-01-15T10:55:31Z</time>
      </trkpt>
      <trkpt lat="45.84956" lon="4.8035">
        <ele>439</ele>
        <time>2012-01-15T10:55:34Z</time>
      </trkpt>
      <trkpt lat="45.84956" lon="4.80351">
        <ele>439</ele>
        <time>2012-01-15T10:55:35Z</time>
      </trkpt>
      <trkpt lat="45.84951" lon="4.80358">
        <ele>440</ele>
        <time>2012-01-15T10:55:41Z</time>
      </trkpt>
      <trkpt lat="45.8495" lon="4.80358">
        <ele>440</ele>
        <time>2012-01-15T10:55:42Z</time>
      </trkpt>
      <trkpt lat="45.84947" lon="4.8036">
        <ele>441</ele>
        <time>2012-01-15T10:55:45Z</time>
      </trkpt>
      <trkpt lat="45.84944" lon="4.80364">
        <ele>442</ele>
        <time>2012-01-15T10:55:48Z</time>
      </trkpt>
      <trkpt lat="45.84942" lon="4.80368">
        <ele>442</ele>
        <time>2012-01-15T10:55:52Z</time>
      </trkpt>
      <trkpt lat="45.8494" lon="4.80374">
        <ele>443</ele>
        <time>2012-01-15T10:55:57Z</time>
      </trkpt>
      <trkpt lat="45.84939" lon="4.80376">
        <ele>443</ele>
        <time>2012-01-15T10:55:58Z</time>
      </trkpt>
      <trkpt lat="45.84939" lon="4.80377">
        <ele>443</ele>
        <time>2012-01-15T10:55:59Z</time>
      </trkpt>
      <trkpt lat="45.84938" lon="4.80382">
        <ele>444</ele>
        <time>2012-01-15T10:56:04Z</time>
      </trkpt>
      <trkpt lat="45.84938" lon="4.8039">
        <ele>446</ele>
        <time>2012-01-15T10:56:10Z</time>
      </trkpt>
      <trkpt lat="45.84937" lon="4.80391">
        <ele>446</ele>
        <time>2012-01-15T10:56:12Z</time>
      </trkpt>
      <trkpt lat="45.84936" lon="4.80395">
        <ele>447</ele>
        <time>2012-01-15T10:56:14Z</time>
      </trkpt>
      <trkpt lat="45.84936" lon="4.804">
        <ele>448</ele>
        <time>2012-01-15T10:56:18Z</time>
      </trkpt>
      <trkpt lat="45.84937" lon="4.80402">
        <ele>448</ele>
        <time>2012-01-15T10:56:19Z</time>
      </trkpt>
      <trkpt lat="45.84938" lon="4.80405">
        <ele>448</ele>
        <time>2012-01-15T10:56:21Z</time>
      </trkpt>
      <trkpt lat="45.8494" lon="4.80413">
        <ele>448</ele>
        <time>2012-01-15T10:56:29Z</time>
      </trkpt>
      <trkpt lat="45.8494" lon="4.80413">
        <ele>448</ele>
        <time>2012-01-15T10:56:30Z</time>
      </trkpt>
      <trkpt lat="45.8494" lon="4.80415">
        <ele>448</ele>
        <time>2012-01-15T10:56:32Z</time>
      </trkpt>
      <trkpt lat="45.8494" lon="4.80419">
        <ele>457</ele>
        <time>2012-01-15T10:56:35Z</time>
      </trkpt>
      <trkpt lat="45.84941" lon="4.80425">
        <ele>457</ele>
        <time>2012-01-15T10:56:40Z</time>
      </trkpt>
      <trkpt lat="45.84941" lon="4.80428">
        <ele>457</ele>
        <time>2012-01-15T10:56:43Z</time>
      </trkpt>
      <trkpt lat="45.8494" lon="4.80433">
        <ele>457</ele>
        <time>2012-01-15T10:56:46Z</time>
      </trkpt>
      <trkpt lat="45.84939" lon="4.80435">
        <ele>458</ele>
        <time>2012-01-15T10:56:47Z</time>
      </trkpt>
      <trkpt lat="45.84935" lon="4.80435">
        <ele>458</ele>
        <time>2012-01-15T10:56:51Z</time>
      </trkpt>
      <trkpt lat="45.84933" lon="4.80433">
        <ele>459</ele>
        <time>2012-01-15T10:56:53Z</time>
      </trkpt>
      <trkpt lat="45.84927" lon="4.80429">
        <ele>459</ele>
        <time>2012-01-15T10:56:58Z</time>
      </trkpt>
      <trkpt lat="45.84926" lon="4.80429">
        <ele>460</ele>
        <time>2012-01-15T10:56:59Z</time>
      </trkpt>
      <trkpt lat="45.84924" lon="4.80431">
        <ele>460</ele>
        <time>2012-01-15T10:57:05Z</time>
      </trkpt>
      <trkpt lat="45.84924" lon="4.80433">
        <ele>460</ele>
        <time>2012-01-15T10:57:07Z</time>
      </trkpt>
      <trkpt lat="45.84926" lon="4.80436">
        <ele>459</ele>
        <time>2012-01-15T10:57:09Z</time>
      </trkpt>
      <trkpt lat="45.84932" lon="4.80449">
        <ele>460</ele>
        <time>2012-01-15T10:57:16Z</time>
      </trkpt>
      <trkpt lat="45.84935" lon="4.8046">
        <ele>461</ele>
        <time>2012-01-15T10:57:21Z</time>
      </trkpt>
      <trkpt lat="45.84938" lon="4.80474">
        <ele>463</ele>
        <time>2012-01-15T10:57:28Z</time>
      </trkpt>
      <trkpt lat="45.84944" lon="4.80488">
        <ele>464</ele>
        <time>2012-01-15T10:57:35Z</time>
      </trkpt>
      <trkpt lat="45.84947" lon="4.80497">
        <ele>464</ele>
        <time>2012-01-15T10:57:40Z</time>
      </trkpt>
      <trkpt lat="45.84952" lon="4.80509">
        <ele>472</ele>
        <time>2012-01-15T10:57:47Z</time>
      </trkpt>
      <trkpt lat="45.84954" lon="4.80522">
        <ele>472</ele>
        <time>2012-01-15T10:57:54Z</time>
      </trkpt>
      <trkpt lat="45.84954" lon="4.80524">
        <ele>472</ele>
        <time>2012-01-15T10:57:55Z</time>
      </trkpt>
      <trkpt lat="45.84952" lon="4.80525">
        <ele>472</ele>
        <time>2012-01-15T10:57:57Z</time>
      </trkpt>
      <trkpt lat="45.84951" lon="4.80526">
        <ele>473</ele>
        <time>2012-01-15T10:57:59Z</time>
      </trkpt>
      <trkpt lat="45.84949" lon="4.80525">
        <ele>473</ele>
        <time>2012-01-15T10:58:01Z</time>
      </trkpt>
      <trkpt lat="45.84947" lon="4.80522">
        <ele>473</ele>
        <time>2012-01-15T10:58:03Z</time>
      </trkpt>
      <trkpt lat="45.84943" lon="4.80515">
        <ele>474</ele>
        <time>2012-01-15T10:58:08Z</time>
      </trkpt>
      <trkpt lat="45.84941" lon="4.80512">
        <ele>475</ele>
        <time>2012-01-15T10:58:10Z</time>
      </trkpt>
      <trkpt lat="45.84939" lon="4.80506">
        <ele>476</ele>
        <time>2012-01-15T10:58:14Z</time>
      </trkpt>
      <trkpt lat="45.84936" lon="4.80499">
        <ele>469</ele>
        <time>2012-01-15T10:58:18Z</time>
      </trkpt>
      <trkpt lat="45.84933" lon="4.80495">
        <ele>470</ele>
        <time>2012-01-15T10:58:20Z</time>
      </trkpt>
      <trkpt lat="45.8493" lon="4.80492">
        <ele>471</ele>
        <time>2012-01-15T10:58:22Z</time>
      </trkpt>
      <trkpt lat="45.84926" lon="4.80486">
        <ele>470</ele>
        <time>2012-01-15T10:58:27Z</time>
      </trkpt>
      <trkpt lat="45.84919" lon="4.80478">
        <ele>468</ele>
        <time>2012-01-15T10:58:34Z</time>
      </trkpt>
      <trkpt lat="45.84916" lon="4.80475">
        <ele>484</ele>
        <time>2012-01-15T10:58:36Z</time>
      </trkpt>
      <trkpt lat="45.84915" lon="4.80475">
        <ele>485</ele>
        <time>2012-01-15T10:58:37Z</time>
      </trkpt>
      <trkpt lat="45.84911" lon="4.80473">
        <ele>485</ele>
        <time>2012-01-15T10:58:39Z</time>
      </trkpt>
      <trkpt lat="45.84907" lon="4.80469">
        <ele>485</ele>
        <time>2012-01-15T10:58:42Z</time>
      </trkpt>
      <trkpt lat="45.84903" lon="4.80466">
        <ele>485</ele>
        <time>2012-01-15T10:58:45Z</time>
      </trkpt>
      <trkpt lat="45.849" lon="4.80464">
        <ele>485</ele>
        <time>2012-01-15T10:58:47Z</time>
      </trkpt>
      <trkpt lat="45.84893" lon="4.80454">
        <ele>484</ele>
        <time>2012-01-15T10:58:52Z</time>
      </trkpt>
      <trkpt lat="45.84887" lon="4.80445">
        <ele>484</ele>
        <time>2012-01-15T10:58:57Z</time>
      </trkpt>
      <trkpt lat="45.84885" lon="4.80441">
        <ele>484</ele>
        <time>2012-01-15T10:58:59Z</time>
      </trkpt>
      <trkpt lat="45.84881" lon="4.80438">
        <ele>485</ele>
        <time>2012-01-15T10:59:02Z</time>
      </trkpt>
      <trkpt lat="45.84877" lon="4.80436">
        <ele>485</ele>
        <time>2012-01-15T10:59:05Z</time>
      </trkpt>
      <trkpt lat="45.84873" lon="4.80429">
        <ele>486</ele>
        <time>2012-01-15T10:59:09Z</time>
      </trkpt>
      <trkpt lat="45.8487" lon="4.80425">
        <ele>487</ele>
        <time>2012-01-15T10:59:12Z</time>
      </trkpt>
      <trkpt lat="45.84864" lon="4.80417">
        <ele>488</ele>
        <time>2012-01-15T10:59:18Z</time>
      </trkpt>
      <trkpt lat="45.84859" lon="4.80414">
        <ele>480</ele>
        <time>2012-01-15T10:59:22Z</time>
      </trkpt>
      <trkpt lat="45.84856" lon="4.80411">
        <ele>481</ele>
        <time>2012-01-15T10:59:24Z</time>
      </trkpt>
      <trkpt lat="45.84855" lon="4.80411">
        <ele>481</ele>
        <time>2012-01-15T10:59:25Z</time>
      </trkpt>
      <trkpt lat="45.84847" lon="4.80399">
        <ele>481</ele>
        <time>2012-01-15T10:59:31Z</time>
      </trkpt>
      <trkpt lat="45.84846" lon="4.80396">
        <ele>481</ele>
        <time>2012-01-15T10:59:32Z</time>
      </trkpt>
      <trkpt lat="45.84842" lon="4.80386">
        <ele>478</ele>
        <time>2012-01-15T10:59:36Z</time>
      </trkpt>
      <trkpt lat="45.84836" lon="4.80372">
        <ele>475</ele>
        <time>2012-01-15T10:59:41Z</time>
      </trkpt>
      <trkpt lat="45.84829" lon="4.8036">
        <ele>493</ele>
        <time>2012-01-15T10:59:46Z</time>
      </trkpt>
      <trkpt lat="45.84823" lon="4.80351">
        <ele>490</ele>
        <time>2012-01-15T10:59:50Z</time>
      </trkpt>
      <trkpt lat="45.84821" lon="4.80348">
        <ele>490</ele>
        <time>2012-01-15T10:59:51Z</time>
      </trkpt>
      <trkpt lat="45.84816" lon="4.80342">
        <ele>490</ele>
        <time>2012-01-15T10:59:56Z</time>
      </trkpt>
      <trkpt lat="45.84811" lon="4.80333">
        <ele>482</ele>
        <time>2012-01-15T11:00:02Z</time>
      </trkpt>
      <trkpt lat="45.8481" lon="4.80332">
        <ele>482</ele>
        <time>2012-01-15T11:00:03Z</time>
      </trkpt>
      <trkpt lat="45.84806" lon="4.80326">
        <ele>483</ele>
        <time>2012-01-15T11:00:08Z</time>
      </trkpt>
      <trkpt lat="45.84797" lon="4.80314">
        <ele>485</ele>
        <time>2012-01-15T11:00:14Z</time>
      </trkpt>
      <trkpt lat="45.84796" lon="4.80312">
        <ele>485</ele>
        <time>2012-01-15T11:00:15Z</time>
      </trkpt>
      <trkpt lat="45.8479" lon="4.80305">
        <ele>486</ele>
        <time>2012-01-15T11:00:21Z</time>
      </trkpt>
      <trkpt lat="45.84782" lon="4.80298">
        <ele>487</ele>
        <time>2012-01-15T11:00:28Z</time>
      </trkpt>
      <trkpt lat="45.84781" lon="4.80298">
        <ele>487</ele>
        <time>2012-01-15T11:00:29Z</time>
      </trkpt>
      <trkpt lat="45.84777" lon="4.80293">
        <ele>487</ele>
        <time>2012-01-15T11:00:34Z</time>
      </trkpt>
      <trkpt lat="45.84771" lon="4.80285">
        <ele>487</ele>
        <time>2012-01-15T11:00:41Z</time>
      </trkpt>
      <trkpt lat="45.84768" lon="4.80283">
        <ele>487</ele>
        <time>2012-01-15T11:00:43Z</time>
      </trkpt>
      <trkpt lat="45.84767" lon="4.80281">
        <ele>487</ele>
        <time>2012-01-15T11:00:44Z</time>
      </trkpt>
      <trkpt lat="45.84761" lon="4.80272">
        <ele>488</ele>
        <time>2012-01-15T11:00:50Z</time>
      </trkpt>
      <trkpt lat="45.84755" lon="4.80264">
        <ele>489</ele>
        <time>2012-01-15T11:00:55Z</time>
      </trkpt>
      <trkpt lat="45.84754" lon="4.80263">
        <ele>489</ele>
        <time>2012-01-15T11:00:57Z</time>
      </trkpt>
      <trkpt lat="45.84749" lon="4.80258">
        <ele>499</ele>
        <time>2012-01-15T11:01:01Z</time>
      </trkpt>
      <trkpt lat="45.8474" lon="4.80247">
        <ele>496</ele>
        <time>2012-01-15T11:01:08Z</time>
      </trkpt>
      <trkpt lat="45.84739" lon="4.80246">
        <ele>496</ele>
        <time>2012-01-15T11:01:09Z</time>
      </trkpt>
      <trkpt lat="45.84732" lon="4.80238">
        <ele>498</ele>
        <time>2012-01-15T11:01:14Z</time>
      </trkpt>
      <trkpt lat="45.84723" lon="4.80229">
        <ele>500</ele>
        <time>2012-01-15T11:01:22Z</time>
      </trkpt>
      <trkpt lat="45.84717" lon="4.80223">
        <ele>502</ele>
        <time>2012-01-15T11:01:27Z</time>
      </trkpt>
      <trkpt lat="45.84708" lon="4.80213">
        <ele>503</ele>
        <time>2012-01-15T11:01:32Z</time>
      </trkpt>
      <trkpt lat="45.847" lon="4.80202">
        <ele>504</ele>
        <time>2012-01-15T11:01:37Z</time>
      </trkpt>
      <trkpt lat="45.84694" lon="4.80195">
        <ele>505</ele>
        <time>2012-01-15T11:01:41Z</time>
      </trkpt>
      <trkpt lat="45.84693" lon="4.80194">
        <ele>505</ele>
        <time>2012-01-15T11:01:42Z</time>
      </trkpt>
      <trkpt lat="45.8469" lon="4.80192">
        <ele>505</ele>
        <time>2012-01-15T11:01:45Z</time>
      </trkpt>
      <trkpt lat="45.84687" lon="4.8019">
        <ele>506</ele>
        <time>2012-01-15T11:01:48Z</time>
      </trkpt>
      <trkpt lat="45.84685" lon="4.80189">
        <ele>506</ele>
        <time>2012-01-15T11:01:50Z</time>
      </trkpt>
      <trkpt lat="45.8468" lon="4.80182">
        <ele>508</ele>
        <time>2012-01-15T11:01:55Z</time>
      </trkpt>
      <trkpt lat="45.84679" lon="4.8018">
        <ele>508</ele>
        <time>2012-01-15T11:01:56Z</time>
      </trkpt>
      <trkpt lat="45.84674" lon="4.80172">
        <ele>511</ele>
        <time>2012-01-15T11:02:01Z</time>
      </trkpt>
      <trkpt lat="45.84672" lon="4.8017">
        <ele>512</ele>
        <time>2012-01-15T11:02:03Z</time>
      </trkpt>
      <trkpt lat="45.84667" lon="4.80166">
        <ele>514</ele>
        <time>2012-01-15T11:02:08Z</time>
      </trkpt>
      <trkpt lat="45.84665" lon="4.80165">
        <ele>515</ele>
        <time>2012-01-15T11:02:10Z</time>
      </trkpt>
      <trkpt lat="45.84663" lon="4.80163">
        <ele>516</ele>
        <time>2012-01-15T11:02:11Z</time>
      </trkpt>
      <trkpt lat="45.84661" lon="4.8016">
        <ele>516</ele>
        <time>2012-01-15T11:02:14Z</time>
      </trkpt>
      <trkpt lat="45.84657" lon="4.80155">
        <ele>517</ele>
        <time>2012-01-15T11:02:19Z</time>
      </trkpt>
      <trkpt lat="45.84655" lon="4.80152">
        <ele>517</ele>
        <time>2012-01-15T11:02:21Z</time>
      </trkpt>
      <trkpt lat="45.84652" lon="4.80147">
        <ele>517</ele>
        <time>2012-01-15T11:02:23Z</time>
      </trkpt>
      <trkpt lat="45.8465" lon="4.80144">
        <ele>518</ele>
        <time>2012-01-15T11:02:25Z</time>
      </trkpt>
      <trkpt lat="45.84646" lon="4.80139">
        <ele>518</ele>
        <time>2012-01-15T11:02:28Z</time>
      </trkpt>
      <trkpt lat="45.84638" lon="4.8013">
        <ele>518</ele>
        <time>2012-01-15T11:02:35Z</time>
      </trkpt>
      <trkpt lat="45.84636" lon="4.80126">
        <ele>518</ele>
        <time>2012-01-15T11:02:37Z</time>
      </trkpt>
      <trkpt lat="45.84632" lon="4.8012">
        <ele>518</ele>
        <time>2012-01-15T11:02:41Z</time>
      </trkpt>
      <trkpt lat="45.84631" lon="4.80118">
        <ele>518</ele>
        <time>2012-01-15T11:02:42Z</time>
      </trkpt>
      <trkpt lat="45.84629" lon="4.8011">
        <ele>517</ele>
        <time>2012-01-15T11:02:45Z</time>
      </trkpt>
      <trkpt lat="45.84627" lon="4.80103">
        <ele>517</ele>
        <time>2012-01-15T11:02:48Z</time>
      </trkpt>
      <trkpt lat="45.84623" lon="4.80093">
        <ele>518</ele>
        <time>2012-01-15T11:02:51Z</time>
      </trkpt>
      <trkpt lat="45.84614" lon="4.8008">
        <ele>509</ele>
        <time>2012-01-15T11:02:56Z</time>
      </trkpt>
      <trkpt lat="45.84603" lon="4.80073">
        <ele>512</ele>
        <time>2012-01-15T11:03:02Z</time>
      </trkpt>
      <trkpt lat="45.84598" lon="4.80066">
        <ele>512</ele>
        <time>2012-01-15T11:03:06Z</time>
      </trkpt>
      <trkpt lat="45.84597" lon="4.80066">
        <ele>512</ele>
        <time>2012-01-15T11:03:07Z</time>
      </trkpt>
      <trkpt lat="45.84596" lon="4.80065">
        <ele>512</ele>
        <time>2012-01-15T11:03:08Z</time>
      </trkpt>
      <trkpt lat="45.84594" lon="4.80064">
        <ele>512</ele>
        <time>2012-01-15T11:03:10Z</time>
      </trkpt>
      <trkpt lat="45.84593" lon="4.80066">
        <ele>513</ele>
        <time>2012-01-15T11:03:12Z</time>
      </trkpt>
      <trkpt lat="45.84593" lon="4.80066">
        <ele>513</ele>
        <time>2012-01-15T11:03:13Z</time>
      </trkpt>
      <trkpt lat="45.8459" lon="4.80066">
        <ele>514</ele>
        <time>2012-01-15T11:03:17Z</time>
      </trkpt>
      <trkpt lat="45.84589" lon="4.80066">
        <ele>514</ele>
        <time>2012-01-15T11:03:18Z</time>
      </trkpt>
      <trkpt lat="45.84585" lon="4.80064">
        <ele>514</ele>
        <time>2012-01-15T11:03:22Z</time>
      </trkpt>
      <trkpt lat="45.84581" lon="4.80063">
        <ele>527</ele>
        <time>2012-01-15T11:03:26Z</time>
      </trkpt>
      <trkpt lat="45.8458" lon="4.80061">
        <ele>527</ele>
        <time>2012-01-15T11:03:28Z</time>
      </trkpt>
      <trkpt lat="45.84576" lon="4.80058">
        <ele>527</ele>
        <time>2012-01-15T11:03:32Z</time>
      </trkpt>
      <trkpt lat="45.84573" lon="4.80057">
        <ele>527</ele>
        <time>2012-01-15T11:03:35Z</time>
      </trkpt>
      <trkpt lat="45.84572" lon="4.80057">
        <ele>527</ele>
        <time>2012-01-15T11:03:37Z</time>
      </trkpt>
      <trkpt lat="45.8457" lon="4.80056">
        <ele>527</ele>
        <time>2012-01-15T11:03:39Z</time>
      </trkpt>
      <trkpt lat="45.84565" lon="4.80055">
        <ele>528</ele>
        <time>2012-01-15T11:03:43Z</time>
      </trkpt>
      <trkpt lat="45.84564" lon="4.80055">
        <ele>528</ele>
        <time>2012-01-15T11:03:44Z</time>
      </trkpt>
      <trkpt lat="45.84562" lon="4.80055">
        <ele>528</ele>
        <time>2012-01-15T11:03:47Z</time>
      </trkpt>
      <trkpt lat="45.84561" lon="4.80055">
        <ele>528</ele>
        <time>2012-01-15T11:03:48Z</time>
      </trkpt>
      <trkpt lat="45.8456" lon="4.80055">
        <ele>528</ele>
        <time>2012-01-15T11:03:49Z</time>
      </trkpt>
      <trkpt lat="45.84557" lon="4.80051">
        <ele>528</ele>
        <time>2012-01-15T11:03:53Z</time>
      </trkpt>
      <trkpt lat="45.84557" lon="4.80049">
        <ele>528</ele>
        <time>2012-01-15T11:03:54Z</time>
      </trkpt>
      <trkpt lat="45.84552" lon="4.80046">
        <ele>528</ele>
        <time>2012-01-15T11:03:58Z</time>
      </trkpt>
      <trkpt lat="45.84549" lon="4.80044">
        <ele>528</ele>
        <time>2012-01-15T11:04:00Z</time>
      </trkpt>
      <trkpt lat="45.84545" lon="4.8004">
        <ele>529</ele>
        <time>2012-01-15T11:04:04Z</time>
      </trkpt>
      <trkpt lat="45.84539" lon="4.80034">
        <ele>529</ele>
        <time>2012-01-15T11:04:10Z</time>
      </trkpt>
      <trkpt lat="45.84536" lon="4.80033">
        <ele>529</ele>
        <time>2012-01-15T11:04:13Z</time>
      </trkpt>
      <trkpt lat="45.84533" lon="4.80031">
        <ele>529</ele>
        <time>2012-01-15T11:04:16Z</time>
      </trkpt>
      <trkpt lat="45.84531" lon="4.80029">
        <ele>529</ele>
        <time>2012-01-15T11:04:17Z</time>
      </trkpt>
      <trkpt lat="45.84528" lon="4.80023">
        <ele>529</ele>
        <time>2012-01-15T11:04:20Z</time>
      </trkpt>
      <trkpt lat="45.84525" lon="4.80015">
        <ele>529</ele>
        <time>2012-01-15T11:04:25Z</time>
      </trkpt>
      <trkpt lat="45.84521" lon="4.8001">
        <ele>530</ele>
        <time>2012-01-15T11:04:29Z</time>
      </trkpt>
      <trkpt lat="45.84517" lon="4.80008">
        <ele>530</ele>
        <time>2012-01-15T11:04:32Z</time>
      </trkpt>
      <trkpt lat="45.84513" lon="4.80006">
        <ele>531</ele>
        <time>2012-01-15T11:04:36Z</time>
      </trkpt>
      <trkpt lat="45.84511" lon="4.80005">
        <ele>531</ele>
        <time>2012-01-15T11:04:38Z</time>
      </trkpt>
      <trkpt lat="45.84503" lon="4.8">
        <ele>533</ele>
        <time>2012-01-15T11:04:44Z</time>
      </trkpt>
      <trkpt lat="45.845" lon="4.79999">
        <ele>532</ele>
        <time>2012-01-15T11:04:46Z</time>
      </trkpt>
      <trkpt lat="45.84497" lon="4.79995">
        <ele>534</ele>
        <time>2012-01-15T11:04:49Z</time>
      </trkpt>
      <trkpt lat="45.84491" lon="4.79989">
        <ele>536</ele>
        <time>2012-01-15T11:04:54Z</time>
      </trkpt>
      <trkpt lat="45.84491" lon="4.79988">
        <ele>536</ele>
        <time>2012-01-15T11:04:55Z</time>
      </trkpt>
      <trkpt lat="45.84488" lon="4.79983">
        <ele>537</ele>
        <time>2012-01-15T11:04:58Z</time>
      </trkpt>
      <trkpt lat="45.84485" lon="4.79974">
        <ele>537</ele>
        <time>2012-01-15T11:05:03Z</time>
      </trkpt>
      <trkpt lat="45.8448" lon="4.79963">
        <ele>537</ele>
        <time>2012-01-15T11:05:09Z</time>
      </trkpt>
      <trkpt lat="45.84479" lon="4.79962">
        <ele>537</ele>
        <time>2012-01-15T11:05:10Z</time>
      </trkpt>
      <trkpt lat="45.84478" lon="4.79961">
        <ele>537</ele>
        <time>2012-01-15T11:05:11Z</time>
      </trkpt>
      <trkpt lat="45.84475" lon="4.79959">
        <ele>538</ele>
        <time>2012-01-15T11:05:14Z</time>
      </trkpt>
      <trkpt lat="45.84472" lon="4.79957">
        <ele>538</ele>
        <time>2012-01-15T11:05:18Z</time>
      </trkpt>
      <trkpt lat="45.84472" lon="4.79957">
        <ele>538</ele>
        <time>2012-01-15T11:05:20Z</time>
      </trkpt>
      <trkpt lat="45.84471" lon="4.79957">
        <ele>538</ele>
        <time>2012-01-15T11:06:39Z</time>
      </trkpt>
      <trkpt lat="45.84473" lon="4.79972">
        <ele>539</ele>
        <time>2012-01-15T11:06:46Z</time>
      </trkpt>
      <trkpt lat="45.84468" lon="4.79974">
        <ele>540</ele>
        <time>2012-01-15T11:06:51Z</time>
      </trkpt>
      <trkpt lat="45.84466" lon="4.79975">
        <ele>540</ele>
        <time>2012-01-15T11:06:53Z</time>
      </trkpt>
      <trkpt lat="45.84465" lon="4.79975">
        <ele>541</ele>
        <time>2012-01-15T11:06:54Z</time>
      </trkpt>
      <trkpt lat="45.84465" lon="4.79975">
        <ele>541</ele>
        <time>2012-01-15T11:06:55Z</time>
      </trkpt>
      <trkpt lat="45.84464" lon="4.79976">
        <ele>541</ele>
        <time>2012-01-15T11:06:56Z</time>
      </trkpt>
      <trkpt lat="45.84465" lon="4.79984">
        <ele>541</ele>
        <time>2012-01-15T11:07:02Z</time>
      </trkpt>
      <trkpt lat="45.84467" lon="4.79989">
        <ele>541</ele>
        <time>2012-01-15T11:07:07Z</time>
      </trkpt>
      <trkpt lat="45.84467" lon="4.79991">
        <ele>541</ele>
        <time>2012-01-15T11:07:08Z</time>
      </trkpt>
      <trkpt lat="45.84468" lon="4.79996">
        <ele>541</ele>
        <time>2012-01-15T11:07:13Z</time>
      </trkpt>
      <trkpt lat="45.84468" lon="4.79998">
        <ele>541</ele>
        <time>2012-01-15T11:07:14Z</time>
      </trkpt>
      <trkpt lat="45.84468" lon="4.79999">
        <ele>541</ele>
        <time>2012-01-15T11:07:15Z</time>
      </trkpt>
      <trkpt lat="45.84468" lon="4.80004">
        <ele>547</ele>
        <time>2012-01-15T11:07:20Z</time>
      </trkpt>
      <trkpt lat="45.84469" lon="4.80005">
        <ele>547</ele>
        <time>2012-01-15T11:07:21Z</time>
      </trkpt>
      <trkpt lat="45.84471" lon="4.8001">
        <ele>547</ele>
        <time>2012-01-15T11:07:25Z</time>
      </trkpt>
      <trkpt lat="45.84473" lon="4.8002">
        <ele>548</ele>
        <time>2012-01-15T11:07:33Z</time>
      </trkpt>
      <trkpt lat="45.84474" lon="4.80023">
        <ele>548</ele>
        <time>2012-01-15T11:07:35Z</time>
      </trkpt>
      <trkpt lat="45.84476" lon="4.8003">
        <ele>548</ele>
        <time>2012-01-15T11:07:40Z</time>
      </trkpt>
      <trkpt lat="45.84479" lon="4.80039">
        <ele>549</ele>
        <time>2012-01-15T11:07:46Z</time>
      </trkpt>
      <trkpt lat="45.84481" lon="4.80048">
        <ele>550</ele>
        <time>2012-01-15T11:07:51Z</time>
      </trkpt>
      <trkpt lat="45.84481" lon="4.80049">
        <ele>550</ele>
        <time>2012-01-15T11:07:52Z</time>
      </trkpt>
      <trkpt lat="45.84485" lon="4.80057">
        <ele>550</ele>
        <time>2012-01-15T11:07:57Z</time>
      </trkpt>
      <trkpt lat="45.84487" lon="4.80064">
        <ele>551</ele>
        <time>2012-01-15T11:08:02Z</time>
      </trkpt>
      <trkpt lat="45.84488" lon="4.80067">
        <ele>551</ele>
        <time>2012-01-15T11:08:04Z</time>
      </trkpt>
      <trkpt lat="45.84488" lon="4.80071">
        <ele>551</ele>
        <time>2012-01-15T11:08:07Z</time>
      </trkpt>
      <trkpt lat="45.84488" lon="4.80076">
        <ele>551</ele>
        <time>2012-01-15T11:08:10Z</time>
      </trkpt>
      <trkpt lat="45.84486" lon="4.80083">
        <ele>553</ele>
        <time>2012-01-15T11:08:15Z</time>
      </trkpt>
      <trkpt lat="45.84485" lon="4.80085">
        <ele>553</ele>
        <time>2012-01-15T11:08:16Z</time>
      </trkpt>
      <trkpt lat="45.8448" lon="4.80093">
        <ele>554</ele>
        <time>2012-01-15T11:08:22Z</time>
      </trkpt>
      <trkpt lat="45.84478" lon="4.80097">
        <ele>554</ele>
        <time>2012-01-15T11:08:24Z</time>
      </trkpt>
      <trkpt lat="45.84473" lon="4.80105">
        <ele>554</ele>
        <time>2012-01-15T11:08:30Z</time>
      </trkpt>
      <trkpt lat="45.84466" lon="4.80108">
        <ele>555</ele>
        <time>2012-01-15T11:08:35Z</time>
      </trkpt>
      <trkpt lat="45.84464" lon="4.80107">
        <ele>555</ele>
        <time>2012-01-15T11:08:36Z</time>
      </trkpt>
      <trkpt lat="45.8446" lon="4.80096">
        <ele>555</ele>
        <time>2012-01-15T11:08:42Z</time>
      </trkpt>
      <trkpt lat="45.84459" lon="4.80091">
        <ele>555</ele>
        <time>2012-01-15T11:08:44Z</time>
      </trkpt>
      <trkpt lat="45.84459" lon="4.80089">
        <ele>555</ele>
        <time>2012-01-15T11:08:45Z</time>
      </trkpt>
      <trkpt lat="45.84457" lon="4.80086">
        <ele>555</ele>
        <time>2012-01-15T11:08:47Z</time>
      </trkpt>
      <trkpt lat="45.84456" lon="4.80084">
        <ele>555</ele>
        <time>2012-01-15T11:08:48Z</time>
      </trkpt>
      <trkpt lat="45.84451" lon="4.80073">
        <ele>554</ele>
        <time>2012-01-15T11:08:55Z</time>
      </trkpt>
      <trkpt lat="45.8445" lon="4.80072">
        <ele>554</ele>
        <time>2012-01-15T11:08:57Z</time>
      </trkpt>
      <trkpt lat="45.84447" lon="4.80068">
        <ele>554</ele>
        <time>2012-01-15T11:09:00Z</time>
      </trkpt>
      <trkpt lat="45.84445" lon="4.80066">
        <ele>554</ele>
        <time>2012-01-15T11:09:02Z</time>
      </trkpt>
      <trkpt lat="45.84437" lon="4.80057">
        <ele>554</ele>
        <time>2012-01-15T11:09:07Z</time>
      </trkpt>
      <trkpt lat="45.84431" lon="4.80051">
        <ele>555</ele>
        <time>2012-01-15T11:09:11Z</time>
      </trkpt>
      <trkpt lat="45.84427" lon="4.80048">
        <ele>555</ele>
        <time>2012-01-15T11:09:13Z</time>
      </trkpt>
      <trkpt lat="45.8442" lon="4.80039">
        <ele>555</ele>
        <time>2012-01-15T11:09:18Z</time>
      </trkpt>
      <trkpt lat="45.84416" lon="4.80032">
        <ele>563</ele>
        <time>2012-01-15T11:09:21Z</time>
      </trkpt>
      <trkpt lat="45.84413" lon="4.80029">
        <ele>563</ele>
        <time>2012-01-15T11:09:23Z</time>
      </trkpt>
      <trkpt lat="45.84408" lon="4.80026">
        <ele>563</ele>
        <time>2012-01-15T11:09:26Z</time>
      </trkpt>
      <trkpt lat="45.84404" lon="4.80026">
        <ele>563</ele>
        <time>2012-01-15T11:09:28Z</time>
      </trkpt>
      <trkpt lat="45.84398" lon="4.80027">
        <ele>563</ele>
        <time>2012-01-15T11:09:31Z</time>
      </trkpt>
      <trkpt lat="45.84393" lon="4.80026">
        <ele>563</ele>
        <time>2012-01-15T11:09:34Z</time>
      </trkpt>
      <trkpt lat="45.84384" lon="4.80026">
        <ele>563</ele>
        <time>2012-01-15T11:09:39Z</time>
      </trkpt>
      <trkpt lat="45.84381" lon="4.80028">
        <ele>564</ele>
        <time>2012-01-15T11:09:41Z</time>
      </trkpt>
      <trkpt lat="45.84379" lon="4.80028">
        <ele>564</ele>
        <time>2012-01-15T11:09:42Z</time>
      </trkpt>
      <trkpt lat="45.84375" lon="4.80025">
        <ele>564</ele>
        <time>2012-01-15T11:09:44Z</time>
      </trkpt>
      <trkpt lat="45.8437" lon="4.80024">
        <ele>564</ele>
        <time>2012-01-15T11:09:49Z</time>
      </trkpt>
      <trkpt lat="45.84368" lon="4.80017">
        <ele>564</ele>
        <time>2012-01-15T11:09:53Z</time>
      </trkpt>
      <trkpt lat="45.84367" lon="4.80015">
        <ele>565</ele>
        <time>2012-01-15T11:09:54Z</time>
      </trkpt>
      <trkpt lat="45.84368" lon="4.80009">
        <ele>565</ele>
        <time>2012-01-15T11:09:57Z</time>
      </trkpt>
      <trkpt lat="45.84369" lon="4.80005">
        <ele>565</ele>
        <time>2012-01-15T11:09:59Z</time>
      </trkpt>
      <trkpt lat="45.84371" lon="4.79993">
        <ele>565</ele>
        <time>2012-01-15T11:10:05Z</time>
      </trkpt>
      <trkpt lat="45.84371" lon="4.7999">
        <ele>565</ele>
        <time>2012-01-15T11:10:07Z</time>
      </trkpt>
      <trkpt lat="45.84368" lon="4.79978">
        <ele>565</ele>
        <time>2012-01-15T11:10:12Z</time>
      </trkpt>
      <trkpt lat="45.84361" lon="4.79966">
        <ele>565</ele>
        <time>2012-01-15T11:10:18Z</time>
      </trkpt>
      <trkpt lat="45.84359" lon="4.79963">
        <ele>566</ele>
        <time>2012-01-15T11:10:20Z</time>
      </trkpt>
      <trkpt lat="45.84352" lon="4.7996">
        <ele>566</ele>
        <time>2012-01-15T11:10:25Z</time>
      </trkpt>
      <trkpt lat="45.84345" lon="4.79954">
        <ele>566</ele>
        <time>2012-01-15T11:10:31Z</time>
      </trkpt>
      <trkpt lat="45.84343" lon="4.79953">
        <ele>567</ele>
        <time>2012-01-15T11:10:32Z</time>
      </trkpt>
      <trkpt lat="45.84334" lon="4.7995">
        <ele>567</ele>
        <time>2012-01-15T11:10:39Z</time>
      </trkpt>
      <trkpt lat="45.84326" lon="4.79947">
        <ele>572</ele>
        <time>2012-01-15T11:10:45Z</time>
      </trkpt>
      <trkpt lat="45.84317" lon="4.79943">
        <ele>572</ele>
        <time>2012-01-15T11:10:51Z</time>
      </trkpt>
      <trkpt lat="45.8431" lon="4.79938">
        <ele>573</ele>
        <time>2012-01-15T11:10:55Z</time>
      </trkpt>
      <trkpt lat="45.84306" lon="4.79934">
        <ele>573</ele>
        <time>2012-01-15T11:10:57Z</time>
      </trkpt>
      <trkpt lat="45.84297" lon="4.79924">
        <ele>573</ele>
        <time>2012-01-15T11:11:04Z</time>
      </trkpt>
      <trkpt lat="45.84294" lon="4.79922">
        <ele>573</ele>
        <time>2012-01-15T11:11:07Z</time>
      </trkpt>
      <trkpt lat="45.84288" lon="4.79915">
        <ele>577</ele>
        <time>2012-01-15T11:11:12Z</time>
      </trkpt>
      <trkpt lat="45.84281" lon="4.79904">
        <ele>577</ele>
        <time>2012-01-15T11:11:19Z</time>
      </trkpt>
      <trkpt lat="45.84277" lon="4.79899">
        <ele>578</ele>
        <time>2012-01-15T11:11:22Z</time>
      </trkpt>
      <trkpt lat="45.84266" lon="4.79887">
        <ele>578</ele>
        <time>2012-01-15T11:11:31Z</time>
      </trkpt>
      <trkpt lat="45.84263" lon="4.79885">
        <ele>579</ele>
        <time>2012-01-15T11:11:33Z</time>
      </trkpt>
      <trkpt lat="45.84253" lon="4.79877">
        <ele>580</ele>
        <time>2012-01-15T11:11:40Z</time>
      </trkpt>
      <trkpt lat="45.8425" lon="4.79873">
        <ele>580</ele>
        <time>2012-01-15T11:11:42Z</time>
      </trkpt>
      <trkpt lat="45.84243" lon="4.79863">
        <ele>586</ele>
        <time>2012-01-15T11:11:46Z</time>
      </trkpt>
      <trkpt lat="45.84238" lon="4.79852">
        <ele>587</ele>
        <time>2012-01-15T11:11:50Z</time>
      </trkpt>
      <trkpt lat="45.84236" lon="4.79847">
        <ele>587</ele>
        <time>2012-01-15T11:11:52Z</time>
      </trkpt>
      <trkpt lat="45.84228" lon="4.79833">
        <ele>591</ele>
        <time>2012-01-15T11:11:58Z</time>
      </trkpt>
      <trkpt lat="45.84227" lon="4.7983">
        <ele>591</ele>
        <time>2012-01-15T11:11:59Z</time>
      </trkpt>
      <trkpt lat="45.84224" lon="4.79823">
        <ele>591</ele>
        <time>2012-01-15T11:12:03Z</time>
      </trkpt>
      <trkpt lat="45.84222" lon="4.79814">
        <ele>591</ele>
        <time>2012-01-15T11:12:09Z</time>
      </trkpt>
      <trkpt lat="45.84221" lon="4.79811">
        <ele>591</ele>
        <time>2012-01-15T11:12:15Z</time>
      </trkpt>
      <trkpt lat="45.84222" lon="4.79815">
        <ele>591</ele>
        <time>2012-01-15T11:12:52Z</time>
      </trkpt>
      <trkpt lat="45.84222" lon="4.79814">
        <ele>591</ele>
        <time>2012-01-15T11:13:17Z</time>
      </trkpt>
      <trkpt lat="45.84221" lon="4.79816">
        <ele>591</ele>
        <time>2012-01-15T11:13:22Z</time>
      </trkpt>
      <trkpt lat="45.84221" lon="4.79821">
        <ele>591</ele>
        <time>2012-01-15T11:13:26Z</time>
      </trkpt>
      <trkpt lat="45.8422" lon="4.79828">
        <ele>591</ele>
        <time>2012-01-15T11:13:31Z</time>
      </trkpt>
      <trkpt lat="45.84222" lon="4.7984">
        <ele>587</ele>
        <time>2012-01-15T11:13:34Z</time>
      </trkpt>
      <trkpt lat="45.84223" lon="4.79845">
        <ele>587</ele>
        <time>2012-01-15T11:13:35Z</time>
      </trkpt>
      <trkpt lat="45.84229" lon="4.7986">
        <ele>586</ele>
        <time>2012-01-15T11:13:39Z</time>
      </trkpt>
      <trkpt lat="45.84231" lon="4.79864">
        <ele>586</ele>
        <time>2012-01-15T11:13:40Z</time>
      </trkpt>
      <trkpt lat="45.8424" lon="4.79879">
        <ele>585</ele>
        <time>2012-01-15T11:13:44Z</time>
      </trkpt>
      <trkpt lat="45.84244" lon="4.79885">
        <ele>584</ele>
        <time>2012-01-15T11:13:46Z</time>
      </trkpt>
      <trkpt lat="45.8425" lon="4.79893">
        <ele>579</ele>
        <time>2012-01-15T11:13:49Z</time>
      </trkpt>
      <trkpt lat="45.84259" lon="4.79904">
        <ele>578</ele>
        <time>2012-01-15T11:13:53Z</time>
      </trkpt>
      <trkpt lat="45.84264" lon="4.79909">
        <ele>578</ele>
        <time>2012-01-15T11:13:55Z</time>
      </trkpt>
      <trkpt lat="45.84274" lon="4.7992">
        <ele>575</ele>
        <time>2012-01-15T11:13:59Z</time>
      </trkpt>
      <trkpt lat="45.84277" lon="4.79922">
        <ele>575</ele>
        <time>2012-01-15T11:14:00Z</time>
      </trkpt>
      <trkpt lat="45.84289" lon="4.79935">
        <ele>573</ele>
        <time>2012-01-15T11:14:05Z</time>
      </trkpt>
      <trkpt lat="45.84291" lon="4.79938">
        <ele>573</ele>
        <time>2012-01-15T11:14:06Z</time>
      </trkpt>
      <trkpt lat="45.84301" lon="4.79954">
        <ele>572</ele>
        <time>2012-01-15T11:14:11Z</time>
      </trkpt>
      <trkpt lat="45.84303" lon="4.79958">
        <ele>572</ele>
        <time>2012-01-15T11:14:12Z</time>
      </trkpt>
      <trkpt lat="45.84312" lon="4.79979">
        <ele>572</ele>
        <time>2012-01-15T11:14:18Z</time>
      </trkpt>
      <trkpt lat="45.8432" lon="4.79995">
        <ele>571</ele>
        <time>2012-01-15T11:14:23Z</time>
      </trkpt>
      <trkpt lat="45.84324" lon="4.80002">
        <ele>568</ele>
        <time>2012-01-15T11:14:25Z</time>
      </trkpt>
      <trkpt lat="45.84332" lon="4.80013">
        <ele>568</ele>
        <time>2012-01-15T11:14:29Z</time>
      </trkpt>
      <trkpt lat="45.84337" lon="4.80021">
        <ele>566</ele>
        <time>2012-01-15T11:14:32Z</time>
      </trkpt>
      <trkpt lat="45.8434" lon="4.80028">
        <ele>565</ele>
        <time>2012-01-15T11:14:34Z</time>
      </trkpt>
      <trkpt lat="45.84345" lon="4.80045">
        <ele>564</ele>
        <time>2012-01-15T11:14:38Z</time>
      </trkpt>
      <trkpt lat="45.84349" lon="4.80062">
        <ele>563</ele>
        <time>2012-01-15T11:14:42Z</time>
      </trkpt>
      <trkpt lat="45.84352" lon="4.8007">
        <ele>563</ele>
        <time>2012-01-15T11:14:44Z</time>
      </trkpt>
      <trkpt lat="45.84356" lon="4.8008">
        <ele>563</ele>
        <time>2012-01-15T11:14:47Z</time>
      </trkpt>
      <trkpt lat="45.84365" lon="4.80092">
        <ele>558</ele>
        <time>2012-01-15T11:14:52Z</time>
      </trkpt>
      <trkpt lat="45.84367" lon="4.80094">
        <ele>558</ele>
        <time>2012-01-15T11:14:53Z</time>
      </trkpt>
      <trkpt lat="45.84376" lon="4.8011">
        <ele>557</ele>
        <time>2012-01-15T11:14:58Z</time>
      </trkpt>
      <trkpt lat="45.84378" lon="4.80113">
        <ele>557</ele>
        <time>2012-01-15T11:14:59Z</time>
      </trkpt>
      <trkpt lat="45.84386" lon="4.80124">
        <ele>557</ele>
        <time>2012-01-15T11:15:03Z</time>
      </trkpt>
      <trkpt lat="45.84393" lon="4.80132">
        <ele>556</ele>
        <time>2012-01-15T11:15:06Z</time>
      </trkpt>
      <trkpt lat="45.84397" lon="4.80137">
        <ele>556</ele>
        <time>2012-01-15T11:15:08Z</time>
      </trkpt>
      <trkpt lat="45.84405" lon="4.80148">
        <ele>555</ele>
        <time>2012-01-15T11:15:12Z</time>
      </trkpt>
      <trkpt lat="45.84407" lon="4.80151">
        <ele>555</ele>
        <time>2012-01-15T11:15:13Z</time>
      </trkpt>
      <trkpt lat="45.84413" lon="4.80159">
        <ele>554</ele>
        <time>2012-01-15T11:15:16Z</time>
      </trkpt>
      <trkpt lat="45.84421" lon="4.8017">
        <ele>552</ele>
        <time>2012-01-15T11:15:20Z</time>
      </trkpt>
      <trkpt lat="45.84423" lon="4.80173">
        <ele>552</ele>
        <time>2012-01-15T11:15:21Z</time>
      </trkpt>
      <trkpt lat="45.84433" lon="4.80186">
        <ele>551</ele>
        <time>2012-01-15T11:15:26Z</time>
      </trkpt>
      <trkpt lat="45.84435" lon="4.80189">
        <ele>550</ele>
        <time>2012-01-15T11:15:27Z</time>
      </trkpt>
      <trkpt lat="45.84443" lon="4.80202">
        <ele>550</ele>
        <time>2012-01-15T11:15:31Z</time>
      </trkpt>
      <trkpt lat="45.84446" lon="4.80209">
        <ele>549</ele>
        <time>2012-01-15T11:15:33Z</time>
      </trkpt>
      <trkpt lat="45.84455" lon="4.80225">
        <ele>549</ele>
        <time>2012-01-15T11:15:38Z</time>
      </trkpt>
      <trkpt lat="45.84459" lon="4.80232">
        <ele>548</ele>
        <time>2012-01-15T11:15:40Z</time>
      </trkpt>
      <trkpt lat="45.84463" lon="4.80238">
        <ele>548</ele>
        <time>2012-01-15T11:15:42Z</time>
      </trkpt>
      <trkpt lat="45.84473" lon="4.80251">
        <ele>543</ele>
        <time>2012-01-15T11:15:47Z</time>
      </trkpt>
      <trkpt lat="45.84475" lon="4.80253">
        <ele>543</ele>
        <time>2012-01-15T11:15:48Z</time>
      </trkpt>
      <trkpt lat="45.84484" lon="4.80259">
        <ele>543</ele>
        <time>2012-01-15T11:15:52Z</time>
      </trkpt>
      <trkpt lat="45.84486" lon="4.80262">
        <ele>543</ele>
        <time>2012-01-15T11:15:53Z</time>
      </trkpt>
      <trkpt lat="45.8449" lon="4.80267">
        <ele>543</ele>
        <time>2012-01-15T11:15:55Z</time>
      </trkpt>
      <trkpt lat="45.84495" lon="4.80274">
        <ele>542</ele>
        <time>2012-01-15T11:15:58Z</time>
      </trkpt>
      <trkpt lat="45.84504" lon="4.80284">
        <ele>541</ele>
        <time>2012-01-15T11:16:02Z</time>
      </trkpt>
      <trkpt lat="45.84512" lon="4.80289">
        <ele>540</ele>
        <time>2012-01-15T11:16:05Z</time>
      </trkpt>
      <trkpt lat="45.84523" lon="4.80292">
        <ele>540</ele>
        <time>2012-01-15T11:16:09Z</time>
      </trkpt>
      <trkpt lat="45.84528" lon="4.8029">
        <ele>540</ele>
        <time>2012-01-15T11:16:11Z</time>
      </trkpt>
      <trkpt lat="45.84539" lon="4.80291">
        <ele>539</ele>
        <time>2012-01-15T11:16:16Z</time>
      </trkpt>
      <trkpt lat="45.84541" lon="4.80293">
        <ele>539</ele>
        <time>2012-01-15T11:16:17Z</time>
      </trkpt>
      <trkpt lat="45.84545" lon="4.80302">
        <ele>538</ele>
        <time>2012-01-15T11:16:20Z</time>
      </trkpt>
      <trkpt lat="45.84554" lon="4.80308">
        <ele>538</ele>
        <time>2012-01-15T11:16:24Z</time>
      </trkpt>
      <trkpt lat="45.84557" lon="4.8031">
        <ele>538</ele>
        <time>2012-01-15T11:16:25Z</time>
      </trkpt>
      <trkpt lat="45.84559" lon="4.80311">
        <ele>537</ele>
        <time>2012-01-15T11:16:26Z</time>
      </trkpt>
      <trkpt lat="45.84569" lon="4.80319">
        <ele>536</ele>
        <time>2012-01-15T11:16:30Z</time>
      </trkpt>
      <trkpt lat="45.84572" lon="4.80324">
        <ele>535</ele>
        <time>2012-01-15T11:16:32Z</time>
      </trkpt>
      <trkpt lat="45.84577" lon="4.80333">
        <ele>534</ele>
        <time>2012-01-15T11:16:35Z</time>
      </trkpt>
      <trkpt lat="45.84581" lon="4.80348">
        <ele>529</ele>
        <time>2012-01-15T11:16:40Z</time>
      </trkpt>
      <trkpt lat="45.84586" lon="4.80363">
        <ele>528</ele>
        <time>2012-01-15T11:16:45Z</time>
      </trkpt>
      <trkpt lat="45.84588" lon="4.80373">
        <ele>527</ele>
        <time>2012-01-15T11:16:48Z</time>
      </trkpt>
      <trkpt lat="45.8459" lon="4.8038">
        <ele>526</ele>
        <time>2012-01-15T11:16:50Z</time>
      </trkpt>
      <trkpt lat="45.84592" lon="4.80397">
        <ele>524</ele>
        <time>2012-01-15T11:16:55Z</time>
      </trkpt>
      <trkpt lat="45.84592" lon="4.804">
        <ele>523</ele>
        <time>2012-01-15T11:16:56Z</time>
      </trkpt>
      <trkpt lat="45.84592" lon="4.80414">
        <ele>521</ele>
        <time>2012-01-15T11:17:01Z</time>
      </trkpt>
      <trkpt lat="45.84593" lon="4.80421">
        <ele>517</ele>
        <time>2012-01-15T11:17:04Z</time>
      </trkpt>
      <trkpt lat="45.84594" lon="4.80423">
        <ele>517</ele>
        <time>2012-01-15T11:17:05Z</time>
      </trkpt>
      <trkpt lat="45.84594" lon="4.80426">
        <ele>517</ele>
        <time>2012-01-15T11:17:06Z</time>
      </trkpt>
      <trkpt lat="45.84596" lon="4.80431">
        <ele>517</ele>
        <time>2012-01-15T11:17:08Z</time>
      </trkpt>
      <trkpt lat="45.84596" lon="4.80433">
        <ele>517</ele>
        <time>2012-01-15T11:17:09Z</time>
      </trkpt>
      <trkpt lat="45.84601" lon="4.80449">
        <ele>516</ele>
        <time>2012-01-15T11:17:14Z</time>
      </trkpt>
      <trkpt lat="45.84602" lon="4.80452">
        <ele>516</ele>
        <time>2012-01-15T11:17:15Z</time>
      </trkpt>
      <trkpt lat="45.84604" lon="4.80455">
        <ele>515</ele>
        <time>2012-01-15T11:17:16Z</time>
      </trkpt>
      <trkpt lat="45.84606" lon="4.80458">
        <ele>515</ele>
        <time>2012-01-15T11:17:17Z</time>
      </trkpt>
      <trkpt lat="45.84608" lon="4.80464">
        <ele>515</ele>
        <time>2012-01-15T11:17:19Z</time>
      </trkpt>
      <trkpt lat="45.84613" lon="4.80474">
        <ele>514</ele>
        <time>2012-01-15T11:17:22Z</time>
      </trkpt>
      <trkpt lat="45.84614" lon="4.80477">
        <ele>514</ele>
        <time>2012-01-15T11:17:23Z</time>
      </trkpt>
      <trkpt lat="45.84615" lon="4.80481">
        <ele>514</ele>
        <time>2012-01-15T11:17:24Z</time>
      </trkpt>
      <trkpt lat="45.84621" lon="4.80498">
        <ele>513</ele>
        <time>2012-01-15T11:17:29Z</time>
      </trkpt>
      <trkpt lat="45.84628" lon="4.80518">
        <ele>505</ele>
        <time>2012-01-15T11:17:35Z</time>
      </trkpt>
      <trkpt lat="45.84631" lon="4.80524">
        <ele>505</ele>
        <time>2012-01-15T11:17:37Z</time>
      </trkpt>
      <trkpt lat="45.84635" lon="4.80532">
        <ele>504</ele>
        <time>2012-01-15T11:17:40Z</time>
      </trkpt>
      <trkpt lat="45.84641" lon="4.80547">
        <ele>503</ele>
        <time>2012-01-15T11:17:45Z</time>
      </trkpt>
      <trkpt lat="45.84643" lon="4.8055">
        <ele>503</ele>
        <time>2012-01-15T11:17:46Z</time>
      </trkpt>
      <trkpt lat="45.84652" lon="4.80569">
        <ele>502</ele>
        <time>2012-01-15T11:17:52Z</time>
      </trkpt>
      <trkpt lat="45.84654" lon="4.80575">
        <ele>501</ele>
        <time>2012-01-15T11:17:54Z</time>
      </trkpt>
      <trkpt lat="45.84662" lon="4.80594">
        <ele>497</ele>
        <time>2012-01-15T11:18:00Z</time>
      </trkpt>
      <trkpt lat="45.8467" lon="4.80613">
        <ele>497</ele>
        <time>2012-01-15T11:18:06Z</time>
      </trkpt>
      <trkpt lat="45.84671" lon="4.80616">
        <ele>497</ele>
        <time>2012-01-15T11:18:07Z</time>
      </trkpt>
      <trkpt lat="45.84674" lon="4.80632">
        <ele>495</ele>
        <time>2012-01-15T11:18:11Z</time>
      </trkpt>
      <trkpt lat="45.84678" lon="4.80643">
        <ele>494</ele>
        <time>2012-01-15T11:18:14Z</time>
      </trkpt>
      <trkpt lat="45.84679" lon="4.80646">
        <ele>494</ele>
        <time>2012-01-15T11:18:15Z</time>
      </trkpt>
      <trkpt lat="45.84682" lon="4.80652">
        <ele>494</ele>
        <time>2012-01-15T11:18:18Z</time>
      </trkpt>
      <trkpt lat="45.84682" lon="4.80654">
        <ele>494</ele>
        <time>2012-01-15T11:18:20Z</time>
      </trkpt>
      <trkpt lat="45.84682" lon="4.80654">
        <ele>494</ele>
        <time>2012-01-15T11:18:28Z</time>
      </trkpt>
      <trkpt lat="45.84675" lon="4.80653">
        <ele>493</ele>
        <time>2012-01-15T11:18:37Z</time>
      </trkpt>
      <trkpt lat="45.84673" lon="4.80652">
        <ele>493</ele>
        <time>2012-01-15T11:18:38Z</time>
      </trkpt>
      <trkpt lat="45.84662" lon="4.80648">
        <ele>492</ele>
        <time>2012-01-15T11:18:42Z</time>
      </trkpt>
      <trkpt lat="45.84654" lon="4.80647">
        <ele>492</ele>
        <time>2012-01-15T11:18:45Z</time>
      </trkpt>
      <trkpt lat="45.84646" lon="4.80644">
        <ele>492</ele>
        <time>2012-01-15T11:18:48Z</time>
      </trkpt>
      <trkpt lat="45.84636" lon="4.80641">
        <ele>492</ele>
        <time>2012-01-15T11:18:52Z</time>
      </trkpt>
      <trkpt lat="45.84633" lon="4.80641">
        <ele>492</ele>
        <time>2012-01-15T11:18:53Z</time>
      </trkpt>
      <trkpt lat="45.8462" lon="4.80641">
        <ele>491</ele>
        <time>2012-01-15T11:18:58Z</time>
      </trkpt>
      <trkpt lat="45.84617" lon="4.80641">
        <ele>491</ele>
        <time>2012-01-15T11:18:59Z</time>
      </trkpt>
      <trkpt lat="45.84605" lon="4.80638">
        <ele>491</ele>
        <time>2012-01-15T11:19:03Z</time>
      </trkpt>
      <trkpt lat="45.84598" lon="4.80635">
        <ele>491</ele>
        <time>2012-01-15T11:19:06Z</time>
      </trkpt>
      <trkpt lat="45.84594" lon="4.8063">
        <ele>491</ele>
        <time>2012-01-15T11:19:08Z</time>
      </trkpt>
      <trkpt lat="45.84585" lon="4.80615">
        <ele>492</ele>
        <time>2012-01-15T11:19:13Z</time>
      </trkpt>
      <trkpt lat="45.8458" lon="4.80599">
        <ele>491</ele>
        <time>2012-01-15T11:19:18Z</time>
      </trkpt>
      <trkpt lat="45.84578" lon="4.8059">
        <ele>492</ele>
        <time>2012-01-15T11:19:21Z</time>
      </trkpt>
      <trkpt lat="45.84575" lon="4.80583">
        <ele>496</ele>
        <time>2012-01-15T11:19:23Z</time>
      </trkpt>
      <trkpt lat="45.84567" lon="4.80569">
        <ele>497</ele>
        <time>2012-01-15T11:19:26Z</time>
      </trkpt>
      <trkpt lat="45.84562" lon="4.80563">
        <ele>498</ele>
        <time>2012-01-15T11:19:28Z</time>
      </trkpt>
      <trkpt lat="45.84557" lon="4.80559">
        <ele>499</ele>
        <time>2012-01-15T11:19:30Z</time>
      </trkpt>
      <trkpt lat="45.84553" lon="4.80559">
        <ele>499</ele>
        <time>2012-01-15T11:19:32Z</time>
      </trkpt>
      <trkpt lat="45.84552" lon="4.80561">
        <ele>499</ele>
        <time>2012-01-15T11:19:33Z</time>
      </trkpt>
      <trkpt lat="45.84551" lon="4.8057">
        <ele>498</ele>
        <time>2012-01-15T11:19:37Z</time>
      </trkpt>
      <trkpt lat="45.84551" lon="4.80573">
        <ele>498</ele>
        <time>2012-01-15T11:19:38Z</time>
      </trkpt>
      <trkpt lat="45.84551" lon="4.80587">
        <ele>490</ele>
        <time>2012-01-15T11:19:41Z</time>
      </trkpt>
      <trkpt lat="45.8455" lon="4.80591">
        <ele>490</ele>
        <time>2012-01-15T11:19:42Z</time>
      </trkpt>
      <trkpt lat="45.84549" lon="4.80594">
        <ele>490</ele>
        <time>2012-01-15T11:19:43Z</time>
      </trkpt>
      <trkpt lat="45.84549" lon="4.80609">
        <ele>489</ele>
        <time>2012-01-15T11:19:47Z</time>
      </trkpt>
      <trkpt lat="45.8455" lon="4.80612">
        <ele>489</ele>
        <time>2012-01-15T11:19:48Z</time>
      </trkpt>
      <trkpt lat="45.84543" lon="4.80625">
        <ele>488</ele>
        <time>2012-01-15T11:19:52Z</time>
      </trkpt>
      <trkpt lat="45.84541" lon="4.80628">
        <ele>488</ele>
        <time>2012-01-15T11:19:54Z</time>
      </trkpt>
      <trkpt lat="45.84542" lon="4.80627">
        <ele>488</ele>
        <time>2012-01-15T11:19:55Z</time>
      </trkpt>
      <trkpt lat="45.84541" lon="4.80629">
        <ele>487</ele>
        <time>2012-01-15T11:19:56Z</time>
      </trkpt>
      <trkpt lat="45.8454" lon="4.80636">
        <ele>487</ele>
        <time>2012-01-15T11:19:58Z</time>
      </trkpt>
      <trkpt lat="45.84539" lon="4.80639">
        <ele>487</ele>
        <time>2012-01-15T11:19:59Z</time>
      </trkpt>
      <trkpt lat="45.84539" lon="4.80643">
        <ele>486</ele>
        <time>2012-01-15T11:20:01Z</time>
      </trkpt>
      <trkpt lat="45.84538" lon="4.80648">
        <ele>486</ele>
        <time>2012-01-15T11:20:03Z</time>
      </trkpt>
      <trkpt lat="45.84536" lon="4.80653">
        <ele>486</ele>
        <time>2012-01-15T11:20:05Z</time>
      </trkpt>
      <trkpt lat="45.84532" lon="4.80661">
        <ele>485</ele>
        <time>2012-01-15T11:20:09Z</time>
      </trkpt>
      <trkpt lat="45.84532" lon="4.80663">
        <ele>485</ele>
        <time>2012-01-15T11:20:10Z</time>
      </trkpt>
      <trkpt lat="45.84532" lon="4.80666">
        <ele>485</ele>
        <time>2012-01-15T11:20:11Z</time>
      </trkpt>
      <trkpt lat="45.84536" lon="4.80681">
        <ele>478</ele>
        <time>2012-01-15T11:20:16Z</time>
      </trkpt>
      <trkpt lat="45.84538" lon="4.80687">
        <ele>478</ele>
        <time>2012-01-15T11:20:18Z</time>
      </trkpt>
      <trkpt lat="45.84539" lon="4.807">
        <ele>478</ele>
        <time>2012-01-15T11:20:21Z</time>
      </trkpt>
      <trkpt lat="45.84539" lon="4.80716">
        <ele>477</ele>
        <time>2012-01-15T11:20:24Z</time>
      </trkpt>
      <trkpt lat="45.84539" lon="4.8072">
        <ele>476</ele>
        <time>2012-01-15T11:20:25Z</time>
      </trkpt>
      <trkpt lat="45.84533" lon="4.80738">
        <ele>475</ele>
        <time>2012-01-15T11:20:30Z</time>
      </trkpt>
      <trkpt lat="45.84531" lon="4.80742">
        <ele>475</ele>
        <time>2012-01-15T11:20:31Z</time>
      </trkpt>
      <trkpt lat="45.84527" lon="4.80757">
        <ele>469</ele>
        <time>2012-01-15T11:20:35Z</time>
      </trkpt>
      <trkpt lat="45.84524" lon="4.80768">
        <ele>469</ele>
        <time>2012-01-15T11:20:38Z</time>
      </trkpt>
      <trkpt lat="45.84523" lon="4.80777">
        <ele>468</ele>
        <time>2012-01-15T11:20:40Z</time>
      </trkpt>
      <trkpt lat="45.84517" lon="4.80791">
        <ele>467</ele>
        <time>2012-01-15T11:20:44Z</time>
      </trkpt>
      <trkpt lat="45.84516" lon="4.80798">
        <ele>467</ele>
        <time>2012-01-15T11:20:46Z</time>
      </trkpt>
      <trkpt lat="45.84516" lon="4.80805">
        <ele>466</ele>
        <time>2012-01-15T11:20:48Z</time>
      </trkpt>
      <trkpt lat="45.84516" lon="4.8082">
        <ele>465</ele>
        <time>2012-01-15T11:20:52Z</time>
      </trkpt>
      <trkpt lat="45.84516" lon="4.80826">
        <ele>464</ele>
        <time>2012-01-15T11:20:53Z</time>
      </trkpt>
      <trkpt lat="45.84516" lon="4.80839">
        <ele>460</ele>
        <time>2012-01-15T11:20:56Z</time>
      </trkpt>
      <trkpt lat="45.84514" lon="4.80841">
        <ele>460</ele>
        <time>2012-01-15T11:20:57Z</time>
      </trkpt>
      <trkpt lat="45.84511" lon="4.80841">
        <ele>460</ele>
        <time>2012-01-15T11:20:59Z</time>
      </trkpt>
      <trkpt lat="45.84507" lon="4.80844">
        <ele>460</ele>
        <time>2012-01-15T11:21:01Z</time>
      </trkpt>
      <trkpt lat="45.84503" lon="4.80855">
        <ele>459</ele>
        <time>2012-01-15T11:21:04Z</time>
      </trkpt>
      <trkpt lat="45.84502" lon="4.8086">
        <ele>459</ele>
        <time>2012-01-15T11:21:05Z</time>
      </trkpt>
      <trkpt lat="45.84502" lon="4.80864">
        <ele>459</ele>
        <time>2012-01-15T11:21:06Z</time>
      </trkpt>
      <trkpt lat="45.84498" lon="4.80879">
        <ele>457</ele>
        <time>2012-01-15T11:21:10Z</time>
      </trkpt>
      <trkpt lat="45.84495" lon="4.80889">
        <ele>456</ele>
        <time>2012-01-15T11:21:13Z</time>
      </trkpt>
      <trkpt lat="45.8449" lon="4.80894">
        <ele>456</ele>
        <time>2012-01-15T11:21:15Z</time>
      </trkpt>
      <trkpt lat="45.84488" lon="4.80904">
        <ele>455</ele>
        <time>2012-01-15T11:21:18Z</time>
      </trkpt>
      <trkpt lat="45.84489" lon="4.80907">
        <ele>454</ele>
        <time>2012-01-15T11:21:19Z</time>
      </trkpt>
      <trkpt lat="45.84489" lon="4.80911">
        <ele>454</ele>
        <time>2012-01-15T11:21:20Z</time>
      </trkpt>
      <trkpt lat="45.84488" lon="4.80921">
        <ele>450</ele>
        <time>2012-01-15T11:21:23Z</time>
      </trkpt>
      <trkpt lat="45.84488" lon="4.80925">
        <ele>450</ele>
        <time>2012-01-15T11:21:24Z</time>
      </trkpt>
      <trkpt lat="45.84486" lon="4.80937">
        <ele>449</ele>
        <time>2012-01-15T11:21:27Z</time>
      </trkpt>
      <trkpt lat="45.84485" lon="4.80942">
        <ele>449</ele>
        <time>2012-01-15T11:21:28Z</time>
      </trkpt>
      <trkpt lat="45.84484" lon="4.80953">
        <ele>448</ele>
        <time>2012-01-15T11:21:31Z</time>
      </trkpt>
      <trkpt lat="45.84484" lon="4.80956">
        <ele>448</ele>
        <time>2012-01-15T11:21:32Z</time>
      </trkpt>
      <trkpt lat="45.84483" lon="4.80963">
        <ele>447</ele>
        <time>2012-01-15T11:21:34Z</time>
      </trkpt>
      <trkpt lat="45.84482" lon="4.80976">
        <ele>446</ele>
        <time>2012-01-15T11:21:37Z</time>
      </trkpt>
      <trkpt lat="45.84481" lon="4.80988">
        <ele>445</ele>
        <time>2012-01-15T11:21:40Z</time>
      </trkpt>
      <trkpt lat="45.8448" lon="4.80992">
        <ele>445</ele>
        <time>2012-01-15T11:21:41Z</time>
      </trkpt>
      <trkpt lat="45.84476" lon="4.81004">
        <ele>439</ele>
        <time>2012-01-15T11:21:44Z</time>
      </trkpt>
      <trkpt lat="45.84475" lon="4.81014">
        <ele>438</ele>
        <time>2012-01-15T11:21:47Z</time>
      </trkpt>
      <trkpt lat="45.84475" lon="4.81018">
        <ele>438</ele>
        <time>2012-01-15T11:21:48Z</time>
      </trkpt>
      <trkpt lat="45.84477" lon="4.8103">
        <ele>437</ele>
        <time>2012-01-15T11:21:52Z</time>
      </trkpt>
      <trkpt lat="45.84477" lon="4.81034">
        <ele>437</ele>
        <time>2012-01-15T11:21:53Z</time>
      </trkpt>
      <trkpt lat="45.84475" lon="4.81047">
        <ele>436</ele>
        <time>2012-01-15T11:21:56Z</time>
      </trkpt>
      <trkpt lat="45.84475" lon="4.81051">
        <ele>435</ele>
        <time>2012-01-15T11:21:57Z</time>
      </trkpt>
      <trkpt lat="45.84474" lon="4.81055">
        <ele>435</ele>
        <time>2012-01-15T11:21:58Z</time>
      </trkpt>
      <trkpt lat="45.84467" lon="4.81074">
        <ele>434</ele>
        <time>2012-01-15T11:22:03Z</time>
      </trkpt>
      <trkpt lat="45.84461" lon="4.81094">
        <ele>427</ele>
        <time>2012-01-15T11:22:08Z</time>
      </trkpt>
      <trkpt lat="45.84459" lon="4.81099">
        <ele>427</ele>
        <time>2012-01-15T11:22:09Z</time>
      </trkpt>
      <trkpt lat="45.84454" lon="4.81114">
        <ele>426</ele>
        <time>2012-01-15T11:22:13Z</time>
      </trkpt>
      <trkpt lat="45.84456" lon="4.81125">
        <ele>426</ele>
        <time>2012-01-15T11:22:16Z</time>
      </trkpt>
      <trkpt lat="45.84457" lon="4.81131">
        <ele>425</ele>
        <time>2012-01-15T11:22:18Z</time>
      </trkpt>
      <trkpt lat="45.84459" lon="4.81153">
        <ele>424</ele>
        <time>2012-01-15T11:22:23Z</time>
      </trkpt>
      <trkpt lat="45.84463" lon="4.8117">
        <ele>416</ele>
        <time>2012-01-15T11:22:28Z</time>
      </trkpt>
      <trkpt lat="45.84462" lon="4.81179">
        <ele>416</ele>
        <time>2012-01-15T11:22:34Z</time>
      </trkpt>
      <trkpt lat="45.8446" lon="4.81179">
        <ele>416</ele>
        <time>2012-01-15T11:22:35Z</time>
      </trkpt>
      <trkpt lat="45.84457" lon="4.81184">
        <ele>416</ele>
        <time>2012-01-15T11:22:39Z</time>
      </trkpt>
      <trkpt lat="45.84456" lon="4.81185">
        <ele>416</ele>
        <time>2012-01-15T11:22:40Z</time>
      </trkpt>
      <trkpt lat="45.84453" lon="4.81187">
        <ele>416</ele>
        <time>2012-01-15T11:22:43Z</time>
      </trkpt>
      <trkpt lat="45.8445" lon="4.8119">
        <ele>416</ele>
        <time>2012-01-15T11:22:46Z</time>
      </trkpt>
      <trkpt lat="45.8445" lon="4.81191">
        <ele>416</ele>
        <time>2012-01-15T11:22:47Z</time>
      </trkpt>
      <trkpt lat="45.8445" lon="4.81194">
        <ele>416</ele>
        <time>2012-01-15T11:22:50Z</time>
      </trkpt>
      <trkpt lat="45.8445" lon="4.81199">
        <ele>415</ele>
        <time>2012-01-15T11:22:57Z</time>
      </trkpt>
      <trkpt lat="45.8445" lon="4.81201">
        <ele>415</ele>
        <time>2012-01-15T11:22:58Z</time>
      </trkpt>
      <trkpt lat="45.84449" lon="4.81208">
        <ele>415</ele>
        <time>2012-01-15T11:23:04Z</time>
      </trkpt>
      <trkpt lat="45.84449" lon="4.81211">
        <ele>415</ele>
        <time>2012-01-15T11:23:06Z</time>
      </trkpt>
      <trkpt lat="45.84451" lon="4.81214">
        <ele>414</ele>
        <time>2012-01-15T11:23:12Z</time>
      </trkpt>
      <trkpt lat="45.84451" lon="4.81218">
        <ele>414</ele>
        <time>2012-01-15T11:23:20Z</time>
      </trkpt>
      <trkpt lat="45.84452" lon="4.81223">
        <ele>414</ele>
        <time>2012-01-15T11:23:24Z</time>
      </trkpt>
      <trkpt lat="45.84452" lon="4.81225">
        <ele>413</ele>
        <time>2012-01-15T11:23:25Z</time>
      </trkpt>
      <trkpt lat="45.84454" lon="4.81231">
        <ele>413</ele>
        <time>2012-01-15T11:23:31Z</time>
      </trkpt>
      <trkpt lat="45.84454" lon="4.81232">
        <ele>413</ele>
        <time>2012-01-15T11:23:32Z</time>
      </trkpt>
      <trkpt lat="45.84455" lon="4.81236">
        <ele>413</ele>
        <time>2012-01-15T11:23:37Z</time>
      </trkpt>
      <trkpt lat="45.84455" lon="4.81238">
        <ele>413</ele>
        <time>2012-01-15T11:23:38Z</time>
      </trkpt>
      <trkpt lat="45.84456" lon="4.81242">
        <ele>412</ele>
        <time>2012-01-15T11:23:41Z</time>
      </trkpt>
      <trkpt lat="45.84457" lon="4.81247">
        <ele>412</ele>
        <time>2012-01-15T11:23:43Z</time>
      </trkpt>
      <trkpt lat="45.84459" lon="4.81259">
        <ele>403</ele>
        <time>2012-01-15T11:23:47Z</time>
      </trkpt>
      <trkpt lat="45.8446" lon="4.81271">
        <ele>402</ele>
        <time>2012-01-15T11:23:51Z</time>
      </trkpt>
      <trkpt lat="45.84459" lon="4.81274">
        <ele>401</ele>
        <time>2012-01-15T11:23:52Z</time>
      </trkpt>
      <trkpt lat="45.84458" lon="4.8128">
        <ele>401</ele>
        <time>2012-01-15T11:23:54Z</time>
      </trkpt>
      <trkpt lat="45.84458" lon="4.81285">
        <ele>400</ele>
        <time>2012-01-15T11:23:56Z</time>
      </trkpt>
      <trkpt lat="45.84458" lon="4.81296">
        <ele>399</ele>
        <time>2012-01-15T11:24:00Z</time>
      </trkpt>
      <trkpt lat="45.84458" lon="4.81299">
        <ele>399</ele>
        <time>2012-01-15T11:24:01Z</time>
      </trkpt>
      <trkpt lat="45.84457" lon="4.81302">
        <ele>399</ele>
        <time>2012-01-15T11:24:02Z</time>
      </trkpt>
      <trkpt lat="45.84457" lon="4.81319">
        <ele>397</ele>
        <time>2012-01-15T11:24:07Z</time>
      </trkpt>
      <trkpt lat="45.84457" lon="4.8133">
        <ele>397</ele>
        <time>2012-01-15T11:24:11Z</time>
      </trkpt>
      <trkpt lat="45.84457" lon="4.81334">
        <ele>383</ele>
        <time>2012-01-15T11:24:12Z</time>
      </trkpt>
      <trkpt lat="45.84458" lon="4.8134">
        <ele>383</ele>
        <time>2012-01-15T11:24:14Z</time>
      </trkpt>
      <trkpt lat="45.8446" lon="4.81345">
        <ele>382</ele>
        <time>2012-01-15T11:24:17Z</time>
      </trkpt>
      <trkpt lat="45.84463" lon="4.8135">
        <ele>381</ele>
        <time>2012-01-15T11:24:21Z</time>
      </trkpt>
      <trkpt lat="45.84462" lon="4.81353">
        <ele>381</ele>
        <time>2012-01-15T11:24:22Z</time>
      </trkpt>
      <trkpt lat="45.84463" lon="4.81357">
        <ele>381</ele>
        <time>2012-01-15T11:24:24Z</time>
      </trkpt>
      <trkpt lat="45.84463" lon="4.81358">
        <ele>380</ele>
        <time>2012-01-15T11:24:25Z</time>
      </trkpt>
      <trkpt lat="45.84462" lon="4.81358">
        <ele>380</ele>
        <time>2012-01-15T11:24:26Z</time>
      </trkpt>
      <trkpt lat="45.84465" lon="4.8137">
        <ele>378</ele>
        <time>2012-01-15T11:24:31Z</time>
      </trkpt>
      <trkpt lat="45.84462" lon="4.81375">
        <ele>378</ele>
        <time>2012-01-15T11:24:36Z</time>
      </trkpt>
      <trkpt lat="45.8446" lon="4.81381">
        <ele>377</ele>
        <time>2012-01-15T11:24:38Z</time>
      </trkpt>
      <trkpt lat="45.84464" lon="4.81387">
        <ele>376</ele>
        <time>2012-01-15T11:24:41Z</time>
      </trkpt>
      <trkpt lat="45.84468" lon="4.814">
        <ele>373</ele>
        <time>2012-01-15T11:24:45Z</time>
      </trkpt>
      <trkpt lat="45.84468" lon="4.81403">
        <ele>373</ele>
        <time>2012-01-15T11:24:46Z</time>
      </trkpt>
      <trkpt lat="45.84474" lon="4.81413">
        <ele>370</ele>
        <time>2012-01-15T11:24:51Z</time>
      </trkpt>
      <trkpt lat="45.84474" lon="4.81422">
        <ele>356</ele>
        <time>2012-01-15T11:24:55Z</time>
      </trkpt>
      <trkpt lat="45.84474" lon="4.81426">
        <ele>356</ele>
        <time>2012-01-15T11:24:56Z</time>
      </trkpt>
      <trkpt lat="45.84471" lon="4.81443">
        <ele>355</ele>
        <time>2012-01-15T11:25:02Z</time>
      </trkpt>
      <trkpt lat="45.8447" lon="4.81452">
        <ele>354</ele>
        <time>2012-01-15T11:25:05Z</time>
      </trkpt>
      <trkpt lat="45.84471" lon="4.81457">
        <ele>353</ele>
        <time>2012-01-15T11:25:07Z</time>
      </trkpt>
      <trkpt lat="45.84471" lon="4.81466">
        <ele>352</ele>
        <time>2012-01-15T11:25:10Z</time>
      </trkpt>
      <trkpt lat="45.84471" lon="4.81473">
        <ele>350</ele>
        <time>2012-01-15T11:25:12Z</time>
      </trkpt>
      <trkpt lat="45.84471" lon="4.81479">
        <ele>350</ele>
        <time>2012-01-15T11:25:14Z</time>
      </trkpt>
      <trkpt lat="45.84471" lon="4.81484">
        <ele>349</ele>
        <time>2012-01-15T11:25:16Z</time>
      </trkpt>
      <trkpt lat="45.84474" lon="4.81503">
        <ele>334</ele>
        <time>2012-01-15T11:25:22Z</time>
      </trkpt>
      <trkpt lat="45.84474" lon="4.81506">
        <ele>334</ele>
        <time>2012-01-15T11:25:23Z</time>
      </trkpt>
      <trkpt lat="45.84475" lon="4.81512">
        <ele>334</ele>
        <time>2012-01-15T11:25:25Z</time>
      </trkpt>
      <trkpt lat="45.84474" lon="4.81518">
        <ele>334</ele>
        <time>2012-01-15T11:25:27Z</time>
      </trkpt>
      <trkpt lat="45.84475" lon="4.81524">
        <ele>333</ele>
        <time>2012-01-15T11:25:29Z</time>
      </trkpt>
      <trkpt lat="45.84475" lon="4.81532">
        <ele>332</ele>
        <time>2012-01-15T11:25:32Z</time>
      </trkpt>
      <trkpt lat="45.84476" lon="4.81538">
        <ele>332</ele>
        <time>2012-01-15T11:25:34Z</time>
      </trkpt>
      <trkpt lat="45.84476" lon="4.81554">
        <ele>329</ele>
        <time>2012-01-15T11:25:40Z</time>
      </trkpt>
      <trkpt lat="45.84476" lon="4.81559">
        <ele>328</ele>
        <time>2012-01-15T11:25:42Z</time>
      </trkpt>
      <trkpt lat="45.84476" lon="4.81565">
        <ele>327</ele>
        <time>2012-01-15T11:25:45Z</time>
      </trkpt>
      <trkpt lat="45.84477" lon="4.81569">
        <ele>326</ele>
        <time>2012-01-15T11:25:47Z</time>
      </trkpt>
      <trkpt lat="45.84477" lon="4.81575">
        <ele>325</ele>
        <time>2012-01-15T11:25:51Z</time>
      </trkpt>
      <trkpt lat="45.84478" lon="4.81578">
        <ele>325</ele>
        <time>2012-01-15T11:25:53Z</time>
      </trkpt>
      <trkpt lat="45.84482" lon="4.81579">
        <ele>323</ele>
        <time>2012-01-15T11:25:56Z</time>
      </trkpt>
      <trkpt lat="45.84485" lon="4.81577">
        <ele>322</ele>
        <time>2012-01-15T11:25:57Z</time>
      </trkpt>
      <trkpt lat="45.84486" lon="4.81577">
        <ele>322</ele>
        <time>2012-01-15T11:26:00Z</time>
      </trkpt>
      <trkpt lat="45.84486" lon="4.81581">
        <ele>321</ele>
        <time>2012-01-15T11:26:05Z</time>
      </trkpt>
      <trkpt lat="45.84486" lon="4.81586">
        <ele>314</ele>
        <time>2012-01-15T11:26:07Z</time>
      </trkpt>
      <trkpt lat="45.84484" lon="4.81597">
        <ele>314</ele>
        <time>2012-01-15T11:26:12Z</time>
      </trkpt>
      <trkpt lat="45.84483" lon="4.81601">
        <ele>314</ele>
        <time>2012-01-15T11:26:13Z</time>
      </trkpt>
      <trkpt lat="45.84482" lon="4.81608">
        <ele>314</ele>
        <time>2012-01-15T11:26:15Z</time>
      </trkpt>
      <trkpt lat="45.84479" lon="4.81618">
        <ele>313</ele>
        <time>2012-01-15T11:26:18Z</time>
      </trkpt>
      <trkpt lat="45.84478" lon="4.81626">
        <ele>312</ele>
        <time>2012-01-15T11:26:21Z</time>
      </trkpt>
      <trkpt lat="45.84477" lon="4.81631">
        <ele>312</ele>
        <time>2012-01-15T11:26:23Z</time>
      </trkpt>
      <trkpt lat="45.84476" lon="4.81651">
        <ele>309</ele>
        <time>2012-01-15T11:26:28Z</time>
      </trkpt>
      <trkpt lat="45.84478" lon="4.81653">
        <ele>308</ele>
        <time>2012-01-15T11:26:29Z</time>
      </trkpt>
      <trkpt lat="45.84476" lon="4.81663">
        <ele>307</ele>
        <time>2012-01-15T11:26:34Z</time>
      </trkpt>
      <trkpt lat="45.84475" lon="4.81664">
        <ele>308</ele>
        <time>2012-01-15T11:26:36Z</time>
      </trkpt>
      <trkpt lat="45.84476" lon="4.81669">
        <ele>297</ele>
        <time>2012-01-15T11:26:38Z</time>
      </trkpt>
      <trkpt lat="45.84478" lon="4.81678">
        <ele>297</ele>
        <time>2012-01-15T11:26:42Z</time>
      </trkpt>
      <trkpt lat="45.84479" lon="4.81682">
        <ele>296</ele>
        <time>2012-01-15T11:26:44Z</time>
      </trkpt>
      <trkpt lat="45.84485" lon="4.81681">
        <ele>296</ele>
        <time>2012-01-15T11:26:49Z</time>
      </trkpt>
      <trkpt lat="45.84487" lon="4.81682">
        <ele>296</ele>
        <time>2012-01-15T11:26:51Z</time>
      </trkpt>
      <trkpt lat="45.84488" lon="4.81685">
        <ele>296</ele>
        <time>2012-01-15T11:26:53Z</time>
      </trkpt>
      <trkpt lat="45.84488" lon="4.81694">
        <ele>295</ele>
        <time>2012-01-15T11:26:57Z</time>
      </trkpt>
      <trkpt lat="45.84488" lon="4.81696">
        <ele>295</ele>
        <time>2012-01-15T11:26:58Z</time>
      </trkpt>
      <trkpt lat="45.84489" lon="4.81698">
        <ele>295</ele>
        <time>2012-01-15T11:26:59Z</time>
      </trkpt>
      <trkpt lat="45.84491" lon="4.81706">
        <ele>293</ele>
        <time>2012-01-15T11:27:03Z</time>
      </trkpt>
      <trkpt lat="45.84493" lon="4.81719">
        <ele>291</ele>
        <time>2012-01-15T11:27:07Z</time>
      </trkpt>
      <trkpt lat="45.84493" lon="4.81722">
        <ele>291</ele>
        <time>2012-01-15T11:27:08Z</time>
      </trkpt>
      <trkpt lat="45.84495" lon="4.81739">
        <ele>285</ele>
        <time>2012-01-15T11:27:14Z</time>
      </trkpt>
      <trkpt lat="45.84497" lon="4.81749">
        <ele>281</ele>
        <time>2012-01-15T11:27:18Z</time>
      </trkpt>
      <trkpt lat="45.845" lon="4.81753">
        <ele>279</ele>
        <time>2012-01-15T11:27:20Z</time>
      </trkpt>
      <trkpt lat="45.84503" lon="4.81766">
        <ele>282</ele>
        <time>2012-01-15T11:27:25Z</time>
      </trkpt>
      <trkpt lat="45.84504" lon="4.81773">
        <ele>282</ele>
        <time>2012-01-15T11:27:27Z</time>
      </trkpt>
      <trkpt lat="45.84504" lon="4.81783">
        <ele>282</ele>
        <time>2012-01-15T11:27:30Z</time>
      </trkpt>
      <trkpt lat="45.84505" lon="4.81796">
        <ele>281</ele>
        <time>2012-01-15T11:27:34Z</time>
      </trkpt>
      <trkpt lat="45.84505" lon="4.81798">
        <ele>281</ele>
        <time>2012-01-15T11:27:35Z</time>
      </trkpt>
      <trkpt lat="45.845" lon="4.81806">
        <ele>274</ele>
        <time>2012-01-15T11:27:39Z</time>
      </trkpt>
      <trkpt lat="45.8449" lon="4.81814">
        <ele>273</ele>
        <time>2012-01-15T11:27:44Z</time>
      </trkpt>
      <trkpt lat="45.84482" lon="4.81819">
        <ele>273</ele>
        <time>2012-01-15T11:27:48Z</time>
      </trkpt>
      <trkpt lat="45.84481" lon="4.81821">
        <ele>274</ele>
        <time>2012-01-15T11:27:49Z</time>
      </trkpt>
      <trkpt lat="45.84474" lon="4.81831">
        <ele>274</ele>
        <time>2012-01-15T11:27:54Z</time>
      </trkpt>
      <trkpt lat="45.84466" lon="4.81843">
        <ele>267</ele>
        <time>2012-01-15T11:27:59Z</time>
      </trkpt>
      <trkpt lat="45.84465" lon="4.81846">
        <ele>267</ele>
        <time>2012-01-15T11:28:01Z</time>
      </trkpt>
      <trkpt lat="45.84464" lon="4.81849">
        <ele>267</ele>
        <time>2012-01-15T11:28:03Z</time>
      </trkpt>
      <trkpt lat="45.84464" lon="4.81851">
        <ele>267</ele>
        <time>2012-01-15T11:28:05Z</time>
      </trkpt>
      <trkpt lat="45.84464" lon="4.81851">
        <ele>267</ele>
        <time>2012-01-15T11:28:09Z</time>
      </trkpt>
      <trkpt lat="45.84464" lon="4.81852">
        <ele>267</ele>
        <time>2012-01-15T11:28:17Z</time>
      </trkpt>
      <trkpt lat="45.84462" lon="4.81852">
        <ele>267</ele>
        <time>2012-01-15T11:28:23Z</time>
      </trkpt>
      <trkpt lat="45.84461" lon="4.81855">
        <ele>267</ele>
        <time>2012-01-15T11:28:27Z</time>
      </trkpt>
      <trkpt lat="45.84456" lon="4.81863">
        <ele>267</ele>
        <time>2012-01-15T11:28:33Z</time>
      </trkpt>
      <trkpt lat="45.84452" lon="4.8187">
        <ele>267</ele>
        <time>2012-01-15T11:28:36Z</time>
      </trkpt>
      <trkpt lat="45.84449" lon="4.81874">
        <ele>267</ele>
        <time>2012-01-15T11:28:38Z</time>
      </trkpt>
      <trkpt lat="45.84446" lon="4.81884">
        <ele>267</ele>
        <time>2012-01-15T11:28:42Z</time>
      </trkpt>
      <trkpt lat="45.84447" lon="4.81886">
        <ele>267</ele>
        <time>2012-01-15T11:28:43Z</time>
      </trkpt>
      <trkpt lat="45.84451" lon="4.8189">
        <ele>266</ele>
        <time>2012-01-15T11:28:46Z</time>
      </trkpt>
      <trkpt lat="45.84453" lon="4.81891">
        <ele>266</ele>
        <time>2012-01-15T11:28:47Z</time>
      </trkpt>
      <trkpt lat="45.84463" lon="4.81895">
        <ele>265</ele>
        <time>2012-01-15T11:28:52Z</time>
      </trkpt>
      <trkpt lat="45.84469" lon="4.81899">
        <ele>265</ele>
        <time>2012-01-15T11:28:55Z</time>
      </trkpt>
      <trkpt lat="45.84474" lon="4.81901">
        <ele>264</ele>
        <time>2012-01-15T11:28:57Z</time>
      </trkpt>
      <trkpt lat="45.84483" lon="4.81911">
        <ele>262</ele>
        <time>2012-01-15T11:29:01Z</time>
      </trkpt>
      <trkpt lat="45.84484" lon="4.81914">
        <ele>262</ele>
        <time>2012-01-15T11:29:02Z</time>
      </trkpt>
      <trkpt lat="45.84485" lon="4.81929">
        <ele>258</ele>
        <time>2012-01-15T11:29:06Z</time>
      </trkpt>
      <trkpt lat="45.84484" lon="4.81943">
        <ele>258</ele>
        <time>2012-01-15T11:29:10Z</time>
      </trkpt>
      <trkpt lat="45.84482" lon="4.81955">
        <ele>257</ele>
        <time>2012-01-15T11:29:13Z</time>
      </trkpt>
      <trkpt lat="45.84481" lon="4.81969">
        <ele>256</ele>
        <time>2012-01-15T11:29:17Z</time>
      </trkpt>
      <trkpt lat="45.84481" lon="4.81973">
        <ele>256</ele>
        <time>2012-01-15T11:29:18Z</time>
      </trkpt>
      <trkpt lat="45.84479" lon="4.81995">
        <ele>255</ele>
        <time>2012-01-15T11:29:24Z</time>
      </trkpt>
      <trkpt lat="45.84479" lon="4.81999">
        <ele>254</ele>
        <time>2012-01-15T11:29:25Z</time>
      </trkpt>
      <trkpt lat="45.84477" lon="4.82013">
        <ele>251</ele>
        <time>2012-01-15T11:29:29Z</time>
      </trkpt>
      <trkpt lat="45.84478" lon="4.82016">
        <ele>251</ele>
        <time>2012-01-15T11:29:30Z</time>
      </trkpt>
      <trkpt lat="45.84478" lon="4.82024">
        <ele>250</ele>
        <time>2012-01-15T11:29:32Z</time>
      </trkpt>
      <trkpt lat="45.84479" lon="4.82035">
        <ele>250</ele>
        <time>2012-01-15T11:29:35Z</time>
      </trkpt>
      <trkpt lat="45.84484" lon="4.82052">
        <ele>249</ele>
        <time>2012-01-15T11:29:40Z</time>
      </trkpt>
      <trkpt lat="45.84485" lon="4.82055">
        <ele>248</ele>
        <time>2012-01-15T11:29:41Z</time>
      </trkpt>
      <trkpt lat="45.84492" lon="4.8207">
        <ele>245</ele>
        <time>2012-01-15T11:29:46Z</time>
      </trkpt>
      <trkpt lat="45.84495" lon="4.82073">
        <ele>245</ele>
        <time>2012-01-15T11:29:47Z</time>
      </trkpt>
      <trkpt lat="45.84502" lon="4.82089">
        <ele>242</ele>
        <time>2012-01-15T11:29:52Z</time>
      </trkpt>
      <trkpt lat="45.84504" lon="4.82096">
        <ele>243</ele>
        <time>2012-01-15T11:29:54Z</time>
      </trkpt>
      <trkpt lat="45.84507" lon="4.82103">
        <ele>244</ele>
        <time>2012-01-15T11:29:56Z</time>
      </trkpt>
      <trkpt lat="45.84509" lon="4.82122">
        <ele>244</ele>
        <time>2012-01-15T11:30:01Z</time>
      </trkpt>
      <trkpt lat="45.84509" lon="4.82125">
        <ele>244</ele>
        <time>2012-01-15T11:30:02Z</time>
      </trkpt>
      <trkpt lat="45.84509" lon="4.82149">
        <ele>241</ele>
        <time>2012-01-15T11:30:08Z</time>
      </trkpt>
      <trkpt lat="45.84507" lon="4.82166">
        <ele>237</ele>
        <time>2012-01-15T11:30:13Z</time>
      </trkpt>
      <trkpt lat="45.84507" lon="4.82174">
        <ele>236</ele>
        <time>2012-01-15T11:30:15Z</time>
      </trkpt>
      <trkpt lat="45.84506" lon="4.8219">
        <ele>237</ele>
        <time>2012-01-15T11:30:19Z</time>
      </trkpt>
      <trkpt lat="45.84505" lon="4.82201">
        <ele>238</ele>
        <time>2012-01-15T11:30:22Z</time>
      </trkpt>
      <trkpt lat="45.84504" lon="4.82208">
        <ele>237</ele>
        <time>2012-01-15T11:30:24Z</time>
      </trkpt>
      <trkpt lat="45.84501" lon="4.82226">
        <ele>235</ele>
        <time>2012-01-15T11:30:29Z</time>
      </trkpt>
      <trkpt lat="45.845" lon="4.82234">
        <ele>233</ele>
        <time>2012-01-15T11:30:31Z</time>
      </trkpt>
      <trkpt lat="45.84497" lon="4.82252">
        <ele>227</ele>
        <time>2012-01-15T11:30:36Z</time>
      </trkpt>
      <trkpt lat="45.84495" lon="4.82274">
        <ele>228</ele>
        <time>2012-01-15T11:30:41Z</time>
      </trkpt>
      <trkpt lat="45.84494" lon="4.82278">
        <ele>228</ele>
        <time>2012-01-15T11:30:42Z</time>
      </trkpt>
      <trkpt lat="45.84493" lon="4.82293">
        <ele>227</ele>
        <time>2012-01-15T11:30:46Z</time>
      </trkpt>
      <trkpt lat="45.84491" lon="4.82305">
        <ele>227</ele>
        <time>2012-01-15T11:30:49Z</time>
      </trkpt>
      <trkpt lat="45.84491" lon="4.82312">
        <ele>226</ele>
        <time>2012-01-15T11:30:51Z</time>
      </trkpt>
      <trkpt lat="45.84488" lon="4.82333">
        <ele>224</ele>
        <time>2012-01-15T11:30:57Z</time>
      </trkpt>
      <trkpt lat="45.84487" lon="4.82336">
        <ele>223</ele>
        <time>2012-01-15T11:30:58Z</time>
      </trkpt>
      <trkpt lat="45.84486" lon="4.82353">
        <ele>223</ele>
        <time>2012-01-15T11:31:03Z</time>
      </trkpt>
      <trkpt lat="45.84485" lon="4.8236">
        <ele>223</ele>
        <time>2012-01-15T11:31:05Z</time>
      </trkpt>
      <trkpt lat="45.84484" lon="4.82375">
        <ele>223</ele>
        <time>2012-01-15T11:31:09Z</time>
      </trkpt>
      <trkpt lat="45.84482" lon="4.82386">
        <ele>223</ele>
        <time>2012-01-15T11:31:12Z</time>
      </trkpt>
      <trkpt lat="45.8448" lon="4.82396">
        <ele>222</ele>
        <time>2012-01-15T11:31:15Z</time>
      </trkpt>
      <trkpt lat="45.84479" lon="4.82411">
        <ele>222</ele>
        <time>2012-01-15T11:31:19Z</time>
      </trkpt>
      <trkpt lat="45.84477" lon="4.82422">
        <ele>218</ele>
        <time>2012-01-15T11:31:22Z</time>
      </trkpt>
      <trkpt lat="45.84474" lon="4.82438">
        <ele>218</ele>
        <time>2012-01-15T11:31:26Z</time>
      </trkpt>
      <trkpt lat="45.84473" lon="4.8245">
        <ele>218</ele>
        <time>2012-01-15T11:31:29Z</time>
      </trkpt>
      <trkpt lat="45.84472" lon="4.82465">
        <ele>217</ele>
        <time>2012-01-15T11:31:33Z</time>
      </trkpt>
      <trkpt lat="45.84471" lon="4.82476">
        <ele>217</ele>
        <time>2012-01-15T11:31:36Z</time>
      </trkpt>
      <trkpt lat="45.84471" lon="4.82491">
        <ele>216</ele>
        <time>2012-01-15T11:31:40Z</time>
      </trkpt>
      <trkpt lat="45.8447" lon="4.82503">
        <ele>212</ele>
        <time>2012-01-15T11:31:43Z</time>
      </trkpt>
      <trkpt lat="45.8447" lon="4.8252">
        <ele>211</ele>
        <time>2012-01-15T11:31:47Z</time>
      </trkpt>
      <trkpt lat="45.84471" lon="4.82536">
        <ele>211</ele>
        <time>2012-01-15T11:31:51Z</time>
      </trkpt>
      <trkpt lat="45.84472" lon="4.82549">
        <ele>210</ele>
        <time>2012-01-15T11:31:54Z</time>
      </trkpt>
      <trkpt lat="45.84471" lon="4.82564">
        <ele>209</ele>
        <time>2012-01-15T11:31:58Z</time>
      </trkpt>
      <trkpt lat="45.84469" lon="4.82575">
        <ele>209</ele>
        <time>2012-01-15T11:32:01Z</time>
      </trkpt>
      <trkpt lat="45.84469" lon="4.82582">
        <ele>209</ele>
        <time>2012-01-15T11:32:03Z</time>
      </trkpt>
      <trkpt lat="45.84464" lon="4.82598">
        <ele>203</ele>
        <time>2012-01-15T11:32:08Z</time>
      </trkpt>
      <trkpt lat="45.84463" lon="4.82602">
        <ele>203</ele>
        <time>2012-01-15T11:32:09Z</time>
      </trkpt>
      <trkpt lat="45.84458" lon="4.8262">
        <ele>202</ele>
        <time>2012-01-15T11:32:14Z</time>
      </trkpt>
      <trkpt lat="45.84456" lon="4.82627">
        <ele>202</ele>
        <time>2012-01-15T11:32:16Z</time>
      </trkpt>
      <trkpt lat="45.84455" lon="4.82638">
        <ele>201</ele>
        <time>2012-01-15T11:32:19Z</time>
      </trkpt>
      <trkpt lat="45.84454" lon="4.82652">
        <ele>201</ele>
        <time>2012-01-15T11:32:23Z</time>
      </trkpt>
      <trkpt lat="45.84454" lon="4.82656">
        <ele>201</ele>
        <time>2012-01-15T11:32:24Z</time>
      </trkpt>
      <trkpt lat="45.84454" lon="4.82679">
        <ele>194</ele>
        <time>2012-01-15T11:32:29Z</time>
      </trkpt>
      <trkpt lat="45.84454" lon="4.82684">
        <ele>194</ele>
        <time>2012-01-15T11:32:30Z</time>
      </trkpt>
      <trkpt lat="45.84453" lon="4.82693">
        <ele>194</ele>
        <time>2012-01-15T11:32:33Z</time>
      </trkpt>
      <trkpt lat="45.84452" lon="4.82697">
        <ele>194</ele>
        <time>2012-01-15T11:32:34Z</time>
      </trkpt>
      <trkpt lat="45.84451" lon="4.82711">
        <ele>193</ele>
        <time>2012-01-15T11:32:38Z</time>
      </trkpt>
      <trkpt lat="45.84451" lon="4.82717">
        <ele>192</ele>
        <time>2012-01-15T11:32:40Z</time>
      </trkpt>
      <trkpt lat="45.84452" lon="4.82736">
        <ele>192</ele>
        <time>2012-01-15T11:32:45Z</time>
      </trkpt>
      <trkpt lat="45.84452" lon="4.8274">
        <ele>191</ele>
        <time>2012-01-15T11:32:46Z</time>
      </trkpt>
      <trkpt lat="45.84455" lon="4.82762">
        <ele>186</ele>
        <time>2012-01-15T11:32:51Z</time>
      </trkpt>
      <trkpt lat="45.84456" lon="4.82766">
        <ele>186</ele>
        <time>2012-01-15T11:32:52Z</time>
      </trkpt>
      <trkpt lat="45.84462" lon="4.8278">
        <ele>186</ele>
        <time>2012-01-15T11:32:56Z</time>
      </trkpt>
      <trkpt lat="45.84467" lon="4.82787">
        <ele>186</ele>
        <time>2012-01-15T11:32:59Z</time>
      </trkpt>
      <trkpt lat="45.8447" lon="4.82793">
        <ele>185</ele>
        <time>2012-01-15T11:33:01Z</time>
      </trkpt>
      <trkpt lat="45.8448" lon="4.82807">
        <ele>185</ele>
        <time>2012-01-15T11:33:06Z</time>
      </trkpt>
      <trkpt lat="45.84481" lon="4.8281">
        <ele>185</ele>
        <time>2012-01-15T11:33:07Z</time>
      </trkpt>
      <trkpt lat="45.84488" lon="4.82826">
        <ele>184</ele>
        <time>2012-01-15T11:33:12Z</time>
      </trkpt>
      <trkpt lat="45.84489" lon="4.8283">
        <ele>184</ele>
        <time>2012-01-15T11:33:13Z</time>
      </trkpt>
      <trkpt lat="45.84489" lon="4.82841">
        <ele>182</ele>
        <time>2012-01-15T11:33:16Z</time>
      </trkpt>
      <trkpt lat="45.8449" lon="4.82858">
        <ele>182</ele>
        <time>2012-01-15T11:33:21Z</time>
      </trkpt>
      <trkpt lat="45.8449" lon="4.82861">
        <ele>181</ele>
        <time>2012-01-15T11:33:22Z</time>
      </trkpt>
      <trkpt lat="45.84493" lon="4.82878">
        <ele>181</ele>
        <time>2012-01-15T11:33:27Z</time>
      </trkpt>
      <trkpt lat="45.84492" lon="4.82885">
        <ele>181</ele>
        <time>2012-01-15T11:33:29Z</time>
      </trkpt>
      <trkpt lat="45.8449" lon="4.82897">
        <ele>180</ele>
        <time>2012-01-15T11:33:32Z</time>
      </trkpt>
      <trkpt lat="45.8449" lon="4.82912">
        <ele>180</ele>
        <time>2012-01-15T11:33:36Z</time>
      </trkpt>
      <trkpt lat="45.84491" lon="4.82915">
        <ele>180</ele>
        <time>2012-01-15T11:33:37Z</time>
      </trkpt>
      <trkpt lat="45.84493" lon="4.82927">
        <ele>179</ele>
        <time>2012-01-15T11:33:40Z</time>
      </trkpt>
      <trkpt lat="45.84494" lon="4.82934">
        <ele>178</ele>
        <time>2012-01-15T11:33:42Z</time>
      </trkpt>
      <trkpt lat="45.84495" lon="4.82937">
        <ele>178</ele>
        <time>2012-01-15T11:33:43Z</time>
      </trkpt>
      <trkpt lat="45.84497" lon="4.82952">
        <ele>177</ele>
        <time>2012-01-15T11:33:47Z</time>
      </trkpt>
      <trkpt lat="45.84498" lon="4.82958">
        <ele>177</ele>
        <time>2012-01-15T11:33:49Z</time>
      </trkpt>
      <trkpt lat="45.845" lon="4.82965">
        <ele>177</ele>
        <time>2012-01-15T11:33:51Z</time>
      </trkpt>
      <trkpt lat="45.84502" lon="4.82972">
        <ele>176</ele>
        <time>2012-01-15T11:33:53Z</time>
      </trkpt>
      <trkpt lat="45.84507" lon="4.82991">
        <ele>175</ele>
        <time>2012-01-15T11:33:58Z</time>
      </trkpt>
      <trkpt lat="45.84515" lon="4.83011">
        <ele>173</ele>
        <time>2012-01-15T11:34:04Z</time>
      </trkpt>
      <trkpt lat="45.84516" lon="4.83015">
        <ele>173</ele>
        <time>2012-01-15T11:34:05Z</time>
      </trkpt>
      <trkpt lat="45.84519" lon="4.83029">
        <ele>173</ele>
        <time>2012-01-15T11:34:09Z</time>
      </trkpt>
      <trkpt lat="45.84522" lon="4.83039">
        <ele>172</ele>
        <time>2012-01-15T11:34:12Z</time>
      </trkpt>
      <trkpt lat="45.84523" lon="4.83047">
        <ele>172</ele>
        <time>2012-01-15T11:34:14Z</time>
      </trkpt>
      <trkpt lat="45.84525" lon="4.83067">
        <ele>172</ele>
        <time>2012-01-15T11:34:20Z</time>
      </trkpt>
    </trkseg>
  </trk>
</gpx>